<?xml version="1.0" encoding="UTF-8"?>
<gpx version="1.1" creator="https://www.www-youtrack-es.amenigma.com" xsi:schemaLocation="http://www.topografix.com/GPX/1/1 http://www.topografix.com/GPX/1/1/gpx.xsd http://www.garmin.com/xmlschemas/GpxExtensions/v3 http://www.garmin.com/xmlschemas/GpxExtensionsv3.xsd http://www.garmin.com/xmlschemas/TrackPointExtension/v1 http://www.garmin.com/xmlschemas/TrackPointExtensionv1.xsd" xmlns:gpxtpx="http://www.garmin.com/xmlschemas/TrackPointExtension/v1" xmlns:gpxx="http://www.garmin.com/xmlschemas/GpxExtensions/v3" xmlns:xsi="http://www.w3.org/2001/XMLSchema-instance">
  <metadata>
    <link href="https://www.www-youtrack-es.amenigma.com">
      <text>YouTrack.es</text>
    </link>
    <time>2026-08-31T18:07:37Z</time>
  </metadata>
  <wpt lat="20.311" lon="-97.926">
    <ele>1293.84</ele>
    <name>Intersección</name>
  </wpt>
  <trk>
    <src>https://www.www-youtrack-es.amenigma.com</src>
    <link href="https://www.www-youtrack-es.amenigma.com/ruta/33843-villa-avila-camacho-los-arroyos">
      <text>YouTrack.es</text>
    </link>
    <trkseg>
      <trkpt lat="20.390697" lon="-97.883705">
        <ele>237.524</ele>
        <time>2022-07-06T18:21:41Z</time>
      </trkpt>
      <trkpt lat="20.390744" lon="-97.883675">
        <ele>237.504</ele>
        <time>2022-07-06T18:22:34Z</time>
      </trkpt>
      <trkpt lat="20.390714" lon="-97.883629">
        <ele>237.514</ele>
        <time>2022-07-06T18:22:46Z</time>
      </trkpt>
      <trkpt lat="20.390683" lon="-97.883593">
        <ele>237.509</ele>
        <time>2022-07-06T18:22:49Z</time>
      </trkpt>
      <trkpt lat="20.390636" lon="-97.883558">
        <ele>237.543</ele>
        <time>2022-07-06T18:22:53Z</time>
      </trkpt>
      <trkpt lat="20.39059" lon="-97.883535">
        <ele>237.532</ele>
        <time>2022-07-06T18:22:57Z</time>
      </trkpt>
      <trkpt lat="20.390545" lon="-97.88355">
        <ele>237.529</ele>
        <time>2022-07-06T18:23:02Z</time>
      </trkpt>
      <trkpt lat="20.390494" lon="-97.883564">
        <ele>237.524</ele>
        <time>2022-07-06T18:23:08Z</time>
      </trkpt>
      <trkpt lat="20.390444" lon="-97.883572">
        <ele>237.519</ele>
        <time>2022-07-06T18:23:13Z</time>
      </trkpt>
      <trkpt lat="20.390404" lon="-97.883536">
        <ele>237.590</ele>
        <time>2022-07-06T18:23:17Z</time>
      </trkpt>
      <trkpt lat="20.390354" lon="-97.883503">
        <ele>237.520</ele>
        <time>2022-07-06T18:23:21Z</time>
      </trkpt>
      <trkpt lat="20.3903" lon="-97.883492">
        <ele>237.588</ele>
        <time>2022-07-06T18:23:25Z</time>
      </trkpt>
      <trkpt lat="20.390257" lon="-97.883477">
        <ele>237.561</ele>
        <time>2022-07-06T18:23:29Z</time>
      </trkpt>
      <trkpt lat="20.390208" lon="-97.883458">
        <ele>237.511</ele>
        <time>2022-07-06T18:23:33Z</time>
      </trkpt>
      <trkpt lat="20.390163" lon="-97.883473">
        <ele>237.521</ele>
        <time>2022-07-06T18:23:36Z</time>
      </trkpt>
      <trkpt lat="20.390119" lon="-97.883451">
        <ele>237.503</ele>
        <time>2022-07-06T18:23:40Z</time>
      </trkpt>
      <trkpt lat="20.390078" lon="-97.883425">
        <ele>237.509</ele>
        <time>2022-07-06T18:23:44Z</time>
      </trkpt>
      <trkpt lat="20.390034" lon="-97.883404">
        <ele>237.572</ele>
        <time>2022-07-06T18:23:48Z</time>
      </trkpt>
      <trkpt lat="20.389992" lon="-97.883385">
        <ele>237.581</ele>
        <time>2022-07-06T18:23:52Z</time>
      </trkpt>
      <trkpt lat="20.389949" lon="-97.883358">
        <ele>237.558</ele>
        <time>2022-07-06T18:23:57Z</time>
      </trkpt>
      <trkpt lat="20.389902" lon="-97.883337">
        <ele>240.873</ele>
        <time>2022-07-06T18:24:02Z</time>
      </trkpt>
      <trkpt lat="20.389853" lon="-97.883311">
        <ele>240.758</ele>
        <time>2022-07-06T18:24:06Z</time>
      </trkpt>
      <trkpt lat="20.389812" lon="-97.883289">
        <ele>240.489</ele>
        <time>2022-07-06T18:24:09Z</time>
      </trkpt>
      <trkpt lat="20.389754" lon="-97.883286">
        <ele>240.389</ele>
        <time>2022-07-06T18:24:12Z</time>
      </trkpt>
      <trkpt lat="20.389706" lon="-97.883286">
        <ele>240.237</ele>
        <time>2022-07-06T18:24:17Z</time>
      </trkpt>
      <trkpt lat="20.389652" lon="-97.883288">
        <ele>240.230</ele>
        <time>2022-07-06T18:24:22Z</time>
      </trkpt>
      <trkpt lat="20.389601" lon="-97.883299">
        <ele>240.033</ele>
        <time>2022-07-06T18:24:27Z</time>
      </trkpt>
      <trkpt lat="20.389554" lon="-97.883293">
        <ele>240.123</ele>
        <time>2022-07-06T18:24:32Z</time>
      </trkpt>
      <trkpt lat="20.389516" lon="-97.883267">
        <ele>240.315</ele>
        <time>2022-07-06T18:24:36Z</time>
      </trkpt>
      <trkpt lat="20.389468" lon="-97.883257">
        <ele>240.409</ele>
        <time>2022-07-06T18:24:40Z</time>
      </trkpt>
      <trkpt lat="20.389415" lon="-97.883267">
        <ele>240.864</ele>
        <time>2022-07-06T18:24:44Z</time>
      </trkpt>
      <trkpt lat="20.389365" lon="-97.883248">
        <ele>240.993</ele>
        <time>2022-07-06T18:24:48Z</time>
      </trkpt>
      <trkpt lat="20.389316" lon="-97.883218">
        <ele>241.290</ele>
        <time>2022-07-06T18:24:52Z</time>
      </trkpt>
      <trkpt lat="20.389263" lon="-97.883209">
        <ele>243.455</ele>
        <time>2022-07-06T18:24:56Z</time>
      </trkpt>
      <trkpt lat="20.389209" lon="-97.883208">
        <ele>247.460</ele>
        <time>2022-07-06T18:25:00Z</time>
      </trkpt>
      <trkpt lat="20.389151" lon="-97.883205">
        <ele>248.241</ele>
        <time>2022-07-06T18:25:04Z</time>
      </trkpt>
      <trkpt lat="20.389098" lon="-97.883192">
        <ele>248.151</ele>
        <time>2022-07-06T18:25:09Z</time>
      </trkpt>
      <trkpt lat="20.389048" lon="-97.883206">
        <ele>247.689</ele>
        <time>2022-07-06T18:25:13Z</time>
      </trkpt>
      <trkpt lat="20.389001" lon="-97.883192">
        <ele>246.362</ele>
        <time>2022-07-06T18:25:17Z</time>
      </trkpt>
      <trkpt lat="20.388958" lon="-97.883177">
        <ele>245.928</ele>
        <time>2022-07-06T18:25:21Z</time>
      </trkpt>
      <trkpt lat="20.388901" lon="-97.883157">
        <ele>245.789</ele>
        <time>2022-07-06T18:25:25Z</time>
      </trkpt>
      <trkpt lat="20.388864" lon="-97.883119">
        <ele>245.717</ele>
        <time>2022-07-06T18:25:29Z</time>
      </trkpt>
      <trkpt lat="20.388821" lon="-97.883093">
        <ele>245.709</ele>
        <time>2022-07-06T18:25:33Z</time>
      </trkpt>
      <trkpt lat="20.388772" lon="-97.883071">
        <ele>248.163</ele>
        <time>2022-07-06T18:25:37Z</time>
      </trkpt>
      <trkpt lat="20.388713" lon="-97.883051">
        <ele>248.862</ele>
        <time>2022-07-06T18:25:40Z</time>
      </trkpt>
      <trkpt lat="20.38866" lon="-97.883046">
        <ele>248.969</ele>
        <time>2022-07-06T18:25:44Z</time>
      </trkpt>
      <trkpt lat="20.388618" lon="-97.883027">
        <ele>248.424</ele>
        <time>2022-07-06T18:25:49Z</time>
      </trkpt>
      <trkpt lat="20.388572" lon="-97.883012">
        <ele>246.179</ele>
        <time>2022-07-06T18:25:53Z</time>
      </trkpt>
      <trkpt lat="20.388518" lon="-97.883005">
        <ele>245.750</ele>
        <time>2022-07-06T18:25:57Z</time>
      </trkpt>
      <trkpt lat="20.388464" lon="-97.883007">
        <ele>245.050</ele>
        <time>2022-07-06T18:26:01Z</time>
      </trkpt>
      <trkpt lat="20.388416" lon="-97.883016">
        <ele>244.388</ele>
        <time>2022-07-06T18:26:05Z</time>
      </trkpt>
      <trkpt lat="20.388363" lon="-97.882998">
        <ele>243.121</ele>
        <time>2022-07-06T18:26:09Z</time>
      </trkpt>
      <trkpt lat="20.388323" lon="-97.882976">
        <ele>242.555</ele>
        <time>2022-07-06T18:26:12Z</time>
      </trkpt>
      <trkpt lat="20.388275" lon="-97.88298">
        <ele>242.507</ele>
        <time>2022-07-06T18:26:15Z</time>
      </trkpt>
      <trkpt lat="20.388227" lon="-97.882953">
        <ele>242.617</ele>
        <time>2022-07-06T18:26:19Z</time>
      </trkpt>
      <trkpt lat="20.388196" lon="-97.882918">
        <ele>243.209</ele>
        <time>2022-07-06T18:26:22Z</time>
      </trkpt>
      <trkpt lat="20.388153" lon="-97.882897">
        <ele>243.416</ele>
        <time>2022-07-06T18:26:25Z</time>
      </trkpt>
      <trkpt lat="20.388094" lon="-97.882882">
        <ele>244.255</ele>
        <time>2022-07-06T18:26:28Z</time>
      </trkpt>
      <trkpt lat="20.388045" lon="-97.882874">
        <ele>244.442</ele>
        <time>2022-07-06T18:26:31Z</time>
      </trkpt>
      <trkpt lat="20.388006" lon="-97.882851">
        <ele>244.357</ele>
        <time>2022-07-06T18:26:34Z</time>
      </trkpt>
      <trkpt lat="20.387954" lon="-97.882829">
        <ele>244.932</ele>
        <time>2022-07-06T18:26:39Z</time>
      </trkpt>
      <trkpt lat="20.387907" lon="-97.882821">
        <ele>245.133</ele>
        <time>2022-07-06T18:26:42Z</time>
      </trkpt>
      <trkpt lat="20.387861" lon="-97.882797">
        <ele>245.713</ele>
        <time>2022-07-06T18:26:47Z</time>
      </trkpt>
      <trkpt lat="20.387826" lon="-97.882761">
        <ele>249.651</ele>
        <time>2022-07-06T18:26:52Z</time>
      </trkpt>
      <trkpt lat="20.38779" lon="-97.882726">
        <ele>251.294</ele>
        <time>2022-07-06T18:26:56Z</time>
      </trkpt>
      <trkpt lat="20.387741" lon="-97.882707">
        <ele>251.612</ele>
        <time>2022-07-06T18:27:00Z</time>
      </trkpt>
      <trkpt lat="20.387721" lon="-97.882657">
        <ele>252.032</ele>
        <time>2022-07-06T18:27:04Z</time>
      </trkpt>
      <trkpt lat="20.387672" lon="-97.882629">
        <ele>252.705</ele>
        <time>2022-07-06T18:27:08Z</time>
      </trkpt>
      <trkpt lat="20.387623" lon="-97.882623">
        <ele>253.009</ele>
        <time>2022-07-06T18:27:11Z</time>
      </trkpt>
      <trkpt lat="20.387565" lon="-97.882628">
        <ele>253.642</ele>
        <time>2022-07-06T18:27:15Z</time>
      </trkpt>
      <trkpt lat="20.387517" lon="-97.882651">
        <ele>254.471</ele>
        <time>2022-07-06T18:27:18Z</time>
      </trkpt>
      <trkpt lat="20.387476" lon="-97.882698">
        <ele>254.688</ele>
        <time>2022-07-06T18:27:21Z</time>
      </trkpt>
      <trkpt lat="20.387433" lon="-97.882722">
        <ele>254.683</ele>
        <time>2022-07-06T18:27:25Z</time>
      </trkpt>
      <trkpt lat="20.387381" lon="-97.882704">
        <ele>254.668</ele>
        <time>2022-07-06T18:27:29Z</time>
      </trkpt>
      <trkpt lat="20.387341" lon="-97.882679">
        <ele>254.229</ele>
        <time>2022-07-06T18:27:32Z</time>
      </trkpt>
      <trkpt lat="20.387304" lon="-97.88263">
        <ele>253.589</ele>
        <time>2022-07-06T18:27:35Z</time>
      </trkpt>
      <trkpt lat="20.38726" lon="-97.882585">
        <ele>253.527</ele>
        <time>2022-07-06T18:27:38Z</time>
      </trkpt>
      <trkpt lat="20.38722" lon="-97.882548">
        <ele>253.890</ele>
        <time>2022-07-06T18:27:41Z</time>
      </trkpt>
      <trkpt lat="20.387203" lon="-97.882481">
        <ele>255.784</ele>
        <time>2022-07-06T18:27:44Z</time>
      </trkpt>
      <trkpt lat="20.38716" lon="-97.882497">
        <ele>254.807</ele>
        <time>2022-07-06T18:27:52Z</time>
      </trkpt>
      <trkpt lat="20.387116" lon="-97.882481">
        <ele>251.917</ele>
        <time>2022-07-06T18:27:55Z</time>
      </trkpt>
      <trkpt lat="20.387072" lon="-97.882451">
        <ele>251.509</ele>
        <time>2022-07-06T18:27:58Z</time>
      </trkpt>
      <trkpt lat="20.387031" lon="-97.88242">
        <ele>250.189</ele>
        <time>2022-07-06T18:28:02Z</time>
      </trkpt>
      <trkpt lat="20.386993" lon="-97.882383">
        <ele>248.438</ele>
        <time>2022-07-06T18:28:05Z</time>
      </trkpt>
      <trkpt lat="20.38694" lon="-97.882391">
        <ele>244.525</ele>
        <time>2022-07-06T18:28:08Z</time>
      </trkpt>
      <trkpt lat="20.386882" lon="-97.882348">
        <ele>242.150</ele>
        <time>2022-07-06T18:28:11Z</time>
      </trkpt>
      <trkpt lat="20.386843" lon="-97.882297">
        <ele>240.095</ele>
        <time>2022-07-06T18:28:14Z</time>
      </trkpt>
      <trkpt lat="20.386801" lon="-97.882264">
        <ele>239.856</ele>
        <time>2022-07-06T18:28:17Z</time>
      </trkpt>
      <trkpt lat="20.38677" lon="-97.882218">
        <ele>239.746</ele>
        <time>2022-07-06T18:28:22Z</time>
      </trkpt>
      <trkpt lat="20.386728" lon="-97.882238">
        <ele>239.654</ele>
        <time>2022-07-06T18:28:26Z</time>
      </trkpt>
      <trkpt lat="20.386715" lon="-97.882288">
        <ele>239.437</ele>
        <time>2022-07-06T18:28:29Z</time>
      </trkpt>
      <trkpt lat="20.386679" lon="-97.882338">
        <ele>239.362</ele>
        <time>2022-07-06T18:28:33Z</time>
      </trkpt>
      <trkpt lat="20.386637" lon="-97.882367">
        <ele>239.383</ele>
        <time>2022-07-06T18:28:36Z</time>
      </trkpt>
      <trkpt lat="20.386594" lon="-97.882346">
        <ele>239.411</ele>
        <time>2022-07-06T18:28:41Z</time>
      </trkpt>
      <trkpt lat="20.386543" lon="-97.88236">
        <ele>239.809</ele>
        <time>2022-07-06T18:28:45Z</time>
      </trkpt>
      <trkpt lat="20.386494" lon="-97.882357">
        <ele>240.327</ele>
        <time>2022-07-06T18:28:49Z</time>
      </trkpt>
      <trkpt lat="20.386462" lon="-97.882312">
        <ele>241.436</ele>
        <time>2022-07-06T18:28:53Z</time>
      </trkpt>
      <trkpt lat="20.386421" lon="-97.882279">
        <ele>241.933</ele>
        <time>2022-07-06T18:28:57Z</time>
      </trkpt>
      <trkpt lat="20.386378" lon="-97.88225">
        <ele>242.438</ele>
        <time>2022-07-06T18:29:01Z</time>
      </trkpt>
      <trkpt lat="20.386348" lon="-97.882204">
        <ele>242.493</ele>
        <time>2022-07-06T18:29:05Z</time>
      </trkpt>
      <trkpt lat="20.386312" lon="-97.882174">
        <ele>241.834</ele>
        <time>2022-07-06T18:29:08Z</time>
      </trkpt>
      <trkpt lat="20.386272" lon="-97.882143">
        <ele>239.824</ele>
        <time>2022-07-06T18:29:11Z</time>
      </trkpt>
      <trkpt lat="20.386226" lon="-97.882117">
        <ele>239.782</ele>
        <time>2022-07-06T18:29:14Z</time>
      </trkpt>
      <trkpt lat="20.386183" lon="-97.882133">
        <ele>239.775</ele>
        <time>2022-07-06T18:29:16Z</time>
      </trkpt>
      <trkpt lat="20.386138" lon="-97.882131">
        <ele>239.658</ele>
        <time>2022-07-06T18:29:18Z</time>
      </trkpt>
      <trkpt lat="20.386096" lon="-97.882099">
        <ele>239.552</ele>
        <time>2022-07-06T18:29:20Z</time>
      </trkpt>
      <trkpt lat="20.386056" lon="-97.882063">
        <ele>239.517</ele>
        <time>2022-07-06T18:29:22Z</time>
      </trkpt>
      <trkpt lat="20.386032" lon="-97.882017">
        <ele>237.509</ele>
        <time>2022-07-06T18:29:25Z</time>
      </trkpt>
      <trkpt lat="20.385986" lon="-97.881995">
        <ele>237.526</ele>
        <time>2022-07-06T18:29:34Z</time>
      </trkpt>
      <trkpt lat="20.385971" lon="-97.881939">
        <ele>236.915</ele>
        <time>2022-07-06T18:29:37Z</time>
      </trkpt>
      <trkpt lat="20.38595" lon="-97.881885">
        <ele>237.122</ele>
        <time>2022-07-06T18:29:40Z</time>
      </trkpt>
      <trkpt lat="20.385918" lon="-97.881846">
        <ele>238.087</ele>
        <time>2022-07-06T18:29:43Z</time>
      </trkpt>
      <trkpt lat="20.385894" lon="-97.881804">
        <ele>238.342</ele>
        <time>2022-07-06T18:29:47Z</time>
      </trkpt>
      <trkpt lat="20.385871" lon="-97.88175">
        <ele>240.183</ele>
        <time>2022-07-06T18:29:50Z</time>
      </trkpt>
      <trkpt lat="20.385835" lon="-97.881692">
        <ele>241.433</ele>
        <time>2022-07-06T18:29:53Z</time>
      </trkpt>
      <trkpt lat="20.385795" lon="-97.881647">
        <ele>243.171</ele>
        <time>2022-07-06T18:29:56Z</time>
      </trkpt>
      <trkpt lat="20.385753" lon="-97.881599">
        <ele>245.194</ele>
        <time>2022-07-06T18:30:00Z</time>
      </trkpt>
      <trkpt lat="20.385697" lon="-97.881572">
        <ele>245.694</ele>
        <time>2022-07-06T18:30:03Z</time>
      </trkpt>
      <trkpt lat="20.385641" lon="-97.881534">
        <ele>246.057</ele>
        <time>2022-07-06T18:30:06Z</time>
      </trkpt>
      <trkpt lat="20.385603" lon="-97.881482">
        <ele>245.522</ele>
        <time>2022-07-06T18:30:09Z</time>
      </trkpt>
      <trkpt lat="20.385575" lon="-97.881443">
        <ele>245.609</ele>
        <time>2022-07-06T18:30:12Z</time>
      </trkpt>
      <trkpt lat="20.385536" lon="-97.881398">
        <ele>245.640</ele>
        <time>2022-07-06T18:30:16Z</time>
      </trkpt>
      <trkpt lat="20.385489" lon="-97.881369">
        <ele>245.769</ele>
        <time>2022-07-06T18:30:20Z</time>
      </trkpt>
      <trkpt lat="20.385449" lon="-97.881339">
        <ele>245.936</ele>
        <time>2022-07-06T18:30:24Z</time>
      </trkpt>
      <trkpt lat="20.385411" lon="-97.881308">
        <ele>246.511</ele>
        <time>2022-07-06T18:30:28Z</time>
      </trkpt>
      <trkpt lat="20.385372" lon="-97.881266">
        <ele>248.316</ele>
        <time>2022-07-06T18:30:32Z</time>
      </trkpt>
      <trkpt lat="20.38534" lon="-97.88122">
        <ele>249.257</ele>
        <time>2022-07-06T18:30:36Z</time>
      </trkpt>
      <trkpt lat="20.385313" lon="-97.881174">
        <ele>249.387</ele>
        <time>2022-07-06T18:30:40Z</time>
      </trkpt>
      <trkpt lat="20.385259" lon="-97.881147">
        <ele>249.235</ele>
        <time>2022-07-06T18:30:44Z</time>
      </trkpt>
      <trkpt lat="20.385203" lon="-97.881143">
        <ele>248.328</ele>
        <time>2022-07-06T18:30:47Z</time>
      </trkpt>
      <trkpt lat="20.385162" lon="-97.881174">
        <ele>246.234</ele>
        <time>2022-07-06T18:30:50Z</time>
      </trkpt>
      <trkpt lat="20.385117" lon="-97.881195">
        <ele>245.055</ele>
        <time>2022-07-06T18:30:54Z</time>
      </trkpt>
      <trkpt lat="20.385074" lon="-97.881165">
        <ele>244.710</ele>
        <time>2022-07-06T18:30:57Z</time>
      </trkpt>
      <trkpt lat="20.385034" lon="-97.881203">
        <ele>245.109</ele>
        <time>2022-07-06T18:30:59Z</time>
      </trkpt>
      <trkpt lat="20.385007" lon="-97.881246">
        <ele>245.754</ele>
        <time>2022-07-06T18:31:01Z</time>
      </trkpt>
      <trkpt lat="20.384977" lon="-97.881295">
        <ele>247.033</ele>
        <time>2022-07-06T18:31:04Z</time>
      </trkpt>
      <trkpt lat="20.384949" lon="-97.881339">
        <ele>247.060</ele>
        <time>2022-07-06T18:31:07Z</time>
      </trkpt>
      <trkpt lat="20.384911" lon="-97.88137">
        <ele>246.565</ele>
        <time>2022-07-06T18:31:10Z</time>
      </trkpt>
      <trkpt lat="20.384867" lon="-97.881384">
        <ele>245.570</ele>
        <time>2022-07-06T18:31:13Z</time>
      </trkpt>
      <trkpt lat="20.384822" lon="-97.881429">
        <ele>245.151</ele>
        <time>2022-07-06T18:31:17Z</time>
      </trkpt>
      <trkpt lat="20.384804" lon="-97.881479">
        <ele>244.711</ele>
        <time>2022-07-06T18:31:20Z</time>
      </trkpt>
      <trkpt lat="20.384788" lon="-97.881539">
        <ele>244.499</ele>
        <time>2022-07-06T18:31:24Z</time>
      </trkpt>
      <trkpt lat="20.384788" lon="-97.881598">
        <ele>244.072</ele>
        <time>2022-07-06T18:31:27Z</time>
      </trkpt>
      <trkpt lat="20.384737" lon="-97.881599">
        <ele>243.885</ele>
        <time>2022-07-06T18:31:30Z</time>
      </trkpt>
      <trkpt lat="20.38468" lon="-97.881574">
        <ele>244.089</ele>
        <time>2022-07-06T18:31:33Z</time>
      </trkpt>
      <trkpt lat="20.384636" lon="-97.881541">
        <ele>243.817</ele>
        <time>2022-07-06T18:31:36Z</time>
      </trkpt>
      <trkpt lat="20.3846" lon="-97.88149">
        <ele>243.509</ele>
        <time>2022-07-06T18:31:39Z</time>
      </trkpt>
      <trkpt lat="20.384578" lon="-97.881436">
        <ele>243.969</ele>
        <time>2022-07-06T18:31:42Z</time>
      </trkpt>
      <trkpt lat="20.38454" lon="-97.881402">
        <ele>244.258</ele>
        <time>2022-07-06T18:31:45Z</time>
      </trkpt>
      <trkpt lat="20.384498" lon="-97.881379">
        <ele>245.875</ele>
        <time>2022-07-06T18:31:48Z</time>
      </trkpt>
      <trkpt lat="20.384452" lon="-97.881339">
        <ele>247.120</ele>
        <time>2022-07-06T18:31:52Z</time>
      </trkpt>
      <trkpt lat="20.384419" lon="-97.881305">
        <ele>247.635</ele>
        <time>2022-07-06T18:31:55Z</time>
      </trkpt>
      <trkpt lat="20.384385" lon="-97.881271">
        <ele>247.886</ele>
        <time>2022-07-06T18:31:58Z</time>
      </trkpt>
      <trkpt lat="20.384345" lon="-97.881228">
        <ele>248.636</ele>
        <time>2022-07-06T18:32:02Z</time>
      </trkpt>
      <trkpt lat="20.384307" lon="-97.881187">
        <ele>252.064</ele>
        <time>2022-07-06T18:32:06Z</time>
      </trkpt>
      <trkpt lat="20.384268" lon="-97.881148">
        <ele>252.017</ele>
        <time>2022-07-06T18:32:10Z</time>
      </trkpt>
      <trkpt lat="20.384224" lon="-97.881117">
        <ele>252.047</ele>
        <time>2022-07-06T18:32:14Z</time>
      </trkpt>
      <trkpt lat="20.384181" lon="-97.881098">
        <ele>251.229</ele>
        <time>2022-07-06T18:32:18Z</time>
      </trkpt>
      <trkpt lat="20.384142" lon="-97.881063">
        <ele>250.621</ele>
        <time>2022-07-06T18:32:22Z</time>
      </trkpt>
      <trkpt lat="20.384085" lon="-97.881045">
        <ele>250.509</ele>
        <time>2022-07-06T18:32:25Z</time>
      </trkpt>
      <trkpt lat="20.384057" lon="-97.880997">
        <ele>250.025</ele>
        <time>2022-07-06T18:32:28Z</time>
      </trkpt>
      <trkpt lat="20.384051" lon="-97.880945">
        <ele>249.564</ele>
        <time>2022-07-06T18:32:31Z</time>
      </trkpt>
      <trkpt lat="20.384038" lon="-97.880894">
        <ele>249.281</ele>
        <time>2022-07-06T18:32:35Z</time>
      </trkpt>
      <trkpt lat="20.384001" lon="-97.88085">
        <ele>247.246</ele>
        <time>2022-07-06T18:32:39Z</time>
      </trkpt>
      <trkpt lat="20.383951" lon="-97.880833">
        <ele>247.311</ele>
        <time>2022-07-06T18:32:42Z</time>
      </trkpt>
      <trkpt lat="20.383907" lon="-97.880802">
        <ele>247.222</ele>
        <time>2022-07-06T18:32:46Z</time>
      </trkpt>
      <trkpt lat="20.383862" lon="-97.88077">
        <ele>247.112</ele>
        <time>2022-07-06T18:32:50Z</time>
      </trkpt>
      <trkpt lat="20.383816" lon="-97.880764">
        <ele>247.470</ele>
        <time>2022-07-06T18:32:53Z</time>
      </trkpt>
      <trkpt lat="20.38377" lon="-97.880776">
        <ele>247.553</ele>
        <time>2022-07-06T18:32:55Z</time>
      </trkpt>
      <trkpt lat="20.383724" lon="-97.880798">
        <ele>247.869</ele>
        <time>2022-07-06T18:32:57Z</time>
      </trkpt>
      <trkpt lat="20.383682" lon="-97.880818">
        <ele>248.004</ele>
        <time>2022-07-06T18:32:59Z</time>
      </trkpt>
      <trkpt lat="20.383635" lon="-97.880802">
        <ele>248.324</ele>
        <time>2022-07-06T18:33:02Z</time>
      </trkpt>
      <trkpt lat="20.383592" lon="-97.880785">
        <ele>248.509</ele>
        <time>2022-07-06T18:33:06Z</time>
      </trkpt>
      <trkpt lat="20.383542" lon="-97.880807">
        <ele>253.197</ele>
        <time>2022-07-06T18:33:10Z</time>
      </trkpt>
      <trkpt lat="20.383487" lon="-97.880821">
        <ele>254.076</ele>
        <time>2022-07-06T18:33:14Z</time>
      </trkpt>
      <trkpt lat="20.383436" lon="-97.880837">
        <ele>254.953</ele>
        <time>2022-07-06T18:33:18Z</time>
      </trkpt>
      <trkpt lat="20.383398" lon="-97.88087">
        <ele>255.038</ele>
        <time>2022-07-06T18:33:21Z</time>
      </trkpt>
      <trkpt lat="20.383348" lon="-97.880882">
        <ele>255.383</ele>
        <time>2022-07-06T18:33:24Z</time>
      </trkpt>
      <trkpt lat="20.383301" lon="-97.880892">
        <ele>255.514</ele>
        <time>2022-07-06T18:33:27Z</time>
      </trkpt>
      <trkpt lat="20.383244" lon="-97.880881">
        <ele>255.514</ele>
        <time>2022-07-06T18:33:31Z</time>
      </trkpt>
      <trkpt lat="20.383195" lon="-97.880846">
        <ele>255.212</ele>
        <time>2022-07-06T18:33:34Z</time>
      </trkpt>
      <trkpt lat="20.383147" lon="-97.880849">
        <ele>255.655</ele>
        <time>2022-07-06T18:33:37Z</time>
      </trkpt>
      <trkpt lat="20.383094" lon="-97.880855">
        <ele>254.797</ele>
        <time>2022-07-06T18:33:41Z</time>
      </trkpt>
      <trkpt lat="20.383039" lon="-97.880868">
        <ele>256.023</ele>
        <time>2022-07-06T18:33:46Z</time>
      </trkpt>
      <trkpt lat="20.382997" lon="-97.880901">
        <ele>259.525</ele>
        <time>2022-07-06T18:33:49Z</time>
      </trkpt>
      <trkpt lat="20.382959" lon="-97.880937">
        <ele>260.509</ele>
        <time>2022-07-06T18:33:52Z</time>
      </trkpt>
      <trkpt lat="20.382913" lon="-97.880946">
        <ele>260.270</ele>
        <time>2022-07-06T18:33:56Z</time>
      </trkpt>
      <trkpt lat="20.382873" lon="-97.880971">
        <ele>260.299</ele>
        <time>2022-07-06T18:33:59Z</time>
      </trkpt>
      <trkpt lat="20.382833" lon="-97.880995">
        <ele>258.296</ele>
        <time>2022-07-06T18:34:02Z</time>
      </trkpt>
      <trkpt lat="20.382782" lon="-97.881011">
        <ele>257.091</ele>
        <time>2022-07-06T18:34:06Z</time>
      </trkpt>
      <trkpt lat="20.382735" lon="-97.881038">
        <ele>256.556</ele>
        <time>2022-07-06T18:34:10Z</time>
      </trkpt>
      <trkpt lat="20.38269" lon="-97.881065">
        <ele>255.977</ele>
        <time>2022-07-06T18:34:14Z</time>
      </trkpt>
      <trkpt lat="20.382655" lon="-97.881108">
        <ele>255.787</ele>
        <time>2022-07-06T18:34:18Z</time>
      </trkpt>
      <trkpt lat="20.382612" lon="-97.881148">
        <ele>254.775</ele>
        <time>2022-07-06T18:34:22Z</time>
      </trkpt>
      <trkpt lat="20.382568" lon="-97.881165">
        <ele>254.568</ele>
        <time>2022-07-06T18:34:25Z</time>
      </trkpt>
      <trkpt lat="20.382518" lon="-97.881157">
        <ele>254.345</ele>
        <time>2022-07-06T18:34:29Z</time>
      </trkpt>
      <trkpt lat="20.382466" lon="-97.881161">
        <ele>254.247</ele>
        <time>2022-07-06T18:34:33Z</time>
      </trkpt>
      <trkpt lat="20.382411" lon="-97.88116">
        <ele>253.911</ele>
        <time>2022-07-06T18:34:37Z</time>
      </trkpt>
      <trkpt lat="20.382358" lon="-97.881159">
        <ele>253.909</ele>
        <time>2022-07-06T18:34:41Z</time>
      </trkpt>
      <trkpt lat="20.382313" lon="-97.881193">
        <ele>253.415</ele>
        <time>2022-07-06T18:34:44Z</time>
      </trkpt>
      <trkpt lat="20.382264" lon="-97.881224">
        <ele>250.264</ele>
        <time>2022-07-06T18:34:48Z</time>
      </trkpt>
      <trkpt lat="20.382221" lon="-97.881258">
        <ele>249.441</ele>
        <time>2022-07-06T18:34:53Z</time>
      </trkpt>
      <trkpt lat="20.382169" lon="-97.88128">
        <ele>248.836</ele>
        <time>2022-07-06T18:34:58Z</time>
      </trkpt>
      <trkpt lat="20.38212" lon="-97.881272">
        <ele>248.821</ele>
        <time>2022-07-06T18:35:01Z</time>
      </trkpt>
      <trkpt lat="20.382058" lon="-97.881287">
        <ele>248.922</ele>
        <time>2022-07-06T18:35:04Z</time>
      </trkpt>
      <trkpt lat="20.381997" lon="-97.881296">
        <ele>248.742</ele>
        <time>2022-07-06T18:35:07Z</time>
      </trkpt>
      <trkpt lat="20.381939" lon="-97.881318">
        <ele>248.460</ele>
        <time>2022-07-06T18:35:10Z</time>
      </trkpt>
      <trkpt lat="20.381895" lon="-97.881332">
        <ele>248.263</ele>
        <time>2022-07-06T18:35:12Z</time>
      </trkpt>
      <trkpt lat="20.381829" lon="-97.881344">
        <ele>247.595</ele>
        <time>2022-07-06T18:35:15Z</time>
      </trkpt>
      <trkpt lat="20.381784" lon="-97.881343">
        <ele>247.549</ele>
        <time>2022-07-06T18:35:17Z</time>
      </trkpt>
      <trkpt lat="20.381736" lon="-97.881336">
        <ele>246.723</ele>
        <time>2022-07-06T18:35:19Z</time>
      </trkpt>
      <trkpt lat="20.381685" lon="-97.881348">
        <ele>246.409</ele>
        <time>2022-07-06T18:35:21Z</time>
      </trkpt>
      <trkpt lat="20.38164" lon="-97.881361">
        <ele>246.730</ele>
        <time>2022-07-06T18:35:23Z</time>
      </trkpt>
      <trkpt lat="20.381574" lon="-97.881377">
        <ele>247.559</ele>
        <time>2022-07-06T18:35:26Z</time>
      </trkpt>
      <trkpt lat="20.381528" lon="-97.881383">
        <ele>247.256</ele>
        <time>2022-07-06T18:35:28Z</time>
      </trkpt>
      <trkpt lat="20.381483" lon="-97.881386">
        <ele>246.891</ele>
        <time>2022-07-06T18:35:30Z</time>
      </trkpt>
      <trkpt lat="20.381434" lon="-97.881399">
        <ele>246.866</ele>
        <time>2022-07-06T18:35:32Z</time>
      </trkpt>
      <trkpt lat="20.381389" lon="-97.881405">
        <ele>246.447</ele>
        <time>2022-07-06T18:35:34Z</time>
      </trkpt>
      <trkpt lat="20.381342" lon="-97.88141">
        <ele>245.087</ele>
        <time>2022-07-06T18:35:36Z</time>
      </trkpt>
      <trkpt lat="20.381294" lon="-97.881436">
        <ele>243.415</ele>
        <time>2022-07-06T18:35:38Z</time>
      </trkpt>
      <trkpt lat="20.381248" lon="-97.881466">
        <ele>243.458</ele>
        <time>2022-07-06T18:35:40Z</time>
      </trkpt>
      <trkpt lat="20.381203" lon="-97.881492">
        <ele>243.019</ele>
        <time>2022-07-06T18:35:42Z</time>
      </trkpt>
      <trkpt lat="20.381151" lon="-97.881516">
        <ele>245.409</ele>
        <time>2022-07-06T18:35:45Z</time>
      </trkpt>
      <trkpt lat="20.381098" lon="-97.881531">
        <ele>246.319</ele>
        <time>2022-07-06T18:35:49Z</time>
      </trkpt>
      <trkpt lat="20.381056" lon="-97.88155">
        <ele>246.909</ele>
        <time>2022-07-06T18:35:52Z</time>
      </trkpt>
      <trkpt lat="20.381008" lon="-97.881579">
        <ele>247.592</ele>
        <time>2022-07-06T18:35:56Z</time>
      </trkpt>
      <trkpt lat="20.380965" lon="-97.881593">
        <ele>247.781</ele>
        <time>2022-07-06T18:35:59Z</time>
      </trkpt>
      <trkpt lat="20.380919" lon="-97.881599">
        <ele>248.188</ele>
        <time>2022-07-06T18:36:02Z</time>
      </trkpt>
      <trkpt lat="20.380874" lon="-97.881603">
        <ele>249.023</ele>
        <time>2022-07-06T18:36:05Z</time>
      </trkpt>
      <trkpt lat="20.380821" lon="-97.881607">
        <ele>250.228</ele>
        <time>2022-07-06T18:36:09Z</time>
      </trkpt>
      <trkpt lat="20.380775" lon="-97.881614">
        <ele>252.169</ele>
        <time>2022-07-06T18:36:12Z</time>
      </trkpt>
      <trkpt lat="20.380709" lon="-97.881622">
        <ele>253.839</ele>
        <time>2022-07-06T18:36:15Z</time>
      </trkpt>
      <trkpt lat="20.380665" lon="-97.881645">
        <ele>254.527</ele>
        <time>2022-07-06T18:36:17Z</time>
      </trkpt>
      <trkpt lat="20.380624" lon="-97.881668">
        <ele>255.560</ele>
        <time>2022-07-06T18:36:19Z</time>
      </trkpt>
      <trkpt lat="20.380564" lon="-97.881691">
        <ele>256.275</ele>
        <time>2022-07-06T18:36:22Z</time>
      </trkpt>
      <trkpt lat="20.380501" lon="-97.881707">
        <ele>256.628</ele>
        <time>2022-07-06T18:36:25Z</time>
      </trkpt>
      <trkpt lat="20.380443" lon="-97.881722">
        <ele>256.620</ele>
        <time>2022-07-06T18:36:28Z</time>
      </trkpt>
      <trkpt lat="20.380383" lon="-97.88175">
        <ele>256.109</ele>
        <time>2022-07-06T18:36:31Z</time>
      </trkpt>
      <trkpt lat="20.380349" lon="-97.881783">
        <ele>255.288</ele>
        <time>2022-07-06T18:36:33Z</time>
      </trkpt>
      <trkpt lat="20.380301" lon="-97.881818">
        <ele>254.497</ele>
        <time>2022-07-06T18:36:36Z</time>
      </trkpt>
      <trkpt lat="20.380252" lon="-97.881799">
        <ele>254.444</ele>
        <time>2022-07-06T18:36:40Z</time>
      </trkpt>
      <trkpt lat="20.380203" lon="-97.881775">
        <ele>254.569</ele>
        <time>2022-07-06T18:36:44Z</time>
      </trkpt>
      <trkpt lat="20.380148" lon="-97.881809">
        <ele>254.974</ele>
        <time>2022-07-06T18:36:47Z</time>
      </trkpt>
      <trkpt lat="20.380116" lon="-97.881843">
        <ele>254.925</ele>
        <time>2022-07-06T18:36:49Z</time>
      </trkpt>
      <trkpt lat="20.380067" lon="-97.881886">
        <ele>254.935</ele>
        <time>2022-07-06T18:36:52Z</time>
      </trkpt>
      <trkpt lat="20.380041" lon="-97.881931">
        <ele>254.793</ele>
        <time>2022-07-06T18:36:54Z</time>
      </trkpt>
      <trkpt lat="20.38001" lon="-97.881966">
        <ele>254.216</ele>
        <time>2022-07-06T18:36:56Z</time>
      </trkpt>
      <trkpt lat="20.379965" lon="-97.881961">
        <ele>254.112</ele>
        <time>2022-07-06T18:36:58Z</time>
      </trkpt>
      <trkpt lat="20.379917" lon="-97.881945">
        <ele>254.432</ele>
        <time>2022-07-06T18:37:00Z</time>
      </trkpt>
      <trkpt lat="20.379852" lon="-97.881952">
        <ele>255.105</ele>
        <time>2022-07-06T18:37:03Z</time>
      </trkpt>
      <trkpt lat="20.379795" lon="-97.881953">
        <ele>255.509</ele>
        <time>2022-07-06T18:37:06Z</time>
      </trkpt>
      <trkpt lat="20.379746" lon="-97.881977">
        <ele>255.452</ele>
        <time>2022-07-06T18:37:10Z</time>
      </trkpt>
      <trkpt lat="20.379691" lon="-97.882002">
        <ele>254.861</ele>
        <time>2022-07-06T18:37:14Z</time>
      </trkpt>
      <trkpt lat="20.379633" lon="-97.882009">
        <ele>254.368</ele>
        <time>2022-07-06T18:37:17Z</time>
      </trkpt>
      <trkpt lat="20.379577" lon="-97.882016">
        <ele>253.673</ele>
        <time>2022-07-06T18:37:20Z</time>
      </trkpt>
      <trkpt lat="20.37952" lon="-97.882041">
        <ele>253.168</ele>
        <time>2022-07-06T18:37:23Z</time>
      </trkpt>
      <trkpt lat="20.379474" lon="-97.882051">
        <ele>252.959</ele>
        <time>2022-07-06T18:37:26Z</time>
      </trkpt>
      <trkpt lat="20.379413" lon="-97.882054">
        <ele>252.379</ele>
        <time>2022-07-06T18:37:29Z</time>
      </trkpt>
      <trkpt lat="20.379365" lon="-97.882057">
        <ele>251.197</ele>
        <time>2022-07-06T18:37:31Z</time>
      </trkpt>
      <trkpt lat="20.379321" lon="-97.882074">
        <ele>250.550</ele>
        <time>2022-07-06T18:37:33Z</time>
      </trkpt>
      <trkpt lat="20.379277" lon="-97.882092">
        <ele>248.162</ele>
        <time>2022-07-06T18:37:35Z</time>
      </trkpt>
      <trkpt lat="20.37923" lon="-97.882105">
        <ele>247.383</ele>
        <time>2022-07-06T18:37:37Z</time>
      </trkpt>
      <trkpt lat="20.379182" lon="-97.882119">
        <ele>247.011</ele>
        <time>2022-07-06T18:37:39Z</time>
      </trkpt>
      <trkpt lat="20.379133" lon="-97.882136">
        <ele>246.209</ele>
        <time>2022-07-06T18:37:41Z</time>
      </trkpt>
      <trkpt lat="20.379084" lon="-97.882156">
        <ele>246.017</ele>
        <time>2022-07-06T18:37:43Z</time>
      </trkpt>
      <trkpt lat="20.379039" lon="-97.882174">
        <ele>245.756</ele>
        <time>2022-07-06T18:37:45Z</time>
      </trkpt>
      <trkpt lat="20.378994" lon="-97.882199">
        <ele>245.793</ele>
        <time>2022-07-06T18:37:47Z</time>
      </trkpt>
      <trkpt lat="20.378949" lon="-97.882224">
        <ele>245.618</ele>
        <time>2022-07-06T18:37:49Z</time>
      </trkpt>
      <trkpt lat="20.378904" lon="-97.88225">
        <ele>245.683</ele>
        <time>2022-07-06T18:37:51Z</time>
      </trkpt>
      <trkpt lat="20.378859" lon="-97.882274">
        <ele>245.234</ele>
        <time>2022-07-06T18:37:53Z</time>
      </trkpt>
      <trkpt lat="20.378795" lon="-97.882289">
        <ele>244.854</ele>
        <time>2022-07-06T18:37:56Z</time>
      </trkpt>
      <trkpt lat="20.378731" lon="-97.882311">
        <ele>245.292</ele>
        <time>2022-07-06T18:37:59Z</time>
      </trkpt>
      <trkpt lat="20.378687" lon="-97.882327">
        <ele>245.615</ele>
        <time>2022-07-06T18:38:01Z</time>
      </trkpt>
      <trkpt lat="20.378625" lon="-97.882346">
        <ele>245.099</ele>
        <time>2022-07-06T18:38:04Z</time>
      </trkpt>
      <trkpt lat="20.378578" lon="-97.882347">
        <ele>244.807</ele>
        <time>2022-07-06T18:38:06Z</time>
      </trkpt>
      <trkpt lat="20.378532" lon="-97.882363">
        <ele>244.527</ele>
        <time>2022-07-06T18:38:08Z</time>
      </trkpt>
      <trkpt lat="20.378486" lon="-97.882372">
        <ele>244.309</ele>
        <time>2022-07-06T18:38:10Z</time>
      </trkpt>
      <trkpt lat="20.378438" lon="-97.882377">
        <ele>244.320</ele>
        <time>2022-07-06T18:38:12Z</time>
      </trkpt>
      <trkpt lat="20.378389" lon="-97.882383">
        <ele>244.459</ele>
        <time>2022-07-06T18:38:14Z</time>
      </trkpt>
      <trkpt lat="20.378325" lon="-97.88239">
        <ele>245.346</ele>
        <time>2022-07-06T18:38:17Z</time>
      </trkpt>
      <trkpt lat="20.378281" lon="-97.882406">
        <ele>246.961</ele>
        <time>2022-07-06T18:38:19Z</time>
      </trkpt>
      <trkpt lat="20.378236" lon="-97.882424">
        <ele>248.726</ele>
        <time>2022-07-06T18:38:21Z</time>
      </trkpt>
      <trkpt lat="20.378185" lon="-97.882443">
        <ele>250.587</ele>
        <time>2022-07-06T18:38:25Z</time>
      </trkpt>
      <trkpt lat="20.378134" lon="-97.882465">
        <ele>251.147</ele>
        <time>2022-07-06T18:38:29Z</time>
      </trkpt>
      <trkpt lat="20.378087" lon="-97.882479">
        <ele>251.085</ele>
        <time>2022-07-06T18:38:33Z</time>
      </trkpt>
      <trkpt lat="20.37804" lon="-97.882489">
        <ele>250.858</ele>
        <time>2022-07-06T18:38:37Z</time>
      </trkpt>
      <trkpt lat="20.377994" lon="-97.882502">
        <ele>250.578</ele>
        <time>2022-07-06T18:38:43Z</time>
      </trkpt>
      <trkpt lat="20.377942" lon="-97.882505">
        <ele>249.833</ele>
        <time>2022-07-06T18:38:48Z</time>
      </trkpt>
      <trkpt lat="20.377891" lon="-97.882525">
        <ele>248.626</ele>
        <time>2022-07-06T18:38:53Z</time>
      </trkpt>
      <trkpt lat="20.377848" lon="-97.882554">
        <ele>248.109</ele>
        <time>2022-07-06T18:38:58Z</time>
      </trkpt>
      <trkpt lat="20.377796" lon="-97.882562">
        <ele>245.918</ele>
        <time>2022-07-06T18:39:03Z</time>
      </trkpt>
      <trkpt lat="20.377742" lon="-97.882565">
        <ele>245.157</ele>
        <time>2022-07-06T18:39:07Z</time>
      </trkpt>
      <trkpt lat="20.377693" lon="-97.882572">
        <ele>244.694</ele>
        <time>2022-07-06T18:39:11Z</time>
      </trkpt>
      <trkpt lat="20.377669" lon="-97.882617">
        <ele>244.819</ele>
        <time>2022-07-06T18:39:16Z</time>
      </trkpt>
      <trkpt lat="20.377623" lon="-97.882656">
        <ele>245.754</ele>
        <time>2022-07-06T18:39:20Z</time>
      </trkpt>
      <trkpt lat="20.37757" lon="-97.882657">
        <ele>246.445</ele>
        <time>2022-07-06T18:39:23Z</time>
      </trkpt>
      <trkpt lat="20.377516" lon="-97.882658">
        <ele>246.585</ele>
        <time>2022-07-06T18:39:26Z</time>
      </trkpt>
      <trkpt lat="20.377467" lon="-97.882667">
        <ele>246.813</ele>
        <time>2022-07-06T18:39:29Z</time>
      </trkpt>
      <trkpt lat="20.377416" lon="-97.882678">
        <ele>247.786</ele>
        <time>2022-07-06T18:39:33Z</time>
      </trkpt>
      <trkpt lat="20.377356" lon="-97.882689">
        <ele>247.833</ele>
        <time>2022-07-06T18:39:36Z</time>
      </trkpt>
      <trkpt lat="20.377297" lon="-97.882695">
        <ele>248.223</ele>
        <time>2022-07-06T18:39:39Z</time>
      </trkpt>
      <trkpt lat="20.377244" lon="-97.882726">
        <ele>248.615</ele>
        <time>2022-07-06T18:39:44Z</time>
      </trkpt>
      <trkpt lat="20.377198" lon="-97.882735">
        <ele>248.709</ele>
        <time>2022-07-06T18:39:46Z</time>
      </trkpt>
      <trkpt lat="20.377151" lon="-97.882743">
        <ele>249.034</ele>
        <time>2022-07-06T18:39:48Z</time>
      </trkpt>
      <trkpt lat="20.377107" lon="-97.882756">
        <ele>249.923</ele>
        <time>2022-07-06T18:39:50Z</time>
      </trkpt>
      <trkpt lat="20.377067" lon="-97.88278">
        <ele>250.270</ele>
        <time>2022-07-06T18:39:52Z</time>
      </trkpt>
      <trkpt lat="20.37703" lon="-97.882808">
        <ele>250.465</ele>
        <time>2022-07-06T18:39:54Z</time>
      </trkpt>
      <trkpt lat="20.376976" lon="-97.882841">
        <ele>250.450</ele>
        <time>2022-07-06T18:39:57Z</time>
      </trkpt>
      <trkpt lat="20.376911" lon="-97.882859">
        <ele>249.751</ele>
        <time>2022-07-06T18:40:00Z</time>
      </trkpt>
      <trkpt lat="20.37687" lon="-97.882879">
        <ele>249.531</ele>
        <time>2022-07-06T18:40:02Z</time>
      </trkpt>
      <trkpt lat="20.376817" lon="-97.882904">
        <ele>248.659</ele>
        <time>2022-07-06T18:40:05Z</time>
      </trkpt>
      <trkpt lat="20.376773" lon="-97.88292">
        <ele>248.542</ele>
        <time>2022-07-06T18:40:07Z</time>
      </trkpt>
      <trkpt lat="20.37673" lon="-97.882934">
        <ele>246.985</ele>
        <time>2022-07-06T18:40:09Z</time>
      </trkpt>
      <trkpt lat="20.376679" lon="-97.882942">
        <ele>246.789</ele>
        <time>2022-07-06T18:40:11Z</time>
      </trkpt>
      <trkpt lat="20.376623" lon="-97.882955">
        <ele>246.117</ele>
        <time>2022-07-06T18:40:13Z</time>
      </trkpt>
      <trkpt lat="20.376573" lon="-97.882968">
        <ele>245.109</ele>
        <time>2022-07-06T18:40:15Z</time>
      </trkpt>
      <trkpt lat="20.376522" lon="-97.882981">
        <ele>243.339</ele>
        <time>2022-07-06T18:40:17Z</time>
      </trkpt>
      <trkpt lat="20.376469" lon="-97.882992">
        <ele>242.098</ele>
        <time>2022-07-06T18:40:19Z</time>
      </trkpt>
      <trkpt lat="20.376418" lon="-97.883007">
        <ele>241.835</ele>
        <time>2022-07-06T18:40:21Z</time>
      </trkpt>
      <trkpt lat="20.376374" lon="-97.883035">
        <ele>241.060</ele>
        <time>2022-07-06T18:40:23Z</time>
      </trkpt>
      <trkpt lat="20.376335" lon="-97.883066">
        <ele>240.185</ele>
        <time>2022-07-06T18:40:25Z</time>
      </trkpt>
      <trkpt lat="20.376297" lon="-97.883094">
        <ele>239.266</ele>
        <time>2022-07-06T18:40:27Z</time>
      </trkpt>
      <trkpt lat="20.376241" lon="-97.88313">
        <ele>239.286</ele>
        <time>2022-07-06T18:40:30Z</time>
      </trkpt>
      <trkpt lat="20.376188" lon="-97.883166">
        <ele>240.154</ele>
        <time>2022-07-06T18:40:33Z</time>
      </trkpt>
      <trkpt lat="20.376149" lon="-97.883197">
        <ele>241.577</ele>
        <time>2022-07-06T18:40:35Z</time>
      </trkpt>
      <trkpt lat="20.376104" lon="-97.883222">
        <ele>241.527</ele>
        <time>2022-07-06T18:40:37Z</time>
      </trkpt>
      <trkpt lat="20.376058" lon="-97.883248">
        <ele>241.568</ele>
        <time>2022-07-06T18:40:39Z</time>
      </trkpt>
      <trkpt lat="20.376019" lon="-97.883281">
        <ele>241.114</ele>
        <time>2022-07-06T18:40:41Z</time>
      </trkpt>
      <trkpt lat="20.375979" lon="-97.88331">
        <ele>240.709</ele>
        <time>2022-07-06T18:40:43Z</time>
      </trkpt>
      <trkpt lat="20.375936" lon="-97.883336">
        <ele>240.493</ele>
        <time>2022-07-06T18:40:45Z</time>
      </trkpt>
      <trkpt lat="20.375891" lon="-97.88335">
        <ele>240.492</ele>
        <time>2022-07-06T18:40:47Z</time>
      </trkpt>
      <trkpt lat="20.375846" lon="-97.883363">
        <ele>240.229</ele>
        <time>2022-07-06T18:40:49Z</time>
      </trkpt>
      <trkpt lat="20.375804" lon="-97.883385">
        <ele>240.244</ele>
        <time>2022-07-06T18:40:51Z</time>
      </trkpt>
      <trkpt lat="20.375769" lon="-97.883416">
        <ele>240.229</ele>
        <time>2022-07-06T18:40:53Z</time>
      </trkpt>
      <trkpt lat="20.375734" lon="-97.883448">
        <ele>240.210</ele>
        <time>2022-07-06T18:40:55Z</time>
      </trkpt>
      <trkpt lat="20.375697" lon="-97.883487">
        <ele>240.070</ele>
        <time>2022-07-06T18:40:57Z</time>
      </trkpt>
      <trkpt lat="20.37566" lon="-97.88353">
        <ele>239.798</ele>
        <time>2022-07-06T18:40:59Z</time>
      </trkpt>
      <trkpt lat="20.375622" lon="-97.883563">
        <ele>239.691</ele>
        <time>2022-07-06T18:41:01Z</time>
      </trkpt>
      <trkpt lat="20.375555" lon="-97.883597">
        <ele>239.757</ele>
        <time>2022-07-06T18:41:03Z</time>
      </trkpt>
      <trkpt lat="20.375498" lon="-97.883632">
        <ele>240.100</ele>
        <time>2022-07-06T18:41:05Z</time>
      </trkpt>
      <trkpt lat="20.375457" lon="-97.883659">
        <ele>239.920</ele>
        <time>2022-07-06T18:41:07Z</time>
      </trkpt>
      <trkpt lat="20.375404" lon="-97.883695">
        <ele>239.909</ele>
        <time>2022-07-06T18:41:09Z</time>
      </trkpt>
      <trkpt lat="20.375352" lon="-97.88373">
        <ele>239.556</ele>
        <time>2022-07-06T18:41:11Z</time>
      </trkpt>
      <trkpt lat="20.375301" lon="-97.883765">
        <ele>239.695</ele>
        <time>2022-07-06T18:41:13Z</time>
      </trkpt>
      <trkpt lat="20.375259" lon="-97.883801">
        <ele>239.692</ele>
        <time>2022-07-06T18:41:15Z</time>
      </trkpt>
      <trkpt lat="20.375215" lon="-97.883836">
        <ele>239.867</ele>
        <time>2022-07-06T18:41:17Z</time>
      </trkpt>
      <trkpt lat="20.375175" lon="-97.88387">
        <ele>239.812</ele>
        <time>2022-07-06T18:41:19Z</time>
      </trkpt>
      <trkpt lat="20.375134" lon="-97.883903">
        <ele>240.393</ele>
        <time>2022-07-06T18:41:21Z</time>
      </trkpt>
      <trkpt lat="20.375086" lon="-97.883929">
        <ele>240.433</ele>
        <time>2022-07-06T18:41:23Z</time>
      </trkpt>
      <trkpt lat="20.375038" lon="-97.883955">
        <ele>240.431</ele>
        <time>2022-07-06T18:41:25Z</time>
      </trkpt>
      <trkpt lat="20.374991" lon="-97.883983">
        <ele>240.354</ele>
        <time>2022-07-06T18:41:27Z</time>
      </trkpt>
      <trkpt lat="20.374943" lon="-97.88401">
        <ele>240.393</ele>
        <time>2022-07-06T18:41:29Z</time>
      </trkpt>
      <trkpt lat="20.374891" lon="-97.884038">
        <ele>240.365</ele>
        <time>2022-07-06T18:41:31Z</time>
      </trkpt>
      <trkpt lat="20.374838" lon="-97.884074">
        <ele>240.321</ele>
        <time>2022-07-06T18:41:33Z</time>
      </trkpt>
      <trkpt lat="20.374783" lon="-97.884107">
        <ele>240.409</ele>
        <time>2022-07-06T18:41:35Z</time>
      </trkpt>
      <trkpt lat="20.374726" lon="-97.884138">
        <ele>241.820</ele>
        <time>2022-07-06T18:41:37Z</time>
      </trkpt>
      <trkpt lat="20.374673" lon="-97.884173">
        <ele>242.439</ele>
        <time>2022-07-06T18:41:39Z</time>
      </trkpt>
      <trkpt lat="20.374625" lon="-97.884205">
        <ele>243.096</ele>
        <time>2022-07-06T18:41:41Z</time>
      </trkpt>
      <trkpt lat="20.37458" lon="-97.884236">
        <ele>243.081</ele>
        <time>2022-07-06T18:41:43Z</time>
      </trkpt>
      <trkpt lat="20.37453" lon="-97.884258">
        <ele>242.966</ele>
        <time>2022-07-06T18:41:45Z</time>
      </trkpt>
      <trkpt lat="20.374488" lon="-97.884289">
        <ele>242.997</ele>
        <time>2022-07-06T18:41:47Z</time>
      </trkpt>
      <trkpt lat="20.374445" lon="-97.884321">
        <ele>242.987</ele>
        <time>2022-07-06T18:41:49Z</time>
      </trkpt>
      <trkpt lat="20.374403" lon="-97.884353">
        <ele>242.775</ele>
        <time>2022-07-06T18:41:51Z</time>
      </trkpt>
      <trkpt lat="20.374362" lon="-97.884383">
        <ele>242.428</ele>
        <time>2022-07-06T18:41:53Z</time>
      </trkpt>
      <trkpt lat="20.374325" lon="-97.884419">
        <ele>241.998</ele>
        <time>2022-07-06T18:41:56Z</time>
      </trkpt>
      <trkpt lat="20.37426" lon="-97.884437">
        <ele>241.815</ele>
        <time>2022-07-06T18:42:00Z</time>
      </trkpt>
      <trkpt lat="20.3742" lon="-97.884466">
        <ele>241.526</ele>
        <time>2022-07-06T18:42:03Z</time>
      </trkpt>
      <trkpt lat="20.374161" lon="-97.884497">
        <ele>241.409</ele>
        <time>2022-07-06T18:42:05Z</time>
      </trkpt>
      <trkpt lat="20.374122" lon="-97.884528">
        <ele>241.330</ele>
        <time>2022-07-06T18:42:07Z</time>
      </trkpt>
      <trkpt lat="20.374079" lon="-97.884558">
        <ele>241.329</ele>
        <time>2022-07-06T18:42:09Z</time>
      </trkpt>
      <trkpt lat="20.374044" lon="-97.884588">
        <ele>240.936</ele>
        <time>2022-07-06T18:42:11Z</time>
      </trkpt>
      <trkpt lat="20.374003" lon="-97.884615">
        <ele>240.971</ele>
        <time>2022-07-06T18:42:13Z</time>
      </trkpt>
      <trkpt lat="20.373953" lon="-97.884654">
        <ele>240.886</ele>
        <time>2022-07-06T18:42:16Z</time>
      </trkpt>
      <trkpt lat="20.373901" lon="-97.884693">
        <ele>241.127</ele>
        <time>2022-07-06T18:42:19Z</time>
      </trkpt>
      <trkpt lat="20.373846" lon="-97.884719">
        <ele>242.327</ele>
        <time>2022-07-06T18:42:22Z</time>
      </trkpt>
      <trkpt lat="20.373804" lon="-97.884737">
        <ele>242.465</ele>
        <time>2022-07-06T18:42:24Z</time>
      </trkpt>
      <trkpt lat="20.373762" lon="-97.884764">
        <ele>242.758</ele>
        <time>2022-07-06T18:42:26Z</time>
      </trkpt>
      <trkpt lat="20.373721" lon="-97.884785">
        <ele>242.938</ele>
        <time>2022-07-06T18:42:28Z</time>
      </trkpt>
      <trkpt lat="20.373662" lon="-97.884813">
        <ele>243.270</ele>
        <time>2022-07-06T18:42:31Z</time>
      </trkpt>
      <trkpt lat="20.373617" lon="-97.884821">
        <ele>243.217</ele>
        <time>2022-07-06T18:42:33Z</time>
      </trkpt>
      <trkpt lat="20.373569" lon="-97.884832">
        <ele>243.709</ele>
        <time>2022-07-06T18:42:36Z</time>
      </trkpt>
      <trkpt lat="20.373533" lon="-97.884873">
        <ele>243.854</ele>
        <time>2022-07-06T18:42:40Z</time>
      </trkpt>
      <trkpt lat="20.37348" lon="-97.884902">
        <ele>245.193</ele>
        <time>2022-07-06T18:42:44Z</time>
      </trkpt>
      <trkpt lat="20.373438" lon="-97.884922">
        <ele>246.080</ele>
        <time>2022-07-06T18:42:46Z</time>
      </trkpt>
      <trkpt lat="20.373387" lon="-97.884953">
        <ele>246.275</ele>
        <time>2022-07-06T18:42:49Z</time>
      </trkpt>
      <trkpt lat="20.373347" lon="-97.884977">
        <ele>246.290</ele>
        <time>2022-07-06T18:42:51Z</time>
      </trkpt>
      <trkpt lat="20.3733" lon="-97.885003">
        <ele>246.281</ele>
        <time>2022-07-06T18:42:53Z</time>
      </trkpt>
      <trkpt lat="20.373254" lon="-97.885024">
        <ele>246.081</ele>
        <time>2022-07-06T18:42:55Z</time>
      </trkpt>
      <trkpt lat="20.373198" lon="-97.885053">
        <ele>245.929</ele>
        <time>2022-07-06T18:42:58Z</time>
      </trkpt>
      <trkpt lat="20.373167" lon="-97.885089">
        <ele>245.762</ele>
        <time>2022-07-06T18:43:00Z</time>
      </trkpt>
      <trkpt lat="20.373133" lon="-97.885124">
        <ele>245.238</ele>
        <time>2022-07-06T18:43:02Z</time>
      </trkpt>
      <trkpt lat="20.373093" lon="-97.885151">
        <ele>245.070</ele>
        <time>2022-07-06T18:43:04Z</time>
      </trkpt>
      <trkpt lat="20.373058" lon="-97.885187">
        <ele>244.917</ele>
        <time>2022-07-06T18:43:06Z</time>
      </trkpt>
      <trkpt lat="20.373002" lon="-97.885226">
        <ele>244.609</ele>
        <time>2022-07-06T18:43:09Z</time>
      </trkpt>
      <trkpt lat="20.372944" lon="-97.885257">
        <ele>244.774</ele>
        <time>2022-07-06T18:43:12Z</time>
      </trkpt>
      <trkpt lat="20.372879" lon="-97.885283">
        <ele>244.743</ele>
        <time>2022-07-06T18:43:15Z</time>
      </trkpt>
      <trkpt lat="20.372834" lon="-97.885304">
        <ele>244.510</ele>
        <time>2022-07-06T18:43:17Z</time>
      </trkpt>
      <trkpt lat="20.372788" lon="-97.885326">
        <ele>244.565</ele>
        <time>2022-07-06T18:43:19Z</time>
      </trkpt>
      <trkpt lat="20.372745" lon="-97.885354">
        <ele>244.560</ele>
        <time>2022-07-06T18:43:21Z</time>
      </trkpt>
      <trkpt lat="20.372703" lon="-97.885386">
        <ele>244.491</ele>
        <time>2022-07-06T18:43:23Z</time>
      </trkpt>
      <trkpt lat="20.372662" lon="-97.885411">
        <ele>242.941</ele>
        <time>2022-07-06T18:43:25Z</time>
      </trkpt>
      <trkpt lat="20.37262" lon="-97.88544">
        <ele>242.939</ele>
        <time>2022-07-06T18:43:27Z</time>
      </trkpt>
      <trkpt lat="20.372577" lon="-97.885474">
        <ele>242.962</ele>
        <time>2022-07-06T18:43:29Z</time>
      </trkpt>
      <trkpt lat="20.372542" lon="-97.885509">
        <ele>243.445</ele>
        <time>2022-07-06T18:43:31Z</time>
      </trkpt>
      <trkpt lat="20.372503" lon="-97.885544">
        <ele>244.347</ele>
        <time>2022-07-06T18:43:33Z</time>
      </trkpt>
      <trkpt lat="20.372457" lon="-97.885578">
        <ele>244.911</ele>
        <time>2022-07-06T18:43:35Z</time>
      </trkpt>
      <trkpt lat="20.372411" lon="-97.885612">
        <ele>244.909</ele>
        <time>2022-07-06T18:43:37Z</time>
      </trkpt>
      <trkpt lat="20.372369" lon="-97.885649">
        <ele>244.995</ele>
        <time>2022-07-06T18:43:39Z</time>
      </trkpt>
      <trkpt lat="20.372326" lon="-97.88568">
        <ele>244.154</ele>
        <time>2022-07-06T18:43:41Z</time>
      </trkpt>
      <trkpt lat="20.372282" lon="-97.885706">
        <ele>242.581</ele>
        <time>2022-07-06T18:43:43Z</time>
      </trkpt>
      <trkpt lat="20.372238" lon="-97.885731">
        <ele>241.276</ele>
        <time>2022-07-06T18:43:45Z</time>
      </trkpt>
      <trkpt lat="20.372189" lon="-97.88575">
        <ele>241.151</ele>
        <time>2022-07-06T18:43:47Z</time>
      </trkpt>
      <trkpt lat="20.372135" lon="-97.885763">
        <ele>240.982</ele>
        <time>2022-07-06T18:43:49Z</time>
      </trkpt>
      <trkpt lat="20.372086" lon="-97.88577">
        <ele>240.812</ele>
        <time>2022-07-06T18:43:51Z</time>
      </trkpt>
      <trkpt lat="20.372039" lon="-97.885785">
        <ele>240.810</ele>
        <time>2022-07-06T18:43:53Z</time>
      </trkpt>
      <trkpt lat="20.371997" lon="-97.885817">
        <ele>238.893</ele>
        <time>2022-07-06T18:43:55Z</time>
      </trkpt>
      <trkpt lat="20.371958" lon="-97.885857">
        <ele>238.885</ele>
        <time>2022-07-06T18:43:57Z</time>
      </trkpt>
      <trkpt lat="20.371922" lon="-97.885896">
        <ele>238.889</ele>
        <time>2022-07-06T18:43:59Z</time>
      </trkpt>
      <trkpt lat="20.371885" lon="-97.885932">
        <ele>239.017</ele>
        <time>2022-07-06T18:44:01Z</time>
      </trkpt>
      <trkpt lat="20.371838" lon="-97.885957">
        <ele>239.009</ele>
        <time>2022-07-06T18:44:03Z</time>
      </trkpt>
      <trkpt lat="20.371796" lon="-97.885993">
        <ele>239.019</ele>
        <time>2022-07-06T18:44:05Z</time>
      </trkpt>
      <trkpt lat="20.371753" lon="-97.886027">
        <ele>239.048</ele>
        <time>2022-07-06T18:44:07Z</time>
      </trkpt>
      <trkpt lat="20.371706" lon="-97.88606">
        <ele>238.835</ele>
        <time>2022-07-06T18:44:09Z</time>
      </trkpt>
      <trkpt lat="20.371646" lon="-97.886102">
        <ele>239.240</ele>
        <time>2022-07-06T18:44:12Z</time>
      </trkpt>
      <trkpt lat="20.371587" lon="-97.886144">
        <ele>239.785</ele>
        <time>2022-07-06T18:44:14Z</time>
      </trkpt>
      <trkpt lat="20.371536" lon="-97.886176">
        <ele>239.726</ele>
        <time>2022-07-06T18:44:17Z</time>
      </trkpt>
      <trkpt lat="20.371484" lon="-97.8862">
        <ele>240.396</ele>
        <time>2022-07-06T18:44:19Z</time>
      </trkpt>
      <trkpt lat="20.371436" lon="-97.886227">
        <ele>240.534</ele>
        <time>2022-07-06T18:44:21Z</time>
      </trkpt>
      <trkpt lat="20.371393" lon="-97.886258">
        <ele>241.047</ele>
        <time>2022-07-06T18:44:23Z</time>
      </trkpt>
      <trkpt lat="20.371332" lon="-97.886299">
        <ele>241.693</ele>
        <time>2022-07-06T18:44:25Z</time>
      </trkpt>
      <trkpt lat="20.371271" lon="-97.886319">
        <ele>242.865</ele>
        <time>2022-07-06T18:44:28Z</time>
      </trkpt>
      <trkpt lat="20.371213" lon="-97.886338">
        <ele>243.921</ele>
        <time>2022-07-06T18:44:30Z</time>
      </trkpt>
      <trkpt lat="20.371161" lon="-97.88636">
        <ele>243.909</ele>
        <time>2022-07-06T18:44:32Z</time>
      </trkpt>
      <trkpt lat="20.371098" lon="-97.8864">
        <ele>243.910</ele>
        <time>2022-07-06T18:44:34Z</time>
      </trkpt>
      <trkpt lat="20.370927" lon="-97.886472">
        <ele>242.829</ele>
        <time>2022-07-06T18:44:36Z</time>
      </trkpt>
      <trkpt lat="20.370865" lon="-97.886497">
        <ele>243.496</ele>
        <time>2022-07-06T18:44:38Z</time>
      </trkpt>
      <trkpt lat="20.370811" lon="-97.886522">
        <ele>243.921</ele>
        <time>2022-07-06T18:44:40Z</time>
      </trkpt>
      <trkpt lat="20.370762" lon="-97.88654">
        <ele>244.896</ele>
        <time>2022-07-06T18:44:42Z</time>
      </trkpt>
      <trkpt lat="20.370717" lon="-97.886564">
        <ele>244.857</ele>
        <time>2022-07-06T18:44:44Z</time>
      </trkpt>
      <trkpt lat="20.370669" lon="-97.886587">
        <ele>245.477</ele>
        <time>2022-07-06T18:44:46Z</time>
      </trkpt>
      <trkpt lat="20.370614" lon="-97.8866">
        <ele>245.965</ele>
        <time>2022-07-06T18:44:48Z</time>
      </trkpt>
      <trkpt lat="20.370557" lon="-97.886595">
        <ele>246.128</ele>
        <time>2022-07-06T18:44:50Z</time>
      </trkpt>
      <trkpt lat="20.370507" lon="-97.886607">
        <ele>246.517</ele>
        <time>2022-07-06T18:44:52Z</time>
      </trkpt>
      <trkpt lat="20.370458" lon="-97.886633">
        <ele>247.487</ele>
        <time>2022-07-06T18:44:54Z</time>
      </trkpt>
      <trkpt lat="20.370399" lon="-97.886651">
        <ele>247.915</ele>
        <time>2022-07-06T18:44:56Z</time>
      </trkpt>
      <trkpt lat="20.370344" lon="-97.886646">
        <ele>248.109</ele>
        <time>2022-07-06T18:44:58Z</time>
      </trkpt>
      <trkpt lat="20.370292" lon="-97.886622">
        <ele>248.242</ele>
        <time>2022-07-06T18:45:00Z</time>
      </trkpt>
      <trkpt lat="20.370237" lon="-97.886608">
        <ele>248.281</ele>
        <time>2022-07-06T18:45:02Z</time>
      </trkpt>
      <trkpt lat="20.370178" lon="-97.886621">
        <ele>248.218</ele>
        <time>2022-07-06T18:45:04Z</time>
      </trkpt>
      <trkpt lat="20.370124" lon="-97.886638">
        <ele>247.643</ele>
        <time>2022-07-06T18:45:06Z</time>
      </trkpt>
      <trkpt lat="20.370072" lon="-97.886657">
        <ele>247.598</ele>
        <time>2022-07-06T18:45:08Z</time>
      </trkpt>
      <trkpt lat="20.370024" lon="-97.886666">
        <ele>247.579</ele>
        <time>2022-07-06T18:45:10Z</time>
      </trkpt>
      <trkpt lat="20.369979" lon="-97.886665">
        <ele>247.849</ele>
        <time>2022-07-06T18:45:12Z</time>
      </trkpt>
      <trkpt lat="20.369913" lon="-97.886668">
        <ele>247.757</ele>
        <time>2022-07-06T18:45:15Z</time>
      </trkpt>
      <trkpt lat="20.369849" lon="-97.886673">
        <ele>247.640</ele>
        <time>2022-07-06T18:45:18Z</time>
      </trkpt>
      <trkpt lat="20.36979" lon="-97.886679">
        <ele>246.069</ele>
        <time>2022-07-06T18:45:20Z</time>
      </trkpt>
      <trkpt lat="20.369729" lon="-97.886682">
        <ele>244.704</ele>
        <time>2022-07-06T18:45:22Z</time>
      </trkpt>
      <trkpt lat="20.369669" lon="-97.886678">
        <ele>242.624</ele>
        <time>2022-07-06T18:45:24Z</time>
      </trkpt>
      <trkpt lat="20.369608" lon="-97.886677">
        <ele>242.609</ele>
        <time>2022-07-06T18:45:26Z</time>
      </trkpt>
      <trkpt lat="20.369548" lon="-97.886681">
        <ele>242.847</ele>
        <time>2022-07-06T18:45:28Z</time>
      </trkpt>
      <trkpt lat="20.369486" lon="-97.886683">
        <ele>243.556</ele>
        <time>2022-07-06T18:45:30Z</time>
      </trkpt>
      <trkpt lat="20.369425" lon="-97.886673">
        <ele>244.293</ele>
        <time>2022-07-06T18:45:32Z</time>
      </trkpt>
      <trkpt lat="20.369362" lon="-97.886669">
        <ele>244.768</ele>
        <time>2022-07-06T18:45:34Z</time>
      </trkpt>
      <trkpt lat="20.369297" lon="-97.886667">
        <ele>244.813</ele>
        <time>2022-07-06T18:45:36Z</time>
      </trkpt>
      <trkpt lat="20.36923" lon="-97.886659">
        <ele>244.844</ele>
        <time>2022-07-06T18:45:38Z</time>
      </trkpt>
      <trkpt lat="20.369169" lon="-97.88665">
        <ele>244.884</ele>
        <time>2022-07-06T18:45:40Z</time>
      </trkpt>
      <trkpt lat="20.369109" lon="-97.886639">
        <ele>244.692</ele>
        <time>2022-07-06T18:45:42Z</time>
      </trkpt>
      <trkpt lat="20.369047" lon="-97.886635">
        <ele>244.815</ele>
        <time>2022-07-06T18:45:44Z</time>
      </trkpt>
      <trkpt lat="20.368985" lon="-97.886637">
        <ele>245.243</ele>
        <time>2022-07-06T18:45:46Z</time>
      </trkpt>
      <trkpt lat="20.368921" lon="-97.886635">
        <ele>246.364</ele>
        <time>2022-07-06T18:45:48Z</time>
      </trkpt>
      <trkpt lat="20.36886" lon="-97.886635">
        <ele>246.910</ele>
        <time>2022-07-06T18:45:50Z</time>
      </trkpt>
      <trkpt lat="20.368802" lon="-97.886636">
        <ele>247.709</ele>
        <time>2022-07-06T18:45:52Z</time>
      </trkpt>
      <trkpt lat="20.368746" lon="-97.886641">
        <ele>248.165</ele>
        <time>2022-07-06T18:45:54Z</time>
      </trkpt>
      <trkpt lat="20.368694" lon="-97.88665">
        <ele>248.584</ele>
        <time>2022-07-06T18:45:56Z</time>
      </trkpt>
      <trkpt lat="20.368644" lon="-97.886646">
        <ele>251.171</ele>
        <time>2022-07-06T18:45:58Z</time>
      </trkpt>
      <trkpt lat="20.368581" lon="-97.886633">
        <ele>254.526</ele>
        <time>2022-07-06T18:46:01Z</time>
      </trkpt>
      <trkpt lat="20.368533" lon="-97.886639">
        <ele>254.971</ele>
        <time>2022-07-06T18:46:03Z</time>
      </trkpt>
      <trkpt lat="20.368486" lon="-97.886645">
        <ele>255.212</ele>
        <time>2022-07-06T18:46:05Z</time>
      </trkpt>
      <trkpt lat="20.368441" lon="-97.886652">
        <ele>256.252</ele>
        <time>2022-07-06T18:46:07Z</time>
      </trkpt>
      <trkpt lat="20.368391" lon="-97.88663">
        <ele>255.540</ele>
        <time>2022-07-06T18:46:10Z</time>
      </trkpt>
      <trkpt lat="20.368336" lon="-97.886651">
        <ele>255.533</ele>
        <time>2022-07-06T18:46:13Z</time>
      </trkpt>
      <trkpt lat="20.368293" lon="-97.886668">
        <ele>253.396</ele>
        <time>2022-07-06T18:46:15Z</time>
      </trkpt>
      <trkpt lat="20.368246" lon="-97.886661">
        <ele>251.531</ele>
        <time>2022-07-06T18:46:17Z</time>
      </trkpt>
      <trkpt lat="20.368197" lon="-97.886656">
        <ele>251.524</ele>
        <time>2022-07-06T18:46:19Z</time>
      </trkpt>
      <trkpt lat="20.36815" lon="-97.88665">
        <ele>250.409</ele>
        <time>2022-07-06T18:46:21Z</time>
      </trkpt>
      <trkpt lat="20.368101" lon="-97.886636">
        <ele>249.840</ele>
        <time>2022-07-06T18:46:23Z</time>
      </trkpt>
      <trkpt lat="20.368051" lon="-97.886633">
        <ele>249.239</ele>
        <time>2022-07-06T18:46:25Z</time>
      </trkpt>
      <trkpt lat="20.368003" lon="-97.886627">
        <ele>248.316</ele>
        <time>2022-07-06T18:46:27Z</time>
      </trkpt>
      <trkpt lat="20.367958" lon="-97.886622">
        <ele>248.231</ele>
        <time>2022-07-06T18:46:29Z</time>
      </trkpt>
      <trkpt lat="20.367909" lon="-97.886632">
        <ele>247.096</ele>
        <time>2022-07-06T18:46:31Z</time>
      </trkpt>
      <trkpt lat="20.367861" lon="-97.88664">
        <ele>245.787</ele>
        <time>2022-07-06T18:46:33Z</time>
      </trkpt>
      <trkpt lat="20.367804" lon="-97.886655">
        <ele>245.337</ele>
        <time>2022-07-06T18:46:36Z</time>
      </trkpt>
      <trkpt lat="20.36776" lon="-97.886667">
        <ele>245.125</ele>
        <time>2022-07-06T18:46:38Z</time>
      </trkpt>
      <trkpt lat="20.367712" lon="-97.886674">
        <ele>244.658</ele>
        <time>2022-07-06T18:46:40Z</time>
      </trkpt>
      <trkpt lat="20.367661" lon="-97.886677">
        <ele>244.222</ele>
        <time>2022-07-06T18:46:42Z</time>
      </trkpt>
      <trkpt lat="20.36761" lon="-97.886673">
        <ele>243.962</ele>
        <time>2022-07-06T18:46:44Z</time>
      </trkpt>
      <trkpt lat="20.36756" lon="-97.886678">
        <ele>243.808</ele>
        <time>2022-07-06T18:46:46Z</time>
      </trkpt>
      <trkpt lat="20.367512" lon="-97.886691">
        <ele>242.809</ele>
        <time>2022-07-06T18:46:48Z</time>
      </trkpt>
      <trkpt lat="20.367463" lon="-97.886707">
        <ele>242.143</ele>
        <time>2022-07-06T18:46:50Z</time>
      </trkpt>
      <trkpt lat="20.367417" lon="-97.886728">
        <ele>241.862</ele>
        <time>2022-07-06T18:46:52Z</time>
      </trkpt>
      <trkpt lat="20.367377" lon="-97.886758">
        <ele>241.839</ele>
        <time>2022-07-06T18:46:54Z</time>
      </trkpt>
      <trkpt lat="20.367341" lon="-97.886793">
        <ele>242.144</ele>
        <time>2022-07-06T18:46:56Z</time>
      </trkpt>
      <trkpt lat="20.367307" lon="-97.886828">
        <ele>242.759</ele>
        <time>2022-07-06T18:46:58Z</time>
      </trkpt>
      <trkpt lat="20.367248" lon="-97.886856">
        <ele>244.450</ele>
        <time>2022-07-06T18:47:01Z</time>
      </trkpt>
      <trkpt lat="20.367196" lon="-97.886891">
        <ele>246.240</ele>
        <time>2022-07-06T18:47:04Z</time>
      </trkpt>
      <trkpt lat="20.367153" lon="-97.886941">
        <ele>247.548</ele>
        <time>2022-07-06T18:47:07Z</time>
      </trkpt>
      <trkpt lat="20.367123" lon="-97.886979">
        <ele>249.281</ele>
        <time>2022-07-06T18:47:09Z</time>
      </trkpt>
      <trkpt lat="20.367093" lon="-97.887024">
        <ele>249.754</ele>
        <time>2022-07-06T18:47:11Z</time>
      </trkpt>
      <trkpt lat="20.367064" lon="-97.88707">
        <ele>250.056</ele>
        <time>2022-07-06T18:47:13Z</time>
      </trkpt>
      <trkpt lat="20.367034" lon="-97.887113">
        <ele>250.711</ele>
        <time>2022-07-06T18:47:15Z</time>
      </trkpt>
      <trkpt lat="20.367006" lon="-97.887159">
        <ele>251.509</ele>
        <time>2022-07-06T18:47:17Z</time>
      </trkpt>
      <trkpt lat="20.366972" lon="-97.887201">
        <ele>251.926</ele>
        <time>2022-07-06T18:47:19Z</time>
      </trkpt>
      <trkpt lat="20.366942" lon="-97.887248">
        <ele>252.345</ele>
        <time>2022-07-06T18:47:21Z</time>
      </trkpt>
      <trkpt lat="20.366903" lon="-97.887282">
        <ele>253.082</ele>
        <time>2022-07-06T18:47:23Z</time>
      </trkpt>
      <trkpt lat="20.366864" lon="-97.887311">
        <ele>254.117</ele>
        <time>2022-07-06T18:47:25Z</time>
      </trkpt>
      <trkpt lat="20.36683" lon="-97.887347">
        <ele>254.442</ele>
        <time>2022-07-06T18:47:27Z</time>
      </trkpt>
      <trkpt lat="20.366803" lon="-97.88739">
        <ele>255.623</ele>
        <time>2022-07-06T18:47:29Z</time>
      </trkpt>
      <trkpt lat="20.366773" lon="-97.887433">
        <ele>256.133</ele>
        <time>2022-07-06T18:47:31Z</time>
      </trkpt>
      <trkpt lat="20.366739" lon="-97.887464">
        <ele>257.361</ele>
        <time>2022-07-06T18:47:33Z</time>
      </trkpt>
      <trkpt lat="20.366698" lon="-97.887505">
        <ele>257.684</ele>
        <time>2022-07-06T18:47:35Z</time>
      </trkpt>
      <trkpt lat="20.366651" lon="-97.887552">
        <ele>257.988</ele>
        <time>2022-07-06T18:47:37Z</time>
      </trkpt>
      <trkpt lat="20.366606" lon="-97.887582">
        <ele>259.224</ele>
        <time>2022-07-06T18:47:39Z</time>
      </trkpt>
      <trkpt lat="20.36656" lon="-97.887611">
        <ele>259.226</ele>
        <time>2022-07-06T18:47:41Z</time>
      </trkpt>
      <trkpt lat="20.366509" lon="-97.887639">
        <ele>259.209</ele>
        <time>2022-07-06T18:47:43Z</time>
      </trkpt>
      <trkpt lat="20.366457" lon="-97.887651">
        <ele>257.939</ele>
        <time>2022-07-06T18:47:45Z</time>
      </trkpt>
      <trkpt lat="20.366405" lon="-97.887664">
        <ele>256.978</ele>
        <time>2022-07-06T18:47:47Z</time>
      </trkpt>
      <trkpt lat="20.366352" lon="-97.887672">
        <ele>256.635</ele>
        <time>2022-07-06T18:47:49Z</time>
      </trkpt>
      <trkpt lat="20.366302" lon="-97.887671">
        <ele>256.330</ele>
        <time>2022-07-06T18:47:51Z</time>
      </trkpt>
      <trkpt lat="20.366252" lon="-97.88768">
        <ele>256.445</ele>
        <time>2022-07-06T18:47:53Z</time>
      </trkpt>
      <trkpt lat="20.366204" lon="-97.887692">
        <ele>256.286</ele>
        <time>2022-07-06T18:47:55Z</time>
      </trkpt>
      <trkpt lat="20.366154" lon="-97.887716">
        <ele>256.076</ele>
        <time>2022-07-06T18:47:57Z</time>
      </trkpt>
      <trkpt lat="20.366103" lon="-97.887727">
        <ele>255.884</ele>
        <time>2022-07-06T18:47:59Z</time>
      </trkpt>
      <trkpt lat="20.366054" lon="-97.887724">
        <ele>255.787</ele>
        <time>2022-07-06T18:48:01Z</time>
      </trkpt>
      <trkpt lat="20.366005" lon="-97.887725">
        <ele>255.244</ele>
        <time>2022-07-06T18:48:03Z</time>
      </trkpt>
      <trkpt lat="20.365942" lon="-97.887727">
        <ele>255.205</ele>
        <time>2022-07-06T18:48:06Z</time>
      </trkpt>
      <trkpt lat="20.365881" lon="-97.887737">
        <ele>255.215</ele>
        <time>2022-07-06T18:48:09Z</time>
      </trkpt>
      <trkpt lat="20.365837" lon="-97.887748">
        <ele>255.409</ele>
        <time>2022-07-06T18:48:11Z</time>
      </trkpt>
      <trkpt lat="20.365792" lon="-97.887763">
        <ele>255.455</ele>
        <time>2022-07-06T18:48:13Z</time>
      </trkpt>
      <trkpt lat="20.365744" lon="-97.88777">
        <ele>255.594</ele>
        <time>2022-07-06T18:48:15Z</time>
      </trkpt>
      <trkpt lat="20.365679" lon="-97.887789">
        <ele>255.231</ele>
        <time>2022-07-06T18:48:18Z</time>
      </trkpt>
      <trkpt lat="20.365614" lon="-97.887789">
        <ele>254.596</ele>
        <time>2022-07-06T18:48:21Z</time>
      </trkpt>
      <trkpt lat="20.365552" lon="-97.887786">
        <ele>254.051</ele>
        <time>2022-07-06T18:48:24Z</time>
      </trkpt>
      <trkpt lat="20.365493" lon="-97.887811">
        <ele>253.842</ele>
        <time>2022-07-06T18:48:27Z</time>
      </trkpt>
      <trkpt lat="20.365452" lon="-97.887838">
        <ele>253.892</ele>
        <time>2022-07-06T18:48:29Z</time>
      </trkpt>
      <trkpt lat="20.365408" lon="-97.887853">
        <ele>252.450</ele>
        <time>2022-07-06T18:48:31Z</time>
      </trkpt>
      <trkpt lat="20.365363" lon="-97.887866">
        <ele>251.863</ele>
        <time>2022-07-06T18:48:33Z</time>
      </trkpt>
      <trkpt lat="20.365306" lon="-97.887884">
        <ele>250.642</ele>
        <time>2022-07-06T18:48:36Z</time>
      </trkpt>
      <trkpt lat="20.365246" lon="-97.887892">
        <ele>250.622</ele>
        <time>2022-07-06T18:48:39Z</time>
      </trkpt>
      <trkpt lat="20.365189" lon="-97.887884">
        <ele>251.514</ele>
        <time>2022-07-06T18:48:43Z</time>
      </trkpt>
      <trkpt lat="20.365142" lon="-97.887881">
        <ele>252.909</ele>
        <time>2022-07-06T18:48:45Z</time>
      </trkpt>
      <trkpt lat="20.365094" lon="-97.887888">
        <ele>253.865</ele>
        <time>2022-07-06T18:48:47Z</time>
      </trkpt>
      <trkpt lat="20.365045" lon="-97.887892">
        <ele>254.524</ele>
        <time>2022-07-06T18:48:49Z</time>
      </trkpt>
      <trkpt lat="20.364993" lon="-97.887891">
        <ele>254.551</ele>
        <time>2022-07-06T18:48:51Z</time>
      </trkpt>
      <trkpt lat="20.364943" lon="-97.887884">
        <ele>254.576</ele>
        <time>2022-07-06T18:48:53Z</time>
      </trkpt>
      <trkpt lat="20.364893" lon="-97.887868">
        <ele>254.111</ele>
        <time>2022-07-06T18:48:55Z</time>
      </trkpt>
      <trkpt lat="20.364843" lon="-97.887858">
        <ele>252.282</ele>
        <time>2022-07-06T18:48:57Z</time>
      </trkpt>
      <trkpt lat="20.364787" lon="-97.887849">
        <ele>251.172</ele>
        <time>2022-07-06T18:48:59Z</time>
      </trkpt>
      <trkpt lat="20.36473" lon="-97.887843">
        <ele>250.860</ele>
        <time>2022-07-06T18:49:01Z</time>
      </trkpt>
      <trkpt lat="20.364676" lon="-97.887832">
        <ele>250.383</ele>
        <time>2022-07-06T18:49:03Z</time>
      </trkpt>
      <trkpt lat="20.364627" lon="-97.887809">
        <ele>250.112</ele>
        <time>2022-07-06T18:49:05Z</time>
      </trkpt>
      <trkpt lat="20.364574" lon="-97.887791">
        <ele>250.132</ele>
        <time>2022-07-06T18:49:07Z</time>
      </trkpt>
      <trkpt lat="20.364516" lon="-97.887783">
        <ele>250.105</ele>
        <time>2022-07-06T18:49:09Z</time>
      </trkpt>
      <trkpt lat="20.364462" lon="-97.887768">
        <ele>250.109</ele>
        <time>2022-07-06T18:49:11Z</time>
      </trkpt>
      <trkpt lat="20.364411" lon="-97.887749">
        <ele>250.482</ele>
        <time>2022-07-06T18:49:13Z</time>
      </trkpt>
      <trkpt lat="20.364356" lon="-97.88774">
        <ele>250.651</ele>
        <time>2022-07-06T18:49:15Z</time>
      </trkpt>
      <trkpt lat="20.364299" lon="-97.887739">
        <ele>250.578</ele>
        <time>2022-07-06T18:49:17Z</time>
      </trkpt>
      <trkpt lat="20.364241" lon="-97.887738">
        <ele>250.313</ele>
        <time>2022-07-06T18:49:19Z</time>
      </trkpt>
      <trkpt lat="20.364182" lon="-97.887736">
        <ele>249.888</ele>
        <time>2022-07-06T18:49:21Z</time>
      </trkpt>
      <trkpt lat="20.364124" lon="-97.887732">
        <ele>249.039</ele>
        <time>2022-07-06T18:49:23Z</time>
      </trkpt>
      <trkpt lat="20.364069" lon="-97.887719">
        <ele>248.949</ele>
        <time>2022-07-06T18:49:25Z</time>
      </trkpt>
      <trkpt lat="20.36401" lon="-97.887711">
        <ele>248.927</ele>
        <time>2022-07-06T18:49:27Z</time>
      </trkpt>
      <trkpt lat="20.363952" lon="-97.887704">
        <ele>249.220</ele>
        <time>2022-07-06T18:49:29Z</time>
      </trkpt>
      <trkpt lat="20.363901" lon="-97.887683">
        <ele>250.376</ele>
        <time>2022-07-06T18:49:31Z</time>
      </trkpt>
      <trkpt lat="20.363854" lon="-97.887664">
        <ele>250.890</ele>
        <time>2022-07-06T18:49:34Z</time>
      </trkpt>
      <trkpt lat="20.363803" lon="-97.887667">
        <ele>251.319</ele>
        <time>2022-07-06T18:49:37Z</time>
      </trkpt>
      <trkpt lat="20.363753" lon="-97.887692">
        <ele>251.609</ele>
        <time>2022-07-06T18:49:40Z</time>
      </trkpt>
      <trkpt lat="20.363718" lon="-97.88773">
        <ele>251.868</ele>
        <time>2022-07-06T18:49:43Z</time>
      </trkpt>
      <trkpt lat="20.363664" lon="-97.887713">
        <ele>252.917</ele>
        <time>2022-07-06T18:49:58Z</time>
      </trkpt>
      <trkpt lat="20.363615" lon="-97.887722">
        <ele>253.084</ele>
        <time>2022-07-06T18:50:00Z</time>
      </trkpt>
      <trkpt lat="20.36357" lon="-97.887719">
        <ele>253.139</ele>
        <time>2022-07-06T18:50:02Z</time>
      </trkpt>
      <trkpt lat="20.363527" lon="-97.887679">
        <ele>252.584</ele>
        <time>2022-07-06T18:50:04Z</time>
      </trkpt>
      <trkpt lat="20.363492" lon="-97.887626">
        <ele>251.475</ele>
        <time>2022-07-06T18:50:06Z</time>
      </trkpt>
      <trkpt lat="20.363465" lon="-97.887571">
        <ele>252.315</ele>
        <time>2022-07-06T18:50:08Z</time>
      </trkpt>
      <trkpt lat="20.36344" lon="-97.887526">
        <ele>253.163</ele>
        <time>2022-07-06T18:50:10Z</time>
      </trkpt>
      <trkpt lat="20.363399" lon="-97.887471">
        <ele>253.976</ele>
        <time>2022-07-06T18:50:13Z</time>
      </trkpt>
      <trkpt lat="20.363364" lon="-97.887432">
        <ele>255.792</ele>
        <time>2022-07-06T18:50:15Z</time>
      </trkpt>
      <trkpt lat="20.363324" lon="-97.887403">
        <ele>257.273</ele>
        <time>2022-07-06T18:50:17Z</time>
      </trkpt>
      <trkpt lat="20.363285" lon="-97.887368">
        <ele>257.920</ele>
        <time>2022-07-06T18:50:19Z</time>
      </trkpt>
      <trkpt lat="20.363255" lon="-97.887321">
        <ele>258.409</ele>
        <time>2022-07-06T18:50:21Z</time>
      </trkpt>
      <trkpt lat="20.36323" lon="-97.88728">
        <ele>258.410</ele>
        <time>2022-07-06T18:50:23Z</time>
      </trkpt>
      <trkpt lat="20.363203" lon="-97.887236">
        <ele>258.489</ele>
        <time>2022-07-06T18:50:25Z</time>
      </trkpt>
      <trkpt lat="20.363167" lon="-97.887197">
        <ele>257.166</ele>
        <time>2022-07-06T18:50:27Z</time>
      </trkpt>
      <trkpt lat="20.363135" lon="-97.88716">
        <ele>256.781</ele>
        <time>2022-07-06T18:50:29Z</time>
      </trkpt>
      <trkpt lat="20.363109" lon="-97.887119">
        <ele>256.736</ele>
        <time>2022-07-06T18:50:31Z</time>
      </trkpt>
      <trkpt lat="20.363089" lon="-97.88707">
        <ele>256.997</ele>
        <time>2022-07-06T18:50:33Z</time>
      </trkpt>
      <trkpt lat="20.363072" lon="-97.887021">
        <ele>257.097</ele>
        <time>2022-07-06T18:50:35Z</time>
      </trkpt>
      <trkpt lat="20.363067" lon="-97.886967">
        <ele>256.875</ele>
        <time>2022-07-06T18:50:37Z</time>
      </trkpt>
      <trkpt lat="20.363064" lon="-97.886918">
        <ele>257.078</ele>
        <time>2022-07-06T18:50:39Z</time>
      </trkpt>
      <trkpt lat="20.363057" lon="-97.886868">
        <ele>257.348</ele>
        <time>2022-07-06T18:50:41Z</time>
      </trkpt>
      <trkpt lat="20.363032" lon="-97.88682">
        <ele>257.861</ele>
        <time>2022-07-06T18:50:43Z</time>
      </trkpt>
      <trkpt lat="20.362998" lon="-97.886779">
        <ele>258.217</ele>
        <time>2022-07-06T18:50:45Z</time>
      </trkpt>
      <trkpt lat="20.362985" lon="-97.886726">
        <ele>259.809</ele>
        <time>2022-07-06T18:50:47Z</time>
      </trkpt>
      <trkpt lat="20.362979" lon="-97.88667">
        <ele>262.125</ele>
        <time>2022-07-06T18:50:49Z</time>
      </trkpt>
      <trkpt lat="20.362965" lon="-97.886617">
        <ele>262.164</ele>
        <time>2022-07-06T18:50:51Z</time>
      </trkpt>
      <trkpt lat="20.362951" lon="-97.88657">
        <ele>262.771</ele>
        <time>2022-07-06T18:50:53Z</time>
      </trkpt>
      <trkpt lat="20.362939" lon="-97.8865">
        <ele>263.156</ele>
        <time>2022-07-06T18:50:56Z</time>
      </trkpt>
      <trkpt lat="20.362928" lon="-97.88643">
        <ele>264.041</ele>
        <time>2022-07-06T18:50:59Z</time>
      </trkpt>
      <trkpt lat="20.362894" lon="-97.88639">
        <ele>264.852</ele>
        <time>2022-07-06T18:51:01Z</time>
      </trkpt>
      <trkpt lat="20.362871" lon="-97.886345">
        <ele>265.162</ele>
        <time>2022-07-06T18:51:03Z</time>
      </trkpt>
      <trkpt lat="20.362857" lon="-97.886282">
        <ele>265.250</ele>
        <time>2022-07-06T18:51:06Z</time>
      </trkpt>
      <trkpt lat="20.362839" lon="-97.886226">
        <ele>264.973</ele>
        <time>2022-07-06T18:51:09Z</time>
      </trkpt>
      <trkpt lat="20.362821" lon="-97.886159">
        <ele>265.194</ele>
        <time>2022-07-06T18:51:12Z</time>
      </trkpt>
      <trkpt lat="20.362804" lon="-97.886114">
        <ele>265.757</ele>
        <time>2022-07-06T18:51:14Z</time>
      </trkpt>
      <trkpt lat="20.362788" lon="-97.886048">
        <ele>265.722</ele>
        <time>2022-07-06T18:51:17Z</time>
      </trkpt>
      <trkpt lat="20.362765" lon="-97.885986">
        <ele>268.409</ele>
        <time>2022-07-06T18:51:20Z</time>
      </trkpt>
      <trkpt lat="20.362723" lon="-97.885935">
        <ele>270.050</ele>
        <time>2022-07-06T18:51:23Z</time>
      </trkpt>
      <trkpt lat="20.362689" lon="-97.885899">
        <ele>270.529</ele>
        <time>2022-07-06T18:51:26Z</time>
      </trkpt>
      <trkpt lat="20.362667" lon="-97.885848">
        <ele>270.346</ele>
        <time>2022-07-06T18:51:30Z</time>
      </trkpt>
      <trkpt lat="20.362628" lon="-97.885797">
        <ele>270.341</ele>
        <time>2022-07-06T18:51:33Z</time>
      </trkpt>
      <trkpt lat="20.362585" lon="-97.885746">
        <ele>269.476</ele>
        <time>2022-07-06T18:51:36Z</time>
      </trkpt>
      <trkpt lat="20.362534" lon="-97.885697">
        <ele>268.917</ele>
        <time>2022-07-06T18:51:39Z</time>
      </trkpt>
      <trkpt lat="20.362502" lon="-97.885662">
        <ele>268.537</ele>
        <time>2022-07-06T18:51:41Z</time>
      </trkpt>
      <trkpt lat="20.362463" lon="-97.885631">
        <ele>268.545</ele>
        <time>2022-07-06T18:51:43Z</time>
      </trkpt>
      <trkpt lat="20.362401" lon="-97.885628">
        <ele>268.748</ele>
        <time>2022-07-06T18:51:45Z</time>
      </trkpt>
      <trkpt lat="20.362345" lon="-97.885627">
        <ele>268.759</ele>
        <time>2022-07-06T18:51:47Z</time>
      </trkpt>
      <trkpt lat="20.362305" lon="-97.885594">
        <ele>268.903</ele>
        <time>2022-07-06T18:51:49Z</time>
      </trkpt>
      <trkpt lat="20.362268" lon="-97.88556">
        <ele>269.023</ele>
        <time>2022-07-06T18:51:51Z</time>
      </trkpt>
      <trkpt lat="20.362212" lon="-97.885526">
        <ele>269.009</ele>
        <time>2022-07-06T18:51:54Z</time>
      </trkpt>
      <trkpt lat="20.362168" lon="-97.885474">
        <ele>268.986</ele>
        <time>2022-07-06T18:51:57Z</time>
      </trkpt>
      <trkpt lat="20.362117" lon="-97.88547">
        <ele>268.765</ele>
        <time>2022-07-06T18:52:00Z</time>
      </trkpt>
      <trkpt lat="20.362052" lon="-97.885494">
        <ele>267.942</ele>
        <time>2022-07-06T18:52:03Z</time>
      </trkpt>
      <trkpt lat="20.362007" lon="-97.885503">
        <ele>267.627</ele>
        <time>2022-07-06T18:52:05Z</time>
      </trkpt>
      <trkpt lat="20.361961" lon="-97.885512">
        <ele>267.492</ele>
        <time>2022-07-06T18:52:07Z</time>
      </trkpt>
      <trkpt lat="20.361896" lon="-97.885515">
        <ele>266.583</ele>
        <time>2022-07-06T18:52:10Z</time>
      </trkpt>
      <trkpt lat="20.361851" lon="-97.885522">
        <ele>265.553</ele>
        <time>2022-07-06T18:52:12Z</time>
      </trkpt>
      <trkpt lat="20.361802" lon="-97.885529">
        <ele>263.571</ele>
        <time>2022-07-06T18:52:14Z</time>
      </trkpt>
      <trkpt lat="20.361753" lon="-97.885538">
        <ele>263.214</ele>
        <time>2022-07-06T18:52:16Z</time>
      </trkpt>
      <trkpt lat="20.361702" lon="-97.885534">
        <ele>263.135</ele>
        <time>2022-07-06T18:52:18Z</time>
      </trkpt>
      <trkpt lat="20.361649" lon="-97.885541">
        <ele>263.086</ele>
        <time>2022-07-06T18:52:20Z</time>
      </trkpt>
      <trkpt lat="20.361601" lon="-97.885538">
        <ele>261.414</ele>
        <time>2022-07-06T18:52:22Z</time>
      </trkpt>
      <trkpt lat="20.361551" lon="-97.885541">
        <ele>261.409</ele>
        <time>2022-07-06T18:52:24Z</time>
      </trkpt>
      <trkpt lat="20.361502" lon="-97.885549">
        <ele>261.354</ele>
        <time>2022-07-06T18:52:26Z</time>
      </trkpt>
      <trkpt lat="20.361455" lon="-97.885539">
        <ele>261.373</ele>
        <time>2022-07-06T18:52:28Z</time>
      </trkpt>
      <trkpt lat="20.361408" lon="-97.88553">
        <ele>261.360</ele>
        <time>2022-07-06T18:52:30Z</time>
      </trkpt>
      <trkpt lat="20.361354" lon="-97.885533">
        <ele>260.555</ele>
        <time>2022-07-06T18:52:32Z</time>
      </trkpt>
      <trkpt lat="20.361297" lon="-97.885542">
        <ele>260.290</ele>
        <time>2022-07-06T18:52:34Z</time>
      </trkpt>
      <trkpt lat="20.361244" lon="-97.885551">
        <ele>260.071</ele>
        <time>2022-07-06T18:52:36Z</time>
      </trkpt>
      <trkpt lat="20.361194" lon="-97.885555">
        <ele>260.071</ele>
        <time>2022-07-06T18:52:38Z</time>
      </trkpt>
      <trkpt lat="20.361141" lon="-97.885565">
        <ele>259.649</ele>
        <time>2022-07-06T18:52:40Z</time>
      </trkpt>
      <trkpt lat="20.361089" lon="-97.885574">
        <ele>259.532</ele>
        <time>2022-07-06T18:52:42Z</time>
      </trkpt>
      <trkpt lat="20.361041" lon="-97.88558">
        <ele>258.151</ele>
        <time>2022-07-06T18:52:44Z</time>
      </trkpt>
      <trkpt lat="20.360995" lon="-97.88558">
        <ele>257.001</ele>
        <time>2022-07-06T18:52:46Z</time>
      </trkpt>
      <trkpt lat="20.360948" lon="-97.885576">
        <ele>256.211</ele>
        <time>2022-07-06T18:52:48Z</time>
      </trkpt>
      <trkpt lat="20.360897" lon="-97.885576">
        <ele>255.709</ele>
        <time>2022-07-06T18:52:50Z</time>
      </trkpt>
      <trkpt lat="20.360846" lon="-97.885587">
        <ele>254.986</ele>
        <time>2022-07-06T18:52:52Z</time>
      </trkpt>
      <trkpt lat="20.360793" lon="-97.885593">
        <ele>254.995</ele>
        <time>2022-07-06T18:52:54Z</time>
      </trkpt>
      <trkpt lat="20.36074" lon="-97.885584">
        <ele>254.852</ele>
        <time>2022-07-06T18:52:56Z</time>
      </trkpt>
      <trkpt lat="20.360683" lon="-97.885588">
        <ele>254.547</ele>
        <time>2022-07-06T18:52:58Z</time>
      </trkpt>
      <trkpt lat="20.360626" lon="-97.885608">
        <ele>254.312</ele>
        <time>2022-07-06T18:53:00Z</time>
      </trkpt>
      <trkpt lat="20.36057" lon="-97.885629">
        <ele>253.463</ele>
        <time>2022-07-06T18:53:02Z</time>
      </trkpt>
      <trkpt lat="20.360513" lon="-97.885639">
        <ele>252.913</ele>
        <time>2022-07-06T18:53:04Z</time>
      </trkpt>
      <trkpt lat="20.360443" lon="-97.885645">
        <ele>249.951</ele>
        <time>2022-07-06T18:53:07Z</time>
      </trkpt>
      <trkpt lat="20.360392" lon="-97.885644">
        <ele>249.294</ele>
        <time>2022-07-06T18:53:09Z</time>
      </trkpt>
      <trkpt lat="20.360339" lon="-97.885652">
        <ele>248.044</ele>
        <time>2022-07-06T18:53:11Z</time>
      </trkpt>
      <trkpt lat="20.36028" lon="-97.885665">
        <ele>247.205</ele>
        <time>2022-07-06T18:53:13Z</time>
      </trkpt>
      <trkpt lat="20.360216" lon="-97.885677">
        <ele>247.215</ele>
        <time>2022-07-06T18:53:15Z</time>
      </trkpt>
      <trkpt lat="20.360148" lon="-97.885684">
        <ele>247.009</ele>
        <time>2022-07-06T18:53:17Z</time>
      </trkpt>
      <trkpt lat="20.360079" lon="-97.885681">
        <ele>247.015</ele>
        <time>2022-07-06T18:53:19Z</time>
      </trkpt>
      <trkpt lat="20.360015" lon="-97.885683">
        <ele>248.154</ele>
        <time>2022-07-06T18:53:21Z</time>
      </trkpt>
      <trkpt lat="20.359954" lon="-97.88569">
        <ele>248.961</ele>
        <time>2022-07-06T18:53:23Z</time>
      </trkpt>
      <trkpt lat="20.359895" lon="-97.885702">
        <ele>249.656</ele>
        <time>2022-07-06T18:53:25Z</time>
      </trkpt>
      <trkpt lat="20.359836" lon="-97.885709">
        <ele>250.621</ele>
        <time>2022-07-06T18:53:27Z</time>
      </trkpt>
      <trkpt lat="20.359777" lon="-97.885713">
        <ele>250.862</ele>
        <time>2022-07-06T18:53:29Z</time>
      </trkpt>
      <trkpt lat="20.359717" lon="-97.88571">
        <ele>250.852</ele>
        <time>2022-07-06T18:53:31Z</time>
      </trkpt>
      <trkpt lat="20.359655" lon="-97.885702">
        <ele>250.650</ele>
        <time>2022-07-06T18:53:33Z</time>
      </trkpt>
      <trkpt lat="20.359595" lon="-97.885715">
        <ele>250.453</ele>
        <time>2022-07-06T18:53:35Z</time>
      </trkpt>
      <trkpt lat="20.359534" lon="-97.885722">
        <ele>249.255</ele>
        <time>2022-07-06T18:53:37Z</time>
      </trkpt>
      <trkpt lat="20.359478" lon="-97.885713">
        <ele>248.907</ele>
        <time>2022-07-06T18:53:39Z</time>
      </trkpt>
      <trkpt lat="20.359427" lon="-97.885701">
        <ele>248.717</ele>
        <time>2022-07-06T18:53:41Z</time>
      </trkpt>
      <trkpt lat="20.359374" lon="-97.885705">
        <ele>248.809</ele>
        <time>2022-07-06T18:53:43Z</time>
      </trkpt>
      <trkpt lat="20.35932" lon="-97.885712">
        <ele>249.516</ele>
        <time>2022-07-06T18:53:45Z</time>
      </trkpt>
      <trkpt lat="20.359265" lon="-97.885705">
        <ele>250.645</ele>
        <time>2022-07-06T18:53:47Z</time>
      </trkpt>
      <trkpt lat="20.359212" lon="-97.885687">
        <ele>252.872</ele>
        <time>2022-07-06T18:53:49Z</time>
      </trkpt>
      <trkpt lat="20.359165" lon="-97.885673">
        <ele>253.487</ele>
        <time>2022-07-06T18:53:51Z</time>
      </trkpt>
      <trkpt lat="20.359119" lon="-97.885656">
        <ele>253.662</ele>
        <time>2022-07-06T18:53:53Z</time>
      </trkpt>
      <trkpt lat="20.359076" lon="-97.885637">
        <ele>253.883</ele>
        <time>2022-07-06T18:53:55Z</time>
      </trkpt>
      <trkpt lat="20.359031" lon="-97.885629">
        <ele>254.933</ele>
        <time>2022-07-06T18:53:57Z</time>
      </trkpt>
      <trkpt lat="20.358969" lon="-97.885596">
        <ele>255.021</ele>
        <time>2022-07-06T18:54:00Z</time>
      </trkpt>
      <trkpt lat="20.358934" lon="-97.885563">
        <ele>255.394</ele>
        <time>2022-07-06T18:54:02Z</time>
      </trkpt>
      <trkpt lat="20.358876" lon="-97.885527">
        <ele>255.862</ele>
        <time>2022-07-06T18:54:05Z</time>
      </trkpt>
      <trkpt lat="20.358813" lon="-97.885499">
        <ele>256.183</ele>
        <time>2022-07-06T18:54:08Z</time>
      </trkpt>
      <trkpt lat="20.358758" lon="-97.885463">
        <ele>257.111</ele>
        <time>2022-07-06T18:54:11Z</time>
      </trkpt>
      <trkpt lat="20.358727" lon="-97.885421">
        <ele>256.709</ele>
        <time>2022-07-06T18:54:14Z</time>
      </trkpt>
      <trkpt lat="20.358688" lon="-97.885386">
        <ele>256.897</ele>
        <time>2022-07-06T18:54:19Z</time>
      </trkpt>
      <trkpt lat="20.358638" lon="-97.885352">
        <ele>256.696</ele>
        <time>2022-07-06T18:54:23Z</time>
      </trkpt>
      <trkpt lat="20.358605" lon="-97.885318">
        <ele>256.043</ele>
        <time>2022-07-06T18:54:26Z</time>
      </trkpt>
      <trkpt lat="20.358556" lon="-97.885292">
        <ele>255.548</ele>
        <time>2022-07-06T18:54:30Z</time>
      </trkpt>
      <trkpt lat="20.358514" lon="-97.88526">
        <ele>254.983</ele>
        <time>2022-07-06T18:54:34Z</time>
      </trkpt>
      <trkpt lat="20.358463" lon="-97.885243">
        <ele>254.014</ele>
        <time>2022-07-06T18:55:13Z</time>
      </trkpt>
      <trkpt lat="20.358422" lon="-97.885207">
        <ele>254.064</ele>
        <time>2022-07-06T18:55:17Z</time>
      </trkpt>
      <trkpt lat="20.358383" lon="-97.885168">
        <ele>254.062</ele>
        <time>2022-07-06T18:55:22Z</time>
      </trkpt>
      <trkpt lat="20.35835" lon="-97.885132">
        <ele>254.165</ele>
        <time>2022-07-06T18:55:26Z</time>
      </trkpt>
      <trkpt lat="20.358313" lon="-97.885096">
        <ele>254.039</ele>
        <time>2022-07-06T18:55:30Z</time>
      </trkpt>
      <trkpt lat="20.358282" lon="-97.885047">
        <ele>254.301</ele>
        <time>2022-07-06T18:55:34Z</time>
      </trkpt>
      <trkpt lat="20.35825" lon="-97.885009">
        <ele>254.121</ele>
        <time>2022-07-06T18:55:38Z</time>
      </trkpt>
      <trkpt lat="20.358219" lon="-97.884959">
        <ele>254.009</ele>
        <time>2022-07-06T18:55:42Z</time>
      </trkpt>
      <trkpt lat="20.358183" lon="-97.884919">
        <ele>252.024</ele>
        <time>2022-07-06T18:55:47Z</time>
      </trkpt>
      <trkpt lat="20.358131" lon="-97.884921">
        <ele>251.033</ele>
        <time>2022-07-06T18:55:51Z</time>
      </trkpt>
      <trkpt lat="20.358079" lon="-97.884945">
        <ele>250.890</ele>
        <time>2022-07-06T18:55:55Z</time>
      </trkpt>
      <trkpt lat="20.358038" lon="-97.884904">
        <ele>250.585</ele>
        <time>2022-07-06T18:55:58Z</time>
      </trkpt>
      <trkpt lat="20.358027" lon="-97.884857">
        <ele>250.740</ele>
        <time>2022-07-06T18:56:00Z</time>
      </trkpt>
      <trkpt lat="20.358029" lon="-97.884794">
        <ele>250.691</ele>
        <time>2022-07-06T18:56:02Z</time>
      </trkpt>
      <trkpt lat="20.358021" lon="-97.884736">
        <ele>251.631</ele>
        <time>2022-07-06T18:56:04Z</time>
      </trkpt>
      <trkpt lat="20.358005" lon="-97.884687">
        <ele>254.599</ele>
        <time>2022-07-06T18:56:06Z</time>
      </trkpt>
      <trkpt lat="20.357991" lon="-97.884639">
        <ele>258.422</ele>
        <time>2022-07-06T18:56:08Z</time>
      </trkpt>
      <trkpt lat="20.357968" lon="-97.884593">
        <ele>258.864</ele>
        <time>2022-07-06T18:56:10Z</time>
      </trkpt>
      <trkpt lat="20.357959" lon="-97.884541">
        <ele>259.406</ele>
        <time>2022-07-06T18:56:12Z</time>
      </trkpt>
      <trkpt lat="20.357933" lon="-97.884489">
        <ele>260.016</ele>
        <time>2022-07-06T18:56:17Z</time>
      </trkpt>
      <trkpt lat="20.357885" lon="-97.884434">
        <ele>260.709</ele>
        <time>2022-07-06T18:56:20Z</time>
      </trkpt>
      <trkpt lat="20.357856" lon="-97.884383">
        <ele>261.057</ele>
        <time>2022-07-06T18:56:22Z</time>
      </trkpt>
      <trkpt lat="20.357824" lon="-97.884339">
        <ele>261.576</ele>
        <time>2022-07-06T18:56:24Z</time>
      </trkpt>
      <trkpt lat="20.35779" lon="-97.884295">
        <ele>261.773</ele>
        <time>2022-07-06T18:56:26Z</time>
      </trkpt>
      <trkpt lat="20.357759" lon="-97.884252">
        <ele>261.148</ele>
        <time>2022-07-06T18:56:28Z</time>
      </trkpt>
      <trkpt lat="20.357736" lon="-97.884202">
        <ele>261.183</ele>
        <time>2022-07-06T18:56:30Z</time>
      </trkpt>
      <trkpt lat="20.357706" lon="-97.884159">
        <ele>261.764</ele>
        <time>2022-07-06T18:56:32Z</time>
      </trkpt>
      <trkpt lat="20.357666" lon="-97.884124">
        <ele>261.834</ele>
        <time>2022-07-06T18:56:34Z</time>
      </trkpt>
      <trkpt lat="20.357633" lon="-97.884092">
        <ele>262.182</ele>
        <time>2022-07-06T18:56:36Z</time>
      </trkpt>
      <trkpt lat="20.357597" lon="-97.884051">
        <ele>263.415</ele>
        <time>2022-07-06T18:56:39Z</time>
      </trkpt>
      <trkpt lat="20.357562" lon="-97.884004">
        <ele>264.385</ele>
        <time>2022-07-06T18:56:42Z</time>
      </trkpt>
      <trkpt lat="20.35754" lon="-97.883956">
        <ele>265.589</ele>
        <time>2022-07-06T18:56:44Z</time>
      </trkpt>
      <trkpt lat="20.357515" lon="-97.883905">
        <ele>266.417</ele>
        <time>2022-07-06T18:56:46Z</time>
      </trkpt>
      <trkpt lat="20.357481" lon="-97.883859">
        <ele>266.609</ele>
        <time>2022-07-06T18:56:48Z</time>
      </trkpt>
      <trkpt lat="20.357425" lon="-97.883853">
        <ele>267.619</ele>
        <time>2022-07-06T18:56:50Z</time>
      </trkpt>
      <trkpt lat="20.357373" lon="-97.883855">
        <ele>268.698</ele>
        <time>2022-07-06T18:56:52Z</time>
      </trkpt>
      <trkpt lat="20.357333" lon="-97.883823">
        <ele>268.625</ele>
        <time>2022-07-06T18:56:54Z</time>
      </trkpt>
      <trkpt lat="20.357323" lon="-97.883765">
        <ele>268.930</ele>
        <time>2022-07-06T18:56:56Z</time>
      </trkpt>
      <trkpt lat="20.357321" lon="-97.8837">
        <ele>269.055</ele>
        <time>2022-07-06T18:56:58Z</time>
      </trkpt>
      <trkpt lat="20.357308" lon="-97.883645">
        <ele>268.786</ele>
        <time>2022-07-06T18:57:00Z</time>
      </trkpt>
      <trkpt lat="20.357301" lon="-97.883594">
        <ele>268.836</ele>
        <time>2022-07-06T18:57:02Z</time>
      </trkpt>
      <trkpt lat="20.357291" lon="-97.883528">
        <ele>270.574</ele>
        <time>2022-07-06T18:57:05Z</time>
      </trkpt>
      <trkpt lat="20.357261" lon="-97.88349">
        <ele>270.647</ele>
        <time>2022-07-06T18:57:08Z</time>
      </trkpt>
      <trkpt lat="20.357248" lon="-97.88344">
        <ele>270.453</ele>
        <time>2022-07-06T18:57:12Z</time>
      </trkpt>
      <trkpt lat="20.357248" lon="-97.88344">
        <ele>270.404</ele>
        <time>2022-07-06T18:57:12Z</time>
      </trkpt>
      <trkpt lat="20.357248" lon="-97.88344">
        <ele>270.414</ele>
        <time>2022-07-06T18:57:12Z</time>
      </trkpt>
      <trkpt lat="20.357248" lon="-97.88344">
        <ele>270.409</ele>
        <time>2022-07-06T18:57:12Z</time>
      </trkpt>
      <trkpt lat="20.357215" lon="-97.883391">
        <ele>270.396</ele>
        <time>2022-07-06T18:57:16Z</time>
      </trkpt>
      <trkpt lat="20.357176" lon="-97.883358">
        <ele>271.195</ele>
        <time>2022-07-06T18:57:19Z</time>
      </trkpt>
      <trkpt lat="20.357143" lon="-97.883321">
        <ele>271.352</ele>
        <time>2022-07-06T18:57:22Z</time>
      </trkpt>
      <trkpt lat="20.357127" lon="-97.883265">
        <ele>273.217</ele>
        <time>2022-07-06T18:57:26Z</time>
      </trkpt>
      <trkpt lat="20.357088" lon="-97.883237">
        <ele>274.522</ele>
        <time>2022-07-06T18:57:29Z</time>
      </trkpt>
      <trkpt lat="20.357079" lon="-97.883188">
        <ele>274.753</ele>
        <time>2022-07-06T18:57:32Z</time>
      </trkpt>
      <trkpt lat="20.357069" lon="-97.883133">
        <ele>275.043</ele>
        <time>2022-07-06T18:57:35Z</time>
      </trkpt>
      <trkpt lat="20.357033" lon="-97.883096">
        <ele>275.281</ele>
        <time>2022-07-06T18:57:38Z</time>
      </trkpt>
      <trkpt lat="20.356975" lon="-97.883072">
        <ele>275.314</ele>
        <time>2022-07-06T18:57:41Z</time>
      </trkpt>
      <trkpt lat="20.356932" lon="-97.88304">
        <ele>275.795</ele>
        <time>2022-07-06T18:57:43Z</time>
      </trkpt>
      <trkpt lat="20.356904" lon="-97.882988">
        <ele>276.149</ele>
        <time>2022-07-06T18:57:45Z</time>
      </trkpt>
      <trkpt lat="20.356878" lon="-97.882941">
        <ele>276.323</ele>
        <time>2022-07-06T18:57:47Z</time>
      </trkpt>
      <trkpt lat="20.356858" lon="-97.882893">
        <ele>276.709</ele>
        <time>2022-07-06T18:57:49Z</time>
      </trkpt>
      <trkpt lat="20.35682" lon="-97.882842">
        <ele>277.060</ele>
        <time>2022-07-06T18:57:52Z</time>
      </trkpt>
      <trkpt lat="20.3568" lon="-97.882789">
        <ele>276.959</ele>
        <time>2022-07-06T18:57:55Z</time>
      </trkpt>
      <trkpt lat="20.356772" lon="-97.882739">
        <ele>276.716</ele>
        <time>2022-07-06T18:57:58Z</time>
      </trkpt>
      <trkpt lat="20.356741" lon="-97.882691">
        <ele>276.671</ele>
        <time>2022-07-06T18:58:01Z</time>
      </trkpt>
      <trkpt lat="20.356722" lon="-97.88263">
        <ele>276.756</ele>
        <time>2022-07-06T18:58:04Z</time>
      </trkpt>
      <trkpt lat="20.356705" lon="-97.882564">
        <ele>276.897</ele>
        <time>2022-07-06T18:58:07Z</time>
      </trkpt>
      <trkpt lat="20.356666" lon="-97.882528">
        <ele>277.267</ele>
        <time>2022-07-06T18:58:10Z</time>
      </trkpt>
      <trkpt lat="20.356627" lon="-97.882502">
        <ele>277.665</ele>
        <time>2022-07-06T18:58:12Z</time>
      </trkpt>
      <trkpt lat="20.35658" lon="-97.882458">
        <ele>278.048</ele>
        <time>2022-07-06T18:58:15Z</time>
      </trkpt>
      <trkpt lat="20.356539" lon="-97.882408">
        <ele>278.579</ele>
        <time>2022-07-06T18:58:18Z</time>
      </trkpt>
      <trkpt lat="20.356507" lon="-97.882373">
        <ele>279.005</ele>
        <time>2022-07-06T18:58:20Z</time>
      </trkpt>
      <trkpt lat="20.35647" lon="-97.882321">
        <ele>281.125</ele>
        <time>2022-07-06T18:58:23Z</time>
      </trkpt>
      <trkpt lat="20.356439" lon="-97.88227">
        <ele>281.709</ele>
        <time>2022-07-06T18:58:26Z</time>
      </trkpt>
      <trkpt lat="20.356402" lon="-97.882221">
        <ele>281.698</ele>
        <time>2022-07-06T18:58:29Z</time>
      </trkpt>
      <trkpt lat="20.356393" lon="-97.882154">
        <ele>281.627</ele>
        <time>2022-07-06T18:58:32Z</time>
      </trkpt>
      <trkpt lat="20.356362" lon="-97.882093">
        <ele>280.284</ele>
        <time>2022-07-06T18:58:35Z</time>
      </trkpt>
      <trkpt lat="20.356324" lon="-97.882063">
        <ele>279.339</ele>
        <time>2022-07-06T18:58:37Z</time>
      </trkpt>
      <trkpt lat="20.356268" lon="-97.882045">
        <ele>279.374</ele>
        <time>2022-07-06T18:58:39Z</time>
      </trkpt>
      <trkpt lat="20.356212" lon="-97.882031">
        <ele>279.645</ele>
        <time>2022-07-06T18:58:41Z</time>
      </trkpt>
      <trkpt lat="20.356158" lon="-97.882025">
        <ele>280.185</ele>
        <time>2022-07-06T18:58:43Z</time>
      </trkpt>
      <trkpt lat="20.356123" lon="-97.881992">
        <ele>281.023</ele>
        <time>2022-07-06T18:58:45Z</time>
      </trkpt>
      <trkpt lat="20.356107" lon="-97.881922">
        <ele>282.276</ele>
        <time>2022-07-06T18:58:48Z</time>
      </trkpt>
      <trkpt lat="20.356108" lon="-97.881874">
        <ele>282.251</ele>
        <time>2022-07-06T18:58:50Z</time>
      </trkpt>
      <trkpt lat="20.356102" lon="-97.881801">
        <ele>282.401</ele>
        <time>2022-07-06T18:58:53Z</time>
      </trkpt>
      <trkpt lat="20.356105" lon="-97.88175">
        <ele>282.711</ele>
        <time>2022-07-06T18:58:55Z</time>
      </trkpt>
      <trkpt lat="20.356083" lon="-97.881706">
        <ele>282.909</ele>
        <time>2022-07-06T18:58:57Z</time>
      </trkpt>
      <trkpt lat="20.356037" lon="-97.881655">
        <ele>284.316</ele>
        <time>2022-07-06T18:59:00Z</time>
      </trkpt>
      <trkpt lat="20.356006" lon="-97.881617">
        <ele>284.895</ele>
        <time>2022-07-06T18:59:02Z</time>
      </trkpt>
      <trkpt lat="20.355975" lon="-97.881576">
        <ele>285.092</ele>
        <time>2022-07-06T18:59:04Z</time>
      </trkpt>
      <trkpt lat="20.355948" lon="-97.881534">
        <ele>285.877</ele>
        <time>2022-07-06T18:59:06Z</time>
      </trkpt>
      <trkpt lat="20.355918" lon="-97.881495">
        <ele>286.112</ele>
        <time>2022-07-06T18:59:08Z</time>
      </trkpt>
      <trkpt lat="20.355889" lon="-97.881431">
        <ele>286.833</ele>
        <time>2022-07-06T18:59:11Z</time>
      </trkpt>
      <trkpt lat="20.355875" lon="-97.881383">
        <ele>287.343</ele>
        <time>2022-07-06T18:59:13Z</time>
      </trkpt>
      <trkpt lat="20.355841" lon="-97.881349">
        <ele>287.911</ele>
        <time>2022-07-06T18:59:17Z</time>
      </trkpt>
      <trkpt lat="20.355789" lon="-97.88135">
        <ele>287.864</ele>
        <time>2022-07-06T18:59:21Z</time>
      </trkpt>
      <trkpt lat="20.355739" lon="-97.88135">
        <ele>288.056</ele>
        <time>2022-07-06T18:59:24Z</time>
      </trkpt>
      <trkpt lat="20.355715" lon="-97.881292">
        <ele>288.359</ele>
        <time>2022-07-06T18:59:28Z</time>
      </trkpt>
      <trkpt lat="20.3557" lon="-97.881224">
        <ele>288.514</ele>
        <time>2022-07-06T18:59:31Z</time>
      </trkpt>
      <trkpt lat="20.355687" lon="-97.881176">
        <ele>288.509</ele>
        <time>2022-07-06T18:59:33Z</time>
      </trkpt>
      <trkpt lat="20.35566" lon="-97.881132">
        <ele>288.596</ele>
        <time>2022-07-06T18:59:35Z</time>
      </trkpt>
      <trkpt lat="20.355635" lon="-97.881088">
        <ele>288.545</ele>
        <time>2022-07-06T18:59:37Z</time>
      </trkpt>
      <trkpt lat="20.355621" lon="-97.881042">
        <ele>288.072</ele>
        <time>2022-07-06T18:59:39Z</time>
      </trkpt>
      <trkpt lat="20.355606" lon="-97.880994">
        <ele>287.077</ele>
        <time>2022-07-06T18:59:41Z</time>
      </trkpt>
      <trkpt lat="20.355576" lon="-97.880957">
        <ele>286.152</ele>
        <time>2022-07-06T18:59:43Z</time>
      </trkpt>
      <trkpt lat="20.355542" lon="-97.880922">
        <ele>285.573</ele>
        <time>2022-07-06T18:59:45Z</time>
      </trkpt>
      <trkpt lat="20.355503" lon="-97.88089">
        <ele>284.883</ele>
        <time>2022-07-06T18:59:47Z</time>
      </trkpt>
      <trkpt lat="20.355459" lon="-97.880873">
        <ele>284.381</ele>
        <time>2022-07-06T18:59:49Z</time>
      </trkpt>
      <trkpt lat="20.355411" lon="-97.880866">
        <ele>283.964</ele>
        <time>2022-07-06T18:59:51Z</time>
      </trkpt>
      <trkpt lat="20.355359" lon="-97.880858">
        <ele>282.981</ele>
        <time>2022-07-06T18:59:53Z</time>
      </trkpt>
      <trkpt lat="20.355302" lon="-97.880848">
        <ele>282.761</ele>
        <time>2022-07-06T18:59:55Z</time>
      </trkpt>
      <trkpt lat="20.355248" lon="-97.880834">
        <ele>282.717</ele>
        <time>2022-07-06T18:59:57Z</time>
      </trkpt>
      <trkpt lat="20.355194" lon="-97.880818">
        <ele>283.109</ele>
        <time>2022-07-06T18:59:59Z</time>
      </trkpt>
      <trkpt lat="20.355137" lon="-97.880809">
        <ele>283.519</ele>
        <time>2022-07-06T19:00:02Z</time>
      </trkpt>
      <trkpt lat="20.355086" lon="-97.880781">
        <ele>282.618</ele>
        <time>2022-07-06T19:00:06Z</time>
      </trkpt>
      <trkpt lat="20.355034" lon="-97.880786">
        <ele>281.685</ele>
        <time>2022-07-06T19:00:10Z</time>
      </trkpt>
      <trkpt lat="20.354981" lon="-97.880793">
        <ele>280.810</ele>
        <time>2022-07-06T19:00:14Z</time>
      </trkpt>
      <trkpt lat="20.354929" lon="-97.880797">
        <ele>280.865</ele>
        <time>2022-07-06T19:00:16Z</time>
      </trkpt>
      <trkpt lat="20.354866" lon="-97.880796">
        <ele>280.966</ele>
        <time>2022-07-06T19:00:19Z</time>
      </trkpt>
      <trkpt lat="20.354805" lon="-97.880784">
        <ele>281.396</ele>
        <time>2022-07-06T19:00:22Z</time>
      </trkpt>
      <trkpt lat="20.35476" lon="-97.880773">
        <ele>280.724</ele>
        <time>2022-07-06T19:00:24Z</time>
      </trkpt>
      <trkpt lat="20.354714" lon="-97.880764">
        <ele>280.347</ele>
        <time>2022-07-06T19:00:26Z</time>
      </trkpt>
      <trkpt lat="20.354658" lon="-97.88075">
        <ele>280.022</ele>
        <time>2022-07-06T19:00:30Z</time>
      </trkpt>
      <trkpt lat="20.354611" lon="-97.880745">
        <ele>280.062</ele>
        <time>2022-07-06T19:00:32Z</time>
      </trkpt>
      <trkpt lat="20.354562" lon="-97.880735">
        <ele>280.008</ele>
        <time>2022-07-06T19:00:34Z</time>
      </trkpt>
      <trkpt lat="20.354511" lon="-97.880723">
        <ele>280.809</ele>
        <time>2022-07-06T19:00:36Z</time>
      </trkpt>
      <trkpt lat="20.354459" lon="-97.880716">
        <ele>281.463</ele>
        <time>2022-07-06T19:00:38Z</time>
      </trkpt>
      <trkpt lat="20.354411" lon="-97.880711">
        <ele>282.022</ele>
        <time>2022-07-06T19:00:40Z</time>
      </trkpt>
      <trkpt lat="20.354363" lon="-97.880707">
        <ele>284.089</ele>
        <time>2022-07-06T19:00:42Z</time>
      </trkpt>
      <trkpt lat="20.3543" lon="-97.880704">
        <ele>284.484</ele>
        <time>2022-07-06T19:00:46Z</time>
      </trkpt>
      <trkpt lat="20.35425" lon="-97.880702">
        <ele>284.739</ele>
        <time>2022-07-06T19:00:48Z</time>
      </trkpt>
      <trkpt lat="20.354205" lon="-97.880693">
        <ele>284.720</ele>
        <time>2022-07-06T19:00:50Z</time>
      </trkpt>
      <trkpt lat="20.354142" lon="-97.880686">
        <ele>284.730</ele>
        <time>2022-07-06T19:00:53Z</time>
      </trkpt>
      <trkpt lat="20.354096" lon="-97.880693">
        <ele>284.728</ele>
        <time>2022-07-06T19:00:55Z</time>
      </trkpt>
      <trkpt lat="20.354046" lon="-97.880696">
        <ele>284.711</ele>
        <time>2022-07-06T19:00:57Z</time>
      </trkpt>
      <trkpt lat="20.353993" lon="-97.880697">
        <ele>286.267</ele>
        <time>2022-07-06T19:01:00Z</time>
      </trkpt>
      <trkpt lat="20.353934" lon="-97.880686">
        <ele>286.481</ele>
        <time>2022-07-06T19:01:03Z</time>
      </trkpt>
      <trkpt lat="20.353887" lon="-97.880678">
        <ele>286.419</ele>
        <time>2022-07-06T19:01:05Z</time>
      </trkpt>
      <trkpt lat="20.353837" lon="-97.880677">
        <ele>286.509</ele>
        <time>2022-07-06T19:01:07Z</time>
      </trkpt>
      <trkpt lat="20.353799" lon="-97.880712">
        <ele>286.377</ele>
        <time>2022-07-06T19:01:11Z</time>
      </trkpt>
      <trkpt lat="20.353748" lon="-97.88071">
        <ele>285.316</ele>
        <time>2022-07-06T19:01:17Z</time>
      </trkpt>
      <trkpt lat="20.353698" lon="-97.880701">
        <ele>284.263</ele>
        <time>2022-07-06T19:01:22Z</time>
      </trkpt>
      <trkpt lat="20.353649" lon="-97.880683">
        <ele>283.828</ele>
        <time>2022-07-06T19:01:27Z</time>
      </trkpt>
      <trkpt lat="20.353597" lon="-97.880681">
        <ele>284.283</ele>
        <time>2022-07-06T19:01:32Z</time>
      </trkpt>
      <trkpt lat="20.353544" lon="-97.880689">
        <ele>284.024</ele>
        <time>2022-07-06T19:01:37Z</time>
      </trkpt>
      <trkpt lat="20.3535" lon="-97.88067">
        <ele>283.514</ele>
        <time>2022-07-06T19:01:41Z</time>
      </trkpt>
      <trkpt lat="20.35345" lon="-97.880662">
        <ele>284.262</ele>
        <time>2022-07-06T19:01:45Z</time>
      </trkpt>
      <trkpt lat="20.353402" lon="-97.880672">
        <ele>284.365</ele>
        <time>2022-07-06T19:01:49Z</time>
      </trkpt>
      <trkpt lat="20.353354" lon="-97.880669">
        <ele>284.369</ele>
        <time>2022-07-06T19:01:53Z</time>
      </trkpt>
      <trkpt lat="20.353301" lon="-97.880665">
        <ele>284.704</ele>
        <time>2022-07-06T19:01:57Z</time>
      </trkpt>
      <trkpt lat="20.353238" lon="-97.880665">
        <ele>285.724</ele>
        <time>2022-07-06T19:02:00Z</time>
      </trkpt>
      <trkpt lat="20.353181" lon="-97.880643">
        <ele>286.809</ele>
        <time>2022-07-06T19:02:03Z</time>
      </trkpt>
      <trkpt lat="20.353118" lon="-97.880615">
        <ele>287.487</ele>
        <time>2022-07-06T19:02:06Z</time>
      </trkpt>
      <trkpt lat="20.353069" lon="-97.880611">
        <ele>288.016</ele>
        <time>2022-07-06T19:02:08Z</time>
      </trkpt>
      <trkpt lat="20.353019" lon="-97.88062">
        <ele>288.593</ele>
        <time>2022-07-06T19:02:10Z</time>
      </trkpt>
      <trkpt lat="20.352971" lon="-97.880629">
        <ele>288.428</ele>
        <time>2022-07-06T19:02:12Z</time>
      </trkpt>
      <trkpt lat="20.352923" lon="-97.880638">
        <ele>288.223</ele>
        <time>2022-07-06T19:02:14Z</time>
      </trkpt>
      <trkpt lat="20.352876" lon="-97.880633">
        <ele>288.274</ele>
        <time>2022-07-06T19:02:16Z</time>
      </trkpt>
      <trkpt lat="20.352831" lon="-97.880618">
        <ele>288.224</ele>
        <time>2022-07-06T19:02:18Z</time>
      </trkpt>
      <trkpt lat="20.352787" lon="-97.880602">
        <ele>286.332</ele>
        <time>2022-07-06T19:02:20Z</time>
      </trkpt>
      <trkpt lat="20.352744" lon="-97.880582">
        <ele>285.755</ele>
        <time>2022-07-06T19:02:22Z</time>
      </trkpt>
      <trkpt lat="20.352705" lon="-97.880554">
        <ele>285.329</ele>
        <time>2022-07-06T19:02:24Z</time>
      </trkpt>
      <trkpt lat="20.352666" lon="-97.88053">
        <ele>283.500</ele>
        <time>2022-07-06T19:02:26Z</time>
      </trkpt>
      <trkpt lat="20.35262" lon="-97.880527">
        <ele>281.820</ele>
        <time>2022-07-06T19:02:28Z</time>
      </trkpt>
      <trkpt lat="20.352561" lon="-97.880532">
        <ele>277.709</ele>
        <time>2022-07-06T19:02:31Z</time>
      </trkpt>
      <trkpt lat="20.352502" lon="-97.880547">
        <ele>276.313</ele>
        <time>2022-07-06T19:02:34Z</time>
      </trkpt>
      <trkpt lat="20.35244" lon="-97.880572">
        <ele>274.852</ele>
        <time>2022-07-06T19:02:37Z</time>
      </trkpt>
      <trkpt lat="20.352376" lon="-97.880581">
        <ele>274.349</ele>
        <time>2022-07-06T19:02:40Z</time>
      </trkpt>
      <trkpt lat="20.35233" lon="-97.880584">
        <ele>274.344</ele>
        <time>2022-07-06T19:02:42Z</time>
      </trkpt>
      <trkpt lat="20.352286" lon="-97.880599">
        <ele>274.419</ele>
        <time>2022-07-06T19:02:44Z</time>
      </trkpt>
      <trkpt lat="20.352176" lon="-97.88063">
        <ele>276.070</ele>
        <time>2022-07-06T19:02:49Z</time>
      </trkpt>
      <trkpt lat="20.352176" lon="-97.88063">
        <ele>276.030</ele>
        <time>2022-07-06T19:02:49Z</time>
      </trkpt>
      <trkpt lat="20.352176" lon="-97.88063">
        <ele>276.018</ele>
        <time>2022-07-06T19:02:49Z</time>
      </trkpt>
      <trkpt lat="20.352176" lon="-97.88063">
        <ele>276.081</ele>
        <time>2022-07-06T19:02:49Z</time>
      </trkpt>
      <trkpt lat="20.352132" lon="-97.880643">
        <ele>276.274</ele>
        <time>2022-07-06T19:02:51Z</time>
      </trkpt>
      <trkpt lat="20.352072" lon="-97.880658">
        <ele>276.856</ele>
        <time>2022-07-06T19:02:54Z</time>
      </trkpt>
      <trkpt lat="20.352024" lon="-97.880666">
        <ele>276.821</ele>
        <time>2022-07-06T19:02:56Z</time>
      </trkpt>
      <trkpt lat="20.351955" lon="-97.880664">
        <ele>276.809</ele>
        <time>2022-07-06T19:02:59Z</time>
      </trkpt>
      <trkpt lat="20.351909" lon="-97.880655">
        <ele>276.718</ele>
        <time>2022-07-06T19:03:02Z</time>
      </trkpt>
      <trkpt lat="20.351856" lon="-97.880654">
        <ele>275.537</ele>
        <time>2022-07-06T19:03:04Z</time>
      </trkpt>
      <trkpt lat="20.3518" lon="-97.880654">
        <ele>275.524</ele>
        <time>2022-07-06T19:03:06Z</time>
      </trkpt>
      <trkpt lat="20.351748" lon="-97.880655">
        <ele>275.599</ele>
        <time>2022-07-06T19:03:08Z</time>
      </trkpt>
      <trkpt lat="20.351696" lon="-97.880657">
        <ele>276.424</ele>
        <time>2022-07-06T19:03:10Z</time>
      </trkpt>
      <trkpt lat="20.351645" lon="-97.88066">
        <ele>276.525</ele>
        <time>2022-07-06T19:03:12Z</time>
      </trkpt>
      <trkpt lat="20.351591" lon="-97.880663">
        <ele>277.155</ele>
        <time>2022-07-06T19:03:14Z</time>
      </trkpt>
      <trkpt lat="20.351527" lon="-97.88067">
        <ele>278.263</ele>
        <time>2022-07-06T19:03:17Z</time>
      </trkpt>
      <trkpt lat="20.351472" lon="-97.88068">
        <ele>278.016</ele>
        <time>2022-07-06T19:03:20Z</time>
      </trkpt>
      <trkpt lat="20.351419" lon="-97.880677">
        <ele>278.034</ele>
        <time>2022-07-06T19:03:22Z</time>
      </trkpt>
      <trkpt lat="20.351373" lon="-97.880676">
        <ele>278.155</ele>
        <time>2022-07-06T19:03:24Z</time>
      </trkpt>
      <trkpt lat="20.351327" lon="-97.880674">
        <ele>277.810</ele>
        <time>2022-07-06T19:03:26Z</time>
      </trkpt>
      <trkpt lat="20.351278" lon="-97.880667">
        <ele>277.709</ele>
        <time>2022-07-06T19:03:28Z</time>
      </trkpt>
      <trkpt lat="20.351224" lon="-97.88066">
        <ele>277.364</ele>
        <time>2022-07-06T19:03:30Z</time>
      </trkpt>
      <trkpt lat="20.351171" lon="-97.880655">
        <ele>276.163</ele>
        <time>2022-07-06T19:03:32Z</time>
      </trkpt>
      <trkpt lat="20.351125" lon="-97.880654">
        <ele>275.750</ele>
        <time>2022-07-06T19:03:34Z</time>
      </trkpt>
      <trkpt lat="20.35108" lon="-97.88065">
        <ele>274.865</ele>
        <time>2022-07-06T19:03:36Z</time>
      </trkpt>
      <trkpt lat="20.351016" lon="-97.880636">
        <ele>274.370</ele>
        <time>2022-07-06T19:03:39Z</time>
      </trkpt>
      <trkpt lat="20.350971" lon="-97.880631">
        <ele>274.271</ele>
        <time>2022-07-06T19:03:41Z</time>
      </trkpt>
      <trkpt lat="20.350925" lon="-97.880635">
        <ele>273.511</ele>
        <time>2022-07-06T19:03:43Z</time>
      </trkpt>
      <trkpt lat="20.350883" lon="-97.880659">
        <ele>272.189</ele>
        <time>2022-07-06T19:03:45Z</time>
      </trkpt>
      <trkpt lat="20.35083" lon="-97.880702">
        <ele>272.182</ele>
        <time>2022-07-06T19:03:48Z</time>
      </trkpt>
      <trkpt lat="20.350781" lon="-97.880706">
        <ele>272.177</ele>
        <time>2022-07-06T19:03:50Z</time>
      </trkpt>
      <trkpt lat="20.350735" lon="-97.880685">
        <ele>272.561</ele>
        <time>2022-07-06T19:03:52Z</time>
      </trkpt>
      <trkpt lat="20.35069" lon="-97.880668">
        <ele>274.527</ele>
        <time>2022-07-06T19:03:54Z</time>
      </trkpt>
      <trkpt lat="20.350641" lon="-97.880673">
        <ele>274.509</ele>
        <time>2022-07-06T19:03:56Z</time>
      </trkpt>
      <trkpt lat="20.350593" lon="-97.880685">
        <ele>274.838</ele>
        <time>2022-07-06T19:03:58Z</time>
      </trkpt>
      <trkpt lat="20.350548" lon="-97.880694">
        <ele>274.867</ele>
        <time>2022-07-06T19:04:00Z</time>
      </trkpt>
      <trkpt lat="20.350479" lon="-97.8807">
        <ele>274.864</ele>
        <time>2022-07-06T19:04:03Z</time>
      </trkpt>
      <trkpt lat="20.350395" lon="-97.880693">
        <ele>275.239</ele>
        <time>2022-07-06T19:04:07Z</time>
      </trkpt>
      <trkpt lat="20.350395" lon="-97.880693">
        <ele>275.284</ele>
        <time>2022-07-06T19:04:07Z</time>
      </trkpt>
      <trkpt lat="20.350395" lon="-97.880693">
        <ele>275.275</ele>
        <time>2022-07-06T19:04:07Z</time>
      </trkpt>
      <trkpt lat="20.350395" lon="-97.880693">
        <ele>275.255</ele>
        <time>2022-07-06T19:04:07Z</time>
      </trkpt>
      <trkpt lat="20.350326" lon="-97.880698">
        <ele>275.543</ele>
        <time>2022-07-06T19:04:10Z</time>
      </trkpt>
      <trkpt lat="20.350274" lon="-97.880709">
        <ele>276.686</ele>
        <time>2022-07-06T19:04:12Z</time>
      </trkpt>
      <trkpt lat="20.350228" lon="-97.88073">
        <ele>276.816</ele>
        <time>2022-07-06T19:04:14Z</time>
      </trkpt>
      <trkpt lat="20.350182" lon="-97.880757">
        <ele>276.976</ele>
        <time>2022-07-06T19:04:16Z</time>
      </trkpt>
      <trkpt lat="20.350131" lon="-97.880766">
        <ele>277.013</ele>
        <time>2022-07-06T19:04:18Z</time>
      </trkpt>
      <trkpt lat="20.350087" lon="-97.880781">
        <ele>277.009</ele>
        <time>2022-07-06T19:04:20Z</time>
      </trkpt>
      <trkpt lat="20.350036" lon="-97.880788">
        <ele>276.912</ele>
        <time>2022-07-06T19:04:24Z</time>
      </trkpt>
      <trkpt lat="20.349976" lon="-97.880788">
        <ele>276.711</ele>
        <time>2022-07-06T19:04:27Z</time>
      </trkpt>
      <trkpt lat="20.349915" lon="-97.880791">
        <ele>276.528</ele>
        <time>2022-07-06T19:04:30Z</time>
      </trkpt>
      <trkpt lat="20.349848" lon="-97.880798">
        <ele>274.993</ele>
        <time>2022-07-06T19:04:33Z</time>
      </trkpt>
      <trkpt lat="20.3498" lon="-97.880802">
        <ele>274.968</ele>
        <time>2022-07-06T19:04:35Z</time>
      </trkpt>
      <trkpt lat="20.349753" lon="-97.880804">
        <ele>274.849</ele>
        <time>2022-07-06T19:04:37Z</time>
      </trkpt>
      <trkpt lat="20.349704" lon="-97.880812">
        <ele>274.959</ele>
        <time>2022-07-06T19:04:39Z</time>
      </trkpt>
      <trkpt lat="20.349653" lon="-97.880812">
        <ele>276.547</ele>
        <time>2022-07-06T19:04:41Z</time>
      </trkpt>
      <trkpt lat="20.349601" lon="-97.880809">
        <ele>277.860</ele>
        <time>2022-07-06T19:04:43Z</time>
      </trkpt>
      <trkpt lat="20.349551" lon="-97.880803">
        <ele>278.011</ele>
        <time>2022-07-06T19:04:45Z</time>
      </trkpt>
      <trkpt lat="20.349503" lon="-97.880803">
        <ele>278.421</ele>
        <time>2022-07-06T19:04:47Z</time>
      </trkpt>
      <trkpt lat="20.349456" lon="-97.88081">
        <ele>278.603</ele>
        <time>2022-07-06T19:04:49Z</time>
      </trkpt>
      <trkpt lat="20.34941" lon="-97.880813">
        <ele>280.109</ele>
        <time>2022-07-06T19:04:51Z</time>
      </trkpt>
      <trkpt lat="20.34935" lon="-97.880821">
        <ele>280.192</ele>
        <time>2022-07-06T19:04:54Z</time>
      </trkpt>
      <trkpt lat="20.3493" lon="-97.880825">
        <ele>280.181</ele>
        <time>2022-07-06T19:04:59Z</time>
      </trkpt>
      <trkpt lat="20.349253" lon="-97.880825">
        <ele>280.358</ele>
        <time>2022-07-06T19:05:03Z</time>
      </trkpt>
      <trkpt lat="20.349209" lon="-97.880809">
        <ele>280.793</ele>
        <time>2022-07-06T19:05:07Z</time>
      </trkpt>
      <trkpt lat="20.34916" lon="-97.880793">
        <ele>280.938</ele>
        <time>2022-07-06T19:05:11Z</time>
      </trkpt>
      <trkpt lat="20.349112" lon="-97.88078">
        <ele>281.159</ele>
        <time>2022-07-06T19:05:15Z</time>
      </trkpt>
      <trkpt lat="20.349067" lon="-97.880775">
        <ele>281.589</ele>
        <time>2022-07-06T19:05:19Z</time>
      </trkpt>
      <trkpt lat="20.349011" lon="-97.880762">
        <ele>282.247</ele>
        <time>2022-07-06T19:05:23Z</time>
      </trkpt>
      <trkpt lat="20.348955" lon="-97.880754">
        <ele>282.610</ele>
        <time>2022-07-06T19:05:27Z</time>
      </trkpt>
      <trkpt lat="20.348907" lon="-97.880793">
        <ele>282.935</ele>
        <time>2022-07-06T19:05:31Z</time>
      </trkpt>
      <trkpt lat="20.348843" lon="-97.880798">
        <ele>283.186</ele>
        <time>2022-07-06T19:05:34Z</time>
      </trkpt>
      <trkpt lat="20.348777" lon="-97.880783">
        <ele>282.514</ele>
        <time>2022-07-06T19:05:37Z</time>
      </trkpt>
      <trkpt lat="20.348714" lon="-97.880773">
        <ele>282.709</ele>
        <time>2022-07-06T19:05:40Z</time>
      </trkpt>
      <trkpt lat="20.348668" lon="-97.880797">
        <ele>283.194</ele>
        <time>2022-07-06T19:05:44Z</time>
      </trkpt>
      <trkpt lat="20.34862" lon="-97.880826">
        <ele>285.383</ele>
        <time>2022-07-06T19:05:49Z</time>
      </trkpt>
      <trkpt lat="20.348565" lon="-97.880828">
        <ele>286.390</ele>
        <time>2022-07-06T19:05:53Z</time>
      </trkpt>
      <trkpt lat="20.348511" lon="-97.880809">
        <ele>287.475</ele>
        <time>2022-07-06T19:05:57Z</time>
      </trkpt>
      <trkpt lat="20.348455" lon="-97.880799">
        <ele>288.080</ele>
        <time>2022-07-06T19:06:01Z</time>
      </trkpt>
      <trkpt lat="20.348404" lon="-97.880764">
        <ele>288.081</ele>
        <time>2022-07-06T19:06:05Z</time>
      </trkpt>
      <trkpt lat="20.348365" lon="-97.880736">
        <ele>288.081</ele>
        <time>2022-07-06T19:06:08Z</time>
      </trkpt>
      <trkpt lat="20.348303" lon="-97.880721">
        <ele>288.029</ele>
        <time>2022-07-06T19:06:11Z</time>
      </trkpt>
      <trkpt lat="20.348257" lon="-97.88071">
        <ele>288.172</ele>
        <time>2022-07-06T19:06:13Z</time>
      </trkpt>
      <trkpt lat="20.348209" lon="-97.880699">
        <ele>288.016</ele>
        <time>2022-07-06T19:06:15Z</time>
      </trkpt>
      <trkpt lat="20.348152" lon="-97.880681">
        <ele>289.176</ele>
        <time>2022-07-06T19:06:18Z</time>
      </trkpt>
      <trkpt lat="20.348091" lon="-97.880676">
        <ele>290.413</ele>
        <time>2022-07-06T19:06:22Z</time>
      </trkpt>
      <trkpt lat="20.348028" lon="-97.88067">
        <ele>290.709</ele>
        <time>2022-07-06T19:06:25Z</time>
      </trkpt>
      <trkpt lat="20.347967" lon="-97.880669">
        <ele>291.022</ele>
        <time>2022-07-06T19:06:28Z</time>
      </trkpt>
      <trkpt lat="20.347903" lon="-97.880649">
        <ele>290.941</ele>
        <time>2022-07-06T19:06:31Z</time>
      </trkpt>
      <trkpt lat="20.347846" lon="-97.880646">
        <ele>290.958</ele>
        <time>2022-07-06T19:06:34Z</time>
      </trkpt>
      <trkpt lat="20.347801" lon="-97.880647">
        <ele>290.063</ele>
        <time>2022-07-06T19:06:37Z</time>
      </trkpt>
      <trkpt lat="20.347744" lon="-97.880651">
        <ele>289.858</ele>
        <time>2022-07-06T19:06:40Z</time>
      </trkpt>
      <trkpt lat="20.347679" lon="-97.880644">
        <ele>289.239</ele>
        <time>2022-07-06T19:06:43Z</time>
      </trkpt>
      <trkpt lat="20.347621" lon="-97.880637">
        <ele>288.729</ele>
        <time>2022-07-06T19:06:46Z</time>
      </trkpt>
      <trkpt lat="20.347576" lon="-97.88063">
        <ele>288.627</ele>
        <time>2022-07-06T19:06:48Z</time>
      </trkpt>
      <trkpt lat="20.347522" lon="-97.880602">
        <ele>288.260</ele>
        <time>2022-07-06T19:06:51Z</time>
      </trkpt>
      <trkpt lat="20.347481" lon="-97.880581">
        <ele>288.025</ele>
        <time>2022-07-06T19:06:53Z</time>
      </trkpt>
      <trkpt lat="20.347415" lon="-97.880571">
        <ele>287.726</ele>
        <time>2022-07-06T19:06:56Z</time>
      </trkpt>
      <trkpt lat="20.347364" lon="-97.880566">
        <ele>287.508</ele>
        <time>2022-07-06T19:06:59Z</time>
      </trkpt>
      <trkpt lat="20.347297" lon="-97.880559">
        <ele>287.109</ele>
        <time>2022-07-06T19:07:02Z</time>
      </trkpt>
      <trkpt lat="20.347243" lon="-97.88055">
        <ele>285.083</ele>
        <time>2022-07-06T19:07:04Z</time>
      </trkpt>
      <trkpt lat="20.34719" lon="-97.880533">
        <ele>284.152</ele>
        <time>2022-07-06T19:07:06Z</time>
      </trkpt>
      <trkpt lat="20.347135" lon="-97.880523">
        <ele>283.959</ele>
        <time>2022-07-06T19:07:08Z</time>
      </trkpt>
      <trkpt lat="20.347078" lon="-97.880517">
        <ele>284.164</ele>
        <time>2022-07-06T19:07:10Z</time>
      </trkpt>
      <trkpt lat="20.347027" lon="-97.880506">
        <ele>284.529</ele>
        <time>2022-07-06T19:07:12Z</time>
      </trkpt>
      <trkpt lat="20.346981" lon="-97.880491">
        <ele>284.550</ele>
        <time>2022-07-06T19:07:14Z</time>
      </trkpt>
      <trkpt lat="20.346931" lon="-97.880479">
        <ele>284.760</ele>
        <time>2022-07-06T19:07:16Z</time>
      </trkpt>
      <trkpt lat="20.346873" lon="-97.880469">
        <ele>285.118</ele>
        <time>2022-07-06T19:07:18Z</time>
      </trkpt>
      <trkpt lat="20.346823" lon="-97.880456">
        <ele>285.111</ele>
        <time>2022-07-06T19:07:20Z</time>
      </trkpt>
      <trkpt lat="20.346777" lon="-97.880442">
        <ele>285.163</ele>
        <time>2022-07-06T19:07:22Z</time>
      </trkpt>
      <trkpt lat="20.346733" lon="-97.880427">
        <ele>285.544</ele>
        <time>2022-07-06T19:07:24Z</time>
      </trkpt>
      <trkpt lat="20.346687" lon="-97.88042">
        <ele>286.418</ele>
        <time>2022-07-06T19:07:26Z</time>
      </trkpt>
      <trkpt lat="20.346644" lon="-97.880404">
        <ele>286.709</ele>
        <time>2022-07-06T19:07:28Z</time>
      </trkpt>
      <trkpt lat="20.3466" lon="-97.880394">
        <ele>286.677</ele>
        <time>2022-07-06T19:07:30Z</time>
      </trkpt>
      <trkpt lat="20.34655" lon="-97.880387">
        <ele>286.676</ele>
        <time>2022-07-06T19:07:32Z</time>
      </trkpt>
      <trkpt lat="20.346498" lon="-97.880386">
        <ele>286.913</ele>
        <time>2022-07-06T19:07:34Z</time>
      </trkpt>
      <trkpt lat="20.34645" lon="-97.880369">
        <ele>287.228</ele>
        <time>2022-07-06T19:07:37Z</time>
      </trkpt>
      <trkpt lat="20.346407" lon="-97.880337">
        <ele>287.543</ele>
        <time>2022-07-06T19:07:39Z</time>
      </trkpt>
      <trkpt lat="20.346357" lon="-97.880315">
        <ele>288.364</ele>
        <time>2022-07-06T19:07:41Z</time>
      </trkpt>
      <trkpt lat="20.346299" lon="-97.880306">
        <ele>289.314</ele>
        <time>2022-07-06T19:07:43Z</time>
      </trkpt>
      <trkpt lat="20.346249" lon="-97.880287">
        <ele>289.962</ele>
        <time>2022-07-06T19:07:45Z</time>
      </trkpt>
      <trkpt lat="20.346201" lon="-97.880271">
        <ele>290.065</ele>
        <time>2022-07-06T19:07:47Z</time>
      </trkpt>
      <trkpt lat="20.346135" lon="-97.880265">
        <ele>289.451</ele>
        <time>2022-07-06T19:07:50Z</time>
      </trkpt>
      <trkpt lat="20.346085" lon="-97.880271">
        <ele>290.201</ele>
        <time>2022-07-06T19:07:52Z</time>
      </trkpt>
      <trkpt lat="20.346032" lon="-97.880287">
        <ele>290.211</ele>
        <time>2022-07-06T19:07:54Z</time>
      </trkpt>
      <trkpt lat="20.345983" lon="-97.880301">
        <ele>290.209</ele>
        <time>2022-07-06T19:07:56Z</time>
      </trkpt>
      <trkpt lat="20.345936" lon="-97.880319">
        <ele>291.526</ele>
        <time>2022-07-06T19:07:58Z</time>
      </trkpt>
      <trkpt lat="20.345888" lon="-97.880319">
        <ele>291.715</ele>
        <time>2022-07-06T19:08:00Z</time>
      </trkpt>
      <trkpt lat="20.345842" lon="-97.880312">
        <ele>291.832</ele>
        <time>2022-07-06T19:08:02Z</time>
      </trkpt>
      <trkpt lat="20.345792" lon="-97.880304">
        <ele>291.917</ele>
        <time>2022-07-06T19:08:04Z</time>
      </trkpt>
      <trkpt lat="20.345739" lon="-97.880296">
        <ele>291.942</ele>
        <time>2022-07-06T19:08:06Z</time>
      </trkpt>
      <trkpt lat="20.34569" lon="-97.88028">
        <ele>294.323</ele>
        <time>2022-07-06T19:08:08Z</time>
      </trkpt>
      <trkpt lat="20.345652" lon="-97.880244">
        <ele>294.323</ele>
        <time>2022-07-06T19:08:10Z</time>
      </trkpt>
      <trkpt lat="20.345617" lon="-97.880204">
        <ele>294.311</ele>
        <time>2022-07-06T19:08:12Z</time>
      </trkpt>
      <trkpt lat="20.345583" lon="-97.880164">
        <ele>294.134</ele>
        <time>2022-07-06T19:08:14Z</time>
      </trkpt>
      <trkpt lat="20.345552" lon="-97.880127">
        <ele>292.881</ele>
        <time>2022-07-06T19:08:16Z</time>
      </trkpt>
      <trkpt lat="20.345507" lon="-97.880077">
        <ele>291.761</ele>
        <time>2022-07-06T19:08:19Z</time>
      </trkpt>
      <trkpt lat="20.345465" lon="-97.880046">
        <ele>290.417</ele>
        <time>2022-07-06T19:08:22Z</time>
      </trkpt>
      <trkpt lat="20.345414" lon="-97.88003">
        <ele>289.809</ele>
        <time>2022-07-06T19:08:26Z</time>
      </trkpt>
      <trkpt lat="20.345368" lon="-97.880039">
        <ele>289.619</ele>
        <time>2022-07-06T19:08:29Z</time>
      </trkpt>
      <trkpt lat="20.345329" lon="-97.880076">
        <ele>289.018</ele>
        <time>2022-07-06T19:08:31Z</time>
      </trkpt>
      <trkpt lat="20.345292" lon="-97.880124">
        <ele>288.215</ele>
        <time>2022-07-06T19:08:34Z</time>
      </trkpt>
      <trkpt lat="20.345236" lon="-97.880146">
        <ele>288.110</ele>
        <time>2022-07-06T19:08:38Z</time>
      </trkpt>
      <trkpt lat="20.345182" lon="-97.880162">
        <ele>288.125</ele>
        <time>2022-07-06T19:08:42Z</time>
      </trkpt>
      <trkpt lat="20.345129" lon="-97.880151">
        <ele>288.166</ele>
        <time>2022-07-06T19:08:46Z</time>
      </trkpt>
      <trkpt lat="20.345073" lon="-97.880135">
        <ele>287.996</ele>
        <time>2022-07-06T19:08:49Z</time>
      </trkpt>
      <trkpt lat="20.345011" lon="-97.880109">
        <ele>287.434</ele>
        <time>2022-07-06T19:08:52Z</time>
      </trkpt>
      <trkpt lat="20.344967" lon="-97.880093">
        <ele>287.227</ele>
        <time>2022-07-06T19:08:54Z</time>
      </trkpt>
      <trkpt lat="20.344918" lon="-97.880096">
        <ele>287.135</ele>
        <time>2022-07-06T19:08:56Z</time>
      </trkpt>
      <trkpt lat="20.344871" lon="-97.8801">
        <ele>286.986</ele>
        <time>2022-07-06T19:08:58Z</time>
      </trkpt>
      <trkpt lat="20.344805" lon="-97.880096">
        <ele>286.614</ele>
        <time>2022-07-06T19:09:01Z</time>
      </trkpt>
      <trkpt lat="20.344748" lon="-97.880059">
        <ele>287.109</ele>
        <time>2022-07-06T19:09:04Z</time>
      </trkpt>
      <trkpt lat="20.344686" lon="-97.880034">
        <ele>287.354</ele>
        <time>2022-07-06T19:09:07Z</time>
      </trkpt>
      <trkpt lat="20.344629" lon="-97.880026">
        <ele>287.783</ele>
        <time>2022-07-06T19:09:10Z</time>
      </trkpt>
      <trkpt lat="20.344581" lon="-97.880017">
        <ele>287.890</ele>
        <time>2022-07-06T19:09:13Z</time>
      </trkpt>
      <trkpt lat="20.344524" lon="-97.880008">
        <ele>287.045</ele>
        <time>2022-07-06T19:09:16Z</time>
      </trkpt>
      <trkpt lat="20.344462" lon="-97.879989">
        <ele>286.920</ele>
        <time>2022-07-06T19:09:19Z</time>
      </trkpt>
      <trkpt lat="20.344416" lon="-97.879984">
        <ele>285.681</ele>
        <time>2022-07-06T19:09:21Z</time>
      </trkpt>
      <trkpt lat="20.344359" lon="-97.879987">
        <ele>284.991</ele>
        <time>2022-07-06T19:09:24Z</time>
      </trkpt>
      <trkpt lat="20.344305" lon="-97.879976">
        <ele>283.459</ele>
        <time>2022-07-06T19:09:26Z</time>
      </trkpt>
      <trkpt lat="20.344249" lon="-97.879962">
        <ele>281.992</ele>
        <time>2022-07-06T19:09:30Z</time>
      </trkpt>
      <trkpt lat="20.3442" lon="-97.879952">
        <ele>281.063</ele>
        <time>2022-07-06T19:09:32Z</time>
      </trkpt>
      <trkpt lat="20.344144" lon="-97.879948">
        <ele>280.044</ele>
        <time>2022-07-06T19:09:34Z</time>
      </trkpt>
      <trkpt lat="20.344084" lon="-97.879948">
        <ele>279.918</ele>
        <time>2022-07-06T19:09:36Z</time>
      </trkpt>
      <trkpt lat="20.34402" lon="-97.879942">
        <ele>280.009</ele>
        <time>2022-07-06T19:09:38Z</time>
      </trkpt>
      <trkpt lat="20.343964" lon="-97.879934">
        <ele>280.347</ele>
        <time>2022-07-06T19:09:40Z</time>
      </trkpt>
      <trkpt lat="20.343908" lon="-97.879927">
        <ele>281.186</ele>
        <time>2022-07-06T19:09:42Z</time>
      </trkpt>
      <trkpt lat="20.343853" lon="-97.879913">
        <ele>281.273</ele>
        <time>2022-07-06T19:09:44Z</time>
      </trkpt>
      <trkpt lat="20.343803" lon="-97.879894">
        <ele>281.218</ele>
        <time>2022-07-06T19:09:46Z</time>
      </trkpt>
      <trkpt lat="20.343756" lon="-97.879883">
        <ele>281.193</ele>
        <time>2022-07-06T19:09:48Z</time>
      </trkpt>
      <trkpt lat="20.343711" lon="-97.879861">
        <ele>279.714</ele>
        <time>2022-07-06T19:09:50Z</time>
      </trkpt>
      <trkpt lat="20.343674" lon="-97.879831">
        <ele>277.314</ele>
        <time>2022-07-06T19:09:52Z</time>
      </trkpt>
      <trkpt lat="20.343628" lon="-97.879815">
        <ele>276.232</ele>
        <time>2022-07-06T19:09:54Z</time>
      </trkpt>
      <trkpt lat="20.343578" lon="-97.879808">
        <ele>275.525</ele>
        <time>2022-07-06T19:09:56Z</time>
      </trkpt>
      <trkpt lat="20.343528" lon="-97.879812">
        <ele>274.962</ele>
        <time>2022-07-06T19:09:58Z</time>
      </trkpt>
      <trkpt lat="20.343478" lon="-97.879815">
        <ele>274.783</ele>
        <time>2022-07-06T19:10:00Z</time>
      </trkpt>
      <trkpt lat="20.343427" lon="-97.879811">
        <ele>274.711</ele>
        <time>2022-07-06T19:10:02Z</time>
      </trkpt>
      <trkpt lat="20.34338" lon="-97.879808">
        <ele>274.709</ele>
        <time>2022-07-06T19:10:04Z</time>
      </trkpt>
      <trkpt lat="20.343332" lon="-97.879799">
        <ele>274.857</ele>
        <time>2022-07-06T19:10:06Z</time>
      </trkpt>
      <trkpt lat="20.343282" lon="-97.879797">
        <ele>275.766</ele>
        <time>2022-07-06T19:10:08Z</time>
      </trkpt>
      <trkpt lat="20.343233" lon="-97.879788">
        <ele>275.723</ele>
        <time>2022-07-06T19:10:10Z</time>
      </trkpt>
      <trkpt lat="20.343188" lon="-97.879776">
        <ele>275.578</ele>
        <time>2022-07-06T19:10:12Z</time>
      </trkpt>
      <trkpt lat="20.343126" lon="-97.879767">
        <ele>274.553</ele>
        <time>2022-07-06T19:10:15Z</time>
      </trkpt>
      <trkpt lat="20.343068" lon="-97.879767">
        <ele>274.644</ele>
        <time>2022-07-06T19:10:18Z</time>
      </trkpt>
      <trkpt lat="20.343022" lon="-97.879765">
        <ele>274.614</ele>
        <time>2022-07-06T19:10:21Z</time>
      </trkpt>
      <trkpt lat="20.342964" lon="-97.879782">
        <ele>276.062</ele>
        <time>2022-07-06T19:10:25Z</time>
      </trkpt>
      <trkpt lat="20.342905" lon="-97.879772">
        <ele>277.355</ele>
        <time>2022-07-06T19:10:28Z</time>
      </trkpt>
      <trkpt lat="20.342845" lon="-97.879754">
        <ele>278.056</ele>
        <time>2022-07-06T19:10:31Z</time>
      </trkpt>
      <trkpt lat="20.342807" lon="-97.879727">
        <ele>280.659</ele>
        <time>2022-07-06T19:10:34Z</time>
      </trkpt>
      <trkpt lat="20.342754" lon="-97.879697">
        <ele>280.614</ele>
        <time>2022-07-06T19:10:37Z</time>
      </trkpt>
      <trkpt lat="20.342709" lon="-97.879686">
        <ele>281.309</ele>
        <time>2022-07-06T19:10:39Z</time>
      </trkpt>
      <trkpt lat="20.34266" lon="-97.879679">
        <ele>281.326</ele>
        <time>2022-07-06T19:10:41Z</time>
      </trkpt>
      <trkpt lat="20.342617" lon="-97.879661">
        <ele>281.355</ele>
        <time>2022-07-06T19:10:43Z</time>
      </trkpt>
      <trkpt lat="20.34259" lon="-97.879618">
        <ele>281.322</ele>
        <time>2022-07-06T19:10:45Z</time>
      </trkpt>
      <trkpt lat="20.342537" lon="-97.879585">
        <ele>281.417</ele>
        <time>2022-07-06T19:10:48Z</time>
      </trkpt>
      <trkpt lat="20.342476" lon="-97.879589">
        <ele>281.222</ele>
        <time>2022-07-06T19:10:51Z</time>
      </trkpt>
      <trkpt lat="20.342434" lon="-97.879544">
        <ele>281.193</ele>
        <time>2022-07-06T19:10:54Z</time>
      </trkpt>
      <trkpt lat="20.342386" lon="-97.879511">
        <ele>280.793</ele>
        <time>2022-07-06T19:10:57Z</time>
      </trkpt>
      <trkpt lat="20.342332" lon="-97.879481">
        <ele>279.961</ele>
        <time>2022-07-06T19:11:00Z</time>
      </trkpt>
      <trkpt lat="20.342274" lon="-97.879457">
        <ele>279.214</ele>
        <time>2022-07-06T19:11:03Z</time>
      </trkpt>
      <trkpt lat="20.342217" lon="-97.879435">
        <ele>276.267</ele>
        <time>2022-07-06T19:11:06Z</time>
      </trkpt>
      <trkpt lat="20.342168" lon="-97.879404">
        <ele>275.181</ele>
        <time>2022-07-06T19:11:09Z</time>
      </trkpt>
      <trkpt lat="20.34212" lon="-97.879369">
        <ele>274.819</ele>
        <time>2022-07-06T19:11:12Z</time>
      </trkpt>
      <trkpt lat="20.342079" lon="-97.879317">
        <ele>274.809</ele>
        <time>2022-07-06T19:11:15Z</time>
      </trkpt>
      <trkpt lat="20.342026" lon="-97.87932">
        <ele>275.317</ele>
        <time>2022-07-06T19:11:17Z</time>
      </trkpt>
      <trkpt lat="20.34198" lon="-97.87932">
        <ele>275.626</ele>
        <time>2022-07-06T19:11:19Z</time>
      </trkpt>
      <trkpt lat="20.341913" lon="-97.879323">
        <ele>276.783</ele>
        <time>2022-07-06T19:11:22Z</time>
      </trkpt>
      <trkpt lat="20.341852" lon="-97.879318">
        <ele>279.028</ele>
        <time>2022-07-06T19:11:25Z</time>
      </trkpt>
      <trkpt lat="20.341823" lon="-97.879281">
        <ele>280.083</ele>
        <time>2022-07-06T19:11:28Z</time>
      </trkpt>
      <trkpt lat="20.341801" lon="-97.879237">
        <ele>280.264</ele>
        <time>2022-07-06T19:11:30Z</time>
      </trkpt>
      <trkpt lat="20.341771" lon="-97.879198">
        <ele>280.364</ele>
        <time>2022-07-06T19:11:32Z</time>
      </trkpt>
      <trkpt lat="20.341718" lon="-97.879163">
        <ele>282.062</ele>
        <time>2022-07-06T19:11:35Z</time>
      </trkpt>
      <trkpt lat="20.341664" lon="-97.87914">
        <ele>282.895</ele>
        <time>2022-07-06T19:11:38Z</time>
      </trkpt>
      <trkpt lat="20.341606" lon="-97.879115">
        <ele>285.194</ele>
        <time>2022-07-06T19:11:41Z</time>
      </trkpt>
      <trkpt lat="20.341555" lon="-97.879077">
        <ele>286.857</ele>
        <time>2022-07-06T19:11:44Z</time>
      </trkpt>
      <trkpt lat="20.341514" lon="-97.879054">
        <ele>287.522</ele>
        <time>2022-07-06T19:11:46Z</time>
      </trkpt>
      <trkpt lat="20.341458" lon="-97.879022">
        <ele>290.509</ele>
        <time>2022-07-06T19:11:49Z</time>
      </trkpt>
      <trkpt lat="20.341408" lon="-97.878982">
        <ele>291.990</ele>
        <time>2022-07-06T19:11:52Z</time>
      </trkpt>
      <trkpt lat="20.341378" lon="-97.878935">
        <ele>291.989</ele>
        <time>2022-07-06T19:11:56Z</time>
      </trkpt>
      <trkpt lat="20.341343" lon="-97.878899">
        <ele>292.476</ele>
        <time>2022-07-06T19:11:58Z</time>
      </trkpt>
      <trkpt lat="20.341298" lon="-97.878872">
        <ele>292.261</ele>
        <time>2022-07-06T19:12:00Z</time>
      </trkpt>
      <trkpt lat="20.341255" lon="-97.878845">
        <ele>292.046</ele>
        <time>2022-07-06T19:12:02Z</time>
      </trkpt>
      <trkpt lat="20.341213" lon="-97.878819">
        <ele>291.817</ele>
        <time>2022-07-06T19:12:04Z</time>
      </trkpt>
      <trkpt lat="20.34117" lon="-97.878795">
        <ele>291.617</ele>
        <time>2022-07-06T19:12:06Z</time>
      </trkpt>
      <trkpt lat="20.341114" lon="-97.878768">
        <ele>291.455</ele>
        <time>2022-07-06T19:12:09Z</time>
      </trkpt>
      <trkpt lat="20.341063" lon="-97.878746">
        <ele>291.188</ele>
        <time>2022-07-06T19:12:11Z</time>
      </trkpt>
      <trkpt lat="20.341011" lon="-97.878724">
        <ele>290.513</ele>
        <time>2022-07-06T19:12:13Z</time>
      </trkpt>
      <trkpt lat="20.340961" lon="-97.8787">
        <ele>290.243</ele>
        <time>2022-07-06T19:12:15Z</time>
      </trkpt>
      <trkpt lat="20.340914" lon="-97.878677">
        <ele>290.207</ele>
        <time>2022-07-06T19:12:17Z</time>
      </trkpt>
      <trkpt lat="20.340868" lon="-97.878658">
        <ele>290.909</ele>
        <time>2022-07-06T19:12:19Z</time>
      </trkpt>
      <trkpt lat="20.340829" lon="-97.878629">
        <ele>291.322</ele>
        <time>2022-07-06T19:12:21Z</time>
      </trkpt>
      <trkpt lat="20.340791" lon="-97.878598">
        <ele>291.391</ele>
        <time>2022-07-06T19:12:23Z</time>
      </trkpt>
      <trkpt lat="20.340741" lon="-97.878582">
        <ele>291.458</ele>
        <time>2022-07-06T19:12:25Z</time>
      </trkpt>
      <trkpt lat="20.340683" lon="-97.878577">
        <ele>292.513</ele>
        <time>2022-07-06T19:12:28Z</time>
      </trkpt>
      <trkpt lat="20.340637" lon="-97.87857">
        <ele>292.568</ele>
        <time>2022-07-06T19:12:30Z</time>
      </trkpt>
      <trkpt lat="20.340588" lon="-97.878559">
        <ele>293.579</ele>
        <time>2022-07-06T19:12:33Z</time>
      </trkpt>
      <trkpt lat="20.340542" lon="-97.878542">
        <ele>294.469</ele>
        <time>2022-07-06T19:12:35Z</time>
      </trkpt>
      <trkpt lat="20.340497" lon="-97.878517">
        <ele>294.447</ele>
        <time>2022-07-06T19:12:37Z</time>
      </trkpt>
      <trkpt lat="20.340457" lon="-97.878488">
        <ele>294.480</ele>
        <time>2022-07-06T19:12:39Z</time>
      </trkpt>
      <trkpt lat="20.34041" lon="-97.878457">
        <ele>293.081</ele>
        <time>2022-07-06T19:12:41Z</time>
      </trkpt>
      <trkpt lat="20.340367" lon="-97.878436">
        <ele>291.661</ele>
        <time>2022-07-06T19:12:43Z</time>
      </trkpt>
      <trkpt lat="20.340324" lon="-97.878406">
        <ele>291.317</ele>
        <time>2022-07-06T19:12:45Z</time>
      </trkpt>
      <trkpt lat="20.340279" lon="-97.878382">
        <ele>291.309</ele>
        <time>2022-07-06T19:12:47Z</time>
      </trkpt>
      <trkpt lat="20.340227" lon="-97.878363">
        <ele>292.399</ele>
        <time>2022-07-06T19:12:49Z</time>
      </trkpt>
      <trkpt lat="20.340176" lon="-97.878342">
        <ele>292.378</ele>
        <time>2022-07-06T19:12:51Z</time>
      </trkpt>
      <trkpt lat="20.34013" lon="-97.878317">
        <ele>292.365</ele>
        <time>2022-07-06T19:12:53Z</time>
      </trkpt>
      <trkpt lat="20.340081" lon="-97.878291">
        <ele>292.580</ele>
        <time>2022-07-06T19:12:55Z</time>
      </trkpt>
      <trkpt lat="20.340024" lon="-97.87828">
        <ele>293.185</ele>
        <time>2022-07-06T19:12:57Z</time>
      </trkpt>
      <trkpt lat="20.339976" lon="-97.878255">
        <ele>293.936</ele>
        <time>2022-07-06T19:12:59Z</time>
      </trkpt>
      <trkpt lat="20.339934" lon="-97.878224">
        <ele>295.426</ele>
        <time>2022-07-06T19:13:01Z</time>
      </trkpt>
      <trkpt lat="20.339885" lon="-97.878206">
        <ele>295.684</ele>
        <time>2022-07-06T19:13:03Z</time>
      </trkpt>
      <trkpt lat="20.339834" lon="-97.878181">
        <ele>295.647</ele>
        <time>2022-07-06T19:13:05Z</time>
      </trkpt>
      <trkpt lat="20.339791" lon="-97.878145">
        <ele>295.672</ele>
        <time>2022-07-06T19:13:07Z</time>
      </trkpt>
      <trkpt lat="20.339753" lon="-97.878112">
        <ele>295.613</ele>
        <time>2022-07-06T19:13:09Z</time>
      </trkpt>
      <trkpt lat="20.339699" lon="-97.878071">
        <ele>295.714</ele>
        <time>2022-07-06T19:13:12Z</time>
      </trkpt>
      <trkpt lat="20.339649" lon="-97.87806">
        <ele>297.109</ele>
        <time>2022-07-06T19:13:14Z</time>
      </trkpt>
      <trkpt lat="20.339599" lon="-97.878052">
        <ele>298.268</ele>
        <time>2022-07-06T19:13:16Z</time>
      </trkpt>
      <trkpt lat="20.339549" lon="-97.87802">
        <ele>298.797</ele>
        <time>2022-07-06T19:13:19Z</time>
      </trkpt>
      <trkpt lat="20.339506" lon="-97.877995">
        <ele>299.544</ele>
        <time>2022-07-06T19:13:21Z</time>
      </trkpt>
      <trkpt lat="20.339454" lon="-97.877979">
        <ele>300.129</ele>
        <time>2022-07-06T19:13:23Z</time>
      </trkpt>
      <trkpt lat="20.339401" lon="-97.877974">
        <ele>300.644</ele>
        <time>2022-07-06T19:13:25Z</time>
      </trkpt>
      <trkpt lat="20.339349" lon="-97.87797">
        <ele>300.715</ele>
        <time>2022-07-06T19:13:27Z</time>
      </trkpt>
      <trkpt lat="20.3393" lon="-97.877962">
        <ele>300.695</ele>
        <time>2022-07-06T19:13:29Z</time>
      </trkpt>
      <trkpt lat="20.339247" lon="-97.877941">
        <ele>301.163</ele>
        <time>2022-07-06T19:13:32Z</time>
      </trkpt>
      <trkpt lat="20.339194" lon="-97.877916">
        <ele>299.676</ele>
        <time>2022-07-06T19:13:36Z</time>
      </trkpt>
      <trkpt lat="20.33914" lon="-97.877898">
        <ele>297.392</ele>
        <time>2022-07-06T19:13:39Z</time>
      </trkpt>
      <trkpt lat="20.339091" lon="-97.877885">
        <ele>296.673</ele>
        <time>2022-07-06T19:13:43Z</time>
      </trkpt>
      <trkpt lat="20.33904" lon="-97.877877">
        <ele>296.220</ele>
        <time>2022-07-06T19:13:45Z</time>
      </trkpt>
      <trkpt lat="20.338986" lon="-97.877874">
        <ele>295.709</ele>
        <time>2022-07-06T19:13:47Z</time>
      </trkpt>
      <trkpt lat="20.338937" lon="-97.877872">
        <ele>295.220</ele>
        <time>2022-07-06T19:13:49Z</time>
      </trkpt>
      <trkpt lat="20.338887" lon="-97.877868">
        <ele>294.649</ele>
        <time>2022-07-06T19:13:51Z</time>
      </trkpt>
      <trkpt lat="20.338837" lon="-97.877867">
        <ele>293.046</ele>
        <time>2022-07-06T19:13:54Z</time>
      </trkpt>
      <trkpt lat="20.338768" lon="-97.87787">
        <ele>292.721</ele>
        <time>2022-07-06T19:13:57Z</time>
      </trkpt>
      <trkpt lat="20.338707" lon="-97.877879">
        <ele>292.576</ele>
        <time>2022-07-06T19:13:59Z</time>
      </trkpt>
      <trkpt lat="20.338647" lon="-97.877893">
        <ele>292.747</ele>
        <time>2022-07-06T19:14:01Z</time>
      </trkpt>
      <trkpt lat="20.33859" lon="-97.877905">
        <ele>293.577</ele>
        <time>2022-07-06T19:14:03Z</time>
      </trkpt>
      <trkpt lat="20.338531" lon="-97.877916">
        <ele>295.455</ele>
        <time>2022-07-06T19:14:05Z</time>
      </trkpt>
      <trkpt lat="20.338472" lon="-97.877921">
        <ele>296.018</ele>
        <time>2022-07-06T19:14:07Z</time>
      </trkpt>
      <trkpt lat="20.338414" lon="-97.877935">
        <ele>296.914</ele>
        <time>2022-07-06T19:14:09Z</time>
      </trkpt>
      <trkpt lat="20.338358" lon="-97.877954">
        <ele>298.354</ele>
        <time>2022-07-06T19:14:11Z</time>
      </trkpt>
      <trkpt lat="20.338302" lon="-97.877962">
        <ele>299.009</ele>
        <time>2022-07-06T19:14:13Z</time>
      </trkpt>
      <trkpt lat="20.338251" lon="-97.877947">
        <ele>299.509</ele>
        <time>2022-07-06T19:14:15Z</time>
      </trkpt>
      <trkpt lat="20.3382" lon="-97.877957">
        <ele>300.062</ele>
        <time>2022-07-06T19:14:17Z</time>
      </trkpt>
      <trkpt lat="20.33815" lon="-97.877985">
        <ele>300.421</ele>
        <time>2022-07-06T19:14:19Z</time>
      </trkpt>
      <trkpt lat="20.338095" lon="-97.878005">
        <ele>300.548</ele>
        <time>2022-07-06T19:14:21Z</time>
      </trkpt>
      <trkpt lat="20.338041" lon="-97.878012">
        <ele>301.193</ele>
        <time>2022-07-06T19:14:23Z</time>
      </trkpt>
      <trkpt lat="20.337984" lon="-97.878015">
        <ele>301.468</ele>
        <time>2022-07-06T19:14:25Z</time>
      </trkpt>
      <trkpt lat="20.337927" lon="-97.878024">
        <ele>301.579</ele>
        <time>2022-07-06T19:14:27Z</time>
      </trkpt>
      <trkpt lat="20.337881" lon="-97.878028">
        <ele>301.459</ele>
        <time>2022-07-06T19:14:29Z</time>
      </trkpt>
      <trkpt lat="20.337835" lon="-97.878047">
        <ele>301.367</ele>
        <time>2022-07-06T19:14:31Z</time>
      </trkpt>
      <trkpt lat="20.33779" lon="-97.87808">
        <ele>301.270</ele>
        <time>2022-07-06T19:14:33Z</time>
      </trkpt>
      <trkpt lat="20.33773" lon="-97.878088">
        <ele>301.297</ele>
        <time>2022-07-06T19:14:36Z</time>
      </trkpt>
      <trkpt lat="20.337669" lon="-97.878102">
        <ele>301.623</ele>
        <time>2022-07-06T19:14:39Z</time>
      </trkpt>
      <trkpt lat="20.337625" lon="-97.878122">
        <ele>301.625</ele>
        <time>2022-07-06T19:14:41Z</time>
      </trkpt>
      <trkpt lat="20.337575" lon="-97.878138">
        <ele>301.609</ele>
        <time>2022-07-06T19:14:43Z</time>
      </trkpt>
      <trkpt lat="20.337523" lon="-97.878161">
        <ele>301.210</ele>
        <time>2022-07-06T19:14:45Z</time>
      </trkpt>
      <trkpt lat="20.337471" lon="-97.878184">
        <ele>300.119</ele>
        <time>2022-07-06T19:14:47Z</time>
      </trkpt>
      <trkpt lat="20.33742" lon="-97.878201">
        <ele>299.266</ele>
        <time>2022-07-06T19:14:49Z</time>
      </trkpt>
      <trkpt lat="20.337366" lon="-97.878203">
        <ele>298.641</ele>
        <time>2022-07-06T19:14:51Z</time>
      </trkpt>
      <trkpt lat="20.337315" lon="-97.878196">
        <ele>297.756</ele>
        <time>2022-07-06T19:14:53Z</time>
      </trkpt>
      <trkpt lat="20.337267" lon="-97.878199">
        <ele>297.327</ele>
        <time>2022-07-06T19:14:55Z</time>
      </trkpt>
      <trkpt lat="20.337216" lon="-97.878209">
        <ele>297.247</ele>
        <time>2022-07-06T19:14:57Z</time>
      </trkpt>
      <trkpt lat="20.337165" lon="-97.878201">
        <ele>297.265</ele>
        <time>2022-07-06T19:14:59Z</time>
      </trkpt>
      <trkpt lat="20.337116" lon="-97.878186">
        <ele>297.538</ele>
        <time>2022-07-06T19:15:01Z</time>
      </trkpt>
      <trkpt lat="20.337065" lon="-97.878192">
        <ele>298.166</ele>
        <time>2022-07-06T19:15:03Z</time>
      </trkpt>
      <trkpt lat="20.337011" lon="-97.878219">
        <ele>299.329</ele>
        <time>2022-07-06T19:15:05Z</time>
      </trkpt>
      <trkpt lat="20.336961" lon="-97.878253">
        <ele>299.421</ele>
        <time>2022-07-06T19:15:07Z</time>
      </trkpt>
      <trkpt lat="20.336911" lon="-97.878288">
        <ele>299.409</ele>
        <time>2022-07-06T19:15:09Z</time>
      </trkpt>
      <trkpt lat="20.336866" lon="-97.878303">
        <ele>299.317</ele>
        <time>2022-07-06T19:15:11Z</time>
      </trkpt>
      <trkpt lat="20.33682" lon="-97.878303">
        <ele>299.446</ele>
        <time>2022-07-06T19:15:14Z</time>
      </trkpt>
      <trkpt lat="20.336781" lon="-97.878328">
        <ele>299.733</ele>
        <time>2022-07-06T19:15:17Z</time>
      </trkpt>
      <trkpt lat="20.336725" lon="-97.87833">
        <ele>300.238</ele>
        <time>2022-07-06T19:15:22Z</time>
      </trkpt>
      <trkpt lat="20.336679" lon="-97.878334">
        <ele>300.253</ele>
        <time>2022-07-06T19:15:26Z</time>
      </trkpt>
      <trkpt lat="20.336623" lon="-97.878333">
        <ele>300.164</ele>
        <time>2022-07-06T19:15:31Z</time>
      </trkpt>
      <trkpt lat="20.336585" lon="-97.878307">
        <ele>300.114</ele>
        <time>2022-07-06T19:15:35Z</time>
      </trkpt>
      <trkpt lat="20.336561" lon="-97.878257">
        <ele>300.282</ele>
        <time>2022-07-06T19:15:40Z</time>
      </trkpt>
      <trkpt lat="20.33651" lon="-97.878243">
        <ele>300.325</ele>
        <time>2022-07-06T19:15:44Z</time>
      </trkpt>
      <trkpt lat="20.336461" lon="-97.87824">
        <ele>300.465</ele>
        <time>2022-07-06T19:15:48Z</time>
      </trkpt>
      <trkpt lat="20.336412" lon="-97.878239">
        <ele>301.268</ele>
        <time>2022-07-06T19:15:53Z</time>
      </trkpt>
      <trkpt lat="20.336373" lon="-97.878267">
        <ele>301.914</ele>
        <time>2022-07-06T19:15:58Z</time>
      </trkpt>
      <trkpt lat="20.336321" lon="-97.878279">
        <ele>302.809</ele>
        <time>2022-07-06T19:16:03Z</time>
      </trkpt>
      <trkpt lat="20.336295" lon="-97.878226">
        <ele>303.437</ele>
        <time>2022-07-06T19:16:09Z</time>
      </trkpt>
      <trkpt lat="20.336228" lon="-97.878202">
        <ele>304.236</ele>
        <time>2022-07-06T19:16:15Z</time>
      </trkpt>
      <trkpt lat="20.336228" lon="-97.878202">
        <ele>304.213</ele>
        <time>2022-07-06T19:16:15Z</time>
      </trkpt>
      <trkpt lat="20.336228" lon="-97.878202">
        <ele>304.228</ele>
        <time>2022-07-06T19:16:15Z</time>
      </trkpt>
      <trkpt lat="20.336228" lon="-97.878202">
        <ele>304.223</ele>
        <time>2022-07-06T19:16:15Z</time>
      </trkpt>
      <trkpt lat="20.336182" lon="-97.878191">
        <ele>304.454</ele>
        <time>2022-07-06T19:16:21Z</time>
      </trkpt>
      <trkpt lat="20.336135" lon="-97.878194">
        <ele>304.574</ele>
        <time>2022-07-06T19:16:25Z</time>
      </trkpt>
      <trkpt lat="20.336104" lon="-97.878147">
        <ele>304.362</ele>
        <time>2022-07-06T19:16:29Z</time>
      </trkpt>
      <trkpt lat="20.336058" lon="-97.878127">
        <ele>304.385</ele>
        <time>2022-07-06T19:16:32Z</time>
      </trkpt>
      <trkpt lat="20.336008" lon="-97.878116">
        <ele>304.343</ele>
        <time>2022-07-06T19:16:34Z</time>
      </trkpt>
      <trkpt lat="20.335954" lon="-97.878112">
        <ele>304.664</ele>
        <time>2022-07-06T19:16:36Z</time>
      </trkpt>
      <trkpt lat="20.335899" lon="-97.878097">
        <ele>306.010</ele>
        <time>2022-07-06T19:16:38Z</time>
      </trkpt>
      <trkpt lat="20.335846" lon="-97.878074">
        <ele>306.909</ele>
        <time>2022-07-06T19:16:40Z</time>
      </trkpt>
      <trkpt lat="20.335805" lon="-97.878034">
        <ele>307.455</ele>
        <time>2022-07-06T19:16:42Z</time>
      </trkpt>
      <trkpt lat="20.335775" lon="-97.87799">
        <ele>307.554</ele>
        <time>2022-07-06T19:16:44Z</time>
      </trkpt>
      <trkpt lat="20.335743" lon="-97.877948">
        <ele>307.581</ele>
        <time>2022-07-06T19:16:46Z</time>
      </trkpt>
      <trkpt lat="20.335704" lon="-97.877917">
        <ele>307.676</ele>
        <time>2022-07-06T19:16:48Z</time>
      </trkpt>
      <trkpt lat="20.335672" lon="-97.877881">
        <ele>307.471</ele>
        <time>2022-07-06T19:16:50Z</time>
      </trkpt>
      <trkpt lat="20.335627" lon="-97.877851">
        <ele>307.452</ele>
        <time>2022-07-06T19:16:52Z</time>
      </trkpt>
      <trkpt lat="20.33558" lon="-97.877828">
        <ele>307.412</ele>
        <time>2022-07-06T19:16:54Z</time>
      </trkpt>
      <trkpt lat="20.335535" lon="-97.877805">
        <ele>307.280</ele>
        <time>2022-07-06T19:16:58Z</time>
      </trkpt>
      <trkpt lat="20.335483" lon="-97.877794">
        <ele>307.043</ele>
        <time>2022-07-06T19:17:02Z</time>
      </trkpt>
      <trkpt lat="20.335429" lon="-97.877749">
        <ele>305.828</ele>
        <time>2022-07-06T19:17:05Z</time>
      </trkpt>
      <trkpt lat="20.335393" lon="-97.877704">
        <ele>305.789</ele>
        <time>2022-07-06T19:17:07Z</time>
      </trkpt>
      <trkpt lat="20.335373" lon="-97.87766">
        <ele>305.617</ele>
        <time>2022-07-06T19:17:09Z</time>
      </trkpt>
      <trkpt lat="20.335353" lon="-97.877593">
        <ele>305.509</ele>
        <time>2022-07-06T19:17:12Z</time>
      </trkpt>
      <trkpt lat="20.3353" lon="-97.877565">
        <ele>305.913</ele>
        <time>2022-07-06T19:17:14Z</time>
      </trkpt>
      <trkpt lat="20.335231" lon="-97.877546">
        <ele>306.552</ele>
        <time>2022-07-06T19:17:16Z</time>
      </trkpt>
      <trkpt lat="20.335188" lon="-97.87753">
        <ele>306.799</ele>
        <time>2022-07-06T19:17:18Z</time>
      </trkpt>
      <trkpt lat="20.335125" lon="-97.87752">
        <ele>307.454</ele>
        <time>2022-07-06T19:17:21Z</time>
      </trkpt>
      <trkpt lat="20.33506" lon="-97.877521">
        <ele>307.439</ele>
        <time>2022-07-06T19:17:23Z</time>
      </trkpt>
      <trkpt lat="20.334999" lon="-97.877521">
        <ele>307.350</ele>
        <time>2022-07-06T19:17:25Z</time>
      </trkpt>
      <trkpt lat="20.334934" lon="-97.877501">
        <ele>305.670</ele>
        <time>2022-07-06T19:17:28Z</time>
      </trkpt>
      <trkpt lat="20.334891" lon="-97.877473">
        <ele>302.718</ele>
        <time>2022-07-06T19:17:30Z</time>
      </trkpt>
      <trkpt lat="20.33483" lon="-97.877468">
        <ele>301.191</ele>
        <time>2022-07-06T19:17:32Z</time>
      </trkpt>
      <trkpt lat="20.334781" lon="-97.877468">
        <ele>299.257</ele>
        <time>2022-07-06T19:17:34Z</time>
      </trkpt>
      <trkpt lat="20.334701" lon="-97.877456">
        <ele>296.800</ele>
        <time>2022-07-06T19:17:36Z</time>
      </trkpt>
      <trkpt lat="20.334641" lon="-97.877433">
        <ele>295.720</ele>
        <time>2022-07-06T19:17:38Z</time>
      </trkpt>
      <trkpt lat="20.33459" lon="-97.87742">
        <ele>295.609</ele>
        <time>2022-07-06T19:17:41Z</time>
      </trkpt>
      <trkpt lat="20.334548" lon="-97.877404">
        <ele>295.766</ele>
        <time>2022-07-06T19:17:43Z</time>
      </trkpt>
      <trkpt lat="20.334496" lon="-97.877384">
        <ele>295.595</ele>
        <time>2022-07-06T19:17:45Z</time>
      </trkpt>
      <trkpt lat="20.334455" lon="-97.877351">
        <ele>295.482</ele>
        <time>2022-07-06T19:17:47Z</time>
      </trkpt>
      <trkpt lat="20.334416" lon="-97.877318">
        <ele>295.857</ele>
        <time>2022-07-06T19:17:49Z</time>
      </trkpt>
      <trkpt lat="20.334368" lon="-97.877291">
        <ele>296.642</ele>
        <time>2022-07-06T19:17:51Z</time>
      </trkpt>
      <trkpt lat="20.334318" lon="-97.877261">
        <ele>296.353</ele>
        <time>2022-07-06T19:17:53Z</time>
      </trkpt>
      <trkpt lat="20.334291" lon="-97.877203">
        <ele>295.763</ele>
        <time>2022-07-06T19:17:55Z</time>
      </trkpt>
      <trkpt lat="20.334255" lon="-97.877161">
        <ele>295.721</ele>
        <time>2022-07-06T19:17:57Z</time>
      </trkpt>
      <trkpt lat="20.334205" lon="-97.877135">
        <ele>294.714</ele>
        <time>2022-07-06T19:17:59Z</time>
      </trkpt>
      <trkpt lat="20.334155" lon="-97.877113">
        <ele>294.133</ele>
        <time>2022-07-06T19:18:01Z</time>
      </trkpt>
      <trkpt lat="20.334108" lon="-97.877098">
        <ele>293.723</ele>
        <time>2022-07-06T19:18:03Z</time>
      </trkpt>
      <trkpt lat="20.334062" lon="-97.87705">
        <ele>293.415</ele>
        <time>2022-07-06T19:18:06Z</time>
      </trkpt>
      <trkpt lat="20.334053" lon="-97.877001">
        <ele>292.509</ele>
        <time>2022-07-06T19:18:08Z</time>
      </trkpt>
      <trkpt lat="20.334042" lon="-97.876953">
        <ele>291.564</ele>
        <time>2022-07-06T19:18:10Z</time>
      </trkpt>
      <trkpt lat="20.334012" lon="-97.876889">
        <ele>290.563</ele>
        <time>2022-07-06T19:18:13Z</time>
      </trkpt>
      <trkpt lat="20.333979" lon="-97.876856">
        <ele>290.190</ele>
        <time>2022-07-06T19:18:15Z</time>
      </trkpt>
      <trkpt lat="20.333876" lon="-97.876802">
        <ele>289.955</ele>
        <time>2022-07-06T19:18:20Z</time>
      </trkpt>
      <trkpt lat="20.333876" lon="-97.876802">
        <ele>289.920</ele>
        <time>2022-07-06T19:18:20Z</time>
      </trkpt>
      <trkpt lat="20.333876" lon="-97.876802">
        <ele>289.971</ele>
        <time>2022-07-06T19:18:20Z</time>
      </trkpt>
      <trkpt lat="20.333876" lon="-97.876802">
        <ele>289.991</ele>
        <time>2022-07-06T19:18:20Z</time>
      </trkpt>
      <trkpt lat="20.33383" lon="-97.876782">
        <ele>289.989</ele>
        <time>2022-07-06T19:18:22Z</time>
      </trkpt>
      <trkpt lat="20.333787" lon="-97.876757">
        <ele>289.442</ele>
        <time>2022-07-06T19:18:24Z</time>
      </trkpt>
      <trkpt lat="20.333744" lon="-97.876707">
        <ele>288.738</ele>
        <time>2022-07-06T19:18:27Z</time>
      </trkpt>
      <trkpt lat="20.333719" lon="-97.876662">
        <ele>288.270</ele>
        <time>2022-07-06T19:18:29Z</time>
      </trkpt>
      <trkpt lat="20.333685" lon="-97.876624">
        <ele>287.417</ele>
        <time>2022-07-06T19:18:31Z</time>
      </trkpt>
      <trkpt lat="20.333651" lon="-97.876586">
        <ele>285.409</ele>
        <time>2022-07-06T19:18:33Z</time>
      </trkpt>
      <trkpt lat="20.333616" lon="-97.87655">
        <ele>285.224</ele>
        <time>2022-07-06T19:18:35Z</time>
      </trkpt>
      <trkpt lat="20.33358" lon="-97.876517">
        <ele>285.143</ele>
        <time>2022-07-06T19:18:37Z</time>
      </trkpt>
      <trkpt lat="20.333549" lon="-97.876481">
        <ele>284.870</ele>
        <time>2022-07-06T19:18:39Z</time>
      </trkpt>
      <trkpt lat="20.333522" lon="-97.876436">
        <ele>284.685</ele>
        <time>2022-07-06T19:18:41Z</time>
      </trkpt>
      <trkpt lat="20.33351" lon="-97.876382">
        <ele>284.240</ele>
        <time>2022-07-06T19:18:43Z</time>
      </trkpt>
      <trkpt lat="20.333495" lon="-97.876331">
        <ele>283.551</ele>
        <time>2022-07-06T19:18:45Z</time>
      </trkpt>
      <trkpt lat="20.333474" lon="-97.876284">
        <ele>283.071</ele>
        <time>2022-07-06T19:18:47Z</time>
      </trkpt>
      <trkpt lat="20.333457" lon="-97.87622">
        <ele>282.389</ele>
        <time>2022-07-06T19:18:50Z</time>
      </trkpt>
      <trkpt lat="20.333452" lon="-97.876168">
        <ele>282.392</ele>
        <time>2022-07-06T19:18:52Z</time>
      </trkpt>
      <trkpt lat="20.333448" lon="-97.876102">
        <ele>282.784</ele>
        <time>2022-07-06T19:18:55Z</time>
      </trkpt>
      <trkpt lat="20.333438" lon="-97.876032">
        <ele>284.207</ele>
        <time>2022-07-06T19:18:58Z</time>
      </trkpt>
      <trkpt lat="20.333416" lon="-97.875979">
        <ele>286.417</ele>
        <time>2022-07-06T19:19:00Z</time>
      </trkpt>
      <trkpt lat="20.333384" lon="-97.875932">
        <ele>288.309</ele>
        <time>2022-07-06T19:19:02Z</time>
      </trkpt>
      <trkpt lat="20.333355" lon="-97.875886">
        <ele>290.019</ele>
        <time>2022-07-06T19:19:04Z</time>
      </trkpt>
      <trkpt lat="20.333322" lon="-97.875844">
        <ele>292.298</ele>
        <time>2022-07-06T19:19:06Z</time>
      </trkpt>
      <trkpt lat="20.333279" lon="-97.875807">
        <ele>292.285</ele>
        <time>2022-07-06T19:19:08Z</time>
      </trkpt>
      <trkpt lat="20.333232" lon="-97.875783">
        <ele>292.220</ele>
        <time>2022-07-06T19:19:10Z</time>
      </trkpt>
      <trkpt lat="20.333185" lon="-97.87574">
        <ele>291.155</ele>
        <time>2022-07-06T19:19:13Z</time>
      </trkpt>
      <trkpt lat="20.333152" lon="-97.875684">
        <ele>291.046</ele>
        <time>2022-07-06T19:19:16Z</time>
      </trkpt>
      <trkpt lat="20.333104" lon="-97.87564">
        <ele>291.066</ele>
        <time>2022-07-06T19:19:19Z</time>
      </trkpt>
      <trkpt lat="20.333057" lon="-97.87563">
        <ele>291.134</ele>
        <time>2022-07-06T19:19:21Z</time>
      </trkpt>
      <trkpt lat="20.333022" lon="-97.875599">
        <ele>291.167</ele>
        <time>2022-07-06T19:19:23Z</time>
      </trkpt>
      <trkpt lat="20.333005" lon="-97.875554">
        <ele>291.017</ele>
        <time>2022-07-06T19:19:25Z</time>
      </trkpt>
      <trkpt lat="20.332976" lon="-97.875493">
        <ele>290.887</ele>
        <time>2022-07-06T19:19:28Z</time>
      </trkpt>
      <trkpt lat="20.332926" lon="-97.87545">
        <ele>289.215</ele>
        <time>2022-07-06T19:19:31Z</time>
      </trkpt>
      <trkpt lat="20.332889" lon="-97.875411">
        <ele>289.309</ele>
        <time>2022-07-06T19:19:34Z</time>
      </trkpt>
      <trkpt lat="20.332856" lon="-97.87537">
        <ele>289.442</ele>
        <time>2022-07-06T19:19:37Z</time>
      </trkpt>
      <trkpt lat="20.332833" lon="-97.875322">
        <ele>289.761</ele>
        <time>2022-07-06T19:19:39Z</time>
      </trkpt>
      <trkpt lat="20.332812" lon="-97.875274">
        <ele>290.018</ele>
        <time>2022-07-06T19:19:41Z</time>
      </trkpt>
      <trkpt lat="20.332773" lon="-97.875242">
        <ele>290.813</ele>
        <time>2022-07-06T19:19:43Z</time>
      </trkpt>
      <trkpt lat="20.332733" lon="-97.875215">
        <ele>290.818</ele>
        <time>2022-07-06T19:19:45Z</time>
      </trkpt>
      <trkpt lat="20.332708" lon="-97.875161">
        <ele>291.159</ele>
        <time>2022-07-06T19:19:48Z</time>
      </trkpt>
      <trkpt lat="20.33264" lon="-97.875133">
        <ele>291.129</ele>
        <time>2022-07-06T19:19:51Z</time>
      </trkpt>
      <trkpt lat="20.332581" lon="-97.875123">
        <ele>291.277</ele>
        <time>2022-07-06T19:19:53Z</time>
      </trkpt>
      <trkpt lat="20.332538" lon="-97.875104">
        <ele>291.210</ele>
        <time>2022-07-06T19:19:55Z</time>
      </trkpt>
      <trkpt lat="20.332482" lon="-97.875064">
        <ele>291.063</ele>
        <time>2022-07-06T19:19:58Z</time>
      </trkpt>
      <trkpt lat="20.332445" lon="-97.875033">
        <ele>289.144</ele>
        <time>2022-07-06T19:20:00Z</time>
      </trkpt>
      <trkpt lat="20.332407" lon="-97.875005">
        <ele>288.518</ele>
        <time>2022-07-06T19:20:02Z</time>
      </trkpt>
      <trkpt lat="20.332355" lon="-97.874991">
        <ele>288.309</ele>
        <time>2022-07-06T19:20:04Z</time>
      </trkpt>
      <trkpt lat="20.332294" lon="-97.874982">
        <ele>288.287</ele>
        <time>2022-07-06T19:20:06Z</time>
      </trkpt>
      <trkpt lat="20.332239" lon="-97.87497">
        <ele>287.756</ele>
        <time>2022-07-06T19:20:08Z</time>
      </trkpt>
      <trkpt lat="20.332185" lon="-97.874966">
        <ele>287.783</ele>
        <time>2022-07-06T19:20:10Z</time>
      </trkpt>
      <trkpt lat="20.332129" lon="-97.874962">
        <ele>287.098</ele>
        <time>2022-07-06T19:20:12Z</time>
      </trkpt>
      <trkpt lat="20.332073" lon="-97.874953">
        <ele>286.413</ele>
        <time>2022-07-06T19:20:14Z</time>
      </trkpt>
      <trkpt lat="20.332009" lon="-97.874968">
        <ele>286.444</ele>
        <time>2022-07-06T19:20:16Z</time>
      </trkpt>
      <trkpt lat="20.331944" lon="-97.874994">
        <ele>286.424</ele>
        <time>2022-07-06T19:20:18Z</time>
      </trkpt>
      <trkpt lat="20.33189" lon="-97.875001">
        <ele>287.552</ele>
        <time>2022-07-06T19:20:21Z</time>
      </trkpt>
      <trkpt lat="20.331828" lon="-97.874998">
        <ele>288.015</ele>
        <time>2022-07-06T19:20:24Z</time>
      </trkpt>
      <trkpt lat="20.331784" lon="-97.874989">
        <ele>288.248</ele>
        <time>2022-07-06T19:20:27Z</time>
      </trkpt>
      <trkpt lat="20.33174" lon="-97.874965">
        <ele>288.361</ele>
        <time>2022-07-06T19:20:29Z</time>
      </trkpt>
      <trkpt lat="20.331681" lon="-97.874962">
        <ele>288.517</ele>
        <time>2022-07-06T19:20:31Z</time>
      </trkpt>
      <trkpt lat="20.331621" lon="-97.874974">
        <ele>289.209</ele>
        <time>2022-07-06T19:20:33Z</time>
      </trkpt>
      <trkpt lat="20.331572" lon="-97.874975">
        <ele>289.225</ele>
        <time>2022-07-06T19:20:35Z</time>
      </trkpt>
      <trkpt lat="20.331529" lon="-97.874938">
        <ele>290.084</ele>
        <time>2022-07-06T19:20:38Z</time>
      </trkpt>
      <trkpt lat="20.331483" lon="-97.874926">
        <ele>291.151</ele>
        <time>2022-07-06T19:20:41Z</time>
      </trkpt>
      <trkpt lat="20.331434" lon="-97.874936">
        <ele>291.556</ele>
        <time>2022-07-06T19:20:44Z</time>
      </trkpt>
      <trkpt lat="20.331378" lon="-97.874914">
        <ele>293.231</ele>
        <time>2022-07-06T19:20:48Z</time>
      </trkpt>
      <trkpt lat="20.331331" lon="-97.874876">
        <ele>293.322</ele>
        <time>2022-07-06T19:20:52Z</time>
      </trkpt>
      <trkpt lat="20.331275" lon="-97.874861">
        <ele>293.672</ele>
        <time>2022-07-06T19:20:56Z</time>
      </trkpt>
      <trkpt lat="20.331224" lon="-97.874887">
        <ele>293.720</ele>
        <time>2022-07-06T19:20:59Z</time>
      </trkpt>
      <trkpt lat="20.331177" lon="-97.874926">
        <ele>293.823</ele>
        <time>2022-07-06T19:21:02Z</time>
      </trkpt>
      <trkpt lat="20.331136" lon="-97.87496">
        <ele>294.523</ele>
        <time>2022-07-06T19:21:05Z</time>
      </trkpt>
      <trkpt lat="20.331086" lon="-97.874989">
        <ele>297.083</ele>
        <time>2022-07-06T19:21:09Z</time>
      </trkpt>
      <trkpt lat="20.331033" lon="-97.875005">
        <ele>297.711</ele>
        <time>2022-07-06T19:21:12Z</time>
      </trkpt>
      <trkpt lat="20.330969" lon="-97.875006">
        <ele>298.109</ele>
        <time>2022-07-06T19:21:15Z</time>
      </trkpt>
      <trkpt lat="20.330914" lon="-97.875019">
        <ele>298.573</ele>
        <time>2022-07-06T19:21:18Z</time>
      </trkpt>
      <trkpt lat="20.330859" lon="-97.87503">
        <ele>298.532</ele>
        <time>2022-07-06T19:21:23Z</time>
      </trkpt>
      <trkpt lat="20.330811" lon="-97.875049">
        <ele>298.589</ele>
        <time>2022-07-06T19:21:28Z</time>
      </trkpt>
      <trkpt lat="20.330767" lon="-97.875073">
        <ele>298.614</ele>
        <time>2022-07-06T19:21:32Z</time>
      </trkpt>
      <trkpt lat="20.330713" lon="-97.875074">
        <ele>299.129</ele>
        <time>2022-07-06T19:21:36Z</time>
      </trkpt>
      <trkpt lat="20.330657" lon="-97.875095">
        <ele>300.440</ele>
        <time>2022-07-06T19:21:40Z</time>
      </trkpt>
      <trkpt lat="20.330627" lon="-97.875135">
        <ele>301.310</ele>
        <time>2022-07-06T19:21:43Z</time>
      </trkpt>
      <trkpt lat="20.330588" lon="-97.875169">
        <ele>301.888</ele>
        <time>2022-07-06T19:21:46Z</time>
      </trkpt>
      <trkpt lat="20.330554" lon="-97.875202">
        <ele>302.091</ele>
        <time>2022-07-06T19:21:48Z</time>
      </trkpt>
      <trkpt lat="20.330511" lon="-97.875222">
        <ele>302.834</ele>
        <time>2022-07-06T19:21:50Z</time>
      </trkpt>
      <trkpt lat="20.330454" lon="-97.875243">
        <ele>304.155</ele>
        <time>2022-07-06T19:21:53Z</time>
      </trkpt>
      <trkpt lat="20.330415" lon="-97.875285">
        <ele>304.710</ele>
        <time>2022-07-06T19:21:56Z</time>
      </trkpt>
      <trkpt lat="20.330412" lon="-97.875336">
        <ele>305.709</ele>
        <time>2022-07-06T19:21:59Z</time>
      </trkpt>
      <trkpt lat="20.330419" lon="-97.875386">
        <ele>305.984</ele>
        <time>2022-07-06T19:22:02Z</time>
      </trkpt>
      <trkpt lat="20.330368" lon="-97.87541">
        <ele>305.983</ele>
        <time>2022-07-06T19:22:07Z</time>
      </trkpt>
      <trkpt lat="20.33032" lon="-97.875421">
        <ele>305.920</ele>
        <time>2022-07-06T19:22:11Z</time>
      </trkpt>
      <trkpt lat="20.330269" lon="-97.875428">
        <ele>305.925</ele>
        <time>2022-07-06T19:22:15Z</time>
      </trkpt>
      <trkpt lat="20.330212" lon="-97.875441">
        <ele>306.070</ele>
        <time>2022-07-06T19:22:19Z</time>
      </trkpt>
      <trkpt lat="20.330164" lon="-97.875478">
        <ele>306.741</ele>
        <time>2022-07-06T19:22:23Z</time>
      </trkpt>
      <trkpt lat="20.330133" lon="-97.875516">
        <ele>307.231</ele>
        <time>2022-07-06T19:22:26Z</time>
      </trkpt>
      <trkpt lat="20.330084" lon="-97.875553">
        <ele>308.229</ele>
        <time>2022-07-06T19:22:30Z</time>
      </trkpt>
      <trkpt lat="20.330055" lon="-97.8756">
        <ele>308.842</ele>
        <time>2022-07-06T19:22:33Z</time>
      </trkpt>
      <trkpt lat="20.330017" lon="-97.875648">
        <ele>308.843</ele>
        <time>2022-07-06T19:22:36Z</time>
      </trkpt>
      <trkpt lat="20.329967" lon="-97.87568">
        <ele>308.864</ele>
        <time>2022-07-06T19:22:39Z</time>
      </trkpt>
      <trkpt lat="20.32991" lon="-97.875661">
        <ele>307.610</ele>
        <time>2022-07-06T19:22:42Z</time>
      </trkpt>
      <trkpt lat="20.329857" lon="-97.875675">
        <ele>307.409</ele>
        <time>2022-07-06T19:22:46Z</time>
      </trkpt>
      <trkpt lat="20.329823" lon="-97.875732">
        <ele>307.435</ele>
        <time>2022-07-06T19:22:49Z</time>
      </trkpt>
      <trkpt lat="20.329783" lon="-97.875786">
        <ele>307.444</ele>
        <time>2022-07-06T19:22:52Z</time>
      </trkpt>
      <trkpt lat="20.329738" lon="-97.875836">
        <ele>306.871</ele>
        <time>2022-07-06T19:22:55Z</time>
      </trkpt>
      <trkpt lat="20.329702" lon="-97.875872">
        <ele>305.766</ele>
        <time>2022-07-06T19:22:58Z</time>
      </trkpt>
      <trkpt lat="20.329653" lon="-97.875883">
        <ele>304.011</ele>
        <time>2022-07-06T19:23:01Z</time>
      </trkpt>
      <trkpt lat="20.329605" lon="-97.875897">
        <ele>301.532</ele>
        <time>2022-07-06T19:23:06Z</time>
      </trkpt>
      <trkpt lat="20.329556" lon="-97.87594">
        <ele>300.962</ele>
        <time>2022-07-06T19:23:09Z</time>
      </trkpt>
      <trkpt lat="20.329522" lon="-97.87598">
        <ele>300.030</ele>
        <time>2022-07-06T19:23:12Z</time>
      </trkpt>
      <trkpt lat="20.329471" lon="-97.876022">
        <ele>299.413</ele>
        <time>2022-07-06T19:23:15Z</time>
      </trkpt>
      <trkpt lat="20.329434" lon="-97.876055">
        <ele>299.226</ele>
        <time>2022-07-06T19:23:17Z</time>
      </trkpt>
      <trkpt lat="20.329394" lon="-97.87609">
        <ele>299.247</ele>
        <time>2022-07-06T19:23:19Z</time>
      </trkpt>
      <trkpt lat="20.329349" lon="-97.876133">
        <ele>300.011</ele>
        <time>2022-07-06T19:23:22Z</time>
      </trkpt>
      <trkpt lat="20.329317" lon="-97.876174">
        <ele>301.209</ele>
        <time>2022-07-06T19:23:24Z</time>
      </trkpt>
      <trkpt lat="20.329272" lon="-97.876214">
        <ele>306.043</ele>
        <time>2022-07-06T19:23:27Z</time>
      </trkpt>
      <trkpt lat="20.329233" lon="-97.876253">
        <ele>307.662</ele>
        <time>2022-07-06T19:23:30Z</time>
      </trkpt>
      <trkpt lat="20.329198" lon="-97.876294">
        <ele>308.139</ele>
        <time>2022-07-06T19:23:33Z</time>
      </trkpt>
      <trkpt lat="20.329154" lon="-97.876328">
        <ele>308.524</ele>
        <time>2022-07-06T19:23:36Z</time>
      </trkpt>
      <trkpt lat="20.329109" lon="-97.876365">
        <ele>308.369</ele>
        <time>2022-07-06T19:23:40Z</time>
      </trkpt>
      <trkpt lat="20.329062" lon="-97.876379">
        <ele>307.430</ele>
        <time>2022-07-06T19:23:43Z</time>
      </trkpt>
      <trkpt lat="20.329011" lon="-97.876404">
        <ele>307.430</ele>
        <time>2022-07-06T19:23:47Z</time>
      </trkpt>
      <trkpt lat="20.328958" lon="-97.876423">
        <ele>307.498</ele>
        <time>2022-07-06T19:23:51Z</time>
      </trkpt>
      <trkpt lat="20.328911" lon="-97.876455">
        <ele>307.431</ele>
        <time>2022-07-06T19:23:54Z</time>
      </trkpt>
      <trkpt lat="20.328867" lon="-97.876506">
        <ele>307.912</ele>
        <time>2022-07-06T19:23:57Z</time>
      </trkpt>
      <trkpt lat="20.328834" lon="-97.876561">
        <ele>307.932</ele>
        <time>2022-07-06T19:24:00Z</time>
      </trkpt>
      <trkpt lat="20.328791" lon="-97.876602">
        <ele>307.805</ele>
        <time>2022-07-06T19:24:03Z</time>
      </trkpt>
      <trkpt lat="20.32874" lon="-97.876641">
        <ele>306.809</ele>
        <time>2022-07-06T19:24:06Z</time>
      </trkpt>
      <trkpt lat="20.328702" lon="-97.876679">
        <ele>305.462</ele>
        <time>2022-07-06T19:24:09Z</time>
      </trkpt>
      <trkpt lat="20.328652" lon="-97.876702">
        <ele>305.491</ele>
        <time>2022-07-06T19:24:13Z</time>
      </trkpt>
      <trkpt lat="20.32861" lon="-97.876723">
        <ele>305.588</ele>
        <time>2022-07-06T19:24:15Z</time>
      </trkpt>
      <trkpt lat="20.328568" lon="-97.876753">
        <ele>305.773</ele>
        <time>2022-07-06T19:24:17Z</time>
      </trkpt>
      <trkpt lat="20.328532" lon="-97.87679">
        <ele>307.238</ele>
        <time>2022-07-06T19:24:19Z</time>
      </trkpt>
      <trkpt lat="20.328504" lon="-97.876829">
        <ele>307.719</ele>
        <time>2022-07-06T19:24:22Z</time>
      </trkpt>
      <trkpt lat="20.328456" lon="-97.876826">
        <ele>307.889</ele>
        <time>2022-07-06T19:24:25Z</time>
      </trkpt>
      <trkpt lat="20.32841" lon="-97.876844">
        <ele>307.747</ele>
        <time>2022-07-06T19:24:28Z</time>
      </trkpt>
      <trkpt lat="20.328355" lon="-97.876876">
        <ele>307.920</ele>
        <time>2022-07-06T19:24:31Z</time>
      </trkpt>
      <trkpt lat="20.328301" lon="-97.876903">
        <ele>307.873</ele>
        <time>2022-07-06T19:24:34Z</time>
      </trkpt>
      <trkpt lat="20.328261" lon="-97.876927">
        <ele>307.185</ele>
        <time>2022-07-06T19:24:37Z</time>
      </trkpt>
      <trkpt lat="20.328209" lon="-97.876953">
        <ele>306.413</ele>
        <time>2022-07-06T19:24:40Z</time>
      </trkpt>
      <trkpt lat="20.32815" lon="-97.876979">
        <ele>306.309</ele>
        <time>2022-07-06T19:24:43Z</time>
      </trkpt>
      <trkpt lat="20.328106" lon="-97.876993">
        <ele>304.658</ele>
        <time>2022-07-06T19:24:45Z</time>
      </trkpt>
      <trkpt lat="20.328066" lon="-97.877023">
        <ele>304.357</ele>
        <time>2022-07-06T19:24:47Z</time>
      </trkpt>
      <trkpt lat="20.328026" lon="-97.877054">
        <ele>304.394</ele>
        <time>2022-07-06T19:24:49Z</time>
      </trkpt>
      <trkpt lat="20.327981" lon="-97.877079">
        <ele>303.899</ele>
        <time>2022-07-06T19:24:51Z</time>
      </trkpt>
      <trkpt lat="20.327929" lon="-97.877096">
        <ele>305.114</ele>
        <time>2022-07-06T19:24:53Z</time>
      </trkpt>
      <trkpt lat="20.327882" lon="-97.877119">
        <ele>305.645</ele>
        <time>2022-07-06T19:24:55Z</time>
      </trkpt>
      <trkpt lat="20.327831" lon="-97.877137">
        <ele>306.195</ele>
        <time>2022-07-06T19:24:57Z</time>
      </trkpt>
      <trkpt lat="20.327786" lon="-97.877156">
        <ele>306.133</ele>
        <time>2022-07-06T19:24:59Z</time>
      </trkpt>
      <trkpt lat="20.327744" lon="-97.877182">
        <ele>306.146</ele>
        <time>2022-07-06T19:25:01Z</time>
      </trkpt>
      <trkpt lat="20.327708" lon="-97.877212">
        <ele>305.315</ele>
        <time>2022-07-06T19:25:03Z</time>
      </trkpt>
      <trkpt lat="20.327665" lon="-97.877236">
        <ele>305.365</ele>
        <time>2022-07-06T19:25:05Z</time>
      </trkpt>
      <trkpt lat="20.327604" lon="-97.877255">
        <ele>304.311</ele>
        <time>2022-07-06T19:25:08Z</time>
      </trkpt>
      <trkpt lat="20.327545" lon="-97.877271">
        <ele>304.109</ele>
        <time>2022-07-06T19:25:10Z</time>
      </trkpt>
      <trkpt lat="20.327498" lon="-97.877275">
        <ele>303.362</ele>
        <time>2022-07-06T19:25:14Z</time>
      </trkpt>
      <trkpt lat="20.327457" lon="-97.877297">
        <ele>302.541</ele>
        <time>2022-07-06T19:25:16Z</time>
      </trkpt>
      <trkpt lat="20.32741" lon="-97.877319">
        <ele>302.438</ele>
        <time>2022-07-06T19:25:18Z</time>
      </trkpt>
      <trkpt lat="20.327359" lon="-97.877328">
        <ele>302.443</ele>
        <time>2022-07-06T19:25:20Z</time>
      </trkpt>
      <trkpt lat="20.327311" lon="-97.877346">
        <ele>302.428</ele>
        <time>2022-07-06T19:25:22Z</time>
      </trkpt>
      <trkpt lat="20.327264" lon="-97.87736">
        <ele>302.579</ele>
        <time>2022-07-06T19:25:24Z</time>
      </trkpt>
      <trkpt lat="20.327213" lon="-97.877356">
        <ele>304.269</ele>
        <time>2022-07-06T19:25:26Z</time>
      </trkpt>
      <trkpt lat="20.327167" lon="-97.87733">
        <ele>305.487</ele>
        <time>2022-07-06T19:25:28Z</time>
      </trkpt>
      <trkpt lat="20.327129" lon="-97.877299">
        <ele>305.530</ele>
        <time>2022-07-06T19:25:30Z</time>
      </trkpt>
      <trkpt lat="20.327094" lon="-97.877269">
        <ele>306.013</ele>
        <time>2022-07-06T19:25:32Z</time>
      </trkpt>
      <trkpt lat="20.327059" lon="-97.877233">
        <ele>306.943</ele>
        <time>2022-07-06T19:25:34Z</time>
      </trkpt>
      <trkpt lat="20.327026" lon="-97.877198">
        <ele>307.007</ele>
        <time>2022-07-06T19:25:36Z</time>
      </trkpt>
      <trkpt lat="20.326982" lon="-97.877155">
        <ele>306.509</ele>
        <time>2022-07-06T19:25:39Z</time>
      </trkpt>
      <trkpt lat="20.326942" lon="-97.877131">
        <ele>306.672</ele>
        <time>2022-07-06T19:25:41Z</time>
      </trkpt>
      <trkpt lat="20.326897" lon="-97.877111">
        <ele>306.451</ele>
        <time>2022-07-06T19:25:43Z</time>
      </trkpt>
      <trkpt lat="20.326845" lon="-97.877103">
        <ele>306.188</ele>
        <time>2022-07-06T19:25:45Z</time>
      </trkpt>
      <trkpt lat="20.326795" lon="-97.877108">
        <ele>306.173</ele>
        <time>2022-07-06T19:25:47Z</time>
      </trkpt>
      <trkpt lat="20.326744" lon="-97.877119">
        <ele>304.228</ele>
        <time>2022-07-06T19:25:49Z</time>
      </trkpt>
      <trkpt lat="20.326701" lon="-97.877138">
        <ele>302.979</ele>
        <time>2022-07-06T19:25:51Z</time>
      </trkpt>
      <trkpt lat="20.326663" lon="-97.877168">
        <ele>302.629</ele>
        <time>2022-07-06T19:25:53Z</time>
      </trkpt>
      <trkpt lat="20.32662" lon="-97.877192">
        <ele>302.517</ele>
        <time>2022-07-06T19:25:55Z</time>
      </trkpt>
      <trkpt lat="20.326575" lon="-97.877212">
        <ele>301.560</ele>
        <time>2022-07-06T19:25:57Z</time>
      </trkpt>
      <trkpt lat="20.326531" lon="-97.87724">
        <ele>301.274</ele>
        <time>2022-07-06T19:25:59Z</time>
      </trkpt>
      <trkpt lat="20.326494" lon="-97.877274">
        <ele>300.756</ele>
        <time>2022-07-06T19:26:01Z</time>
      </trkpt>
      <trkpt lat="20.326453" lon="-97.877324">
        <ele>300.521</ele>
        <time>2022-07-06T19:26:04Z</time>
      </trkpt>
      <trkpt lat="20.326414" lon="-97.877366">
        <ele>300.209</ele>
        <time>2022-07-06T19:26:06Z</time>
      </trkpt>
      <trkpt lat="20.326379" lon="-97.877397">
        <ele>298.738</ele>
        <time>2022-07-06T19:26:08Z</time>
      </trkpt>
      <trkpt lat="20.326319" lon="-97.877431">
        <ele>298.247</ele>
        <time>2022-07-06T19:26:11Z</time>
      </trkpt>
      <trkpt lat="20.326278" lon="-97.877458">
        <ele>297.414</ele>
        <time>2022-07-06T19:26:15Z</time>
      </trkpt>
      <trkpt lat="20.326246" lon="-97.877492">
        <ele>298.049</ele>
        <time>2022-07-06T19:26:18Z</time>
      </trkpt>
      <trkpt lat="20.326195" lon="-97.87752">
        <ele>298.344</ele>
        <time>2022-07-06T19:26:22Z</time>
      </trkpt>
      <trkpt lat="20.32615" lon="-97.877523">
        <ele>298.535</ele>
        <time>2022-07-06T19:26:25Z</time>
      </trkpt>
      <trkpt lat="20.326098" lon="-97.877546">
        <ele>298.835</ele>
        <time>2022-07-06T19:26:29Z</time>
      </trkpt>
      <trkpt lat="20.326055" lon="-97.877573">
        <ele>299.463</ele>
        <time>2022-07-06T19:26:33Z</time>
      </trkpt>
      <trkpt lat="20.326017" lon="-97.877604">
        <ele>299.626</ele>
        <time>2022-07-06T19:26:38Z</time>
      </trkpt>
      <trkpt lat="20.326012" lon="-97.877653">
        <ele>299.568</ele>
        <time>2022-07-06T19:27:06Z</time>
      </trkpt>
      <trkpt lat="20.325975" lon="-97.877681">
        <ele>300.142</ele>
        <time>2022-07-06T19:27:21Z</time>
      </trkpt>
      <trkpt lat="20.325936" lon="-97.877706">
        <ele>300.126</ele>
        <time>2022-07-06T19:27:25Z</time>
      </trkpt>
      <trkpt lat="20.325886" lon="-97.877729">
        <ele>300.109</ele>
        <time>2022-07-06T19:27:29Z</time>
      </trkpt>
      <trkpt lat="20.325829" lon="-97.87775">
        <ele>300.167</ele>
        <time>2022-07-06T19:27:33Z</time>
      </trkpt>
      <trkpt lat="20.325775" lon="-97.877767">
        <ele>300.316</ele>
        <time>2022-07-06T19:27:36Z</time>
      </trkpt>
      <trkpt lat="20.325722" lon="-97.877776">
        <ele>300.533</ele>
        <time>2022-07-06T19:27:40Z</time>
      </trkpt>
      <trkpt lat="20.325664" lon="-97.877771">
        <ele>300.798</ele>
        <time>2022-07-06T19:27:44Z</time>
      </trkpt>
      <trkpt lat="20.325614" lon="-97.877812">
        <ele>302.353</ele>
        <time>2022-07-06T19:27:47Z</time>
      </trkpt>
      <trkpt lat="20.325556" lon="-97.877847">
        <ele>302.614</ele>
        <time>2022-07-06T19:27:50Z</time>
      </trkpt>
      <trkpt lat="20.325511" lon="-97.87786">
        <ele>302.694</ele>
        <time>2022-07-06T19:27:52Z</time>
      </trkpt>
      <trkpt lat="20.325467" lon="-97.87788">
        <ele>302.642</ele>
        <time>2022-07-06T19:27:54Z</time>
      </trkpt>
      <trkpt lat="20.325405" lon="-97.87789">
        <ele>301.495</ele>
        <time>2022-07-06T19:27:57Z</time>
      </trkpt>
      <trkpt lat="20.325359" lon="-97.877889">
        <ele>300.749</ele>
        <time>2022-07-06T19:27:59Z</time>
      </trkpt>
      <trkpt lat="20.325302" lon="-97.877929">
        <ele>300.302</ele>
        <time>2022-07-06T19:28:02Z</time>
      </trkpt>
      <trkpt lat="20.325249" lon="-97.877966">
        <ele>300.022</ele>
        <time>2022-07-06T19:28:05Z</time>
      </trkpt>
      <trkpt lat="20.325199" lon="-97.878002">
        <ele>299.109</ele>
        <time>2022-07-06T19:28:08Z</time>
      </trkpt>
      <trkpt lat="20.325161" lon="-97.87803">
        <ele>299.115</ele>
        <time>2022-07-06T19:28:12Z</time>
      </trkpt>
      <trkpt lat="20.325114" lon="-97.878053">
        <ele>299.154</ele>
        <time>2022-07-06T19:28:15Z</time>
      </trkpt>
      <trkpt lat="20.325055" lon="-97.878052">
        <ele>299.161</ele>
        <time>2022-07-06T19:28:18Z</time>
      </trkpt>
      <trkpt lat="20.325006" lon="-97.878052">
        <ele>299.816</ele>
        <time>2022-07-06T19:28:21Z</time>
      </trkpt>
      <trkpt lat="20.324972" lon="-97.878086">
        <ele>300.081</ele>
        <time>2022-07-06T19:28:25Z</time>
      </trkpt>
      <trkpt lat="20.324926" lon="-97.878073">
        <ele>300.322</ele>
        <time>2022-07-06T19:28:28Z</time>
      </trkpt>
      <trkpt lat="20.324875" lon="-97.878052">
        <ele>302.252</ele>
        <time>2022-07-06T19:28:33Z</time>
      </trkpt>
      <trkpt lat="20.324831" lon="-97.878031">
        <ele>304.760</ele>
        <time>2022-07-06T19:28:37Z</time>
      </trkpt>
      <trkpt lat="20.324784" lon="-97.87806">
        <ele>305.283</ele>
        <time>2022-07-06T19:28:42Z</time>
      </trkpt>
      <trkpt lat="20.324766" lon="-97.878113">
        <ele>304.875</ele>
        <time>2022-07-06T19:28:47Z</time>
      </trkpt>
      <trkpt lat="20.32473" lon="-97.87815">
        <ele>305.628</ele>
        <time>2022-07-06T19:28:52Z</time>
      </trkpt>
      <trkpt lat="20.324689" lon="-97.87818">
        <ele>306.320</ele>
        <time>2022-07-06T19:28:57Z</time>
      </trkpt>
      <trkpt lat="20.324693" lon="-97.878228">
        <ele>306.009</ele>
        <time>2022-07-06T19:29:01Z</time>
      </trkpt>
      <trkpt lat="20.324673" lon="-97.878292">
        <ele>305.418</ele>
        <time>2022-07-06T19:29:08Z</time>
      </trkpt>
      <trkpt lat="20.324673" lon="-97.878292">
        <ele>305.427</ele>
        <time>2022-07-06T19:29:08Z</time>
      </trkpt>
      <trkpt lat="20.324673" lon="-97.878292">
        <ele>305.454</ele>
        <time>2022-07-06T19:29:08Z</time>
      </trkpt>
      <trkpt lat="20.324673" lon="-97.878292">
        <ele>305.499</ele>
        <time>2022-07-06T19:29:08Z</time>
      </trkpt>
      <trkpt lat="20.324634" lon="-97.87832">
        <ele>305.474</ele>
        <time>2022-07-06T19:29:12Z</time>
      </trkpt>
      <trkpt lat="20.32459" lon="-97.878348">
        <ele>305.325</ele>
        <time>2022-07-06T19:29:16Z</time>
      </trkpt>
      <trkpt lat="20.324554" lon="-97.878381">
        <ele>304.745</ele>
        <time>2022-07-06T19:29:20Z</time>
      </trkpt>
      <trkpt lat="20.324551" lon="-97.878432">
        <ele>304.173</ele>
        <time>2022-07-06T19:29:24Z</time>
      </trkpt>
      <trkpt lat="20.324541" lon="-97.878483">
        <ele>303.166</ele>
        <time>2022-07-06T19:29:28Z</time>
      </trkpt>
      <trkpt lat="20.324535" lon="-97.878538">
        <ele>303.212</ele>
        <time>2022-07-06T19:29:31Z</time>
      </trkpt>
      <trkpt lat="20.324553" lon="-97.87859">
        <ele>301.832</ele>
        <time>2022-07-06T19:29:35Z</time>
      </trkpt>
      <trkpt lat="20.324586" lon="-97.878626">
        <ele>301.105</ele>
        <time>2022-07-06T19:29:39Z</time>
      </trkpt>
      <trkpt lat="20.324628" lon="-97.878656">
        <ele>300.609</ele>
        <time>2022-07-06T19:29:43Z</time>
      </trkpt>
      <trkpt lat="20.32464" lon="-97.878724">
        <ele>300.012</ele>
        <time>2022-07-06T19:29:47Z</time>
      </trkpt>
      <trkpt lat="20.324656" lon="-97.878791">
        <ele>299.671</ele>
        <time>2022-07-06T19:29:50Z</time>
      </trkpt>
      <trkpt lat="20.32468" lon="-97.878843">
        <ele>299.378</ele>
        <time>2022-07-06T19:29:53Z</time>
      </trkpt>
      <trkpt lat="20.324665" lon="-97.878901">
        <ele>299.393</ele>
        <time>2022-07-06T19:29:56Z</time>
      </trkpt>
      <trkpt lat="20.324663" lon="-97.878963">
        <ele>299.618</ele>
        <time>2022-07-06T19:29:59Z</time>
      </trkpt>
      <trkpt lat="20.324683" lon="-97.879024">
        <ele>299.619</ele>
        <time>2022-07-06T19:30:02Z</time>
      </trkpt>
      <trkpt lat="20.324718" lon="-97.87907">
        <ele>300.169</ele>
        <time>2022-07-06T19:30:06Z</time>
      </trkpt>
      <trkpt lat="20.324741" lon="-97.879128">
        <ele>304.297</ele>
        <time>2022-07-06T19:30:09Z</time>
      </trkpt>
      <trkpt lat="20.324777" lon="-97.879175">
        <ele>305.030</ele>
        <time>2022-07-06T19:30:13Z</time>
      </trkpt>
      <trkpt lat="20.324796" lon="-97.879229">
        <ele>305.973</ele>
        <time>2022-07-06T19:30:17Z</time>
      </trkpt>
      <trkpt lat="20.324819" lon="-97.879283">
        <ele>307.285</ele>
        <time>2022-07-06T19:30:20Z</time>
      </trkpt>
      <trkpt lat="20.324839" lon="-97.87934">
        <ele>307.813</ele>
        <time>2022-07-06T19:30:23Z</time>
      </trkpt>
      <trkpt lat="20.324859" lon="-97.879399">
        <ele>307.809</ele>
        <time>2022-07-06T19:30:26Z</time>
      </trkpt>
      <trkpt lat="20.32489" lon="-97.879454">
        <ele>307.868</ele>
        <time>2022-07-06T19:30:29Z</time>
      </trkpt>
      <trkpt lat="20.324922" lon="-97.879507">
        <ele>307.147</ele>
        <time>2022-07-06T19:30:32Z</time>
      </trkpt>
      <trkpt lat="20.324945" lon="-97.879571">
        <ele>307.064</ele>
        <time>2022-07-06T19:30:35Z</time>
      </trkpt>
      <trkpt lat="20.324969" lon="-97.879623">
        <ele>306.939</ele>
        <time>2022-07-06T19:30:39Z</time>
      </trkpt>
      <trkpt lat="20.324961" lon="-97.879683">
        <ele>306.774</ele>
        <time>2022-07-06T19:30:44Z</time>
      </trkpt>
      <trkpt lat="20.324948" lon="-97.87974">
        <ele>306.015</ele>
        <time>2022-07-06T19:30:48Z</time>
      </trkpt>
      <trkpt lat="20.324943" lon="-97.879791">
        <ele>306.275</ele>
        <time>2022-07-06T19:30:52Z</time>
      </trkpt>
      <trkpt lat="20.324938" lon="-97.87985">
        <ele>305.463</ele>
        <time>2022-07-06T19:30:57Z</time>
      </trkpt>
      <trkpt lat="20.324901" lon="-97.879899">
        <ele>305.486</ele>
        <time>2022-07-06T19:31:00Z</time>
      </trkpt>
      <trkpt lat="20.324863" lon="-97.879927">
        <ele>305.679</ele>
        <time>2022-07-06T19:31:03Z</time>
      </trkpt>
      <trkpt lat="20.324814" lon="-97.879954">
        <ele>306.805</ele>
        <time>2022-07-06T19:31:07Z</time>
      </trkpt>
      <trkpt lat="20.324768" lon="-97.879975">
        <ele>309.325</ele>
        <time>2022-07-06T19:31:11Z</time>
      </trkpt>
      <trkpt lat="20.324723" lon="-97.879983">
        <ele>309.809</ele>
        <time>2022-07-06T19:31:15Z</time>
      </trkpt>
      <trkpt lat="20.324678" lon="-97.879994">
        <ele>310.298</ele>
        <time>2022-07-06T19:31:19Z</time>
      </trkpt>
      <trkpt lat="20.324622" lon="-97.879999">
        <ele>310.447</ele>
        <time>2022-07-06T19:31:23Z</time>
      </trkpt>
      <trkpt lat="20.324568" lon="-97.880015">
        <ele>310.874</ele>
        <time>2022-07-06T19:31:27Z</time>
      </trkpt>
      <trkpt lat="20.324526" lon="-97.880036">
        <ele>311.139</ele>
        <time>2022-07-06T19:31:30Z</time>
      </trkpt>
      <trkpt lat="20.324476" lon="-97.880083">
        <ele>312.684</ele>
        <time>2022-07-06T19:31:33Z</time>
      </trkpt>
      <trkpt lat="20.324424" lon="-97.880117">
        <ele>312.995</ele>
        <time>2022-07-06T19:31:36Z</time>
      </trkpt>
      <trkpt lat="20.324382" lon="-97.880141">
        <ele>312.925</ele>
        <time>2022-07-06T19:31:40Z</time>
      </trkpt>
      <trkpt lat="20.324343" lon="-97.880175">
        <ele>310.943</ele>
        <time>2022-07-06T19:31:45Z</time>
      </trkpt>
      <trkpt lat="20.3243" lon="-97.880157">
        <ele>309.936</ele>
        <time>2022-07-06T19:31:48Z</time>
      </trkpt>
      <trkpt lat="20.324246" lon="-97.880166">
        <ele>309.476</ele>
        <time>2022-07-06T19:31:51Z</time>
      </trkpt>
      <trkpt lat="20.324193" lon="-97.880201">
        <ele>308.290</ele>
        <time>2022-07-06T19:31:54Z</time>
      </trkpt>
      <trkpt lat="20.324168" lon="-97.880258">
        <ele>308.219</ele>
        <time>2022-07-06T19:31:57Z</time>
      </trkpt>
      <trkpt lat="20.32415" lon="-97.880304">
        <ele>308.009</ele>
        <time>2022-07-06T19:31:59Z</time>
      </trkpt>
      <trkpt lat="20.324153" lon="-97.880364">
        <ele>309.448</ele>
        <time>2022-07-06T19:32:03Z</time>
      </trkpt>
      <trkpt lat="20.324094" lon="-97.880362">
        <ele>310.457</ele>
        <time>2022-07-06T19:32:08Z</time>
      </trkpt>
      <trkpt lat="20.324043" lon="-97.880373">
        <ele>311.064</ele>
        <time>2022-07-06T19:32:12Z</time>
      </trkpt>
      <trkpt lat="20.32401" lon="-97.880414">
        <ele>311.249</ele>
        <time>2022-07-06T19:32:16Z</time>
      </trkpt>
      <trkpt lat="20.323978" lon="-97.88046">
        <ele>312.044</ele>
        <time>2022-07-06T19:32:20Z</time>
      </trkpt>
      <trkpt lat="20.323934" lon="-97.880505">
        <ele>312.745</ele>
        <time>2022-07-06T19:32:24Z</time>
      </trkpt>
      <trkpt lat="20.323892" lon="-97.880534">
        <ele>312.595</ele>
        <time>2022-07-06T19:32:27Z</time>
      </trkpt>
      <trkpt lat="20.323835" lon="-97.880556">
        <ele>312.833</ele>
        <time>2022-07-06T19:32:30Z</time>
      </trkpt>
      <trkpt lat="20.323788" lon="-97.880583">
        <ele>312.916</ele>
        <time>2022-07-06T19:32:33Z</time>
      </trkpt>
      <trkpt lat="20.323736" lon="-97.880571">
        <ele>312.034</ele>
        <time>2022-07-06T19:32:38Z</time>
      </trkpt>
      <trkpt lat="20.323689" lon="-97.880598">
        <ele>311.555</ele>
        <time>2022-07-06T19:32:42Z</time>
      </trkpt>
      <trkpt lat="20.323636" lon="-97.880633">
        <ele>311.210</ele>
        <time>2022-07-06T19:32:45Z</time>
      </trkpt>
      <trkpt lat="20.32358" lon="-97.880644">
        <ele>310.609</ele>
        <time>2022-07-06T19:32:48Z</time>
      </trkpt>
      <trkpt lat="20.323521" lon="-97.880674">
        <ele>310.194</ele>
        <time>2022-07-06T19:32:51Z</time>
      </trkpt>
      <trkpt lat="20.323464" lon="-97.880704">
        <ele>309.823</ele>
        <time>2022-07-06T19:32:54Z</time>
      </trkpt>
      <trkpt lat="20.323406" lon="-97.880702">
        <ele>309.030</ele>
        <time>2022-07-06T19:32:57Z</time>
      </trkpt>
      <trkpt lat="20.323349" lon="-97.880709">
        <ele>308.765</ele>
        <time>2022-07-06T19:33:00Z</time>
      </trkpt>
      <trkpt lat="20.323305" lon="-97.880724">
        <ele>307.880</ele>
        <time>2022-07-06T19:33:02Z</time>
      </trkpt>
      <trkpt lat="20.323252" lon="-97.880716">
        <ele>307.391</ele>
        <time>2022-07-06T19:33:05Z</time>
      </trkpt>
      <trkpt lat="20.323182" lon="-97.880719">
        <ele>306.911</ele>
        <time>2022-07-06T19:33:08Z</time>
      </trkpt>
      <trkpt lat="20.323127" lon="-97.880722">
        <ele>306.439</ele>
        <time>2022-07-06T19:33:10Z</time>
      </trkpt>
      <trkpt lat="20.323062" lon="-97.880731">
        <ele>306.652</ele>
        <time>2022-07-06T19:33:13Z</time>
      </trkpt>
      <trkpt lat="20.323006" lon="-97.88075">
        <ele>305.413</ele>
        <time>2022-07-06T19:33:16Z</time>
      </trkpt>
      <trkpt lat="20.32295" lon="-97.880769">
        <ele>305.743</ele>
        <time>2022-07-06T19:33:19Z</time>
      </trkpt>
      <trkpt lat="20.322894" lon="-97.880772">
        <ele>305.207</ele>
        <time>2022-07-06T19:33:23Z</time>
      </trkpt>
      <trkpt lat="20.322847" lon="-97.88078">
        <ele>305.009</ele>
        <time>2022-07-06T19:33:26Z</time>
      </trkpt>
      <trkpt lat="20.322801" lon="-97.880783">
        <ele>305.692</ele>
        <time>2022-07-06T19:33:29Z</time>
      </trkpt>
      <trkpt lat="20.322744" lon="-97.880783">
        <ele>306.181</ele>
        <time>2022-07-06T19:33:32Z</time>
      </trkpt>
      <trkpt lat="20.322681" lon="-97.880769">
        <ele>306.388</ele>
        <time>2022-07-06T19:33:35Z</time>
      </trkpt>
      <trkpt lat="20.32263" lon="-97.880768">
        <ele>306.493</ele>
        <time>2022-07-06T19:33:37Z</time>
      </trkpt>
      <trkpt lat="20.322583" lon="-97.880759">
        <ele>306.818</ele>
        <time>2022-07-06T19:33:39Z</time>
      </trkpt>
      <trkpt lat="20.322519" lon="-97.88075">
        <ele>307.269</ele>
        <time>2022-07-06T19:33:42Z</time>
      </trkpt>
      <trkpt lat="20.322461" lon="-97.880751">
        <ele>307.749</ele>
        <time>2022-07-06T19:33:45Z</time>
      </trkpt>
      <trkpt lat="20.322408" lon="-97.880755">
        <ele>308.717</ele>
        <time>2022-07-06T19:33:48Z</time>
      </trkpt>
      <trkpt lat="20.322362" lon="-97.880754">
        <ele>309.510</ele>
        <time>2022-07-06T19:33:51Z</time>
      </trkpt>
      <trkpt lat="20.322319" lon="-97.880732">
        <ele>310.063</ele>
        <time>2022-07-06T19:33:54Z</time>
      </trkpt>
      <trkpt lat="20.322273" lon="-97.880695">
        <ele>311.344</ele>
        <time>2022-07-06T19:33:58Z</time>
      </trkpt>
      <trkpt lat="20.322216" lon="-97.880695">
        <ele>312.018</ele>
        <time>2022-07-06T19:34:02Z</time>
      </trkpt>
      <trkpt lat="20.322156" lon="-97.880688">
        <ele>312.009</ele>
        <time>2022-07-06T19:34:06Z</time>
      </trkpt>
      <trkpt lat="20.322102" lon="-97.880667">
        <ele>312.037</ele>
        <time>2022-07-06T19:34:10Z</time>
      </trkpt>
      <trkpt lat="20.322056" lon="-97.880664">
        <ele>311.546</ele>
        <time>2022-07-06T19:34:13Z</time>
      </trkpt>
      <trkpt lat="20.322012" lon="-97.880633">
        <ele>310.243</ele>
        <time>2022-07-06T19:34:16Z</time>
      </trkpt>
      <trkpt lat="20.321958" lon="-97.880612">
        <ele>309.058</ele>
        <time>2022-07-06T19:34:19Z</time>
      </trkpt>
      <trkpt lat="20.321911" lon="-97.880634">
        <ele>308.623</ele>
        <time>2022-07-06T19:34:21Z</time>
      </trkpt>
      <trkpt lat="20.321869" lon="-97.880677">
        <ele>308.224</ele>
        <time>2022-07-06T19:34:23Z</time>
      </trkpt>
      <trkpt lat="20.321829" lon="-97.880724">
        <ele>306.934</ele>
        <time>2022-07-06T19:34:25Z</time>
      </trkpt>
      <trkpt lat="20.321805" lon="-97.880776">
        <ele>306.122</ele>
        <time>2022-07-06T19:34:28Z</time>
      </trkpt>
      <trkpt lat="20.321773" lon="-97.880812">
        <ele>305.715</ele>
        <time>2022-07-06T19:34:30Z</time>
      </trkpt>
      <trkpt lat="20.321733" lon="-97.880845">
        <ele>304.723</ele>
        <time>2022-07-06T19:34:33Z</time>
      </trkpt>
      <trkpt lat="20.321683" lon="-97.880856">
        <ele>304.483</ele>
        <time>2022-07-06T19:34:38Z</time>
      </trkpt>
      <trkpt lat="20.321641" lon="-97.880873">
        <ele>303.611</ele>
        <time>2022-07-06T19:34:42Z</time>
      </trkpt>
      <trkpt lat="20.321605" lon="-97.880912">
        <ele>304.509</ele>
        <time>2022-07-06T19:34:46Z</time>
      </trkpt>
      <trkpt lat="20.321581" lon="-97.880968">
        <ele>304.723</ele>
        <time>2022-07-06T19:34:49Z</time>
      </trkpt>
      <trkpt lat="20.321542" lon="-97.881024">
        <ele>305.082</ele>
        <time>2022-07-06T19:34:52Z</time>
      </trkpt>
      <trkpt lat="20.321508" lon="-97.881086">
        <ele>305.249</ele>
        <time>2022-07-06T19:34:55Z</time>
      </trkpt>
      <trkpt lat="20.321458" lon="-97.881135">
        <ele>308.554</ele>
        <time>2022-07-06T19:34:58Z</time>
      </trkpt>
      <trkpt lat="20.321424" lon="-97.881169">
        <ele>310.999</ele>
        <time>2022-07-06T19:35:00Z</time>
      </trkpt>
      <trkpt lat="20.321398" lon="-97.881209">
        <ele>313.580</ele>
        <time>2022-07-06T19:35:02Z</time>
      </trkpt>
      <trkpt lat="20.321374" lon="-97.881251">
        <ele>313.520</ele>
        <time>2022-07-06T19:35:04Z</time>
      </trkpt>
      <trkpt lat="20.321334" lon="-97.881305">
        <ele>313.528</ele>
        <time>2022-07-06T19:35:07Z</time>
      </trkpt>
      <trkpt lat="20.321292" lon="-97.881355">
        <ele>310.751</ele>
        <time>2022-07-06T19:35:10Z</time>
      </trkpt>
      <trkpt lat="20.321241" lon="-97.881404">
        <ele>307.667</ele>
        <time>2022-07-06T19:35:13Z</time>
      </trkpt>
      <trkpt lat="20.321204" lon="-97.881447">
        <ele>306.781</ele>
        <time>2022-07-06T19:35:15Z</time>
      </trkpt>
      <trkpt lat="20.321172" lon="-97.881487">
        <ele>306.719</ele>
        <time>2022-07-06T19:35:17Z</time>
      </trkpt>
      <trkpt lat="20.32113" lon="-97.881536">
        <ele>306.909</ele>
        <time>2022-07-06T19:35:20Z</time>
      </trkpt>
      <trkpt lat="20.321092" lon="-97.881578">
        <ele>307.197</ele>
        <time>2022-07-06T19:35:23Z</time>
      </trkpt>
      <trkpt lat="20.321052" lon="-97.881617">
        <ele>307.196</ele>
        <time>2022-07-06T19:35:26Z</time>
      </trkpt>
      <trkpt lat="20.321019" lon="-97.881657">
        <ele>307.193</ele>
        <time>2022-07-06T19:35:29Z</time>
      </trkpt>
      <trkpt lat="20.320994" lon="-97.881714">
        <ele>306.378</ele>
        <time>2022-07-06T19:35:32Z</time>
      </trkpt>
      <trkpt lat="20.320965" lon="-97.881751">
        <ele>302.643</ele>
        <time>2022-07-06T19:35:34Z</time>
      </trkpt>
      <trkpt lat="20.320936" lon="-97.881788">
        <ele>301.744</ele>
        <time>2022-07-06T19:35:36Z</time>
      </trkpt>
      <trkpt lat="20.320906" lon="-97.881825">
        <ele>301.284</ele>
        <time>2022-07-06T19:35:38Z</time>
      </trkpt>
      <trkpt lat="20.32088" lon="-97.881875">
        <ele>300.742</ele>
        <time>2022-07-06T19:35:41Z</time>
      </trkpt>
      <trkpt lat="20.320843" lon="-97.881909">
        <ele>300.895</ele>
        <time>2022-07-06T19:35:47Z</time>
      </trkpt>
      <trkpt lat="20.320817" lon="-97.881949">
        <ele>300.676</ele>
        <time>2022-07-06T19:35:52Z</time>
      </trkpt>
      <trkpt lat="20.320764" lon="-97.881996">
        <ele>300.590</ele>
        <time>2022-07-06T19:35:56Z</time>
      </trkpt>
      <trkpt lat="20.320729" lon="-97.882044">
        <ele>300.019</ele>
        <time>2022-07-06T19:36:00Z</time>
      </trkpt>
      <trkpt lat="20.320701" lon="-97.882093">
        <ele>300.009</ele>
        <time>2022-07-06T19:36:02Z</time>
      </trkpt>
      <trkpt lat="20.320666" lon="-97.882138">
        <ele>299.818</ele>
        <time>2022-07-06T19:36:04Z</time>
      </trkpt>
      <trkpt lat="20.320628" lon="-97.882179">
        <ele>299.817</ele>
        <time>2022-07-06T19:36:06Z</time>
      </trkpt>
      <trkpt lat="20.320587" lon="-97.882216">
        <ele>301.164</ele>
        <time>2022-07-06T19:36:08Z</time>
      </trkpt>
      <trkpt lat="20.320548" lon="-97.882255">
        <ele>302.889</ele>
        <time>2022-07-06T19:36:10Z</time>
      </trkpt>
      <trkpt lat="20.32051" lon="-97.8823">
        <ele>306.014</ele>
        <time>2022-07-06T19:36:13Z</time>
      </trkpt>
      <trkpt lat="20.320483" lon="-97.882346">
        <ele>306.265</ele>
        <time>2022-07-06T19:36:17Z</time>
      </trkpt>
      <trkpt lat="20.320448" lon="-97.882394">
        <ele>307.265</ele>
        <time>2022-07-06T19:36:21Z</time>
      </trkpt>
      <trkpt lat="20.320405" lon="-97.882441">
        <ele>307.523</ele>
        <time>2022-07-06T19:36:25Z</time>
      </trkpt>
      <trkpt lat="20.320369" lon="-97.882472">
        <ele>308.176</ele>
        <time>2022-07-06T19:36:27Z</time>
      </trkpt>
      <trkpt lat="20.320328" lon="-97.882526">
        <ele>308.174</ele>
        <time>2022-07-06T19:36:30Z</time>
      </trkpt>
      <trkpt lat="20.320282" lon="-97.882573">
        <ele>308.856</ele>
        <time>2022-07-06T19:36:33Z</time>
      </trkpt>
      <trkpt lat="20.320249" lon="-97.882606">
        <ele>308.821</ele>
        <time>2022-07-06T19:36:35Z</time>
      </trkpt>
      <trkpt lat="20.320215" lon="-97.882641">
        <ele>309.009</ele>
        <time>2022-07-06T19:36:37Z</time>
      </trkpt>
      <trkpt lat="20.320174" lon="-97.882686">
        <ele>309.078</ele>
        <time>2022-07-06T19:36:40Z</time>
      </trkpt>
      <trkpt lat="20.320115" lon="-97.882727">
        <ele>309.927</ele>
        <time>2022-07-06T19:36:44Z</time>
      </trkpt>
      <trkpt lat="20.320077" lon="-97.882768">
        <ele>310.084</ele>
        <time>2022-07-06T19:36:46Z</time>
      </trkpt>
      <trkpt lat="20.320058" lon="-97.88282">
        <ele>310.089</ele>
        <time>2022-07-06T19:36:48Z</time>
      </trkpt>
      <trkpt lat="20.320029" lon="-97.882868">
        <ele>309.974</ele>
        <time>2022-07-06T19:36:50Z</time>
      </trkpt>
      <trkpt lat="20.319995" lon="-97.882909">
        <ele>309.735</ele>
        <time>2022-07-06T19:36:52Z</time>
      </trkpt>
      <trkpt lat="20.319971" lon="-97.882952">
        <ele>309.795</ele>
        <time>2022-07-06T19:36:54Z</time>
      </trkpt>
      <trkpt lat="20.319948" lon="-97.883003">
        <ele>310.213</ele>
        <time>2022-07-06T19:36:57Z</time>
      </trkpt>
      <trkpt lat="20.319924" lon="-97.883053">
        <ele>310.536</ele>
        <time>2022-07-06T19:37:01Z</time>
      </trkpt>
      <trkpt lat="20.319894" lon="-97.883115">
        <ele>310.318</ele>
        <time>2022-07-06T19:37:05Z</time>
      </trkpt>
      <trkpt lat="20.319853" lon="-97.883164">
        <ele>310.398</ele>
        <time>2022-07-06T19:37:08Z</time>
      </trkpt>
      <trkpt lat="20.319816" lon="-97.883204">
        <ele>308.517</ele>
        <time>2022-07-06T19:37:13Z</time>
      </trkpt>
      <trkpt lat="20.319789" lon="-97.883249">
        <ele>308.009</ele>
        <time>2022-07-06T19:37:17Z</time>
      </trkpt>
      <trkpt lat="20.319772" lon="-97.883299">
        <ele>305.772</ele>
        <time>2022-07-06T19:37:20Z</time>
      </trkpt>
      <trkpt lat="20.319737" lon="-97.883342">
        <ele>305.181</ele>
        <time>2022-07-06T19:37:24Z</time>
      </trkpt>
      <trkpt lat="20.3197" lon="-97.883374">
        <ele>304.548</ele>
        <time>2022-07-06T19:37:28Z</time>
      </trkpt>
      <trkpt lat="20.319666" lon="-97.883413">
        <ele>304.283</ele>
        <time>2022-07-06T19:37:32Z</time>
      </trkpt>
      <trkpt lat="20.319705" lon="-97.883441">
        <ele>304.658</ele>
        <time>2022-07-06T19:37:41Z</time>
      </trkpt>
      <trkpt lat="20.319695" lon="-97.883488">
        <ele>304.939</ele>
        <time>2022-07-06T19:37:46Z</time>
      </trkpt>
      <trkpt lat="20.319651" lon="-97.883523">
        <ele>305.019</ele>
        <time>2022-07-06T19:37:49Z</time>
      </trkpt>
      <trkpt lat="20.319609" lon="-97.883563">
        <ele>305.077</ele>
        <time>2022-07-06T19:37:52Z</time>
      </trkpt>
      <trkpt lat="20.319579" lon="-97.883613">
        <ele>305.070</ele>
        <time>2022-07-06T19:37:55Z</time>
      </trkpt>
      <trkpt lat="20.319545" lon="-97.883664">
        <ele>304.951</ele>
        <time>2022-07-06T19:37:58Z</time>
      </trkpt>
      <trkpt lat="20.319515" lon="-97.883701">
        <ele>304.701</ele>
        <time>2022-07-06T19:38:00Z</time>
      </trkpt>
      <trkpt lat="20.31947" lon="-97.883749">
        <ele>304.411</ele>
        <time>2022-07-06T19:38:03Z</time>
      </trkpt>
      <trkpt lat="20.319427" lon="-97.883788">
        <ele>304.609</ele>
        <time>2022-07-06T19:38:05Z</time>
      </trkpt>
      <trkpt lat="20.319384" lon="-97.883824">
        <ele>304.946</ele>
        <time>2022-07-06T19:38:07Z</time>
      </trkpt>
      <trkpt lat="20.319336" lon="-97.88387">
        <ele>306.355</ele>
        <time>2022-07-06T19:38:10Z</time>
      </trkpt>
      <trkpt lat="20.319297" lon="-97.883897">
        <ele>306.322</ele>
        <time>2022-07-06T19:38:12Z</time>
      </trkpt>
      <trkpt lat="20.319079" lon="-97.884033">
        <ele>306.887</ele>
        <time>2022-07-06T19:38:14Z</time>
      </trkpt>
      <trkpt lat="20.319021" lon="-97.884066">
        <ele>307.942</ele>
        <time>2022-07-06T19:38:16Z</time>
      </trkpt>
      <trkpt lat="20.318967" lon="-97.884095">
        <ele>306.983</ele>
        <time>2022-07-06T19:38:18Z</time>
      </trkpt>
      <trkpt lat="20.318892" lon="-97.884121">
        <ele>306.983</ele>
        <time>2022-07-06T19:38:20Z</time>
      </trkpt>
      <trkpt lat="20.318826" lon="-97.884137">
        <ele>306.791</ele>
        <time>2022-07-06T19:38:22Z</time>
      </trkpt>
      <trkpt lat="20.318789" lon="-97.88418">
        <ele>305.724</ele>
        <time>2022-07-06T19:38:24Z</time>
      </trkpt>
      <trkpt lat="20.318741" lon="-97.884199">
        <ele>304.756</ele>
        <time>2022-07-06T19:38:27Z</time>
      </trkpt>
      <trkpt lat="20.318694" lon="-97.884218">
        <ele>303.959</ele>
        <time>2022-07-06T19:38:30Z</time>
      </trkpt>
      <trkpt lat="20.318646" lon="-97.884241">
        <ele>303.714</ele>
        <time>2022-07-06T19:38:33Z</time>
      </trkpt>
      <trkpt lat="20.318595" lon="-97.88428">
        <ele>303.109</ele>
        <time>2022-07-06T19:38:36Z</time>
      </trkpt>
      <trkpt lat="20.318545" lon="-97.884308">
        <ele>302.316</ele>
        <time>2022-07-06T19:38:38Z</time>
      </trkpt>
      <trkpt lat="20.318488" lon="-97.884335">
        <ele>298.645</ele>
        <time>2022-07-06T19:38:40Z</time>
      </trkpt>
      <trkpt lat="20.318423" lon="-97.884372">
        <ele>296.112</ele>
        <time>2022-07-06T19:38:42Z</time>
      </trkpt>
      <trkpt lat="20.318355" lon="-97.884409">
        <ele>293.557</ele>
        <time>2022-07-06T19:38:44Z</time>
      </trkpt>
      <trkpt lat="20.318282" lon="-97.884449">
        <ele>293.482</ele>
        <time>2022-07-06T19:38:46Z</time>
      </trkpt>
      <trkpt lat="20.3182" lon="-97.884492">
        <ele>293.933</ele>
        <time>2022-07-06T19:38:48Z</time>
      </trkpt>
      <trkpt lat="20.318155" lon="-97.884517">
        <ele>294.553</ele>
        <time>2022-07-06T19:38:49Z</time>
      </trkpt>
      <trkpt lat="20.318058" lon="-97.884576">
        <ele>295.981</ele>
        <time>2022-07-06T19:38:51Z</time>
      </trkpt>
      <trkpt lat="20.317889" lon="-97.884685">
        <ele>298.234</ele>
        <time>2022-07-06T19:38:53Z</time>
      </trkpt>
      <trkpt lat="20.31784" lon="-97.884686">
        <ele>299.219</ele>
        <time>2022-07-06T19:38:54Z</time>
      </trkpt>
      <trkpt lat="20.317776" lon="-97.884694">
        <ele>302.309</ele>
        <time>2022-07-06T19:38:56Z</time>
      </trkpt>
      <trkpt lat="20.317714" lon="-97.884706">
        <ele>302.519</ele>
        <time>2022-07-06T19:38:58Z</time>
      </trkpt>
      <trkpt lat="20.317662" lon="-97.884716">
        <ele>302.709</ele>
        <time>2022-07-06T19:39:01Z</time>
      </trkpt>
      <trkpt lat="20.317612" lon="-97.88473">
        <ele>303.122</ele>
        <time>2022-07-06T19:39:04Z</time>
      </trkpt>
      <trkpt lat="20.317558" lon="-97.884742">
        <ele>303.091</ele>
        <time>2022-07-06T19:39:07Z</time>
      </trkpt>
      <trkpt lat="20.317513" lon="-97.884747">
        <ele>303.118</ele>
        <time>2022-07-06T19:39:09Z</time>
      </trkpt>
      <trkpt lat="20.317463" lon="-97.884756">
        <ele>303.353</ele>
        <time>2022-07-06T19:39:11Z</time>
      </trkpt>
      <trkpt lat="20.317399" lon="-97.884771">
        <ele>303.338</ele>
        <time>2022-07-06T19:39:13Z</time>
      </trkpt>
      <trkpt lat="20.317318" lon="-97.884787">
        <ele>303.079</ele>
        <time>2022-07-06T19:39:15Z</time>
      </trkpt>
      <trkpt lat="20.31727" lon="-97.884794">
        <ele>302.879</ele>
        <time>2022-07-06T19:39:16Z</time>
      </trkpt>
      <trkpt lat="20.317098" lon="-97.884818">
        <ele>302.117</ele>
        <time>2022-07-06T19:39:18Z</time>
      </trkpt>
      <trkpt lat="20.317023" lon="-97.88483">
        <ele>306.580</ele>
        <time>2022-07-06T19:39:20Z</time>
      </trkpt>
      <trkpt lat="20.316947" lon="-97.88484">
        <ele>307.322</ele>
        <time>2022-07-06T19:39:22Z</time>
      </trkpt>
      <trkpt lat="20.31688" lon="-97.884831">
        <ele>308.462</ele>
        <time>2022-07-06T19:39:24Z</time>
      </trkpt>
      <trkpt lat="20.31682" lon="-97.884817">
        <ele>308.608</ele>
        <time>2022-07-06T19:39:27Z</time>
      </trkpt>
      <trkpt lat="20.316746" lon="-97.884808">
        <ele>308.909</ele>
        <time>2022-07-06T19:39:30Z</time>
      </trkpt>
      <trkpt lat="20.316673" lon="-97.884812">
        <ele>309.023</ele>
        <time>2022-07-06T19:39:32Z</time>
      </trkpt>
      <trkpt lat="20.316616" lon="-97.884811">
        <ele>309.012</ele>
        <time>2022-07-06T19:39:34Z</time>
      </trkpt>
      <trkpt lat="20.316565" lon="-97.884808">
        <ele>309.669</ele>
        <time>2022-07-06T19:39:36Z</time>
      </trkpt>
      <trkpt lat="20.316508" lon="-97.884802">
        <ele>309.994</ele>
        <time>2022-07-06T19:39:38Z</time>
      </trkpt>
      <trkpt lat="20.316441" lon="-97.884794">
        <ele>310.419</ele>
        <time>2022-07-06T19:39:40Z</time>
      </trkpt>
      <trkpt lat="20.316372" lon="-97.884792">
        <ele>310.880</ele>
        <time>2022-07-06T19:39:42Z</time>
      </trkpt>
      <trkpt lat="20.316302" lon="-97.884794">
        <ele>312.920</ele>
        <time>2022-07-06T19:39:44Z</time>
      </trkpt>
      <trkpt lat="20.316232" lon="-97.884794">
        <ele>313.378</ele>
        <time>2022-07-06T19:39:46Z</time>
      </trkpt>
      <trkpt lat="20.316156" lon="-97.884801">
        <ele>314.061</ele>
        <time>2022-07-06T19:39:48Z</time>
      </trkpt>
      <trkpt lat="20.316088" lon="-97.884805">
        <ele>315.957</ele>
        <time>2022-07-06T19:39:50Z</time>
      </trkpt>
      <trkpt lat="20.316031" lon="-97.884803">
        <ele>316.200</ele>
        <time>2022-07-06T19:39:52Z</time>
      </trkpt>
      <trkpt lat="20.315973" lon="-97.884797">
        <ele>317.120</ele>
        <time>2022-07-06T19:39:54Z</time>
      </trkpt>
      <trkpt lat="20.315911" lon="-97.884799">
        <ele>317.709</ele>
        <time>2022-07-06T19:39:56Z</time>
      </trkpt>
      <trkpt lat="20.315842" lon="-97.884804">
        <ele>318.136</ele>
        <time>2022-07-06T19:39:58Z</time>
      </trkpt>
      <trkpt lat="20.315758" lon="-97.884806">
        <ele>318.115</ele>
        <time>2022-07-06T19:40:00Z</time>
      </trkpt>
      <trkpt lat="20.315685" lon="-97.884807">
        <ele>317.692</ele>
        <time>2022-07-06T19:40:02Z</time>
      </trkpt>
      <trkpt lat="20.315619" lon="-97.884818">
        <ele>315.277</ele>
        <time>2022-07-06T19:40:04Z</time>
      </trkpt>
      <trkpt lat="20.315554" lon="-97.884817">
        <ele>313.342</ele>
        <time>2022-07-06T19:40:06Z</time>
      </trkpt>
      <trkpt lat="20.315485" lon="-97.884807">
        <ele>312.853</ele>
        <time>2022-07-06T19:40:08Z</time>
      </trkpt>
      <trkpt lat="20.315411" lon="-97.884795">
        <ele>312.843</ele>
        <time>2022-07-06T19:40:10Z</time>
      </trkpt>
      <trkpt lat="20.315352" lon="-97.884799">
        <ele>313.651</ele>
        <time>2022-07-06T19:40:12Z</time>
      </trkpt>
      <trkpt lat="20.315298" lon="-97.884798">
        <ele>313.614</ele>
        <time>2022-07-06T19:40:14Z</time>
      </trkpt>
      <trkpt lat="20.315254" lon="-97.884782">
        <ele>314.176</ele>
        <time>2022-07-06T19:40:16Z</time>
      </trkpt>
      <trkpt lat="20.315206" lon="-97.884763">
        <ele>314.090</ele>
        <time>2022-07-06T19:40:18Z</time>
      </trkpt>
      <trkpt lat="20.315157" lon="-97.884738">
        <ele>314.019</ele>
        <time>2022-07-06T19:40:20Z</time>
      </trkpt>
      <trkpt lat="20.315096" lon="-97.884705">
        <ele>314.109</ele>
        <time>2022-07-06T19:40:22Z</time>
      </trkpt>
      <trkpt lat="20.315035" lon="-97.88467">
        <ele>314.168</ele>
        <time>2022-07-06T19:40:24Z</time>
      </trkpt>
      <trkpt lat="20.314979" lon="-97.88463">
        <ele>314.787</ele>
        <time>2022-07-06T19:40:26Z</time>
      </trkpt>
      <trkpt lat="20.314927" lon="-97.884594">
        <ele>315.434</ele>
        <time>2022-07-06T19:40:28Z</time>
      </trkpt>
      <trkpt lat="20.314881" lon="-97.884552">
        <ele>316.929</ele>
        <time>2022-07-06T19:40:30Z</time>
      </trkpt>
      <trkpt lat="20.314838" lon="-97.884507">
        <ele>316.924</ele>
        <time>2022-07-06T19:40:32Z</time>
      </trkpt>
      <trkpt lat="20.314792" lon="-97.884472">
        <ele>316.945</ele>
        <time>2022-07-06T19:40:34Z</time>
      </trkpt>
      <trkpt lat="20.314743" lon="-97.88444">
        <ele>316.535</ele>
        <time>2022-07-06T19:40:36Z</time>
      </trkpt>
      <trkpt lat="20.314695" lon="-97.884412">
        <ele>315.623</ele>
        <time>2022-07-06T19:40:38Z</time>
      </trkpt>
      <trkpt lat="20.314642" lon="-97.884389">
        <ele>315.766</ele>
        <time>2022-07-06T19:40:41Z</time>
      </trkpt>
      <trkpt lat="20.314583" lon="-97.884359">
        <ele>315.734</ele>
        <time>2022-07-06T19:40:44Z</time>
      </trkpt>
      <trkpt lat="20.314539" lon="-97.884332">
        <ele>316.355</ele>
        <time>2022-07-06T19:40:46Z</time>
      </trkpt>
      <trkpt lat="20.314487" lon="-97.88431">
        <ele>316.410</ele>
        <time>2022-07-06T19:40:49Z</time>
      </trkpt>
      <trkpt lat="20.314431" lon="-97.884297">
        <ele>316.409</ele>
        <time>2022-07-06T19:40:51Z</time>
      </trkpt>
      <trkpt lat="20.314374" lon="-97.884285">
        <ele>316.774</ele>
        <time>2022-07-06T19:40:53Z</time>
      </trkpt>
      <trkpt lat="20.314315" lon="-97.884267">
        <ele>316.813</ele>
        <time>2022-07-06T19:40:55Z</time>
      </trkpt>
      <trkpt lat="20.314253" lon="-97.88425">
        <ele>316.960</ele>
        <time>2022-07-06T19:40:57Z</time>
      </trkpt>
      <trkpt lat="20.314193" lon="-97.884239">
        <ele>317.255</ele>
        <time>2022-07-06T19:40:59Z</time>
      </trkpt>
      <trkpt lat="20.314131" lon="-97.884227">
        <ele>317.040</ele>
        <time>2022-07-06T19:41:01Z</time>
      </trkpt>
      <trkpt lat="20.314074" lon="-97.88421">
        <ele>316.651</ele>
        <time>2022-07-06T19:41:03Z</time>
      </trkpt>
      <trkpt lat="20.314012" lon="-97.884194">
        <ele>316.661</ele>
        <time>2022-07-06T19:41:05Z</time>
      </trkpt>
      <trkpt lat="20.313945" lon="-97.884185">
        <ele>316.619</ele>
        <time>2022-07-06T19:41:07Z</time>
      </trkpt>
      <trkpt lat="20.313885" lon="-97.884184">
        <ele>317.042</ele>
        <time>2022-07-06T19:41:09Z</time>
      </trkpt>
      <trkpt lat="20.313823" lon="-97.884202">
        <ele>319.075</ele>
        <time>2022-07-06T19:41:11Z</time>
      </trkpt>
      <trkpt lat="20.313764" lon="-97.884216">
        <ele>319.528</ele>
        <time>2022-07-06T19:41:13Z</time>
      </trkpt>
      <trkpt lat="20.313704" lon="-97.884211">
        <ele>322.120</ele>
        <time>2022-07-06T19:41:15Z</time>
      </trkpt>
      <trkpt lat="20.313651" lon="-97.884203">
        <ele>322.109</ele>
        <time>2022-07-06T19:41:17Z</time>
      </trkpt>
      <trkpt lat="20.313599" lon="-97.884181">
        <ele>322.138</ele>
        <time>2022-07-06T19:41:19Z</time>
      </trkpt>
      <trkpt lat="20.313536" lon="-97.884185">
        <ele>321.587</ele>
        <time>2022-07-06T19:41:21Z</time>
      </trkpt>
      <trkpt lat="20.31347" lon="-97.884193">
        <ele>319.344</ele>
        <time>2022-07-06T19:41:23Z</time>
      </trkpt>
      <trkpt lat="20.3134" lon="-97.884202">
        <ele>318.219</ele>
        <time>2022-07-06T19:41:25Z</time>
      </trkpt>
      <trkpt lat="20.313333" lon="-97.884211">
        <ele>317.474</ele>
        <time>2022-07-06T19:41:27Z</time>
      </trkpt>
      <trkpt lat="20.313276" lon="-97.884215">
        <ele>317.135</ele>
        <time>2022-07-06T19:41:29Z</time>
      </trkpt>
      <trkpt lat="20.313222" lon="-97.88423">
        <ele>317.125</ele>
        <time>2022-07-06T19:41:31Z</time>
      </trkpt>
      <trkpt lat="20.313164" lon="-97.884231">
        <ele>316.543</ele>
        <time>2022-07-06T19:41:33Z</time>
      </trkpt>
      <trkpt lat="20.313098" lon="-97.884232">
        <ele>316.166</ele>
        <time>2022-07-06T19:41:36Z</time>
      </trkpt>
      <trkpt lat="20.313044" lon="-97.884232">
        <ele>316.165</ele>
        <time>2022-07-06T19:41:38Z</time>
      </trkpt>
      <trkpt lat="20.31299" lon="-97.884234">
        <ele>316.068</ele>
        <time>2022-07-06T19:41:40Z</time>
      </trkpt>
      <trkpt lat="20.312926" lon="-97.884242">
        <ele>316.014</ele>
        <time>2022-07-06T19:41:42Z</time>
      </trkpt>
      <trkpt lat="20.31286" lon="-97.884254">
        <ele>316.109</ele>
        <time>2022-07-06T19:41:44Z</time>
      </trkpt>
      <trkpt lat="20.312792" lon="-97.884265">
        <ele>317.067</ele>
        <time>2022-07-06T19:41:46Z</time>
      </trkpt>
      <trkpt lat="20.312729" lon="-97.884281">
        <ele>318.686</ele>
        <time>2022-07-06T19:41:49Z</time>
      </trkpt>
      <trkpt lat="20.312683" lon="-97.884287">
        <ele>320.113</ele>
        <time>2022-07-06T19:42:03Z</time>
      </trkpt>
      <trkpt lat="20.312624" lon="-97.884285">
        <ele>320.188</ele>
        <time>2022-07-06T19:42:06Z</time>
      </trkpt>
      <trkpt lat="20.312578" lon="-97.884309">
        <ele>320.723</ele>
        <time>2022-07-06T19:42:23Z</time>
      </trkpt>
      <trkpt lat="20.31252" lon="-97.884302">
        <ele>320.834</ele>
        <time>2022-07-06T19:42:27Z</time>
      </trkpt>
      <trkpt lat="20.31247" lon="-97.884296">
        <ele>320.814</ele>
        <time>2022-07-06T19:42:29Z</time>
      </trkpt>
      <trkpt lat="20.312422" lon="-97.884285">
        <ele>320.832</ele>
        <time>2022-07-06T19:42:31Z</time>
      </trkpt>
      <trkpt lat="20.312366" lon="-97.884283">
        <ele>320.865</ele>
        <time>2022-07-06T19:42:33Z</time>
      </trkpt>
      <trkpt lat="20.31231" lon="-97.884287">
        <ele>320.818</ele>
        <time>2022-07-06T19:42:35Z</time>
      </trkpt>
      <trkpt lat="20.312244" lon="-97.884303">
        <ele>324.198</ele>
        <time>2022-07-06T19:42:37Z</time>
      </trkpt>
      <trkpt lat="20.312174" lon="-97.884339">
        <ele>324.217</ele>
        <time>2022-07-06T19:42:39Z</time>
      </trkpt>
      <trkpt lat="20.312104" lon="-97.884382">
        <ele>324.809</ele>
        <time>2022-07-06T19:42:41Z</time>
      </trkpt>
      <trkpt lat="20.312038" lon="-97.8844">
        <ele>326.022</ele>
        <time>2022-07-06T19:42:43Z</time>
      </trkpt>
      <trkpt lat="20.311972" lon="-97.884418">
        <ele>327.811</ele>
        <time>2022-07-06T19:42:45Z</time>
      </trkpt>
      <trkpt lat="20.311919" lon="-97.884447">
        <ele>328.598</ele>
        <time>2022-07-06T19:42:47Z</time>
      </trkpt>
      <trkpt lat="20.311865" lon="-97.884475">
        <ele>328.963</ele>
        <time>2022-07-06T19:42:49Z</time>
      </trkpt>
      <trkpt lat="20.311812" lon="-97.884478">
        <ele>329.658</ele>
        <time>2022-07-06T19:42:51Z</time>
      </trkpt>
      <trkpt lat="20.31173" lon="-97.884482">
        <ele>332.359</ele>
        <time>2022-07-06T19:42:53Z</time>
      </trkpt>
      <trkpt lat="20.311644" lon="-97.884502">
        <ele>334.049</ele>
        <time>2022-07-06T19:42:55Z</time>
      </trkpt>
      <trkpt lat="20.311589" lon="-97.884508">
        <ele>335.217</ele>
        <time>2022-07-06T19:42:57Z</time>
      </trkpt>
      <trkpt lat="20.31154" lon="-97.884524">
        <ele>335.680</ele>
        <time>2022-07-06T19:42:59Z</time>
      </trkpt>
      <trkpt lat="20.311477" lon="-97.884525">
        <ele>335.865</ele>
        <time>2022-07-06T19:43:01Z</time>
      </trkpt>
      <trkpt lat="20.31142" lon="-97.884517">
        <ele>335.468</ele>
        <time>2022-07-06T19:43:03Z</time>
      </trkpt>
      <trkpt lat="20.311367" lon="-97.884519">
        <ele>335.314</ele>
        <time>2022-07-06T19:43:05Z</time>
      </trkpt>
      <trkpt lat="20.311316" lon="-97.884515">
        <ele>335.109</ele>
        <time>2022-07-06T19:43:07Z</time>
      </trkpt>
      <trkpt lat="20.311249" lon="-97.884517">
        <ele>335.157</ele>
        <time>2022-07-06T19:43:10Z</time>
      </trkpt>
      <trkpt lat="20.311191" lon="-97.884536">
        <ele>335.296</ele>
        <time>2022-07-06T19:43:12Z</time>
      </trkpt>
      <trkpt lat="20.311132" lon="-97.884561">
        <ele>336.143</ele>
        <time>2022-07-06T19:43:14Z</time>
      </trkpt>
      <trkpt lat="20.311079" lon="-97.884579">
        <ele>336.468</ele>
        <time>2022-07-06T19:43:16Z</time>
      </trkpt>
      <trkpt lat="20.311027" lon="-97.884596">
        <ele>336.523</ele>
        <time>2022-07-06T19:43:18Z</time>
      </trkpt>
      <trkpt lat="20.310984" lon="-97.884616">
        <ele>336.954</ele>
        <time>2022-07-06T19:43:20Z</time>
      </trkpt>
      <trkpt lat="20.310934" lon="-97.884643">
        <ele>337.664</ele>
        <time>2022-07-06T19:43:23Z</time>
      </trkpt>
      <trkpt lat="20.310872" lon="-97.884665">
        <ele>337.322</ele>
        <time>2022-07-06T19:43:26Z</time>
      </trkpt>
      <trkpt lat="20.310826" lon="-97.884679">
        <ele>336.915</ele>
        <time>2022-07-06T19:43:28Z</time>
      </trkpt>
      <trkpt lat="20.31078" lon="-97.884704">
        <ele>336.813</ele>
        <time>2022-07-06T19:43:30Z</time>
      </trkpt>
      <trkpt lat="20.310731" lon="-97.884733">
        <ele>336.943</ele>
        <time>2022-07-06T19:43:32Z</time>
      </trkpt>
      <trkpt lat="20.310687" lon="-97.884772">
        <ele>336.607</ele>
        <time>2022-07-06T19:43:34Z</time>
      </trkpt>
      <trkpt lat="20.310651" lon="-97.884815">
        <ele>336.509</ele>
        <time>2022-07-06T19:43:36Z</time>
      </trkpt>
      <trkpt lat="20.310616" lon="-97.884845">
        <ele>337.442</ele>
        <time>2022-07-06T19:43:38Z</time>
      </trkpt>
      <trkpt lat="20.310569" lon="-97.884869">
        <ele>338.281</ele>
        <time>2022-07-06T19:43:41Z</time>
      </trkpt>
      <trkpt lat="20.31051" lon="-97.884871">
        <ele>338.638</ele>
        <time>2022-07-06T19:43:44Z</time>
      </trkpt>
      <trkpt lat="20.310463" lon="-97.884855">
        <ele>338.593</ele>
        <time>2022-07-06T19:43:46Z</time>
      </trkpt>
      <trkpt lat="20.310408" lon="-97.884832">
        <ele>338.598</ele>
        <time>2022-07-06T19:43:48Z</time>
      </trkpt>
      <trkpt lat="20.31036" lon="-97.884819">
        <ele>338.649</ele>
        <time>2022-07-06T19:43:50Z</time>
      </trkpt>
      <trkpt lat="20.310309" lon="-97.884808">
        <ele>338.699</ele>
        <time>2022-07-06T19:43:52Z</time>
      </trkpt>
      <trkpt lat="20.310246" lon="-97.884815">
        <ele>338.717</ele>
        <time>2022-07-06T19:43:54Z</time>
      </trkpt>
      <trkpt lat="20.310193" lon="-97.884829">
        <ele>339.730</ele>
        <time>2022-07-06T19:43:56Z</time>
      </trkpt>
      <trkpt lat="20.310131" lon="-97.884843">
        <ele>340.731</ele>
        <time>2022-07-06T19:43:58Z</time>
      </trkpt>
      <trkpt lat="20.310077" lon="-97.884857">
        <ele>340.861</ele>
        <time>2022-07-06T19:44:00Z</time>
      </trkpt>
      <trkpt lat="20.310024" lon="-97.884876">
        <ele>341.207</ele>
        <time>2022-07-06T19:44:02Z</time>
      </trkpt>
      <trkpt lat="20.309984" lon="-97.884898">
        <ele>341.509</ele>
        <time>2022-07-06T19:44:04Z</time>
      </trkpt>
      <trkpt lat="20.309929" lon="-97.884916">
        <ele>342.244</ele>
        <time>2022-07-06T19:44:07Z</time>
      </trkpt>
      <trkpt lat="20.309891" lon="-97.884949">
        <ele>342.643</ele>
        <time>2022-07-06T19:44:10Z</time>
      </trkpt>
      <trkpt lat="20.309857" lon="-97.884999">
        <ele>342.940</ele>
        <time>2022-07-06T19:44:14Z</time>
      </trkpt>
      <trkpt lat="20.309812" lon="-97.88502">
        <ele>343.415</ele>
        <time>2022-07-06T19:44:17Z</time>
      </trkpt>
      <trkpt lat="20.309764" lon="-97.885003">
        <ele>343.870</ele>
        <time>2022-07-06T19:44:19Z</time>
      </trkpt>
      <trkpt lat="20.309725" lon="-97.884967">
        <ele>345.611</ele>
        <time>2022-07-06T19:44:21Z</time>
      </trkpt>
      <trkpt lat="20.309694" lon="-97.884908">
        <ele>346.221</ele>
        <time>2022-07-06T19:44:23Z</time>
      </trkpt>
      <trkpt lat="20.309669" lon="-97.884853">
        <ele>346.949</ele>
        <time>2022-07-06T19:44:25Z</time>
      </trkpt>
      <trkpt lat="20.309626" lon="-97.88483">
        <ele>348.232</ele>
        <time>2022-07-06T19:44:27Z</time>
      </trkpt>
      <trkpt lat="20.309572" lon="-97.884854">
        <ele>348.675</ele>
        <time>2022-07-06T19:44:30Z</time>
      </trkpt>
      <trkpt lat="20.30953" lon="-97.884888">
        <ele>348.528</ele>
        <time>2022-07-06T19:44:33Z</time>
      </trkpt>
      <trkpt lat="20.309502" lon="-97.884945">
        <ele>348.220</ele>
        <time>2022-07-06T19:44:36Z</time>
      </trkpt>
      <trkpt lat="20.30946" lon="-97.884993">
        <ele>346.409</ele>
        <time>2022-07-06T19:44:39Z</time>
      </trkpt>
      <trkpt lat="20.309412" lon="-97.885026">
        <ele>344.638</ele>
        <time>2022-07-06T19:44:42Z</time>
      </trkpt>
      <trkpt lat="20.30935" lon="-97.885027">
        <ele>343.777</ele>
        <time>2022-07-06T19:44:45Z</time>
      </trkpt>
      <trkpt lat="20.3093" lon="-97.885023">
        <ele>343.734</ele>
        <time>2022-07-06T19:44:47Z</time>
      </trkpt>
      <trkpt lat="20.309253" lon="-97.885046">
        <ele>343.999</ele>
        <time>2022-07-06T19:44:50Z</time>
      </trkpt>
      <trkpt lat="20.309211" lon="-97.885101">
        <ele>344.614</ele>
        <time>2022-07-06T19:44:53Z</time>
      </trkpt>
      <trkpt lat="20.309172" lon="-97.885161">
        <ele>346.245</ele>
        <time>2022-07-06T19:44:56Z</time>
      </trkpt>
      <trkpt lat="20.309139" lon="-97.885198">
        <ele>346.535</ele>
        <time>2022-07-06T19:44:59Z</time>
      </trkpt>
      <trkpt lat="20.309085" lon="-97.885229">
        <ele>346.723</ele>
        <time>2022-07-06T19:45:01Z</time>
      </trkpt>
      <trkpt lat="20.309025" lon="-97.885235">
        <ele>347.836</ele>
        <time>2022-07-06T19:45:03Z</time>
      </trkpt>
      <trkpt lat="20.308968" lon="-97.885229">
        <ele>348.497</ele>
        <time>2022-07-06T19:45:05Z</time>
      </trkpt>
      <trkpt lat="20.308916" lon="-97.885214">
        <ele>350.023</ele>
        <time>2022-07-06T19:45:07Z</time>
      </trkpt>
      <trkpt lat="20.308866" lon="-97.885201">
        <ele>350.325</ele>
        <time>2022-07-06T19:45:09Z</time>
      </trkpt>
      <trkpt lat="20.308814" lon="-97.885198">
        <ele>350.009</ele>
        <time>2022-07-06T19:45:11Z</time>
      </trkpt>
      <trkpt lat="20.30876" lon="-97.885214">
        <ele>350.660</ele>
        <time>2022-07-06T19:45:13Z</time>
      </trkpt>
      <trkpt lat="20.308708" lon="-97.885242">
        <ele>350.669</ele>
        <time>2022-07-06T19:45:15Z</time>
      </trkpt>
      <trkpt lat="20.308668" lon="-97.885279">
        <ele>350.496</ele>
        <time>2022-07-06T19:45:17Z</time>
      </trkpt>
      <trkpt lat="20.308633" lon="-97.885323">
        <ele>349.951</ele>
        <time>2022-07-06T19:45:19Z</time>
      </trkpt>
      <trkpt lat="20.308582" lon="-97.885368">
        <ele>350.596</ele>
        <time>2022-07-06T19:45:22Z</time>
      </trkpt>
      <trkpt lat="20.308524" lon="-97.885359">
        <ele>349.737</ele>
        <time>2022-07-06T19:45:25Z</time>
      </trkpt>
      <trkpt lat="20.308478" lon="-97.885342">
        <ele>349.497</ele>
        <time>2022-07-06T19:45:27Z</time>
      </trkpt>
      <trkpt lat="20.308433" lon="-97.885338">
        <ele>348.815</ele>
        <time>2022-07-06T19:45:29Z</time>
      </trkpt>
      <trkpt lat="20.308387" lon="-97.885327">
        <ele>348.498</ele>
        <time>2022-07-06T19:45:31Z</time>
      </trkpt>
      <trkpt lat="20.308331" lon="-97.885325">
        <ele>348.458</ele>
        <time>2022-07-06T19:45:33Z</time>
      </trkpt>
      <trkpt lat="20.308262" lon="-97.88533">
        <ele>348.452</ele>
        <time>2022-07-06T19:45:35Z</time>
      </trkpt>
      <trkpt lat="20.308204" lon="-97.885344">
        <ele>348.717</ele>
        <time>2022-07-06T19:45:37Z</time>
      </trkpt>
      <trkpt lat="20.308155" lon="-97.885345">
        <ele>348.409</ele>
        <time>2022-07-06T19:45:39Z</time>
      </trkpt>
      <trkpt lat="20.30811" lon="-97.885339">
        <ele>348.086</ele>
        <time>2022-07-06T19:45:41Z</time>
      </trkpt>
      <trkpt lat="20.308041" lon="-97.885313">
        <ele>347.575</ele>
        <time>2022-07-06T19:45:43Z</time>
      </trkpt>
      <trkpt lat="20.307979" lon="-97.885287">
        <ele>347.562</ele>
        <time>2022-07-06T19:45:45Z</time>
      </trkpt>
      <trkpt lat="20.307935" lon="-97.885264">
        <ele>347.797</ele>
        <time>2022-07-06T19:45:48Z</time>
      </trkpt>
      <trkpt lat="20.307885" lon="-97.885246">
        <ele>347.962</ele>
        <time>2022-07-06T19:45:51Z</time>
      </trkpt>
      <trkpt lat="20.307822" lon="-97.885229">
        <ele>347.923</ele>
        <time>2022-07-06T19:45:54Z</time>
      </trkpt>
      <trkpt lat="20.307772" lon="-97.885219">
        <ele>347.963</ele>
        <time>2022-07-06T19:45:56Z</time>
      </trkpt>
      <trkpt lat="20.307723" lon="-97.885209">
        <ele>347.821</ele>
        <time>2022-07-06T19:45:58Z</time>
      </trkpt>
      <trkpt lat="20.307669" lon="-97.885196">
        <ele>347.624</ele>
        <time>2022-07-06T19:46:00Z</time>
      </trkpt>
      <trkpt lat="20.307615" lon="-97.885185">
        <ele>347.631</ele>
        <time>2022-07-06T19:46:02Z</time>
      </trkpt>
      <trkpt lat="20.307561" lon="-97.885171">
        <ele>347.861</ele>
        <time>2022-07-06T19:46:04Z</time>
      </trkpt>
      <trkpt lat="20.307517" lon="-97.885159">
        <ele>347.907</ele>
        <time>2022-07-06T19:46:06Z</time>
      </trkpt>
      <trkpt lat="20.307464" lon="-97.885149">
        <ele>348.209</ele>
        <time>2022-07-06T19:46:08Z</time>
      </trkpt>
      <trkpt lat="20.30741" lon="-97.88514">
        <ele>348.294</ele>
        <time>2022-07-06T19:46:10Z</time>
      </trkpt>
      <trkpt lat="20.307356" lon="-97.885117">
        <ele>348.343</ele>
        <time>2022-07-06T19:46:12Z</time>
      </trkpt>
      <trkpt lat="20.307307" lon="-97.885077">
        <ele>348.350</ele>
        <time>2022-07-06T19:46:14Z</time>
      </trkpt>
      <trkpt lat="20.30726" lon="-97.885014">
        <ele>348.545</ele>
        <time>2022-07-06T19:46:16Z</time>
      </trkpt>
      <trkpt lat="20.307238" lon="-97.884966">
        <ele>347.190</ele>
        <time>2022-07-06T19:46:18Z</time>
      </trkpt>
      <trkpt lat="20.307208" lon="-97.884901">
        <ele>345.351</ele>
        <time>2022-07-06T19:46:21Z</time>
      </trkpt>
      <trkpt lat="20.307175" lon="-97.884863">
        <ele>344.551</ele>
        <time>2022-07-06T19:46:23Z</time>
      </trkpt>
      <trkpt lat="20.307134" lon="-97.884837">
        <ele>344.479</ele>
        <time>2022-07-06T19:46:25Z</time>
      </trkpt>
      <trkpt lat="20.307089" lon="-97.884833">
        <ele>343.312</ele>
        <time>2022-07-06T19:46:27Z</time>
      </trkpt>
      <trkpt lat="20.307036" lon="-97.884858">
        <ele>343.657</ele>
        <time>2022-07-06T19:46:29Z</time>
      </trkpt>
      <trkpt lat="20.306993" lon="-97.884903">
        <ele>343.900</ele>
        <time>2022-07-06T19:46:31Z</time>
      </trkpt>
      <trkpt lat="20.306957" lon="-97.884961">
        <ele>344.520</ele>
        <time>2022-07-06T19:46:33Z</time>
      </trkpt>
      <trkpt lat="20.306916" lon="-97.885012">
        <ele>344.609</ele>
        <time>2022-07-06T19:46:35Z</time>
      </trkpt>
      <trkpt lat="20.306859" lon="-97.885051">
        <ele>344.866</ele>
        <time>2022-07-06T19:46:37Z</time>
      </trkpt>
      <trkpt lat="20.306799" lon="-97.885064">
        <ele>344.835</ele>
        <time>2022-07-06T19:46:39Z</time>
      </trkpt>
      <trkpt lat="20.306735" lon="-97.885064">
        <ele>344.882</ele>
        <time>2022-07-06T19:46:41Z</time>
      </trkpt>
      <trkpt lat="20.30667" lon="-97.885058">
        <ele>345.257</ele>
        <time>2022-07-06T19:46:44Z</time>
      </trkpt>
      <trkpt lat="20.306621" lon="-97.885049">
        <ele>345.232</ele>
        <time>2022-07-06T19:46:46Z</time>
      </trkpt>
      <trkpt lat="20.30657" lon="-97.885028">
        <ele>345.173</ele>
        <time>2022-07-06T19:46:48Z</time>
      </trkpt>
      <trkpt lat="20.306512" lon="-97.885017">
        <ele>344.623</ele>
        <time>2022-07-06T19:46:50Z</time>
      </trkpt>
      <trkpt lat="20.306456" lon="-97.885035">
        <ele>344.411</ele>
        <time>2022-07-06T19:46:52Z</time>
      </trkpt>
      <trkpt lat="20.30642" lon="-97.885076">
        <ele>344.544</ele>
        <time>2022-07-06T19:46:54Z</time>
      </trkpt>
      <trkpt lat="20.306385" lon="-97.885145">
        <ele>344.693</ele>
        <time>2022-07-06T19:46:56Z</time>
      </trkpt>
      <trkpt lat="20.306343" lon="-97.885184">
        <ele>345.765</ele>
        <time>2022-07-06T19:46:59Z</time>
      </trkpt>
      <trkpt lat="20.306302" lon="-97.88522">
        <ele>345.821</ele>
        <time>2022-07-06T19:47:01Z</time>
      </trkpt>
      <trkpt lat="20.306259" lon="-97.885244">
        <ele>345.809</ele>
        <time>2022-07-06T19:47:03Z</time>
      </trkpt>
      <trkpt lat="20.306211" lon="-97.885247">
        <ele>346.080</ele>
        <time>2022-07-06T19:47:05Z</time>
      </trkpt>
      <trkpt lat="20.306156" lon="-97.885233">
        <ele>346.299</ele>
        <time>2022-07-06T19:47:07Z</time>
      </trkpt>
      <trkpt lat="20.306105" lon="-97.885204">
        <ele>346.436</ele>
        <time>2022-07-06T19:47:09Z</time>
      </trkpt>
      <trkpt lat="20.306061" lon="-97.885176">
        <ele>347.191</ele>
        <time>2022-07-06T19:47:11Z</time>
      </trkpt>
      <trkpt lat="20.306007" lon="-97.885161">
        <ele>348.236</ele>
        <time>2022-07-06T19:47:13Z</time>
      </trkpt>
      <trkpt lat="20.305956" lon="-97.885164">
        <ele>348.817</ele>
        <time>2022-07-06T19:47:15Z</time>
      </trkpt>
      <trkpt lat="20.305902" lon="-97.885194">
        <ele>349.157</ele>
        <time>2022-07-06T19:47:18Z</time>
      </trkpt>
      <trkpt lat="20.305877" lon="-97.885236">
        <ele>349.115</ele>
        <time>2022-07-06T19:47:20Z</time>
      </trkpt>
      <trkpt lat="20.305861" lon="-97.885282">
        <ele>349.098</ele>
        <time>2022-07-06T19:47:22Z</time>
      </trkpt>
      <trkpt lat="20.305848" lon="-97.885351">
        <ele>349.277</ele>
        <time>2022-07-06T19:47:25Z</time>
      </trkpt>
      <trkpt lat="20.305848" lon="-97.885403">
        <ele>349.661</ele>
        <time>2022-07-06T19:47:27Z</time>
      </trkpt>
      <trkpt lat="20.305851" lon="-97.885465">
        <ele>349.527</ele>
        <time>2022-07-06T19:47:29Z</time>
      </trkpt>
      <trkpt lat="20.30581" lon="-97.885507">
        <ele>349.609</ele>
        <time>2022-07-06T19:47:31Z</time>
      </trkpt>
      <trkpt lat="20.305773" lon="-97.885539">
        <ele>349.288</ele>
        <time>2022-07-06T19:47:33Z</time>
      </trkpt>
      <trkpt lat="20.305749" lon="-97.88558">
        <ele>348.217</ele>
        <time>2022-07-06T19:47:35Z</time>
      </trkpt>
      <trkpt lat="20.305742" lon="-97.885634">
        <ele>348.244</ele>
        <time>2022-07-06T19:47:37Z</time>
      </trkpt>
      <trkpt lat="20.305748" lon="-97.885695">
        <ele>348.189</ele>
        <time>2022-07-06T19:47:39Z</time>
      </trkpt>
      <trkpt lat="20.305751" lon="-97.885748">
        <ele>347.644</ele>
        <time>2022-07-06T19:47:41Z</time>
      </trkpt>
      <trkpt lat="20.30574" lon="-97.885794">
        <ele>346.065</ele>
        <time>2022-07-06T19:47:43Z</time>
      </trkpt>
      <trkpt lat="20.305714" lon="-97.885839">
        <ele>345.765</ele>
        <time>2022-07-06T19:47:46Z</time>
      </trkpt>
      <trkpt lat="20.305671" lon="-97.885888">
        <ele>345.773</ele>
        <time>2022-07-06T19:47:49Z</time>
      </trkpt>
      <trkpt lat="20.305649" lon="-97.885931">
        <ele>346.096</ele>
        <time>2022-07-06T19:47:51Z</time>
      </trkpt>
      <trkpt lat="20.305629" lon="-97.885974">
        <ele>346.099</ele>
        <time>2022-07-06T19:47:53Z</time>
      </trkpt>
      <trkpt lat="20.305585" lon="-97.88603">
        <ele>346.007</ele>
        <time>2022-07-06T19:47:56Z</time>
      </trkpt>
      <trkpt lat="20.305536" lon="-97.886053">
        <ele>346.327</ele>
        <time>2022-07-06T19:47:58Z</time>
      </trkpt>
      <trkpt lat="20.305494" lon="-97.886072">
        <ele>346.609</ele>
        <time>2022-07-06T19:48:00Z</time>
      </trkpt>
      <trkpt lat="20.305457" lon="-97.886102">
        <ele>346.640</ele>
        <time>2022-07-06T19:48:03Z</time>
      </trkpt>
      <trkpt lat="20.305416" lon="-97.886145">
        <ele>347.239</ele>
        <time>2022-07-06T19:48:06Z</time>
      </trkpt>
      <trkpt lat="20.305383" lon="-97.88618">
        <ele>347.676</ele>
        <time>2022-07-06T19:48:08Z</time>
      </trkpt>
      <trkpt lat="20.305329" lon="-97.886215">
        <ele>348.541</ele>
        <time>2022-07-06T19:48:11Z</time>
      </trkpt>
      <trkpt lat="20.305321" lon="-97.886281">
        <ele>349.146</ele>
        <time>2022-07-06T19:48:13Z</time>
      </trkpt>
      <trkpt lat="20.305341" lon="-97.886347">
        <ele>349.437</ele>
        <time>2022-07-06T19:48:15Z</time>
      </trkpt>
      <trkpt lat="20.305368" lon="-97.886411">
        <ele>349.547</ele>
        <time>2022-07-06T19:48:17Z</time>
      </trkpt>
      <trkpt lat="20.305386" lon="-97.886472">
        <ele>348.035</ele>
        <time>2022-07-06T19:48:19Z</time>
      </trkpt>
      <trkpt lat="20.305399" lon="-97.886532">
        <ele>347.458</ele>
        <time>2022-07-06T19:48:21Z</time>
      </trkpt>
      <trkpt lat="20.305402" lon="-97.886583">
        <ele>346.372</ele>
        <time>2022-07-06T19:48:23Z</time>
      </trkpt>
      <trkpt lat="20.305394" lon="-97.886631">
        <ele>344.113</ele>
        <time>2022-07-06T19:48:25Z</time>
      </trkpt>
      <trkpt lat="20.305372" lon="-97.886692">
        <ele>340.814</ele>
        <time>2022-07-06T19:48:28Z</time>
      </trkpt>
      <trkpt lat="20.305372" lon="-97.886751">
        <ele>339.109</ele>
        <time>2022-07-06T19:48:30Z</time>
      </trkpt>
      <trkpt lat="20.305368" lon="-97.886816">
        <ele>338.928</ele>
        <time>2022-07-06T19:48:33Z</time>
      </trkpt>
      <trkpt lat="20.305361" lon="-97.886864">
        <ele>337.957</ele>
        <time>2022-07-06T19:48:35Z</time>
      </trkpt>
      <trkpt lat="20.305354" lon="-97.88693">
        <ele>335.824</ele>
        <time>2022-07-06T19:48:38Z</time>
      </trkpt>
      <trkpt lat="20.305356" lon="-97.886987">
        <ele>334.619</ele>
        <time>2022-07-06T19:48:40Z</time>
      </trkpt>
      <trkpt lat="20.305362" lon="-97.887047">
        <ele>334.384</ele>
        <time>2022-07-06T19:48:42Z</time>
      </trkpt>
      <trkpt lat="20.305355" lon="-97.887139">
        <ele>333.685</ele>
        <time>2022-07-06T19:48:44Z</time>
      </trkpt>
      <trkpt lat="20.305353" lon="-97.887189">
        <ele>332.825</ele>
        <time>2022-07-06T19:48:45Z</time>
      </trkpt>
      <trkpt lat="20.305368" lon="-97.887285">
        <ele>331.193</ele>
        <time>2022-07-06T19:48:47Z</time>
      </trkpt>
      <trkpt lat="20.305407" lon="-97.887367">
        <ele>331.166</ele>
        <time>2022-07-06T19:48:50Z</time>
      </trkpt>
      <trkpt lat="20.305418" lon="-97.887414">
        <ele>331.364</ele>
        <time>2022-07-06T19:48:51Z</time>
      </trkpt>
      <trkpt lat="20.305441" lon="-97.887489">
        <ele>331.506</ele>
        <time>2022-07-06T19:48:53Z</time>
      </trkpt>
      <trkpt lat="20.305413" lon="-97.887581">
        <ele>332.016</ele>
        <time>2022-07-06T19:48:56Z</time>
      </trkpt>
      <trkpt lat="20.305397" lon="-97.887646">
        <ele>332.309</ele>
        <time>2022-07-06T19:48:58Z</time>
      </trkpt>
      <trkpt lat="20.305363" lon="-97.887695">
        <ele>332.957</ele>
        <time>2022-07-06T19:49:00Z</time>
      </trkpt>
      <trkpt lat="20.305314" lon="-97.887729">
        <ele>333.726</ele>
        <time>2022-07-06T19:49:02Z</time>
      </trkpt>
      <trkpt lat="20.305263" lon="-97.887768">
        <ele>334.033</ele>
        <time>2022-07-06T19:49:05Z</time>
      </trkpt>
      <trkpt lat="20.305208" lon="-97.887799">
        <ele>334.498</ele>
        <time>2022-07-06T19:49:07Z</time>
      </trkpt>
      <trkpt lat="20.305153" lon="-97.887819">
        <ele>334.543</ele>
        <time>2022-07-06T19:49:09Z</time>
      </trkpt>
      <trkpt lat="20.305097" lon="-97.887822">
        <ele>334.514</ele>
        <time>2022-07-06T19:49:11Z</time>
      </trkpt>
      <trkpt lat="20.305042" lon="-97.887782">
        <ele>335.954</ele>
        <time>2022-07-06T19:49:12Z</time>
      </trkpt>
      <trkpt lat="20.30499" lon="-97.887785">
        <ele>337.082</ele>
        <time>2022-07-06T19:49:14Z</time>
      </trkpt>
      <trkpt lat="20.304939" lon="-97.887812">
        <ele>338.675</ele>
        <time>2022-07-06T19:49:17Z</time>
      </trkpt>
      <trkpt lat="20.304893" lon="-97.887862">
        <ele>339.152</ele>
        <time>2022-07-06T19:49:19Z</time>
      </trkpt>
      <trkpt lat="20.304838" lon="-97.887881">
        <ele>339.153</ele>
        <time>2022-07-06T19:49:21Z</time>
      </trkpt>
      <trkpt lat="20.304795" lon="-97.887898">
        <ele>338.608</ele>
        <time>2022-07-06T19:49:24Z</time>
      </trkpt>
      <trkpt lat="20.304744" lon="-97.887916">
        <ele>337.909</ele>
        <time>2022-07-06T19:49:27Z</time>
      </trkpt>
      <trkpt lat="20.304622" lon="-97.887958">
        <ele>337.796</ele>
        <time>2022-07-06T19:49:29Z</time>
      </trkpt>
      <trkpt lat="20.304562" lon="-97.887973">
        <ele>337.725</ele>
        <time>2022-07-06T19:49:31Z</time>
      </trkpt>
      <trkpt lat="20.304506" lon="-97.888004">
        <ele>339.012</ele>
        <time>2022-07-06T19:49:33Z</time>
      </trkpt>
      <trkpt lat="20.30445" lon="-97.888029">
        <ele>341.937</ele>
        <time>2022-07-06T19:49:35Z</time>
      </trkpt>
      <trkpt lat="20.30441" lon="-97.888052">
        <ele>342.152</ele>
        <time>2022-07-06T19:49:37Z</time>
      </trkpt>
      <trkpt lat="20.304348" lon="-97.888083">
        <ele>342.953</ele>
        <time>2022-07-06T19:49:40Z</time>
      </trkpt>
      <trkpt lat="20.304291" lon="-97.888114">
        <ele>343.263</ele>
        <time>2022-07-06T19:49:42Z</time>
      </trkpt>
      <trkpt lat="20.30424" lon="-97.888144">
        <ele>343.171</ele>
        <time>2022-07-06T19:49:44Z</time>
      </trkpt>
      <trkpt lat="20.304188" lon="-97.888172">
        <ele>343.494</ele>
        <time>2022-07-06T19:49:46Z</time>
      </trkpt>
      <trkpt lat="20.304138" lon="-97.888197">
        <ele>343.563</ele>
        <time>2022-07-06T19:49:48Z</time>
      </trkpt>
      <trkpt lat="20.304099" lon="-97.888224">
        <ele>343.944</ele>
        <time>2022-07-06T19:49:50Z</time>
      </trkpt>
      <trkpt lat="20.304057" lon="-97.888252">
        <ele>344.718</ele>
        <time>2022-07-06T19:49:52Z</time>
      </trkpt>
      <trkpt lat="20.30401" lon="-97.888269">
        <ele>344.709</ele>
        <time>2022-07-06T19:49:54Z</time>
      </trkpt>
      <trkpt lat="20.303966" lon="-97.888283">
        <ele>344.737</ele>
        <time>2022-07-06T19:49:56Z</time>
      </trkpt>
      <trkpt lat="20.303903" lon="-97.888308">
        <ele>344.786</ele>
        <time>2022-07-06T19:49:58Z</time>
      </trkpt>
      <trkpt lat="20.303853" lon="-97.888336">
        <ele>344.573</ele>
        <time>2022-07-06T19:50:00Z</time>
      </trkpt>
      <trkpt lat="20.303797" lon="-97.888348">
        <ele>344.538</ele>
        <time>2022-07-06T19:50:02Z</time>
      </trkpt>
      <trkpt lat="20.303742" lon="-97.88836">
        <ele>344.833</ele>
        <time>2022-07-06T19:50:04Z</time>
      </trkpt>
      <trkpt lat="20.303687" lon="-97.888382">
        <ele>346.024</ele>
        <time>2022-07-06T19:50:06Z</time>
      </trkpt>
      <trkpt lat="20.303634" lon="-97.888417">
        <ele>348.024</ele>
        <time>2022-07-06T19:50:08Z</time>
      </trkpt>
      <trkpt lat="20.303578" lon="-97.888457">
        <ele>348.542</ele>
        <time>2022-07-06T19:50:10Z</time>
      </trkpt>
      <trkpt lat="20.303519" lon="-97.888495">
        <ele>348.865</ele>
        <time>2022-07-06T19:50:12Z</time>
      </trkpt>
      <trkpt lat="20.303445" lon="-97.888529">
        <ele>348.799</ele>
        <time>2022-07-06T19:50:14Z</time>
      </trkpt>
      <trkpt lat="20.303375" lon="-97.888552">
        <ele>350.007</ele>
        <time>2022-07-06T19:50:16Z</time>
      </trkpt>
      <trkpt lat="20.303253" lon="-97.888612">
        <ele>352.427</ele>
        <time>2022-07-06T19:50:18Z</time>
      </trkpt>
      <trkpt lat="20.303201" lon="-97.888634">
        <ele>355.209</ele>
        <time>2022-07-06T19:50:20Z</time>
      </trkpt>
      <trkpt lat="20.303157" lon="-97.888647">
        <ele>357.660</ele>
        <time>2022-07-06T19:50:22Z</time>
      </trkpt>
      <trkpt lat="20.303108" lon="-97.888676">
        <ele>360.979</ele>
        <time>2022-07-06T19:50:26Z</time>
      </trkpt>
      <trkpt lat="20.303099" lon="-97.888724">
        <ele>360.846</ele>
        <time>2022-07-06T19:50:29Z</time>
      </trkpt>
      <trkpt lat="20.303099" lon="-97.888796">
        <ele>359.311</ele>
        <time>2022-07-06T19:50:32Z</time>
      </trkpt>
      <trkpt lat="20.303108" lon="-97.888856">
        <ele>358.956</ele>
        <time>2022-07-06T19:50:34Z</time>
      </trkpt>
      <trkpt lat="20.303119" lon="-97.888914">
        <ele>355.037</ele>
        <time>2022-07-06T19:50:36Z</time>
      </trkpt>
      <trkpt lat="20.303128" lon="-97.888965">
        <ele>353.137</ele>
        <time>2022-07-06T19:50:38Z</time>
      </trkpt>
      <trkpt lat="20.303136" lon="-97.889017">
        <ele>347.335</ele>
        <time>2022-07-06T19:50:40Z</time>
      </trkpt>
      <trkpt lat="20.303144" lon="-97.889067">
        <ele>346.618</ele>
        <time>2022-07-06T19:50:42Z</time>
      </trkpt>
      <trkpt lat="20.303146" lon="-97.889117">
        <ele>344.932</ele>
        <time>2022-07-06T19:50:44Z</time>
      </trkpt>
      <trkpt lat="20.303139" lon="-97.889173">
        <ele>342.092</ele>
        <time>2022-07-06T19:50:50Z</time>
      </trkpt>
      <trkpt lat="20.303097" lon="-97.889193">
        <ele>343.111</ele>
        <time>2022-07-06T19:52:00Z</time>
      </trkpt>
      <trkpt lat="20.303039" lon="-97.889189">
        <ele>343.109</ele>
        <time>2022-07-06T19:52:04Z</time>
      </trkpt>
      <trkpt lat="20.302987" lon="-97.889216">
        <ele>343.974</ele>
        <time>2022-07-06T19:52:08Z</time>
      </trkpt>
      <trkpt lat="20.302949" lon="-97.88925">
        <ele>343.963</ele>
        <time>2022-07-06T19:52:14Z</time>
      </trkpt>
      <trkpt lat="20.302929" lon="-97.889296">
        <ele>349.180</ele>
        <time>2022-07-06T19:52:17Z</time>
      </trkpt>
      <trkpt lat="20.302932" lon="-97.889362">
        <ele>340.295</ele>
        <time>2022-07-06T19:52:20Z</time>
      </trkpt>
      <trkpt lat="20.302903" lon="-97.889409">
        <ele>337.710</ele>
        <time>2022-07-06T19:52:24Z</time>
      </trkpt>
      <trkpt lat="20.30288" lon="-97.889463">
        <ele>334.671</ele>
        <time>2022-07-06T19:52:27Z</time>
      </trkpt>
      <trkpt lat="20.302849" lon="-97.889518">
        <ele>334.441</ele>
        <time>2022-07-06T19:52:30Z</time>
      </trkpt>
      <trkpt lat="20.302844" lon="-97.889576">
        <ele>334.469</ele>
        <time>2022-07-06T19:52:34Z</time>
      </trkpt>
      <trkpt lat="20.302834" lon="-97.889627">
        <ele>334.492</ele>
        <time>2022-07-06T19:52:39Z</time>
      </trkpt>
      <trkpt lat="20.302828" lon="-97.889677">
        <ele>334.791</ele>
        <time>2022-07-06T19:52:44Z</time>
      </trkpt>
      <trkpt lat="20.302808" lon="-97.889735">
        <ele>334.981</ele>
        <time>2022-07-06T19:52:49Z</time>
      </trkpt>
      <trkpt lat="20.302774" lon="-97.889768">
        <ele>335.019</ele>
        <time>2022-07-06T19:52:53Z</time>
      </trkpt>
      <trkpt lat="20.302739" lon="-97.889803">
        <ele>335.409</ele>
        <time>2022-07-06T19:52:59Z</time>
      </trkpt>
      <trkpt lat="20.302744" lon="-97.889854">
        <ele>339.470</ele>
        <time>2022-07-06T19:53:05Z</time>
      </trkpt>
      <trkpt lat="20.302749" lon="-97.889902">
        <ele>340.849</ele>
        <time>2022-07-06T19:53:10Z</time>
      </trkpt>
      <trkpt lat="20.30273" lon="-97.889958">
        <ele>341.726</ele>
        <time>2022-07-06T19:53:15Z</time>
      </trkpt>
      <trkpt lat="20.302713" lon="-97.890002">
        <ele>342.721</ele>
        <time>2022-07-06T19:53:18Z</time>
      </trkpt>
      <trkpt lat="20.302702" lon="-97.890052">
        <ele>345.586</ele>
        <time>2022-07-06T19:53:24Z</time>
      </trkpt>
      <trkpt lat="20.302659" lon="-97.890079">
        <ele>347.797</ele>
        <time>2022-07-06T19:53:30Z</time>
      </trkpt>
      <trkpt lat="20.302648" lon="-97.890126">
        <ele>351.427</ele>
        <time>2022-07-06T19:53:33Z</time>
      </trkpt>
      <trkpt lat="20.30266" lon="-97.890175">
        <ele>352.675</ele>
        <time>2022-07-06T19:53:37Z</time>
      </trkpt>
      <trkpt lat="20.302656" lon="-97.890225">
        <ele>355.048</ele>
        <time>2022-07-06T19:53:41Z</time>
      </trkpt>
      <trkpt lat="20.30263" lon="-97.890268">
        <ele>357.639</ele>
        <time>2022-07-06T19:53:47Z</time>
      </trkpt>
      <trkpt lat="20.302578" lon="-97.890307">
        <ele>360.001</ele>
        <time>2022-07-06T19:53:51Z</time>
      </trkpt>
      <trkpt lat="20.302533" lon="-97.89035">
        <ele>361.321</ele>
        <time>2022-07-06T19:53:54Z</time>
      </trkpt>
      <trkpt lat="20.302504" lon="-97.890396">
        <ele>361.809</ele>
        <time>2022-07-06T19:53:58Z</time>
      </trkpt>
      <trkpt lat="20.302465" lon="-97.890444">
        <ele>361.914</ele>
        <time>2022-07-06T19:54:02Z</time>
      </trkpt>
      <trkpt lat="20.302417" lon="-97.890441">
        <ele>361.883</ele>
        <time>2022-07-06T19:54:08Z</time>
      </trkpt>
      <trkpt lat="20.302363" lon="-97.890454">
        <ele>361.210</ele>
        <time>2022-07-06T19:54:14Z</time>
      </trkpt>
      <trkpt lat="20.302324" lon="-97.890481">
        <ele>360.645</ele>
        <time>2022-07-06T19:54:19Z</time>
      </trkpt>
      <trkpt lat="20.302292" lon="-97.890519">
        <ele>360.070</ele>
        <time>2022-07-06T19:54:25Z</time>
      </trkpt>
      <trkpt lat="20.30227" lon="-97.890568">
        <ele>358.911</ele>
        <time>2022-07-06T19:54:30Z</time>
      </trkpt>
      <trkpt lat="20.302234" lon="-97.890602">
        <ele>357.711</ele>
        <time>2022-07-06T19:54:36Z</time>
      </trkpt>
      <trkpt lat="20.302185" lon="-97.890597">
        <ele>353.739</ele>
        <time>2022-07-06T19:54:42Z</time>
      </trkpt>
      <trkpt lat="20.302142" lon="-97.890629">
        <ele>353.752</ele>
        <time>2022-07-06T19:54:48Z</time>
      </trkpt>
      <trkpt lat="20.302105" lon="-97.890667">
        <ele>353.587</ele>
        <time>2022-07-06T19:54:53Z</time>
      </trkpt>
      <trkpt lat="20.30207" lon="-97.890718">
        <ele>354.242</ele>
        <time>2022-07-06T19:54:57Z</time>
      </trkpt>
      <trkpt lat="20.302031" lon="-97.890763">
        <ele>356.026</ele>
        <time>2022-07-06T19:55:00Z</time>
      </trkpt>
      <trkpt lat="20.302008" lon="-97.890808">
        <ele>356.509</ele>
        <time>2022-07-06T19:55:04Z</time>
      </trkpt>
      <trkpt lat="20.301974" lon="-97.890841">
        <ele>358.199</ele>
        <time>2022-07-06T19:55:08Z</time>
      </trkpt>
      <trkpt lat="20.301977" lon="-97.890889">
        <ele>360.138</ele>
        <time>2022-07-06T19:55:12Z</time>
      </trkpt>
      <trkpt lat="20.302013" lon="-97.890919">
        <ele>361.595</ele>
        <time>2022-07-06T19:55:17Z</time>
      </trkpt>
      <trkpt lat="20.302066" lon="-97.890926">
        <ele>364.510</ele>
        <time>2022-07-06T19:55:22Z</time>
      </trkpt>
      <trkpt lat="20.302114" lon="-97.890945">
        <ele>366.815</ele>
        <time>2022-07-06T19:55:28Z</time>
      </trkpt>
      <trkpt lat="20.302155" lon="-97.890971">
        <ele>370.356</ele>
        <time>2022-07-06T19:55:35Z</time>
      </trkpt>
      <trkpt lat="20.302207" lon="-97.890965">
        <ele>373.066</ele>
        <time>2022-07-06T19:55:42Z</time>
      </trkpt>
      <trkpt lat="20.302252" lon="-97.89095">
        <ele>373.954</ele>
        <time>2022-07-06T19:55:47Z</time>
      </trkpt>
      <trkpt lat="20.302304" lon="-97.890939">
        <ele>376.747</ele>
        <time>2022-07-06T19:55:53Z</time>
      </trkpt>
      <trkpt lat="20.302355" lon="-97.890936">
        <ele>378.157</ele>
        <time>2022-07-06T19:55:58Z</time>
      </trkpt>
      <trkpt lat="20.302394" lon="-97.89096">
        <ele>378.100</ele>
        <time>2022-07-06T19:56:03Z</time>
      </trkpt>
      <trkpt lat="20.302441" lon="-97.890943">
        <ele>378.120</ele>
        <time>2022-07-06T19:56:09Z</time>
      </trkpt>
      <trkpt lat="20.302483" lon="-97.890965">
        <ele>378.009</ele>
        <time>2022-07-06T19:56:14Z</time>
      </trkpt>
      <trkpt lat="20.302477" lon="-97.891017">
        <ele>376.736</ele>
        <time>2022-07-06T19:56:24Z</time>
      </trkpt>
      <trkpt lat="20.302434" lon="-97.891034">
        <ele>376.875</ele>
        <time>2022-07-06T19:56:29Z</time>
      </trkpt>
      <trkpt lat="20.302398" lon="-97.891071">
        <ele>377.142</ele>
        <time>2022-07-06T19:56:36Z</time>
      </trkpt>
      <trkpt lat="20.302355" lon="-97.891055">
        <ele>377.277</ele>
        <time>2022-07-06T19:56:41Z</time>
      </trkpt>
      <trkpt lat="20.302328" lon="-97.89101">
        <ele>377.472</ele>
        <time>2022-07-06T19:56:46Z</time>
      </trkpt>
      <trkpt lat="20.302374" lon="-97.891003">
        <ele>378.733</ele>
        <time>2022-07-06T19:57:17Z</time>
      </trkpt>
      <trkpt lat="20.302392" lon="-97.890956">
        <ele>378.733</ele>
        <time>2022-07-06T19:57:21Z</time>
      </trkpt>
      <trkpt lat="20.302343" lon="-97.890954">
        <ele>378.731</ele>
        <time>2022-07-06T19:57:27Z</time>
      </trkpt>
      <trkpt lat="20.302359" lon="-97.890909">
        <ele>379.144</ele>
        <time>2022-07-06T19:57:54Z</time>
      </trkpt>
      <trkpt lat="20.302393" lon="-97.890953">
        <ele>379.993</ele>
        <time>2022-07-06T19:57:59Z</time>
      </trkpt>
      <trkpt lat="20.302352" lon="-97.890974">
        <ele>380.065</ele>
        <time>2022-07-06T19:58:05Z</time>
      </trkpt>
      <trkpt lat="20.302363" lon="-97.890954">
        <ele>384.963</ele>
        <time>2022-07-07T03:04:40Z</time>
      </trkpt>
      <trkpt lat="20.302351" lon="-97.891005">
        <ele>384.944</ele>
        <time>2022-07-07T03:04:52Z</time>
      </trkpt>
      <trkpt lat="20.302371" lon="-97.891057">
        <ele>384.918</ele>
        <time>2022-07-07T03:06:16Z</time>
      </trkpt>
      <trkpt lat="20.30242" lon="-97.891059">
        <ele>384.909</ele>
        <time>2022-07-07T03:06:22Z</time>
      </trkpt>
      <trkpt lat="20.302466" lon="-97.891043">
        <ele>384.957</ele>
        <time>2022-07-07T03:06:25Z</time>
      </trkpt>
      <trkpt lat="20.30251" lon="-97.891029">
        <ele>384.946</ele>
        <time>2022-07-07T03:06:29Z</time>
      </trkpt>
      <trkpt lat="20.30258" lon="-97.891004">
        <ele>384.983</ele>
        <time>2022-07-07T03:06:36Z</time>
      </trkpt>
      <trkpt lat="20.302555" lon="-97.891052">
        <ele>384.988</ele>
        <time>2022-07-07T03:06:45Z</time>
      </trkpt>
      <trkpt lat="20.302549" lon="-97.891102">
        <ele>384.945</ele>
        <time>2022-07-07T03:06:50Z</time>
      </trkpt>
      <trkpt lat="20.302543" lon="-97.891151">
        <ele>384.968</ele>
        <time>2022-07-07T03:06:58Z</time>
      </trkpt>
      <trkpt lat="20.302511" lon="-97.89119">
        <ele>384.923</ele>
        <time>2022-07-07T03:07:04Z</time>
      </trkpt>
      <trkpt lat="20.302464" lon="-97.891184">
        <ele>384.993</ele>
        <time>2022-07-07T03:07:13Z</time>
      </trkpt>
      <trkpt lat="20.302456" lon="-97.891234">
        <ele>384.954</ele>
        <time>2022-07-07T03:07:20Z</time>
      </trkpt>
      <trkpt lat="20.302461" lon="-97.891293">
        <ele>384.996</ele>
        <time>2022-07-07T03:07:26Z</time>
      </trkpt>
      <trkpt lat="20.302448" lon="-97.891346">
        <ele>384.931</ele>
        <time>2022-07-07T03:07:31Z</time>
      </trkpt>
      <trkpt lat="20.302491" lon="-97.891364">
        <ele>384.924</ele>
        <time>2022-07-07T03:07:37Z</time>
      </trkpt>
      <trkpt lat="20.302543" lon="-97.891354">
        <ele>384.909</ele>
        <time>2022-07-07T03:07:45Z</time>
      </trkpt>
      <trkpt lat="20.302569" lon="-97.8914">
        <ele>384.970</ele>
        <time>2022-07-07T03:07:55Z</time>
      </trkpt>
      <trkpt lat="20.302614" lon="-97.891377">
        <ele>384.979</ele>
        <time>2022-07-07T03:07:57Z</time>
      </trkpt>
      <trkpt lat="20.302655" lon="-97.891347">
        <ele>384.986</ele>
        <time>2022-07-07T03:07:59Z</time>
      </trkpt>
      <trkpt lat="20.302707" lon="-97.891336">
        <ele>384.491</ele>
        <time>2022-07-07T03:08:03Z</time>
      </trkpt>
      <trkpt lat="20.302751" lon="-97.891365">
        <ele>381.118</ele>
        <time>2022-07-07T03:08:09Z</time>
      </trkpt>
      <trkpt lat="20.302798" lon="-97.89136">
        <ele>380.121</ele>
        <time>2022-07-07T03:08:16Z</time>
      </trkpt>
      <trkpt lat="20.302775" lon="-97.891316">
        <ele>381.566</ele>
        <time>2022-07-07T03:08:20Z</time>
      </trkpt>
      <trkpt lat="20.302733" lon="-97.891298">
        <ele>381.496</ele>
        <time>2022-07-07T03:08:25Z</time>
      </trkpt>
      <trkpt lat="20.302715" lon="-97.891346">
        <ele>377.597</ele>
        <time>2022-07-07T03:08:42Z</time>
      </trkpt>
      <trkpt lat="20.302764" lon="-97.891372">
        <ele>379.428</ele>
        <time>2022-07-07T03:08:46Z</time>
      </trkpt>
      <trkpt lat="20.302816" lon="-97.891385">
        <ele>379.989</ele>
        <time>2022-07-07T03:08:49Z</time>
      </trkpt>
      <trkpt lat="20.302871" lon="-97.891383">
        <ele>378.317</ele>
        <time>2022-07-07T03:08:54Z</time>
      </trkpt>
      <trkpt lat="20.302918" lon="-97.891368">
        <ele>380.109</ele>
        <time>2022-07-07T03:08:58Z</time>
      </trkpt>
      <trkpt lat="20.302957" lon="-97.891392">
        <ele>383.593</ele>
        <time>2022-07-07T03:09:03Z</time>
      </trkpt>
      <trkpt lat="20.302997" lon="-97.891417">
        <ele>389.562</ele>
        <time>2022-07-07T03:09:10Z</time>
      </trkpt>
      <trkpt lat="20.303046" lon="-97.891419">
        <ele>390.989</ele>
        <time>2022-07-07T03:09:15Z</time>
      </trkpt>
      <trkpt lat="20.303092" lon="-97.891437">
        <ele>392.874</ele>
        <time>2022-07-07T03:09:20Z</time>
      </trkpt>
      <trkpt lat="20.303127" lon="-97.891468">
        <ele>390.651</ele>
        <time>2022-07-07T03:09:27Z</time>
      </trkpt>
      <trkpt lat="20.303176" lon="-97.891458">
        <ele>394.254</ele>
        <time>2022-07-07T03:09:34Z</time>
      </trkpt>
      <trkpt lat="20.303196" lon="-97.891507">
        <ele>393.269</ele>
        <time>2022-07-07T03:09:44Z</time>
      </trkpt>
      <trkpt lat="20.303164" lon="-97.891548">
        <ele>391.679</ele>
        <time>2022-07-07T03:09:48Z</time>
      </trkpt>
      <trkpt lat="20.303137" lon="-97.891596">
        <ele>394.470</ele>
        <time>2022-07-07T03:09:54Z</time>
      </trkpt>
      <trkpt lat="20.30317" lon="-97.891629">
        <ele>392.156</ele>
        <time>2022-07-07T03:10:12Z</time>
      </trkpt>
      <trkpt lat="20.303215" lon="-97.891617">
        <ele>392.759</ele>
        <time>2022-07-07T03:10:16Z</time>
      </trkpt>
      <trkpt lat="20.303256" lon="-97.891589">
        <ele>390.814</ele>
        <time>2022-07-07T03:10:23Z</time>
      </trkpt>
      <trkpt lat="20.303304" lon="-97.891611">
        <ele>391.509</ele>
        <time>2022-07-07T03:10:35Z</time>
      </trkpt>
      <trkpt lat="20.303305" lon="-97.891659">
        <ele>393.856</ele>
        <time>2022-07-07T03:10:44Z</time>
      </trkpt>
      <trkpt lat="20.303284" lon="-97.891705">
        <ele>402.545</ele>
        <time>2022-07-07T03:10:51Z</time>
      </trkpt>
      <trkpt lat="20.303326" lon="-97.89168">
        <ele>411.452</ele>
        <time>2022-07-07T03:11:01Z</time>
      </trkpt>
      <trkpt lat="20.30337" lon="-97.891654">
        <ele>415.817</ele>
        <time>2022-07-07T03:11:06Z</time>
      </trkpt>
      <trkpt lat="20.303413" lon="-97.891671">
        <ele>419.454</ele>
        <time>2022-07-07T03:11:14Z</time>
      </trkpt>
      <trkpt lat="20.303455" lon="-97.891699">
        <ele>419.727</ele>
        <time>2022-07-07T03:11:18Z</time>
      </trkpt>
      <trkpt lat="20.303503" lon="-97.891713">
        <ele>420.212</ele>
        <time>2022-07-07T03:11:22Z</time>
      </trkpt>
      <trkpt lat="20.30354" lon="-97.891754">
        <ele>423.872</ele>
        <time>2022-07-07T03:11:27Z</time>
      </trkpt>
      <trkpt lat="20.303582" lon="-97.89179">
        <ele>423.523</ele>
        <time>2022-07-07T03:11:32Z</time>
      </trkpt>
      <trkpt lat="20.303608" lon="-97.89183">
        <ele>421.671</ele>
        <time>2022-07-07T03:11:37Z</time>
      </trkpt>
      <trkpt lat="20.303645" lon="-97.891864">
        <ele>423.041</ele>
        <time>2022-07-07T03:11:42Z</time>
      </trkpt>
      <trkpt lat="20.30369" lon="-97.891873">
        <ele>421.615</ele>
        <time>2022-07-07T03:11:46Z</time>
      </trkpt>
      <trkpt lat="20.303708" lon="-97.891926">
        <ele>418.509</ele>
        <time>2022-07-07T03:11:51Z</time>
      </trkpt>
      <trkpt lat="20.303711" lon="-97.891976">
        <ele>417.728</ele>
        <time>2022-07-07T03:11:55Z</time>
      </trkpt>
      <trkpt lat="20.303728" lon="-97.892029">
        <ele>422.247</ele>
        <time>2022-07-07T03:12:08Z</time>
      </trkpt>
      <trkpt lat="20.303728" lon="-97.89208">
        <ele>420.264</ele>
        <time>2022-07-07T03:12:20Z</time>
      </trkpt>
      <trkpt lat="20.303712" lon="-97.892125">
        <ele>421.489</ele>
        <time>2022-07-07T03:12:26Z</time>
      </trkpt>
      <trkpt lat="20.30373" lon="-97.89217">
        <ele>427.576</ele>
        <time>2022-07-07T03:12:34Z</time>
      </trkpt>
      <trkpt lat="20.303742" lon="-97.89222">
        <ele>428.729</ele>
        <time>2022-07-07T03:12:37Z</time>
      </trkpt>
      <trkpt lat="20.303718" lon="-97.892265">
        <ele>426.554</ele>
        <time>2022-07-07T03:12:41Z</time>
      </trkpt>
      <trkpt lat="20.303687" lon="-97.892304">
        <ele>429.714</ele>
        <time>2022-07-07T03:12:45Z</time>
      </trkpt>
      <trkpt lat="20.303731" lon="-97.892331">
        <ele>427.695</ele>
        <time>2022-07-07T03:12:52Z</time>
      </trkpt>
      <trkpt lat="20.303782" lon="-97.892322">
        <ele>426.526</ele>
        <time>2022-07-07T03:12:55Z</time>
      </trkpt>
      <trkpt lat="20.303832" lon="-97.892315">
        <ele>430.747</ele>
        <time>2022-07-07T03:12:59Z</time>
      </trkpt>
      <trkpt lat="20.303875" lon="-97.892295">
        <ele>436.611</ele>
        <time>2022-07-07T03:13:03Z</time>
      </trkpt>
      <trkpt lat="20.303921" lon="-97.892314">
        <ele>439.009</ele>
        <time>2022-07-07T03:13:09Z</time>
      </trkpt>
      <trkpt lat="20.303967" lon="-97.892337">
        <ele>438.973</ele>
        <time>2022-07-07T03:13:16Z</time>
      </trkpt>
      <trkpt lat="20.304005" lon="-97.892372">
        <ele>439.692</ele>
        <time>2022-07-07T03:13:23Z</time>
      </trkpt>
      <trkpt lat="20.304046" lon="-97.892393">
        <ele>443.249</ele>
        <time>2022-07-07T03:13:33Z</time>
      </trkpt>
      <trkpt lat="20.304097" lon="-97.892393">
        <ele>443.174</ele>
        <time>2022-07-07T03:13:41Z</time>
      </trkpt>
      <trkpt lat="20.304143" lon="-97.892397">
        <ele>444.391</ele>
        <time>2022-07-07T03:13:47Z</time>
      </trkpt>
      <trkpt lat="20.304178" lon="-97.892437">
        <ele>444.924</ele>
        <time>2022-07-07T03:13:57Z</time>
      </trkpt>
      <trkpt lat="20.30422" lon="-97.892455">
        <ele>444.219</ele>
        <time>2022-07-07T03:14:06Z</time>
      </trkpt>
      <trkpt lat="20.304231" lon="-97.892503">
        <ele>444.029</ele>
        <time>2022-07-07T03:14:12Z</time>
      </trkpt>
      <trkpt lat="20.304272" lon="-97.892532">
        <ele>445.450</ele>
        <time>2022-07-07T03:14:20Z</time>
      </trkpt>
      <trkpt lat="20.304272" lon="-97.892585">
        <ele>449.796</ele>
        <time>2022-07-07T03:14:25Z</time>
      </trkpt>
      <trkpt lat="20.304269" lon="-97.892639">
        <ele>448.231</ele>
        <time>2022-07-07T03:14:33Z</time>
      </trkpt>
      <trkpt lat="20.3043" lon="-97.892674">
        <ele>452.324</ele>
        <time>2022-07-07T03:14:39Z</time>
      </trkpt>
      <trkpt lat="20.304347" lon="-97.892674">
        <ele>453.109</ele>
        <time>2022-07-07T03:14:42Z</time>
      </trkpt>
      <trkpt lat="20.304392" lon="-97.892666">
        <ele>457.130</ele>
        <time>2022-07-07T03:14:47Z</time>
      </trkpt>
      <trkpt lat="20.304437" lon="-97.892671">
        <ele>457.099</ele>
        <time>2022-07-07T03:14:53Z</time>
      </trkpt>
      <trkpt lat="20.304398" lon="-97.892699">
        <ele>456.286</ele>
        <time>2022-07-07T03:15:04Z</time>
      </trkpt>
      <trkpt lat="20.304406" lon="-97.892751">
        <ele>455.631</ele>
        <time>2022-07-07T03:15:12Z</time>
      </trkpt>
      <trkpt lat="20.304418" lon="-97.892804">
        <ele>451.988</ele>
        <time>2022-07-07T03:15:19Z</time>
      </trkpt>
      <trkpt lat="20.304408" lon="-97.892853">
        <ele>450.811</ele>
        <time>2022-07-07T03:15:24Z</time>
      </trkpt>
      <trkpt lat="20.304474" lon="-97.892876">
        <ele>447.396</ele>
        <time>2022-07-07T03:15:30Z</time>
      </trkpt>
      <trkpt lat="20.304539" lon="-97.892884">
        <ele>448.966</ele>
        <time>2022-07-07T03:15:35Z</time>
      </trkpt>
      <trkpt lat="20.304572" lon="-97.892918">
        <ele>450.487</ele>
        <time>2022-07-07T03:15:40Z</time>
      </trkpt>
      <trkpt lat="20.30461" lon="-97.892948">
        <ele>452.323</ele>
        <time>2022-07-07T03:15:47Z</time>
      </trkpt>
      <trkpt lat="20.304613" lon="-97.892997">
        <ele>448.383</ele>
        <time>2022-07-07T03:15:52Z</time>
      </trkpt>
      <trkpt lat="20.304627" lon="-97.89305">
        <ele>446.211</ele>
        <time>2022-07-07T03:15:57Z</time>
      </trkpt>
      <trkpt lat="20.304678" lon="-97.89307">
        <ele>449.909</ele>
        <time>2022-07-07T03:16:03Z</time>
      </trkpt>
      <trkpt lat="20.304722" lon="-97.893091">
        <ele>449.833</ele>
        <time>2022-07-07T03:16:09Z</time>
      </trkpt>
      <trkpt lat="20.304763" lon="-97.893057">
        <ele>453.362</ele>
        <time>2022-07-07T03:16:15Z</time>
      </trkpt>
      <trkpt lat="20.304798" lon="-97.893089">
        <ele>464.969</ele>
        <time>2022-07-07T03:16:51Z</time>
      </trkpt>
      <trkpt lat="20.304796" lon="-97.89315">
        <ele>469.284</ele>
        <time>2022-07-07T03:16:55Z</time>
      </trkpt>
      <trkpt lat="20.304757" lon="-97.893186">
        <ele>468.131</ele>
        <time>2022-07-07T03:16:59Z</time>
      </trkpt>
      <trkpt lat="20.304767" lon="-97.893233">
        <ele>469.354</ele>
        <time>2022-07-07T03:17:03Z</time>
      </trkpt>
      <trkpt lat="20.304802" lon="-97.893264">
        <ele>470.489</ele>
        <time>2022-07-07T03:17:09Z</time>
      </trkpt>
      <trkpt lat="20.30485" lon="-97.89324">
        <ele>471.769</ele>
        <time>2022-07-07T03:17:15Z</time>
      </trkpt>
      <trkpt lat="20.3049" lon="-97.893254">
        <ele>470.050</ele>
        <time>2022-07-07T03:17:23Z</time>
      </trkpt>
      <trkpt lat="20.304959" lon="-97.89327">
        <ele>469.732</ele>
        <time>2022-07-07T03:17:26Z</time>
      </trkpt>
      <trkpt lat="20.304999" lon="-97.893298">
        <ele>468.292</ele>
        <time>2022-07-07T03:17:29Z</time>
      </trkpt>
      <trkpt lat="20.305046" lon="-97.893313">
        <ele>474.011</ele>
        <time>2022-07-07T03:17:34Z</time>
      </trkpt>
      <trkpt lat="20.305098" lon="-97.893317">
        <ele>477.709</ele>
        <time>2022-07-07T03:17:40Z</time>
      </trkpt>
      <trkpt lat="20.305146" lon="-97.893302">
        <ele>477.844</ele>
        <time>2022-07-07T03:17:48Z</time>
      </trkpt>
      <trkpt lat="20.305185" lon="-97.893331">
        <ele>478.213</ele>
        <time>2022-07-07T03:17:59Z</time>
      </trkpt>
      <trkpt lat="20.305186" lon="-97.893382">
        <ele>477.680</ele>
        <time>2022-07-07T03:18:06Z</time>
      </trkpt>
      <trkpt lat="20.305165" lon="-97.893429">
        <ele>476.655</ele>
        <time>2022-07-07T03:18:09Z</time>
      </trkpt>
      <trkpt lat="20.305161" lon="-97.893477">
        <ele>481.372</ele>
        <time>2022-07-07T03:18:26Z</time>
      </trkpt>
      <trkpt lat="20.305146" lon="-97.89353">
        <ele>481.335</ele>
        <time>2022-07-07T03:18:31Z</time>
      </trkpt>
      <trkpt lat="20.305117" lon="-97.893569">
        <ele>484.580</ele>
        <time>2022-07-07T03:18:39Z</time>
      </trkpt>
      <trkpt lat="20.305142" lon="-97.893618">
        <ele>482.880</ele>
        <time>2022-07-07T03:18:52Z</time>
      </trkpt>
      <trkpt lat="20.30519" lon="-97.893643">
        <ele>477.831</ele>
        <time>2022-07-07T03:18:59Z</time>
      </trkpt>
      <trkpt lat="20.305238" lon="-97.893646">
        <ele>475.675</ele>
        <time>2022-07-07T03:19:05Z</time>
      </trkpt>
      <trkpt lat="20.305285" lon="-97.89361">
        <ele>477.328</ele>
        <time>2022-07-07T03:19:10Z</time>
      </trkpt>
      <trkpt lat="20.305349" lon="-97.893621">
        <ele>476.920</ele>
        <time>2022-07-07T03:19:16Z</time>
      </trkpt>
      <trkpt lat="20.3054" lon="-97.893639">
        <ele>481.809</ele>
        <time>2022-07-07T03:19:21Z</time>
      </trkpt>
      <trkpt lat="20.305449" lon="-97.893649">
        <ele>485.968</ele>
        <time>2022-07-07T03:19:24Z</time>
      </trkpt>
      <trkpt lat="20.305498" lon="-97.89366">
        <ele>491.337</ele>
        <time>2022-07-07T03:19:32Z</time>
      </trkpt>
      <trkpt lat="20.305538" lon="-97.893695">
        <ele>489.884</ele>
        <time>2022-07-07T03:19:40Z</time>
      </trkpt>
      <trkpt lat="20.305594" lon="-97.893705">
        <ele>492.839</ele>
        <time>2022-07-07T03:19:44Z</time>
      </trkpt>
      <trkpt lat="20.30563" lon="-97.893777">
        <ele>490.236</ele>
        <time>2022-07-07T03:19:55Z</time>
      </trkpt>
      <trkpt lat="20.305611" lon="-97.893824">
        <ele>488.319</ele>
        <time>2022-07-07T03:20:02Z</time>
      </trkpt>
      <trkpt lat="20.305573" lon="-97.893857">
        <ele>487.824</ele>
        <time>2022-07-07T03:20:08Z</time>
      </trkpt>
      <trkpt lat="20.305542" lon="-97.893899">
        <ele>490.254</ele>
        <time>2022-07-07T03:20:17Z</time>
      </trkpt>
      <trkpt lat="20.305497" lon="-97.893914">
        <ele>491.245</ele>
        <time>2022-07-07T03:20:26Z</time>
      </trkpt>
      <trkpt lat="20.305449" lon="-97.893892">
        <ele>494.192</ele>
        <time>2022-07-07T03:20:37Z</time>
      </trkpt>
      <trkpt lat="20.305407" lon="-97.893865">
        <ele>494.973</ele>
        <time>2022-07-07T03:20:42Z</time>
      </trkpt>
      <trkpt lat="20.305388" lon="-97.893821">
        <ele>501.720</ele>
        <time>2022-07-07T03:21:06Z</time>
      </trkpt>
      <trkpt lat="20.305431" lon="-97.893844">
        <ele>509.409</ele>
        <time>2022-07-07T03:21:17Z</time>
      </trkpt>
      <trkpt lat="20.305477" lon="-97.893817">
        <ele>511.420</ele>
        <time>2022-07-07T03:21:22Z</time>
      </trkpt>
      <trkpt lat="20.305534" lon="-97.893837">
        <ele>514.279</ele>
        <time>2022-07-07T03:21:27Z</time>
      </trkpt>
      <trkpt lat="20.305576" lon="-97.893854">
        <ele>517.196</ele>
        <time>2022-07-07T03:21:31Z</time>
      </trkpt>
      <trkpt lat="20.305563" lon="-97.893914">
        <ele>518.641</ele>
        <time>2022-07-07T03:21:35Z</time>
      </trkpt>
      <trkpt lat="20.30557" lon="-97.893962">
        <ele>522.588</ele>
        <time>2022-07-07T03:21:38Z</time>
      </trkpt>
      <trkpt lat="20.305625" lon="-97.893966">
        <ele>525.041</ele>
        <time>2022-07-07T03:21:41Z</time>
      </trkpt>
      <trkpt lat="20.305674" lon="-97.893943">
        <ele>524.736</ele>
        <time>2022-07-07T03:21:43Z</time>
      </trkpt>
      <trkpt lat="20.305725" lon="-97.89395">
        <ele>528.836</ele>
        <time>2022-07-07T03:21:46Z</time>
      </trkpt>
      <trkpt lat="20.305756" lon="-97.893985">
        <ele>531.527</ele>
        <time>2022-07-07T03:21:49Z</time>
      </trkpt>
      <trkpt lat="20.305772" lon="-97.894036">
        <ele>532.042</ele>
        <time>2022-07-07T03:21:55Z</time>
      </trkpt>
      <trkpt lat="20.305716" lon="-97.89404">
        <ele>523.422</ele>
        <time>2022-07-07T03:21:58Z</time>
      </trkpt>
      <trkpt lat="20.305642" lon="-97.894051">
        <ele>519.614</ele>
        <time>2022-07-07T03:22:03Z</time>
      </trkpt>
      <trkpt lat="20.305597" lon="-97.894059">
        <ele>519.209</ele>
        <time>2022-07-07T03:22:06Z</time>
      </trkpt>
      <trkpt lat="20.305551" lon="-97.89405">
        <ele>517.015</ele>
        <time>2022-07-07T03:22:12Z</time>
      </trkpt>
      <trkpt lat="20.305506" lon="-97.894054">
        <ele>516.764</ele>
        <time>2022-07-07T03:22:20Z</time>
      </trkpt>
      <trkpt lat="20.305444" lon="-97.894037">
        <ele>515.571</ele>
        <time>2022-07-07T03:22:29Z</time>
      </trkpt>
      <trkpt lat="20.3054" lon="-97.894022">
        <ele>515.876</ele>
        <time>2022-07-07T03:22:35Z</time>
      </trkpt>
      <trkpt lat="20.305363" lon="-97.893992">
        <ele>518.873</ele>
        <time>2022-07-07T03:22:47Z</time>
      </trkpt>
      <trkpt lat="20.305327" lon="-97.89404">
        <ele>518.336</ele>
        <time>2022-07-07T03:23:02Z</time>
      </trkpt>
      <trkpt lat="20.305294" lon="-97.894075">
        <ele>517.321</ele>
        <time>2022-07-07T03:23:06Z</time>
      </trkpt>
      <trkpt lat="20.30526" lon="-97.894112">
        <ele>515.551</ele>
        <time>2022-07-07T03:23:15Z</time>
      </trkpt>
      <trkpt lat="20.305248" lon="-97.894159">
        <ele>514.592</ele>
        <time>2022-07-07T03:23:21Z</time>
      </trkpt>
      <trkpt lat="20.305203" lon="-97.894148">
        <ele>512.558</ele>
        <time>2022-07-07T03:23:26Z</time>
      </trkpt>
      <trkpt lat="20.305178" lon="-97.894104">
        <ele>518.252</ele>
        <time>2022-07-07T03:23:32Z</time>
      </trkpt>
      <trkpt lat="20.305158" lon="-97.894148">
        <ele>516.017</ele>
        <time>2022-07-07T03:23:40Z</time>
      </trkpt>
      <trkpt lat="20.305194" lon="-97.894185">
        <ele>520.109</ele>
        <time>2022-07-07T03:23:49Z</time>
      </trkpt>
      <trkpt lat="20.305228" lon="-97.894216">
        <ele>523.566</ele>
        <time>2022-07-07T03:24:02Z</time>
      </trkpt>
      <trkpt lat="20.305261" lon="-97.894262">
        <ele>528.625</ele>
        <time>2022-07-07T03:24:14Z</time>
      </trkpt>
      <trkpt lat="20.305299" lon="-97.894307">
        <ele>533.382</ele>
        <time>2022-07-07T03:24:19Z</time>
      </trkpt>
      <trkpt lat="20.305268" lon="-97.894376">
        <ele>531.047</ele>
        <time>2022-07-07T03:24:23Z</time>
      </trkpt>
      <trkpt lat="20.305229" lon="-97.894408">
        <ele>531.434</ele>
        <time>2022-07-07T03:24:28Z</time>
      </trkpt>
      <trkpt lat="20.305188" lon="-97.894445">
        <ele>531.657</ele>
        <time>2022-07-07T03:24:31Z</time>
      </trkpt>
      <trkpt lat="20.305154" lon="-97.894495">
        <ele>528.862</ele>
        <time>2022-07-07T03:24:34Z</time>
      </trkpt>
      <trkpt lat="20.305124" lon="-97.894534">
        <ele>530.262</ele>
        <time>2022-07-07T03:24:38Z</time>
      </trkpt>
      <trkpt lat="20.305094" lon="-97.894573">
        <ele>525.813</ele>
        <time>2022-07-07T03:24:41Z</time>
      </trkpt>
      <trkpt lat="20.305143" lon="-97.894546">
        <ele>526.958</ele>
        <time>2022-07-07T03:24:50Z</time>
      </trkpt>
      <trkpt lat="20.305171" lon="-97.894586">
        <ele>534.252</ele>
        <time>2022-07-07T03:24:55Z</time>
      </trkpt>
      <trkpt lat="20.305207" lon="-97.89462">
        <ele>542.617</ele>
        <time>2022-07-07T03:24:59Z</time>
      </trkpt>
      <trkpt lat="20.305254" lon="-97.89463">
        <ele>549.309</ele>
        <time>2022-07-07T03:25:06Z</time>
      </trkpt>
      <trkpt lat="20.305264" lon="-97.894683">
        <ele>552.126</ele>
        <time>2022-07-07T03:25:11Z</time>
      </trkpt>
      <trkpt lat="20.305313" lon="-97.894678">
        <ele>549.785</ele>
        <time>2022-07-07T03:25:25Z</time>
      </trkpt>
      <trkpt lat="20.305342" lon="-97.894729">
        <ele>554.442</ele>
        <time>2022-07-07T03:25:32Z</time>
      </trkpt>
      <trkpt lat="20.305367" lon="-97.89477">
        <ele>551.477</ele>
        <time>2022-07-07T03:25:44Z</time>
      </trkpt>
      <trkpt lat="20.305402" lon="-97.894806">
        <ele>553.054</ele>
        <time>2022-07-07T03:25:50Z</time>
      </trkpt>
      <trkpt lat="20.305444" lon="-97.894827">
        <ele>553.697</ele>
        <time>2022-07-07T03:25:56Z</time>
      </trkpt>
      <trkpt lat="20.305482" lon="-97.894853">
        <ele>552.272</ele>
        <time>2022-07-07T03:26:09Z</time>
      </trkpt>
      <trkpt lat="20.305529" lon="-97.894863">
        <ele>556.642</ele>
        <time>2022-07-07T03:26:17Z</time>
      </trkpt>
      <trkpt lat="20.305519" lon="-97.894912">
        <ele>555.293</ele>
        <time>2022-07-07T03:26:22Z</time>
      </trkpt>
      <trkpt lat="20.305544" lon="-97.894959">
        <ele>552.675</ele>
        <time>2022-07-07T03:26:28Z</time>
      </trkpt>
      <trkpt lat="20.305559" lon="-97.895006">
        <ele>550.728</ele>
        <time>2022-07-07T03:26:34Z</time>
      </trkpt>
      <trkpt lat="20.305581" lon="-97.895048">
        <ele>551.620</ele>
        <time>2022-07-07T03:26:41Z</time>
      </trkpt>
      <trkpt lat="20.305623" lon="-97.895069">
        <ele>550.909</ele>
        <time>2022-07-07T03:26:47Z</time>
      </trkpt>
      <trkpt lat="20.30565" lon="-97.89511">
        <ele>555.068</ele>
        <time>2022-07-07T03:26:55Z</time>
      </trkpt>
      <trkpt lat="20.3057" lon="-97.895134">
        <ele>554.297</ele>
        <time>2022-07-07T03:27:03Z</time>
      </trkpt>
      <trkpt lat="20.305735" lon="-97.89517">
        <ele>556.094</ele>
        <time>2022-07-07T03:27:08Z</time>
      </trkpt>
      <trkpt lat="20.305784" lon="-97.895197">
        <ele>560.449</ele>
        <time>2022-07-07T03:27:13Z</time>
      </trkpt>
      <trkpt lat="20.305763" lon="-97.895247">
        <ele>553.186</ele>
        <time>2022-07-07T03:27:19Z</time>
      </trkpt>
      <trkpt lat="20.305714" lon="-97.895258">
        <ele>554.199</ele>
        <time>2022-07-07T03:27:25Z</time>
      </trkpt>
      <trkpt lat="20.305721" lon="-97.895308">
        <ele>558.324</ele>
        <time>2022-07-07T03:27:31Z</time>
      </trkpt>
      <trkpt lat="20.305758" lon="-97.895337">
        <ele>557.864</ele>
        <time>2022-07-07T03:27:38Z</time>
      </trkpt>
      <trkpt lat="20.30581" lon="-97.895334">
        <ele>556.675</ele>
        <time>2022-07-07T03:27:44Z</time>
      </trkpt>
      <trkpt lat="20.305824" lon="-97.895381">
        <ele>559.384</ele>
        <time>2022-07-07T03:27:56Z</time>
      </trkpt>
      <trkpt lat="20.305782" lon="-97.895418">
        <ele>564.507</ele>
        <time>2022-07-07T03:28:06Z</time>
      </trkpt>
      <trkpt lat="20.305739" lon="-97.895434">
        <ele>561.417</ele>
        <time>2022-07-07T03:28:16Z</time>
      </trkpt>
      <trkpt lat="20.305734" lon="-97.895482">
        <ele>568.009</ele>
        <time>2022-07-07T03:28:34Z</time>
      </trkpt>
      <trkpt lat="20.305741" lon="-97.895535">
        <ele>567.549</ele>
        <time>2022-07-07T03:28:48Z</time>
      </trkpt>
      <trkpt lat="20.305778" lon="-97.895569">
        <ele>572.718</ele>
        <time>2022-07-07T03:28:54Z</time>
      </trkpt>
      <trkpt lat="20.305758" lon="-97.895614">
        <ele>574.715</ele>
        <time>2022-07-07T03:29:02Z</time>
      </trkpt>
      <trkpt lat="20.305747" lon="-97.895666">
        <ele>573.820</ele>
        <time>2022-07-07T03:29:08Z</time>
      </trkpt>
      <trkpt lat="20.305712" lon="-97.895699">
        <ele>570.657</ele>
        <time>2022-07-07T03:29:16Z</time>
      </trkpt>
      <trkpt lat="20.305723" lon="-97.895747">
        <ele>571.070</ele>
        <time>2022-07-07T03:29:26Z</time>
      </trkpt>
      <trkpt lat="20.305768" lon="-97.895752">
        <ele>573.295</ele>
        <time>2022-07-07T03:29:31Z</time>
      </trkpt>
      <trkpt lat="20.305768" lon="-97.895807">
        <ele>567.975</ele>
        <time>2022-07-07T03:29:47Z</time>
      </trkpt>
      <trkpt lat="20.305738" lon="-97.895849">
        <ele>570.556</ele>
        <time>2022-07-07T03:29:52Z</time>
      </trkpt>
      <trkpt lat="20.305711" lon="-97.895894">
        <ele>575.716</ele>
        <time>2022-07-07T03:29:58Z</time>
      </trkpt>
      <trkpt lat="20.305687" lon="-97.89594">
        <ele>579.476</ele>
        <time>2022-07-07T03:30:04Z</time>
      </trkpt>
      <trkpt lat="20.305661" lon="-97.895987">
        <ele>580.513</ele>
        <time>2022-07-07T03:30:14Z</time>
      </trkpt>
      <trkpt lat="20.305645" lon="-97.896041">
        <ele>580.209</ele>
        <time>2022-07-07T03:30:18Z</time>
      </trkpt>
      <trkpt lat="20.305638" lon="-97.89609">
        <ele>581.492</ele>
        <time>2022-07-07T03:30:24Z</time>
      </trkpt>
      <trkpt lat="20.3056" lon="-97.89612">
        <ele>581.651</ele>
        <time>2022-07-07T03:30:29Z</time>
      </trkpt>
      <trkpt lat="20.30555" lon="-97.896139">
        <ele>585.758</ele>
        <time>2022-07-07T03:30:36Z</time>
      </trkpt>
      <trkpt lat="20.305512" lon="-97.896172">
        <ele>586.543</ele>
        <time>2022-07-07T03:30:41Z</time>
      </trkpt>
      <trkpt lat="20.30547" lon="-97.896192">
        <ele>589.340</ele>
        <time>2022-07-07T03:30:51Z</time>
      </trkpt>
      <trkpt lat="20.305424" lon="-97.896198">
        <ele>588.313</ele>
        <time>2022-07-07T03:30:57Z</time>
      </trkpt>
      <trkpt lat="20.305387" lon="-97.896165">
        <ele>587.358</ele>
        <time>2022-07-07T03:31:05Z</time>
      </trkpt>
      <trkpt lat="20.305343" lon="-97.896155">
        <ele>587.018</ele>
        <time>2022-07-07T03:31:11Z</time>
      </trkpt>
      <trkpt lat="20.305298" lon="-97.896188">
        <ele>589.089</ele>
        <time>2022-07-07T03:31:16Z</time>
      </trkpt>
      <trkpt lat="20.305266" lon="-97.896225">
        <ele>588.041</ele>
        <time>2022-07-07T03:31:20Z</time>
      </trkpt>
      <trkpt lat="20.305227" lon="-97.896251">
        <ele>588.081</ele>
        <time>2022-07-07T03:31:24Z</time>
      </trkpt>
      <trkpt lat="20.305182" lon="-97.896259">
        <ele>591.009</ele>
        <time>2022-07-07T03:31:29Z</time>
      </trkpt>
      <trkpt lat="20.305145" lon="-97.896289">
        <ele>592.609</ele>
        <time>2022-07-07T03:31:39Z</time>
      </trkpt>
      <trkpt lat="20.305108" lon="-97.896328">
        <ele>591.535</ele>
        <time>2022-07-07T03:31:51Z</time>
      </trkpt>
      <trkpt lat="20.305078" lon="-97.896367">
        <ele>593.114</ele>
        <time>2022-07-07T03:31:55Z</time>
      </trkpt>
      <trkpt lat="20.305029" lon="-97.896376">
        <ele>593.581</ele>
        <time>2022-07-07T03:31:59Z</time>
      </trkpt>
      <trkpt lat="20.304981" lon="-97.896372">
        <ele>591.646</ele>
        <time>2022-07-07T03:32:03Z</time>
      </trkpt>
      <trkpt lat="20.304927" lon="-97.896357">
        <ele>590.663</ele>
        <time>2022-07-07T03:32:08Z</time>
      </trkpt>
      <trkpt lat="20.304878" lon="-97.89635">
        <ele>590.996</ele>
        <time>2022-07-07T03:32:13Z</time>
      </trkpt>
      <trkpt lat="20.304837" lon="-97.896321">
        <ele>591.811</ele>
        <time>2022-07-07T03:32:18Z</time>
      </trkpt>
      <trkpt lat="20.304795" lon="-97.896288">
        <ele>588.411</ele>
        <time>2022-07-07T03:32:24Z</time>
      </trkpt>
      <trkpt lat="20.304763" lon="-97.896243">
        <ele>589.012</ele>
        <time>2022-07-07T03:32:29Z</time>
      </trkpt>
      <trkpt lat="20.304737" lon="-97.896199">
        <ele>590.639</ele>
        <time>2022-07-07T03:32:34Z</time>
      </trkpt>
      <trkpt lat="20.304694" lon="-97.896166">
        <ele>595.001</ele>
        <time>2022-07-07T03:32:40Z</time>
      </trkpt>
      <trkpt lat="20.304672" lon="-97.896122">
        <ele>595.221</ele>
        <time>2022-07-07T03:32:45Z</time>
      </trkpt>
      <trkpt lat="20.304639" lon="-97.896089">
        <ele>597.009</ele>
        <time>2022-07-07T03:32:50Z</time>
      </trkpt>
      <trkpt lat="20.304583" lon="-97.896086">
        <ele>599.934</ele>
        <time>2022-07-07T03:32:59Z</time>
      </trkpt>
      <trkpt lat="20.304545" lon="-97.896053">
        <ele>600.993</ele>
        <time>2022-07-07T03:33:03Z</time>
      </trkpt>
      <trkpt lat="20.304533" lon="-97.896004">
        <ele>606.260</ele>
        <time>2022-07-07T03:33:09Z</time>
      </trkpt>
      <trkpt lat="20.304508" lon="-97.895958">
        <ele>607.535</ele>
        <time>2022-07-07T03:33:13Z</time>
      </trkpt>
      <trkpt lat="20.304487" lon="-97.895914">
        <ele>612.372</ele>
        <time>2022-07-07T03:33:18Z</time>
      </trkpt>
      <trkpt lat="20.304462" lon="-97.895864">
        <ele>611.395</ele>
        <time>2022-07-07T03:33:23Z</time>
      </trkpt>
      <trkpt lat="20.304427" lon="-97.895831">
        <ele>610.820</ele>
        <time>2022-07-07T03:33:27Z</time>
      </trkpt>
      <trkpt lat="20.304381" lon="-97.895813">
        <ele>611.180</ele>
        <time>2022-07-07T03:33:32Z</time>
      </trkpt>
      <trkpt lat="20.304342" lon="-97.895852">
        <ele>611.441</ele>
        <time>2022-07-07T03:33:39Z</time>
      </trkpt>
      <trkpt lat="20.304322" lon="-97.895901">
        <ele>611.048</ele>
        <time>2022-07-07T03:33:44Z</time>
      </trkpt>
      <trkpt lat="20.304307" lon="-97.895954">
        <ele>610.461</ele>
        <time>2022-07-07T03:33:51Z</time>
      </trkpt>
      <trkpt lat="20.304302" lon="-97.896004">
        <ele>608.617</ele>
        <time>2022-07-07T03:33:59Z</time>
      </trkpt>
      <trkpt lat="20.304274" lon="-97.895959">
        <ele>607.909</ele>
        <time>2022-07-07T03:34:18Z</time>
      </trkpt>
      <trkpt lat="20.304226" lon="-97.895946">
        <ele>608.215</ele>
        <time>2022-07-07T03:34:23Z</time>
      </trkpt>
      <trkpt lat="20.304175" lon="-97.895953">
        <ele>609.154</ele>
        <time>2022-07-07T03:34:29Z</time>
      </trkpt>
      <trkpt lat="20.304133" lon="-97.895927">
        <ele>611.491</ele>
        <time>2022-07-07T03:34:34Z</time>
      </trkpt>
      <trkpt lat="20.304089" lon="-97.895905">
        <ele>614.626</ele>
        <time>2022-07-07T03:34:41Z</time>
      </trkpt>
      <trkpt lat="20.304044" lon="-97.895911">
        <ele>616.543</ele>
        <time>2022-07-07T03:34:47Z</time>
      </trkpt>
      <trkpt lat="20.304057" lon="-97.895957">
        <ele>622.036</ele>
        <time>2022-07-07T03:34:58Z</time>
      </trkpt>
      <trkpt lat="20.304011" lon="-97.895936">
        <ele>623.861</ele>
        <time>2022-07-07T03:35:05Z</time>
      </trkpt>
      <trkpt lat="20.303966" lon="-97.895937">
        <ele>627.531</ele>
        <time>2022-07-07T03:35:11Z</time>
      </trkpt>
      <trkpt lat="20.303924" lon="-97.895917">
        <ele>627.552</ele>
        <time>2022-07-07T03:35:15Z</time>
      </trkpt>
      <trkpt lat="20.303886" lon="-97.895891">
        <ele>631.329</ele>
        <time>2022-07-07T03:35:21Z</time>
      </trkpt>
      <trkpt lat="20.303843" lon="-97.895863">
        <ele>630.000</ele>
        <time>2022-07-07T03:35:29Z</time>
      </trkpt>
      <trkpt lat="20.303807" lon="-97.89583">
        <ele>625.720</ele>
        <time>2022-07-07T03:35:35Z</time>
      </trkpt>
      <trkpt lat="20.303769" lon="-97.895794">
        <ele>627.209</ele>
        <time>2022-07-07T03:35:41Z</time>
      </trkpt>
      <trkpt lat="20.303726" lon="-97.895765">
        <ele>625.943</ele>
        <time>2022-07-07T03:35:46Z</time>
      </trkpt>
      <trkpt lat="20.3037" lon="-97.895717">
        <ele>628.012</ele>
        <time>2022-07-07T03:35:50Z</time>
      </trkpt>
      <trkpt lat="20.303671" lon="-97.895675">
        <ele>629.749</ele>
        <time>2022-07-07T03:35:55Z</time>
      </trkpt>
      <trkpt lat="20.303644" lon="-97.895631">
        <ele>633.234</ele>
        <time>2022-07-07T03:36:01Z</time>
      </trkpt>
      <trkpt lat="20.303603" lon="-97.89561">
        <ele>633.981</ele>
        <time>2022-07-07T03:36:06Z</time>
      </trkpt>
      <trkpt lat="20.303555" lon="-97.895605">
        <ele>633.534</ele>
        <time>2022-07-07T03:36:12Z</time>
      </trkpt>
      <trkpt lat="20.30356" lon="-97.895553">
        <ele>635.049</ele>
        <time>2022-07-07T03:36:21Z</time>
      </trkpt>
      <trkpt lat="20.30353" lon="-97.895512">
        <ele>633.599</ele>
        <time>2022-07-07T03:36:25Z</time>
      </trkpt>
      <trkpt lat="20.303502" lon="-97.895472">
        <ele>633.040</ele>
        <time>2022-07-07T03:36:29Z</time>
      </trkpt>
      <trkpt lat="20.303454" lon="-97.895443">
        <ele>631.237</ele>
        <time>2022-07-07T03:36:34Z</time>
      </trkpt>
      <trkpt lat="20.303418" lon="-97.895409">
        <ele>629.449</ele>
        <time>2022-07-07T03:36:38Z</time>
      </trkpt>
      <trkpt lat="20.303372" lon="-97.895404">
        <ele>627.613</ele>
        <time>2022-07-07T03:36:44Z</time>
      </trkpt>
      <trkpt lat="20.303348" lon="-97.895446">
        <ele>629.609</ele>
        <time>2022-07-07T03:36:51Z</time>
      </trkpt>
      <trkpt lat="20.303366" lon="-97.895495">
        <ele>629.594</ele>
        <time>2022-07-07T03:37:00Z</time>
      </trkpt>
      <trkpt lat="20.303386" lon="-97.895549">
        <ele>632.363</ele>
        <time>2022-07-07T03:37:05Z</time>
      </trkpt>
      <trkpt lat="20.30343" lon="-97.895583">
        <ele>634.270</ele>
        <time>2022-07-07T03:37:16Z</time>
      </trkpt>
      <trkpt lat="20.303439" lon="-97.895632">
        <ele>636.535</ele>
        <time>2022-07-07T03:37:28Z</time>
      </trkpt>
      <trkpt lat="20.303458" lon="-97.895684">
        <ele>640.832</ele>
        <time>2022-07-07T03:37:36Z</time>
      </trkpt>
      <trkpt lat="20.303465" lon="-97.895741">
        <ele>639.095</ele>
        <time>2022-07-07T03:37:51Z</time>
      </trkpt>
      <trkpt lat="20.303449" lon="-97.895789">
        <ele>642.120</ele>
        <time>2022-07-07T03:37:56Z</time>
      </trkpt>
      <trkpt lat="20.303431" lon="-97.895834">
        <ele>641.480</ele>
        <time>2022-07-07T03:38:04Z</time>
      </trkpt>
      <trkpt lat="20.303396" lon="-97.895802">
        <ele>643.541</ele>
        <time>2022-07-07T03:38:20Z</time>
      </trkpt>
      <trkpt lat="20.303379" lon="-97.895757">
        <ele>649.577</ele>
        <time>2022-07-07T03:38:28Z</time>
      </trkpt>
      <trkpt lat="20.303383" lon="-97.895808">
        <ele>653.561</ele>
        <time>2022-07-07T03:38:40Z</time>
      </trkpt>
      <trkpt lat="20.303365" lon="-97.895856">
        <ele>655.527</ele>
        <time>2022-07-07T03:38:46Z</time>
      </trkpt>
      <trkpt lat="20.303317" lon="-97.89584">
        <ele>658.109</ele>
        <time>2022-07-07T03:39:05Z</time>
      </trkpt>
      <trkpt lat="20.303284" lon="-97.895804">
        <ele>656.278</ele>
        <time>2022-07-07T03:39:11Z</time>
      </trkpt>
      <trkpt lat="20.303239" lon="-97.895795">
        <ele>655.777</ele>
        <time>2022-07-07T03:39:17Z</time>
      </trkpt>
      <trkpt lat="20.303189" lon="-97.895799">
        <ele>657.764</ele>
        <time>2022-07-07T03:39:25Z</time>
      </trkpt>
      <trkpt lat="20.303201" lon="-97.895847">
        <ele>657.669</ele>
        <time>2022-07-07T03:39:36Z</time>
      </trkpt>
      <trkpt lat="20.303214" lon="-97.895894">
        <ele>657.916</ele>
        <time>2022-07-07T03:39:43Z</time>
      </trkpt>
      <trkpt lat="20.303234" lon="-97.895938">
        <ele>663.759</ele>
        <time>2022-07-07T03:39:52Z</time>
      </trkpt>
      <trkpt lat="20.303211" lon="-97.895981">
        <ele>667.474</ele>
        <time>2022-07-07T03:40:05Z</time>
      </trkpt>
      <trkpt lat="20.30322" lon="-97.896029">
        <ele>669.554</ele>
        <time>2022-07-07T03:40:16Z</time>
      </trkpt>
      <trkpt lat="20.303238" lon="-97.896073">
        <ele>667.485</ele>
        <time>2022-07-07T03:40:27Z</time>
      </trkpt>
      <trkpt lat="20.303234" lon="-97.896123">
        <ele>671.269</ele>
        <time>2022-07-07T03:40:41Z</time>
      </trkpt>
      <trkpt lat="20.303186" lon="-97.896109">
        <ele>670.604</ele>
        <time>2022-07-07T03:40:57Z</time>
      </trkpt>
      <trkpt lat="20.303149" lon="-97.896079">
        <ele>674.524</ele>
        <time>2022-07-07T03:41:04Z</time>
      </trkpt>
      <trkpt lat="20.303118" lon="-97.896036">
        <ele>674.609</ele>
        <time>2022-07-07T03:41:10Z</time>
      </trkpt>
      <trkpt lat="20.303118" lon="-97.895983">
        <ele>676.367</ele>
        <time>2022-07-07T03:41:16Z</time>
      </trkpt>
      <trkpt lat="20.303073" lon="-97.895962">
        <ele>676.456</ele>
        <time>2022-07-07T03:41:31Z</time>
      </trkpt>
      <trkpt lat="20.303029" lon="-97.895937">
        <ele>676.713</ele>
        <time>2022-07-07T03:41:39Z</time>
      </trkpt>
      <trkpt lat="20.303033" lon="-97.89599">
        <ele>675.648</ele>
        <time>2022-07-07T03:41:55Z</time>
      </trkpt>
      <trkpt lat="20.303042" lon="-97.89604">
        <ele>676.395</ele>
        <time>2022-07-07T03:42:01Z</time>
      </trkpt>
      <trkpt lat="20.303041" lon="-97.896091">
        <ele>679.998</ele>
        <time>2022-07-07T03:42:08Z</time>
      </trkpt>
      <trkpt lat="20.302996" lon="-97.896112">
        <ele>682.753</ele>
        <time>2022-07-07T03:42:27Z</time>
      </trkpt>
      <trkpt lat="20.302968" lon="-97.896153">
        <ele>681.813</ele>
        <time>2022-07-07T03:42:50Z</time>
      </trkpt>
      <trkpt lat="20.302995" lon="-97.896203">
        <ele>683.464</ele>
        <time>2022-07-07T03:43:06Z</time>
      </trkpt>
      <trkpt lat="20.303" lon="-97.896263">
        <ele>689.255</ele>
        <time>2022-07-07T03:43:21Z</time>
      </trkpt>
      <trkpt lat="20.302977" lon="-97.896305">
        <ele>687.107</ele>
        <time>2022-07-07T03:43:27Z</time>
      </trkpt>
      <trkpt lat="20.302945" lon="-97.896339">
        <ele>688.517</ele>
        <time>2022-07-07T03:43:37Z</time>
      </trkpt>
      <trkpt lat="20.302908" lon="-97.896305">
        <ele>693.009</ele>
        <time>2022-07-07T03:43:57Z</time>
      </trkpt>
      <trkpt lat="20.302885" lon="-97.896264">
        <ele>696.416</ele>
        <time>2022-07-07T03:44:03Z</time>
      </trkpt>
      <trkpt lat="20.302848" lon="-97.896234">
        <ele>698.845</ele>
        <time>2022-07-07T03:44:11Z</time>
      </trkpt>
      <trkpt lat="20.302838" lon="-97.896185">
        <ele>699.642</ele>
        <time>2022-07-07T03:44:16Z</time>
      </trkpt>
      <trkpt lat="20.302792" lon="-97.896184">
        <ele>701.037</ele>
        <time>2022-07-07T03:44:27Z</time>
      </trkpt>
      <trkpt lat="20.30274" lon="-97.896197">
        <ele>702.124</ele>
        <time>2022-07-07T03:44:36Z</time>
      </trkpt>
      <trkpt lat="20.302694" lon="-97.896194">
        <ele>705.277</ele>
        <time>2022-07-07T03:44:50Z</time>
      </trkpt>
      <trkpt lat="20.302662" lon="-97.896231">
        <ele>712.212</ele>
        <time>2022-07-07T03:45:14Z</time>
      </trkpt>
      <trkpt lat="20.302653" lon="-97.896282">
        <ele>713.362</ele>
        <time>2022-07-07T03:45:33Z</time>
      </trkpt>
      <trkpt lat="20.302626" lon="-97.896326">
        <ele>714.373</ele>
        <time>2022-07-07T03:45:40Z</time>
      </trkpt>
      <trkpt lat="20.302588" lon="-97.896358">
        <ele>713.595</ele>
        <time>2022-07-07T03:45:50Z</time>
      </trkpt>
      <trkpt lat="20.302556" lon="-97.896393">
        <ele>714.349</ele>
        <time>2022-07-07T03:45:59Z</time>
      </trkpt>
      <trkpt lat="20.302512" lon="-97.896411">
        <ele>719.423</ele>
        <time>2022-07-07T03:46:11Z</time>
      </trkpt>
      <trkpt lat="20.302495" lon="-97.896456">
        <ele>722.009</ele>
        <time>2022-07-07T03:46:18Z</time>
      </trkpt>
      <trkpt lat="20.302516" lon="-97.896499">
        <ele>728.850</ele>
        <time>2022-07-07T03:46:43Z</time>
      </trkpt>
      <trkpt lat="20.302485" lon="-97.896538">
        <ele>731.729</ele>
        <time>2022-07-07T03:47:04Z</time>
      </trkpt>
      <trkpt lat="20.302453" lon="-97.896573">
        <ele>737.246</ele>
        <time>2022-07-07T03:47:19Z</time>
      </trkpt>
      <trkpt lat="20.302435" lon="-97.896619">
        <ele>734.031</ele>
        <time>2022-07-07T03:47:32Z</time>
      </trkpt>
      <trkpt lat="20.302424" lon="-97.896695">
        <ele>735.458</ele>
        <time>2022-07-07T03:47:52Z</time>
      </trkpt>
      <trkpt lat="20.302379" lon="-97.896703">
        <ele>739.881</ele>
        <time>2022-07-07T03:48:09Z</time>
      </trkpt>
      <trkpt lat="20.30233" lon="-97.896694">
        <ele>746.666</ele>
        <time>2022-07-07T03:48:20Z</time>
      </trkpt>
      <trkpt lat="20.302287" lon="-97.896672">
        <ele>745.736</ele>
        <time>2022-07-07T03:48:28Z</time>
      </trkpt>
      <trkpt lat="20.302247" lon="-97.896644">
        <ele>747.377</ele>
        <time>2022-07-07T03:48:39Z</time>
      </trkpt>
      <trkpt lat="20.302205" lon="-97.896615">
        <ele>749.785</ele>
        <time>2022-07-07T03:48:49Z</time>
      </trkpt>
      <trkpt lat="20.30217" lon="-97.89665">
        <ele>751.589</ele>
        <time>2022-07-07T03:48:55Z</time>
      </trkpt>
      <trkpt lat="20.302128" lon="-97.896621">
        <ele>755.717</ele>
        <time>2022-07-07T03:49:05Z</time>
      </trkpt>
      <trkpt lat="20.302082" lon="-97.896607">
        <ele>757.209</ele>
        <time>2022-07-07T03:49:15Z</time>
      </trkpt>
      <trkpt lat="20.302035" lon="-97.896593">
        <ele>759.699</ele>
        <time>2022-07-07T03:49:22Z</time>
      </trkpt>
      <trkpt lat="20.301992" lon="-97.896609">
        <ele>758.588</ele>
        <time>2022-07-07T03:49:26Z</time>
      </trkpt>
      <trkpt lat="20.301972" lon="-97.896653">
        <ele>759.575</ele>
        <time>2022-07-07T03:49:34Z</time>
      </trkpt>
      <trkpt lat="20.301924" lon="-97.896656">
        <ele>759.620</ele>
        <time>2022-07-07T03:49:43Z</time>
      </trkpt>
      <trkpt lat="20.301876" lon="-97.896657">
        <ele>760.787</ele>
        <time>2022-07-07T03:49:51Z</time>
      </trkpt>
      <trkpt lat="20.301834" lon="-97.896636">
        <ele>763.920</ele>
        <time>2022-07-07T03:49:58Z</time>
      </trkpt>
      <trkpt lat="20.30179" lon="-97.896627">
        <ele>766.715</ele>
        <time>2022-07-07T03:50:08Z</time>
      </trkpt>
      <trkpt lat="20.301744" lon="-97.896612">
        <ele>770.115</ele>
        <time>2022-07-07T03:50:17Z</time>
      </trkpt>
      <trkpt lat="20.301703" lon="-97.896585">
        <ele>772.096</ele>
        <time>2022-07-07T03:50:27Z</time>
      </trkpt>
      <trkpt lat="20.301659" lon="-97.8966">
        <ele>771.032</ele>
        <time>2022-07-07T03:50:35Z</time>
      </trkpt>
      <trkpt lat="20.301613" lon="-97.896592">
        <ele>770.492</ele>
        <time>2022-07-07T03:50:55Z</time>
      </trkpt>
      <trkpt lat="20.301565" lon="-97.896587">
        <ele>770.111</ele>
        <time>2022-07-07T03:51:00Z</time>
      </trkpt>
      <trkpt lat="20.301519" lon="-97.896589">
        <ele>771.909</ele>
        <time>2022-07-07T03:51:05Z</time>
      </trkpt>
      <trkpt lat="20.301475" lon="-97.896579">
        <ele>773.364</ele>
        <time>2022-07-07T03:51:11Z</time>
      </trkpt>
      <trkpt lat="20.301432" lon="-97.896553">
        <ele>777.283</ele>
        <time>2022-07-07T03:51:18Z</time>
      </trkpt>
      <trkpt lat="20.301385" lon="-97.89654">
        <ele>777.320</ele>
        <time>2022-07-07T03:51:26Z</time>
      </trkpt>
      <trkpt lat="20.301342" lon="-97.896521">
        <ele>780.095</ele>
        <time>2022-07-07T03:51:38Z</time>
      </trkpt>
      <trkpt lat="20.301297" lon="-97.896537">
        <ele>782.442</ele>
        <time>2022-07-07T03:51:43Z</time>
      </trkpt>
      <trkpt lat="20.301253" lon="-97.89655">
        <ele>780.735</ele>
        <time>2022-07-07T03:51:48Z</time>
      </trkpt>
      <trkpt lat="20.301212" lon="-97.896578">
        <ele>780.210</ele>
        <time>2022-07-07T03:51:56Z</time>
      </trkpt>
      <trkpt lat="20.301172" lon="-97.896607">
        <ele>781.110</ele>
        <time>2022-07-07T03:52:08Z</time>
      </trkpt>
      <trkpt lat="20.30114" lon="-97.896641">
        <ele>782.441</ele>
        <time>2022-07-07T03:52:16Z</time>
      </trkpt>
      <trkpt lat="20.301122" lon="-97.896687">
        <ele>784.527</ele>
        <time>2022-07-07T03:52:24Z</time>
      </trkpt>
      <trkpt lat="20.301095" lon="-97.896729">
        <ele>786.568</ele>
        <time>2022-07-07T03:52:33Z</time>
      </trkpt>
      <trkpt lat="20.301053" lon="-97.896754">
        <ele>787.714</ele>
        <time>2022-07-07T03:52:42Z</time>
      </trkpt>
      <trkpt lat="20.301096" lon="-97.896777">
        <ele>787.809</ele>
        <time>2022-07-07T03:53:07Z</time>
      </trkpt>
      <trkpt lat="20.301138" lon="-97.896804">
        <ele>790.513</ele>
        <time>2022-07-07T03:53:20Z</time>
      </trkpt>
      <trkpt lat="20.301175" lon="-97.896833">
        <ele>789.252</ele>
        <time>2022-07-07T03:53:29Z</time>
      </trkpt>
      <trkpt lat="20.301221" lon="-97.896851">
        <ele>788.619</ele>
        <time>2022-07-07T03:53:35Z</time>
      </trkpt>
      <trkpt lat="20.30126" lon="-97.896877">
        <ele>787.724</ele>
        <time>2022-07-07T03:53:42Z</time>
      </trkpt>
      <trkpt lat="20.301307" lon="-97.896884">
        <ele>790.981</ele>
        <time>2022-07-07T03:53:51Z</time>
      </trkpt>
      <trkpt lat="20.301342" lon="-97.896915">
        <ele>792.024</ele>
        <time>2022-07-07T03:54:01Z</time>
      </trkpt>
      <trkpt lat="20.301369" lon="-97.896959">
        <ele>797.119</ele>
        <time>2022-07-07T03:54:15Z</time>
      </trkpt>
      <trkpt lat="20.301343" lon="-97.897008">
        <ele>797.079</ele>
        <time>2022-07-07T03:54:20Z</time>
      </trkpt>
      <trkpt lat="20.301311" lon="-97.897043">
        <ele>798.090</ele>
        <time>2022-07-07T03:54:24Z</time>
      </trkpt>
      <trkpt lat="20.301319" lon="-97.897096">
        <ele>805.495</ele>
        <time>2022-07-07T03:54:49Z</time>
      </trkpt>
      <trkpt lat="20.301358" lon="-97.897125">
        <ele>810.549</ele>
        <time>2022-07-07T03:55:05Z</time>
      </trkpt>
      <trkpt lat="20.301371" lon="-97.897183">
        <ele>810.323</ele>
        <time>2022-07-07T03:55:13Z</time>
      </trkpt>
      <trkpt lat="20.301346" lon="-97.897227">
        <ele>807.509</ele>
        <time>2022-07-07T03:55:20Z</time>
      </trkpt>
      <trkpt lat="20.301355" lon="-97.897274">
        <ele>806.920</ele>
        <time>2022-07-07T03:55:30Z</time>
      </trkpt>
      <trkpt lat="20.301339" lon="-97.897331">
        <ele>806.349</ele>
        <time>2022-07-07T03:55:36Z</time>
      </trkpt>
      <trkpt lat="20.301303" lon="-97.89736">
        <ele>808.136</ele>
        <time>2022-07-07T03:55:48Z</time>
      </trkpt>
      <trkpt lat="20.301278" lon="-97.897427">
        <ele>809.831</ele>
        <time>2022-07-07T03:55:54Z</time>
      </trkpt>
      <trkpt lat="20.301278" lon="-97.897479">
        <ele>811.358</ele>
        <time>2022-07-07T03:56:02Z</time>
      </trkpt>
      <trkpt lat="20.301268" lon="-97.897533">
        <ele>812.771</ele>
        <time>2022-07-07T03:56:14Z</time>
      </trkpt>
      <trkpt lat="20.301265" lon="-97.897585">
        <ele>814.916</ele>
        <time>2022-07-07T03:56:23Z</time>
      </trkpt>
      <trkpt lat="20.301269" lon="-97.897645">
        <ele>821.646</ele>
        <time>2022-07-07T03:56:35Z</time>
      </trkpt>
      <trkpt lat="20.301251" lon="-97.89769">
        <ele>822.957</ele>
        <time>2022-07-07T03:56:39Z</time>
      </trkpt>
      <trkpt lat="20.301253" lon="-97.897738">
        <ele>820.011</ele>
        <time>2022-07-07T03:56:45Z</time>
      </trkpt>
      <trkpt lat="20.301251" lon="-97.89779">
        <ele>819.621</ele>
        <time>2022-07-07T03:56:55Z</time>
      </trkpt>
      <trkpt lat="20.301271" lon="-97.897838">
        <ele>815.103</ele>
        <time>2022-07-07T03:57:04Z</time>
      </trkpt>
      <trkpt lat="20.301301" lon="-97.89788">
        <ele>821.109</ele>
        <time>2022-07-07T03:57:12Z</time>
      </trkpt>
      <trkpt lat="20.301284" lon="-97.897927">
        <ele>817.622</ele>
        <time>2022-07-07T03:57:17Z</time>
      </trkpt>
      <trkpt lat="20.301292" lon="-97.897976">
        <ele>818.491</ele>
        <time>2022-07-07T03:57:26Z</time>
      </trkpt>
      <trkpt lat="20.301292" lon="-97.898029">
        <ele>819.738</ele>
        <time>2022-07-07T03:57:37Z</time>
      </trkpt>
      <trkpt lat="20.301321" lon="-97.898072">
        <ele>826.623</ele>
        <time>2022-07-07T03:57:44Z</time>
      </trkpt>
      <trkpt lat="20.301357" lon="-97.898101">
        <ele>824.420</ele>
        <time>2022-07-07T03:57:51Z</time>
      </trkpt>
      <trkpt lat="20.301384" lon="-97.898139">
        <ele>828.633</ele>
        <time>2022-07-07T03:58:02Z</time>
      </trkpt>
      <trkpt lat="20.301385" lon="-97.898191">
        <ele>827.148</ele>
        <time>2022-07-07T03:58:08Z</time>
      </trkpt>
      <trkpt lat="20.301403" lon="-97.898241">
        <ele>830.168</ele>
        <time>2022-07-07T03:58:14Z</time>
      </trkpt>
      <trkpt lat="20.301448" lon="-97.898293">
        <ele>835.579</ele>
        <time>2022-07-07T03:58:22Z</time>
      </trkpt>
      <trkpt lat="20.301437" lon="-97.89834">
        <ele>836.067</ele>
        <time>2022-07-07T03:58:28Z</time>
      </trkpt>
      <trkpt lat="20.301412" lon="-97.898383">
        <ele>836.581</ele>
        <time>2022-07-07T03:58:35Z</time>
      </trkpt>
      <trkpt lat="20.301443" lon="-97.898419">
        <ele>834.119</ele>
        <time>2022-07-07T03:58:43Z</time>
      </trkpt>
      <trkpt lat="20.301489" lon="-97.898428">
        <ele>836.209</ele>
        <time>2022-07-07T03:58:48Z</time>
      </trkpt>
      <trkpt lat="20.301521" lon="-97.898484">
        <ele>838.837</ele>
        <time>2022-07-07T03:58:59Z</time>
      </trkpt>
      <trkpt lat="20.301517" lon="-97.898533">
        <ele>840.496</ele>
        <time>2022-07-07T03:59:04Z</time>
      </trkpt>
      <trkpt lat="20.301527" lon="-97.898585">
        <ele>844.963</ele>
        <time>2022-07-07T03:59:19Z</time>
      </trkpt>
      <trkpt lat="20.301484" lon="-97.898601">
        <ele>844.348</ele>
        <time>2022-07-07T03:59:32Z</time>
      </trkpt>
      <trkpt lat="20.301486" lon="-97.898654">
        <ele>842.625</ele>
        <time>2022-07-07T03:59:56Z</time>
      </trkpt>
      <trkpt lat="20.301481" lon="-97.898706">
        <ele>845.098</ele>
        <time>2022-07-07T04:00:04Z</time>
      </trkpt>
      <trkpt lat="20.301473" lon="-97.898757">
        <ele>844.853</ele>
        <time>2022-07-07T04:00:12Z</time>
      </trkpt>
      <trkpt lat="20.301493" lon="-97.898809">
        <ele>847.623</ele>
        <time>2022-07-07T04:00:19Z</time>
      </trkpt>
      <trkpt lat="20.301522" lon="-97.898851">
        <ele>844.324</ele>
        <time>2022-07-07T04:00:36Z</time>
      </trkpt>
      <trkpt lat="20.301549" lon="-97.898889">
        <ele>844.274</ele>
        <time>2022-07-07T04:00:46Z</time>
      </trkpt>
      <trkpt lat="20.301522" lon="-97.898937">
        <ele>845.956</ele>
        <time>2022-07-07T04:00:52Z</time>
      </trkpt>
      <trkpt lat="20.301518" lon="-97.898986">
        <ele>849.521</ele>
        <time>2022-07-07T04:00:59Z</time>
      </trkpt>
      <trkpt lat="20.301502" lon="-97.899035">
        <ele>848.109</ele>
        <time>2022-07-07T04:01:04Z</time>
      </trkpt>
      <trkpt lat="20.301506" lon="-97.899085">
        <ele>851.358</ele>
        <time>2022-07-07T04:01:10Z</time>
      </trkpt>
      <trkpt lat="20.30152" lon="-97.899131">
        <ele>853.717</ele>
        <time>2022-07-07T04:01:16Z</time>
      </trkpt>
      <trkpt lat="20.301552" lon="-97.899167">
        <ele>853.614</ele>
        <time>2022-07-07T04:01:22Z</time>
      </trkpt>
      <trkpt lat="20.301569" lon="-97.899216">
        <ele>856.159</ele>
        <time>2022-07-07T04:01:29Z</time>
      </trkpt>
      <trkpt lat="20.301555" lon="-97.899266">
        <ele>854.946</ele>
        <time>2022-07-07T04:01:38Z</time>
      </trkpt>
      <trkpt lat="20.301594" lon="-97.899291">
        <ele>854.879</ele>
        <time>2022-07-07T04:01:51Z</time>
      </trkpt>
      <trkpt lat="20.301581" lon="-97.899343">
        <ele>858.654</ele>
        <time>2022-07-07T04:02:06Z</time>
      </trkpt>
      <trkpt lat="20.301573" lon="-97.899393">
        <ele>858.624</ele>
        <time>2022-07-07T04:02:11Z</time>
      </trkpt>
      <trkpt lat="20.301565" lon="-97.899443">
        <ele>859.525</ele>
        <time>2022-07-07T04:02:18Z</time>
      </trkpt>
      <trkpt lat="20.301558" lon="-97.899498">
        <ele>862.288</ele>
        <time>2022-07-07T04:02:22Z</time>
      </trkpt>
      <trkpt lat="20.301534" lon="-97.899542">
        <ele>864.124</ele>
        <time>2022-07-07T04:02:26Z</time>
      </trkpt>
      <trkpt lat="20.301524" lon="-97.899589">
        <ele>864.126</ele>
        <time>2022-07-07T04:02:34Z</time>
      </trkpt>
      <trkpt lat="20.301522" lon="-97.899642">
        <ele>868.109</ele>
        <time>2022-07-07T04:02:41Z</time>
      </trkpt>
      <trkpt lat="20.301505" lon="-97.899687">
        <ele>867.819</ele>
        <time>2022-07-07T04:02:47Z</time>
      </trkpt>
      <trkpt lat="20.301518" lon="-97.899735">
        <ele>870.228</ele>
        <time>2022-07-07T04:02:53Z</time>
      </trkpt>
      <trkpt lat="20.301538" lon="-97.899781">
        <ele>870.145</ele>
        <time>2022-07-07T04:02:59Z</time>
      </trkpt>
      <trkpt lat="20.301573" lon="-97.899823">
        <ele>866.950</ele>
        <time>2022-07-07T04:03:05Z</time>
      </trkpt>
      <trkpt lat="20.301581" lon="-97.899878">
        <ele>867.557</ele>
        <time>2022-07-07T04:03:12Z</time>
      </trkpt>
      <trkpt lat="20.301583" lon="-97.899931">
        <ele>870.910</ele>
        <time>2022-07-07T04:03:18Z</time>
      </trkpt>
      <trkpt lat="20.301553" lon="-97.89999">
        <ele>872.065</ele>
        <time>2022-07-07T04:03:22Z</time>
      </trkpt>
      <trkpt lat="20.301519" lon="-97.900038">
        <ele>872.055</ele>
        <time>2022-07-07T04:03:24Z</time>
      </trkpt>
      <trkpt lat="20.301516" lon="-97.90009">
        <ele>873.096</ele>
        <time>2022-07-07T04:03:41Z</time>
      </trkpt>
      <trkpt lat="20.301503" lon="-97.900138">
        <ele>871.882</ele>
        <time>2022-07-07T04:03:49Z</time>
      </trkpt>
      <trkpt lat="20.301482" lon="-97.900186">
        <ele>870.543</ele>
        <time>2022-07-07T04:03:57Z</time>
      </trkpt>
      <trkpt lat="20.301478" lon="-97.900241">
        <ele>871.417</ele>
        <time>2022-07-07T04:04:04Z</time>
      </trkpt>
      <trkpt lat="20.30148" lon="-97.900299">
        <ele>872.709</ele>
        <time>2022-07-07T04:04:11Z</time>
      </trkpt>
      <trkpt lat="20.30149" lon="-97.900351">
        <ele>871.779</ele>
        <time>2022-07-07T04:04:18Z</time>
      </trkpt>
      <trkpt lat="20.301487" lon="-97.9004">
        <ele>874.268</ele>
        <time>2022-07-07T04:04:24Z</time>
      </trkpt>
      <trkpt lat="20.301499" lon="-97.90045">
        <ele>874.255</ele>
        <time>2022-07-07T04:04:32Z</time>
      </trkpt>
      <trkpt lat="20.301546" lon="-97.900464">
        <ele>874.830</ele>
        <time>2022-07-07T04:04:45Z</time>
      </trkpt>
      <trkpt lat="20.301591" lon="-97.900486">
        <ele>878.067</ele>
        <time>2022-07-07T04:04:54Z</time>
      </trkpt>
      <trkpt lat="20.301634" lon="-97.900505">
        <ele>878.460</ele>
        <time>2022-07-07T04:05:07Z</time>
      </trkpt>
      <trkpt lat="20.301672" lon="-97.900539">
        <ele>884.865</ele>
        <time>2022-07-07T04:05:29Z</time>
      </trkpt>
      <trkpt lat="20.30168" lon="-97.900592">
        <ele>885.335</ele>
        <time>2022-07-07T04:05:37Z</time>
      </trkpt>
      <trkpt lat="20.301686" lon="-97.900642">
        <ele>888.256</ele>
        <time>2022-07-07T04:05:50Z</time>
      </trkpt>
      <trkpt lat="20.301661" lon="-97.900683">
        <ele>889.745</ele>
        <time>2022-07-07T04:05:57Z</time>
      </trkpt>
      <trkpt lat="20.301645" lon="-97.900728">
        <ele>891.447</ele>
        <time>2022-07-07T04:06:03Z</time>
      </trkpt>
      <trkpt lat="20.30161" lon="-97.900759">
        <ele>893.611</ele>
        <time>2022-07-07T04:06:10Z</time>
      </trkpt>
      <trkpt lat="20.301612" lon="-97.900813">
        <ele>892.909</ele>
        <time>2022-07-07T04:06:16Z</time>
      </trkpt>
      <trkpt lat="20.301621" lon="-97.900863">
        <ele>895.865</ele>
        <time>2022-07-07T04:06:21Z</time>
      </trkpt>
      <trkpt lat="20.301618" lon="-97.90092">
        <ele>897.664</ele>
        <time>2022-07-07T04:06:33Z</time>
      </trkpt>
      <trkpt lat="20.301635" lon="-97.900968">
        <ele>899.271</ele>
        <time>2022-07-07T04:06:37Z</time>
      </trkpt>
      <trkpt lat="20.301668" lon="-97.901007">
        <ele>902.976</ele>
        <time>2022-07-07T04:06:43Z</time>
      </trkpt>
      <trkpt lat="20.301662" lon="-97.901055">
        <ele>902.843</ele>
        <time>2022-07-07T04:06:51Z</time>
      </trkpt>
      <trkpt lat="20.301667" lon="-97.901105">
        <ele>906.116</ele>
        <time>2022-07-07T04:07:00Z</time>
      </trkpt>
      <trkpt lat="20.301678" lon="-97.901154">
        <ele>903.511</ele>
        <time>2022-07-07T04:07:09Z</time>
      </trkpt>
      <trkpt lat="20.301688" lon="-97.901205">
        <ele>902.611</ele>
        <time>2022-07-07T04:07:18Z</time>
      </trkpt>
      <trkpt lat="20.301671" lon="-97.901255">
        <ele>903.262</ele>
        <time>2022-07-07T04:07:29Z</time>
      </trkpt>
      <trkpt lat="20.301661" lon="-97.901302">
        <ele>904.426</ele>
        <time>2022-07-07T04:07:40Z</time>
      </trkpt>
      <trkpt lat="20.301621" lon="-97.901329">
        <ele>909.847</ele>
        <time>2022-07-07T04:07:51Z</time>
      </trkpt>
      <trkpt lat="20.301587" lon="-97.901367">
        <ele>913.611</ele>
        <time>2022-07-07T04:08:00Z</time>
      </trkpt>
      <trkpt lat="20.301556" lon="-97.901406">
        <ele>913.709</ele>
        <time>2022-07-07T04:08:14Z</time>
      </trkpt>
      <trkpt lat="20.301523" lon="-97.901439">
        <ele>912.373</ele>
        <time>2022-07-07T04:08:23Z</time>
      </trkpt>
      <trkpt lat="20.301479" lon="-97.901421">
        <ele>917.572</ele>
        <time>2022-07-07T04:08:35Z</time>
      </trkpt>
      <trkpt lat="20.301497" lon="-97.901469">
        <ele>919.259</ele>
        <time>2022-07-07T04:08:51Z</time>
      </trkpt>
      <trkpt lat="20.301544" lon="-97.901483">
        <ele>918.044</ele>
        <time>2022-07-07T04:08:58Z</time>
      </trkpt>
      <trkpt lat="20.301554" lon="-97.901532">
        <ele>918.911</ele>
        <time>2022-07-07T04:09:05Z</time>
      </trkpt>
      <trkpt lat="20.301578" lon="-97.901573">
        <ele>919.984</ele>
        <time>2022-07-07T04:09:10Z</time>
      </trkpt>
      <trkpt lat="20.301615" lon="-97.901604">
        <ele>921.659</ele>
        <time>2022-07-07T04:09:16Z</time>
      </trkpt>
      <trkpt lat="20.301644" lon="-97.901642">
        <ele>920.189</ele>
        <time>2022-07-07T04:09:23Z</time>
      </trkpt>
      <trkpt lat="20.301654" lon="-97.901693">
        <ele>924.640</ele>
        <time>2022-07-07T04:09:30Z</time>
      </trkpt>
      <trkpt lat="20.301662" lon="-97.901746">
        <ele>926.321</ele>
        <time>2022-07-07T04:09:37Z</time>
      </trkpt>
      <trkpt lat="20.301681" lon="-97.90179">
        <ele>925.341</ele>
        <time>2022-07-07T04:09:45Z</time>
      </trkpt>
      <trkpt lat="20.301695" lon="-97.901841">
        <ele>926.505</ele>
        <time>2022-07-07T04:09:52Z</time>
      </trkpt>
      <trkpt lat="20.301692" lon="-97.901893">
        <ele>928.309</ele>
        <time>2022-07-07T04:09:58Z</time>
      </trkpt>
      <trkpt lat="20.301679" lon="-97.901942">
        <ele>926.233</ele>
        <time>2022-07-07T04:10:05Z</time>
      </trkpt>
      <trkpt lat="20.301667" lon="-97.901988">
        <ele>927.812</ele>
        <time>2022-07-07T04:10:13Z</time>
      </trkpt>
      <trkpt lat="20.301623" lon="-97.902009">
        <ele>929.869</ele>
        <time>2022-07-07T04:10:23Z</time>
      </trkpt>
      <trkpt lat="20.301578" lon="-97.902035">
        <ele>931.254</ele>
        <time>2022-07-07T04:10:30Z</time>
      </trkpt>
      <trkpt lat="20.301532" lon="-97.90206">
        <ele>936.121</ele>
        <time>2022-07-07T04:10:36Z</time>
      </trkpt>
      <trkpt lat="20.301498" lon="-97.902098">
        <ele>935.154</ele>
        <time>2022-07-07T04:10:43Z</time>
      </trkpt>
      <trkpt lat="20.301457" lon="-97.902129">
        <ele>937.479</ele>
        <time>2022-07-07T04:10:50Z</time>
      </trkpt>
      <trkpt lat="20.301424" lon="-97.902171">
        <ele>937.669</ele>
        <time>2022-07-07T04:10:58Z</time>
      </trkpt>
      <trkpt lat="20.301401" lon="-97.902213">
        <ele>936.450</ele>
        <time>2022-07-07T04:11:04Z</time>
      </trkpt>
      <trkpt lat="20.301383" lon="-97.902259">
        <ele>933.789</ele>
        <time>2022-07-07T04:11:10Z</time>
      </trkpt>
      <trkpt lat="20.301358" lon="-97.902306">
        <ele>933.406</ele>
        <time>2022-07-07T04:11:16Z</time>
      </trkpt>
      <trkpt lat="20.301343" lon="-97.902357">
        <ele>931.426</ele>
        <time>2022-07-07T04:11:22Z</time>
      </trkpt>
      <trkpt lat="20.301344" lon="-97.902413">
        <ele>933.509</ele>
        <time>2022-07-07T04:11:27Z</time>
      </trkpt>
      <trkpt lat="20.30133" lon="-97.902463">
        <ele>935.359</ele>
        <time>2022-07-07T04:11:31Z</time>
      </trkpt>
      <trkpt lat="20.301317" lon="-97.902515">
        <ele>934.868</ele>
        <time>2022-07-07T04:11:36Z</time>
      </trkpt>
      <trkpt lat="20.301332" lon="-97.902566">
        <ele>936.215</ele>
        <time>2022-07-07T04:11:42Z</time>
      </trkpt>
      <trkpt lat="20.301308" lon="-97.902618">
        <ele>938.210</ele>
        <time>2022-07-07T04:11:47Z</time>
      </trkpt>
      <trkpt lat="20.301299" lon="-97.902669">
        <ele>938.247</ele>
        <time>2022-07-07T04:11:52Z</time>
      </trkpt>
      <trkpt lat="20.301295" lon="-97.902723">
        <ele>941.010</ele>
        <time>2022-07-07T04:11:57Z</time>
      </trkpt>
      <trkpt lat="20.301267" lon="-97.902769">
        <ele>945.455</ele>
        <time>2022-07-07T04:12:00Z</time>
      </trkpt>
      <trkpt lat="20.301228" lon="-97.90282">
        <ele>948.095</ele>
        <time>2022-07-07T04:12:03Z</time>
      </trkpt>
      <trkpt lat="20.3012" lon="-97.902866">
        <ele>949.426</ele>
        <time>2022-07-07T04:12:06Z</time>
      </trkpt>
      <trkpt lat="20.301173" lon="-97.902915">
        <ele>950.125</ele>
        <time>2022-07-07T04:12:10Z</time>
      </trkpt>
      <trkpt lat="20.301149" lon="-97.902962">
        <ele>952.226</ele>
        <time>2022-07-07T04:12:15Z</time>
      </trkpt>
      <trkpt lat="20.301132" lon="-97.903009">
        <ele>953.008</ele>
        <time>2022-07-07T04:12:20Z</time>
      </trkpt>
      <trkpt lat="20.301123" lon="-97.903061">
        <ele>952.709</ele>
        <time>2022-07-07T04:12:26Z</time>
      </trkpt>
      <trkpt lat="20.301107" lon="-97.903115">
        <ele>952.143</ele>
        <time>2022-07-07T04:12:52Z</time>
      </trkpt>
      <trkpt lat="20.301108" lon="-97.903166">
        <ele>952.342</ele>
        <time>2022-07-07T04:12:58Z</time>
      </trkpt>
      <trkpt lat="20.301101" lon="-97.903219">
        <ele>950.479</ele>
        <time>2022-07-07T04:13:05Z</time>
      </trkpt>
      <trkpt lat="20.301067" lon="-97.903262">
        <ele>950.064</ele>
        <time>2022-07-07T04:13:13Z</time>
      </trkpt>
      <trkpt lat="20.301043" lon="-97.903312">
        <ele>949.691</ele>
        <time>2022-07-07T04:13:20Z</time>
      </trkpt>
      <trkpt lat="20.301051" lon="-97.903366">
        <ele>953.124</ele>
        <time>2022-07-07T04:13:25Z</time>
      </trkpt>
      <trkpt lat="20.301028" lon="-97.903413">
        <ele>953.019</ele>
        <time>2022-07-07T04:13:30Z</time>
      </trkpt>
      <trkpt lat="20.30099" lon="-97.903449">
        <ele>958.359</ele>
        <time>2022-07-07T04:13:37Z</time>
      </trkpt>
      <trkpt lat="20.300973" lon="-97.9035">
        <ele>957.690</ele>
        <time>2022-07-07T04:13:43Z</time>
      </trkpt>
      <trkpt lat="20.300976" lon="-97.903549">
        <ele>957.686</ele>
        <time>2022-07-07T04:13:48Z</time>
      </trkpt>
      <trkpt lat="20.300985" lon="-97.903602">
        <ele>958.960</ele>
        <time>2022-07-07T04:13:53Z</time>
      </trkpt>
      <trkpt lat="20.300973" lon="-97.903658">
        <ele>962.226</ele>
        <time>2022-07-07T04:13:58Z</time>
      </trkpt>
      <trkpt lat="20.300942" lon="-97.903697">
        <ele>958.709</ele>
        <time>2022-07-07T04:14:03Z</time>
      </trkpt>
      <trkpt lat="20.300906" lon="-97.903736">
        <ele>957.939</ele>
        <time>2022-07-07T04:14:08Z</time>
      </trkpt>
      <trkpt lat="20.300885" lon="-97.903779">
        <ele>958.538</ele>
        <time>2022-07-07T04:14:12Z</time>
      </trkpt>
      <trkpt lat="20.300862" lon="-97.903828">
        <ele>958.875</ele>
        <time>2022-07-07T04:14:18Z</time>
      </trkpt>
      <trkpt lat="20.300842" lon="-97.903873">
        <ele>958.860</ele>
        <time>2022-07-07T04:14:23Z</time>
      </trkpt>
      <trkpt lat="20.300821" lon="-97.903919">
        <ele>958.397</ele>
        <time>2022-07-07T04:14:28Z</time>
      </trkpt>
      <trkpt lat="20.300803" lon="-97.903972">
        <ele>960.290</ele>
        <time>2022-07-07T04:14:33Z</time>
      </trkpt>
      <trkpt lat="20.300811" lon="-97.904019">
        <ele>962.685</ele>
        <time>2022-07-07T04:14:37Z</time>
      </trkpt>
      <trkpt lat="20.30079" lon="-97.904063">
        <ele>963.585</ele>
        <time>2022-07-07T04:14:41Z</time>
      </trkpt>
      <trkpt lat="20.300792" lon="-97.904115">
        <ele>963.886</ele>
        <time>2022-07-07T04:14:45Z</time>
      </trkpt>
      <trkpt lat="20.300796" lon="-97.90417">
        <ele>966.071</ele>
        <time>2022-07-07T04:14:49Z</time>
      </trkpt>
      <trkpt lat="20.300778" lon="-97.904218">
        <ele>965.041</ele>
        <time>2022-07-07T04:14:53Z</time>
      </trkpt>
      <trkpt lat="20.300761" lon="-97.904265">
        <ele>964.415</ele>
        <time>2022-07-07T04:14:57Z</time>
      </trkpt>
      <trkpt lat="20.300743" lon="-97.904317">
        <ele>966.309</ele>
        <time>2022-07-07T04:15:02Z</time>
      </trkpt>
      <trkpt lat="20.300719" lon="-97.904359">
        <ele>966.398</ele>
        <time>2022-07-07T04:15:06Z</time>
      </trkpt>
      <trkpt lat="20.300698" lon="-97.904402">
        <ele>966.757</ele>
        <time>2022-07-07T04:15:10Z</time>
      </trkpt>
      <trkpt lat="20.30068" lon="-97.904448">
        <ele>967.394</ele>
        <time>2022-07-07T04:15:14Z</time>
      </trkpt>
      <trkpt lat="20.300687" lon="-97.904499">
        <ele>969.419</ele>
        <time>2022-07-07T04:15:19Z</time>
      </trkpt>
      <trkpt lat="20.300687" lon="-97.904547">
        <ele>970.876</ele>
        <time>2022-07-07T04:15:23Z</time>
      </trkpt>
      <trkpt lat="20.300661" lon="-97.904596">
        <ele>969.719</ele>
        <time>2022-07-07T04:15:27Z</time>
      </trkpt>
      <trkpt lat="20.300648" lon="-97.904645">
        <ele>967.694</ele>
        <time>2022-07-07T04:15:31Z</time>
      </trkpt>
      <trkpt lat="20.300655" lon="-97.904695">
        <ele>966.564</ele>
        <time>2022-07-07T04:15:36Z</time>
      </trkpt>
      <trkpt lat="20.300642" lon="-97.904745">
        <ele>963.845</ele>
        <time>2022-07-07T04:15:40Z</time>
      </trkpt>
      <trkpt lat="20.300626" lon="-97.904801">
        <ele>964.316</ele>
        <time>2022-07-07T04:15:44Z</time>
      </trkpt>
      <trkpt lat="20.300619" lon="-97.904859">
        <ele>963.976</ele>
        <time>2022-07-07T04:15:48Z</time>
      </trkpt>
      <trkpt lat="20.300599" lon="-97.904918">
        <ele>965.213</ele>
        <time>2022-07-07T04:15:52Z</time>
      </trkpt>
      <trkpt lat="20.300568" lon="-97.90497">
        <ele>965.609</ele>
        <time>2022-07-07T04:15:56Z</time>
      </trkpt>
      <trkpt lat="20.300562" lon="-97.905019">
        <ele>968.412</ele>
        <time>2022-07-07T04:15:59Z</time>
      </trkpt>
      <trkpt lat="20.300566" lon="-97.905083">
        <ele>969.881</ele>
        <time>2022-07-07T04:16:03Z</time>
      </trkpt>
      <trkpt lat="20.300579" lon="-97.905139">
        <ele>968.928</ele>
        <time>2022-07-07T04:16:08Z</time>
      </trkpt>
      <trkpt lat="20.300575" lon="-97.905187">
        <ele>968.973</ele>
        <time>2022-07-07T04:16:12Z</time>
      </trkpt>
      <trkpt lat="20.300559" lon="-97.905244">
        <ele>969.840</ele>
        <time>2022-07-07T04:16:16Z</time>
      </trkpt>
      <trkpt lat="20.300551" lon="-97.9053">
        <ele>970.853</ele>
        <time>2022-07-07T04:16:20Z</time>
      </trkpt>
      <trkpt lat="20.300546" lon="-97.905364">
        <ele>971.988</ele>
        <time>2022-07-07T04:16:24Z</time>
      </trkpt>
      <trkpt lat="20.300529" lon="-97.905414">
        <ele>970.998</ele>
        <time>2022-07-07T04:16:27Z</time>
      </trkpt>
      <trkpt lat="20.300548" lon="-97.905471">
        <ele>969.229</ele>
        <time>2022-07-07T04:16:32Z</time>
      </trkpt>
      <trkpt lat="20.300578" lon="-97.905507">
        <ele>968.942</ele>
        <time>2022-07-07T04:16:34Z</time>
      </trkpt>
      <trkpt lat="20.300584" lon="-97.905565">
        <ele>968.622</ele>
        <time>2022-07-07T04:16:37Z</time>
      </trkpt>
      <trkpt lat="20.300577" lon="-97.90562">
        <ele>969.414</ele>
        <time>2022-07-07T04:16:40Z</time>
      </trkpt>
      <trkpt lat="20.300601" lon="-97.905667">
        <ele>966.609</ele>
        <time>2022-07-07T04:16:46Z</time>
      </trkpt>
      <trkpt lat="20.300593" lon="-97.905722">
        <ele>963.885</ele>
        <time>2022-07-07T04:16:51Z</time>
      </trkpt>
      <trkpt lat="20.300588" lon="-97.905773">
        <ele>961.514</ele>
        <time>2022-07-07T04:16:56Z</time>
      </trkpt>
      <trkpt lat="20.300594" lon="-97.905825">
        <ele>960.421</ele>
        <time>2022-07-07T04:17:02Z</time>
      </trkpt>
      <trkpt lat="20.300607" lon="-97.905875">
        <ele>961.246</ele>
        <time>2022-07-07T04:17:07Z</time>
      </trkpt>
      <trkpt lat="20.300614" lon="-97.905929">
        <ele>962.523</ele>
        <time>2022-07-07T04:17:11Z</time>
      </trkpt>
      <trkpt lat="20.300617" lon="-97.905982">
        <ele>961.836</ele>
        <time>2022-07-07T04:17:15Z</time>
      </trkpt>
      <trkpt lat="20.300598" lon="-97.906034">
        <ele>960.821</ele>
        <time>2022-07-07T04:17:19Z</time>
      </trkpt>
      <trkpt lat="20.300585" lon="-97.906084">
        <ele>961.651</ele>
        <time>2022-07-07T04:17:23Z</time>
      </trkpt>
      <trkpt lat="20.300571" lon="-97.906132">
        <ele>959.652</ele>
        <time>2022-07-07T04:17:27Z</time>
      </trkpt>
      <trkpt lat="20.30059" lon="-97.90618">
        <ele>956.332</ele>
        <time>2022-07-07T04:17:33Z</time>
      </trkpt>
      <trkpt lat="20.300614" lon="-97.906229">
        <ele>956.792</ele>
        <time>2022-07-07T04:17:37Z</time>
      </trkpt>
      <trkpt lat="20.300622" lon="-97.906283">
        <ele>955.011</ele>
        <time>2022-07-07T04:17:41Z</time>
      </trkpt>
      <trkpt lat="20.300635" lon="-97.906332">
        <ele>953.009</ele>
        <time>2022-07-07T04:17:45Z</time>
      </trkpt>
      <trkpt lat="20.300646" lon="-97.906381">
        <ele>954.094</ele>
        <time>2022-07-07T04:17:49Z</time>
      </trkpt>
      <trkpt lat="20.300647" lon="-97.90643">
        <ele>955.033</ele>
        <time>2022-07-07T04:17:53Z</time>
      </trkpt>
      <trkpt lat="20.300649" lon="-97.906482">
        <ele>956.420</ele>
        <time>2022-07-07T04:17:57Z</time>
      </trkpt>
      <trkpt lat="20.300657" lon="-97.906536">
        <ele>956.385</ele>
        <time>2022-07-07T04:18:01Z</time>
      </trkpt>
      <trkpt lat="20.30065" lon="-97.906586">
        <ele>955.462</ele>
        <time>2022-07-07T04:18:05Z</time>
      </trkpt>
      <trkpt lat="20.300652" lon="-97.906646">
        <ele>955.475</ele>
        <time>2022-07-07T04:18:10Z</time>
      </trkpt>
      <trkpt lat="20.300657" lon="-97.906697">
        <ele>953.740</ele>
        <time>2022-07-07T04:18:14Z</time>
      </trkpt>
      <trkpt lat="20.300665" lon="-97.906749">
        <ele>955.750</ele>
        <time>2022-07-07T04:18:18Z</time>
      </trkpt>
      <trkpt lat="20.300665" lon="-97.906801">
        <ele>951.391</ele>
        <time>2022-07-07T04:18:22Z</time>
      </trkpt>
      <trkpt lat="20.300668" lon="-97.906855">
        <ele>946.989</ele>
        <time>2022-07-07T04:18:27Z</time>
      </trkpt>
      <trkpt lat="20.30066" lon="-97.906908">
        <ele>948.606</ele>
        <time>2022-07-07T04:18:32Z</time>
      </trkpt>
      <trkpt lat="20.300667" lon="-97.906962">
        <ele>948.326</ele>
        <time>2022-07-07T04:18:37Z</time>
      </trkpt>
      <trkpt lat="20.300669" lon="-97.907018">
        <ele>948.009</ele>
        <time>2022-07-07T04:18:42Z</time>
      </trkpt>
      <trkpt lat="20.300668" lon="-97.907067">
        <ele>947.269</ele>
        <time>2022-07-07T04:18:46Z</time>
      </trkpt>
      <trkpt lat="20.300661" lon="-97.907125">
        <ele>949.368</ele>
        <time>2022-07-07T04:18:51Z</time>
      </trkpt>
      <trkpt lat="20.300666" lon="-97.907173">
        <ele>947.575</ele>
        <time>2022-07-07T04:18:55Z</time>
      </trkpt>
      <trkpt lat="20.300667" lon="-97.907222">
        <ele>943.870</ele>
        <time>2022-07-07T04:19:00Z</time>
      </trkpt>
      <trkpt lat="20.300676" lon="-97.907274">
        <ele>945.567</ele>
        <time>2022-07-07T04:19:05Z</time>
      </trkpt>
      <trkpt lat="20.300677" lon="-97.90733">
        <ele>945.160</ele>
        <time>2022-07-07T04:19:09Z</time>
      </trkpt>
      <trkpt lat="20.300683" lon="-97.907385">
        <ele>943.295</ele>
        <time>2022-07-07T04:19:14Z</time>
      </trkpt>
      <trkpt lat="20.30069" lon="-97.907435">
        <ele>943.535</ele>
        <time>2022-07-07T04:19:19Z</time>
      </trkpt>
      <trkpt lat="20.300693" lon="-97.90749">
        <ele>942.546</ele>
        <time>2022-07-07T04:19:25Z</time>
      </trkpt>
      <trkpt lat="20.300717" lon="-97.907539">
        <ele>941.555</ele>
        <time>2022-07-07T04:19:30Z</time>
      </trkpt>
      <trkpt lat="20.300747" lon="-97.907577">
        <ele>941.307</ele>
        <time>2022-07-07T04:19:34Z</time>
      </trkpt>
      <trkpt lat="20.300782" lon="-97.907617">
        <ele>938.917</ele>
        <time>2022-07-07T04:19:38Z</time>
      </trkpt>
      <trkpt lat="20.300816" lon="-97.907663">
        <ele>939.609</ele>
        <time>2022-07-07T04:19:43Z</time>
      </trkpt>
      <trkpt lat="20.300855" lon="-97.907711">
        <ele>940.146</ele>
        <time>2022-07-07T04:19:47Z</time>
      </trkpt>
      <trkpt lat="20.300889" lon="-97.907759">
        <ele>941.195</ele>
        <time>2022-07-07T04:19:51Z</time>
      </trkpt>
      <trkpt lat="20.30093" lon="-97.907787">
        <ele>940.922</ele>
        <time>2022-07-07T04:19:55Z</time>
      </trkpt>
      <trkpt lat="20.300979" lon="-97.907825">
        <ele>943.247</ele>
        <time>2022-07-07T04:19:59Z</time>
      </trkpt>
      <trkpt lat="20.301016" lon="-97.907856">
        <ele>942.614</ele>
        <time>2022-07-07T04:20:02Z</time>
      </trkpt>
      <trkpt lat="20.301056" lon="-97.907894">
        <ele>942.327</ele>
        <time>2022-07-07T04:20:06Z</time>
      </trkpt>
      <trkpt lat="20.301095" lon="-97.907925">
        <ele>943.452</ele>
        <time>2022-07-07T04:20:10Z</time>
      </trkpt>
      <trkpt lat="20.30113" lon="-97.907955">
        <ele>943.752</ele>
        <time>2022-07-07T04:20:14Z</time>
      </trkpt>
      <trkpt lat="20.301168" lon="-97.90798">
        <ele>942.573</ele>
        <time>2022-07-07T04:20:18Z</time>
      </trkpt>
      <trkpt lat="20.301208" lon="-97.908014">
        <ele>945.085</ele>
        <time>2022-07-07T04:20:23Z</time>
      </trkpt>
      <trkpt lat="20.301245" lon="-97.908052">
        <ele>945.789</ele>
        <time>2022-07-07T04:20:28Z</time>
      </trkpt>
      <trkpt lat="20.301283" lon="-97.908085">
        <ele>946.617</ele>
        <time>2022-07-07T04:20:33Z</time>
      </trkpt>
      <trkpt lat="20.301317" lon="-97.908128">
        <ele>948.009</ele>
        <time>2022-07-07T04:20:38Z</time>
      </trkpt>
      <trkpt lat="20.301355" lon="-97.908156">
        <ele>948.069</ele>
        <time>2022-07-07T04:20:42Z</time>
      </trkpt>
      <trkpt lat="20.301391" lon="-97.908188">
        <ele>947.558</ele>
        <time>2022-07-07T04:20:46Z</time>
      </trkpt>
      <trkpt lat="20.301435" lon="-97.908205">
        <ele>945.115</ele>
        <time>2022-07-07T04:20:50Z</time>
      </trkpt>
      <trkpt lat="20.301473" lon="-97.908235">
        <ele>943.730</ele>
        <time>2022-07-07T04:20:56Z</time>
      </trkpt>
      <trkpt lat="20.301497" lon="-97.908291">
        <ele>948.457</ele>
        <time>2022-07-07T04:21:00Z</time>
      </trkpt>
      <trkpt lat="20.301543" lon="-97.908336">
        <ele>950.410</ele>
        <time>2022-07-07T04:21:04Z</time>
      </trkpt>
      <trkpt lat="20.30159" lon="-97.908371">
        <ele>950.115</ele>
        <time>2022-07-07T04:21:07Z</time>
      </trkpt>
      <trkpt lat="20.301633" lon="-97.908413">
        <ele>949.125</ele>
        <time>2022-07-07T04:21:10Z</time>
      </trkpt>
      <trkpt lat="20.301675" lon="-97.908452">
        <ele>950.036</ele>
        <time>2022-07-07T04:21:13Z</time>
      </trkpt>
      <trkpt lat="20.301723" lon="-97.908482">
        <ele>949.629</ele>
        <time>2022-07-07T04:21:16Z</time>
      </trkpt>
      <trkpt lat="20.301773" lon="-97.908513">
        <ele>951.100</ele>
        <time>2022-07-07T04:21:19Z</time>
      </trkpt>
      <trkpt lat="20.301813" lon="-97.908541">
        <ele>950.620</ele>
        <time>2022-07-07T04:21:22Z</time>
      </trkpt>
      <trkpt lat="20.301847" lon="-97.908582">
        <ele>952.209</ele>
        <time>2022-07-07T04:21:26Z</time>
      </trkpt>
      <trkpt lat="20.301887" lon="-97.908614">
        <ele>955.593</ele>
        <time>2022-07-07T04:21:31Z</time>
      </trkpt>
      <trkpt lat="20.301926" lon="-97.908651">
        <ele>957.812</ele>
        <time>2022-07-07T04:21:37Z</time>
      </trkpt>
      <trkpt lat="20.301955" lon="-97.908695">
        <ele>960.089</ele>
        <time>2022-07-07T04:21:44Z</time>
      </trkpt>
      <trkpt lat="20.301995" lon="-97.908729">
        <ele>960.884</ele>
        <time>2022-07-07T04:21:50Z</time>
      </trkpt>
      <trkpt lat="20.302031" lon="-97.90876">
        <ele>963.381</ele>
        <time>2022-07-07T04:21:55Z</time>
      </trkpt>
      <trkpt lat="20.302079" lon="-97.908796">
        <ele>970.924</ele>
        <time>2022-07-07T04:21:59Z</time>
      </trkpt>
      <trkpt lat="20.302128" lon="-97.908824">
        <ele>971.059</ele>
        <time>2022-07-07T04:22:03Z</time>
      </trkpt>
      <trkpt lat="20.302173" lon="-97.908834">
        <ele>971.799</ele>
        <time>2022-07-07T04:22:07Z</time>
      </trkpt>
      <trkpt lat="20.302232" lon="-97.908842">
        <ele>974.130</ele>
        <time>2022-07-07T04:22:11Z</time>
      </trkpt>
      <trkpt lat="20.30229" lon="-97.908848">
        <ele>968.895</ele>
        <time>2022-07-07T04:22:15Z</time>
      </trkpt>
      <trkpt lat="20.302341" lon="-97.908845">
        <ele>968.549</ele>
        <time>2022-07-07T04:22:19Z</time>
      </trkpt>
      <trkpt lat="20.302382" lon="-97.908866">
        <ele>969.923</ele>
        <time>2022-07-07T04:22:23Z</time>
      </trkpt>
      <trkpt lat="20.302417" lon="-97.908913">
        <ele>970.309</ele>
        <time>2022-07-07T04:22:28Z</time>
      </trkpt>
      <trkpt lat="20.302441" lon="-97.908962">
        <ele>973.130</ele>
        <time>2022-07-07T04:22:33Z</time>
      </trkpt>
      <trkpt lat="20.30247" lon="-97.909008">
        <ele>972.689</ele>
        <time>2022-07-07T04:22:38Z</time>
      </trkpt>
      <trkpt lat="20.30251" lon="-97.909034">
        <ele>970.586</ele>
        <time>2022-07-07T04:22:42Z</time>
      </trkpt>
      <trkpt lat="20.302545" lon="-97.90907">
        <ele>970.431</ele>
        <time>2022-07-07T04:22:46Z</time>
      </trkpt>
      <trkpt lat="20.302579" lon="-97.909113">
        <ele>969.538</ele>
        <time>2022-07-07T04:22:51Z</time>
      </trkpt>
      <trkpt lat="20.302609" lon="-97.909163">
        <ele>970.021</ele>
        <time>2022-07-07T04:22:56Z</time>
      </trkpt>
      <trkpt lat="20.302642" lon="-97.909203">
        <ele>966.146</ele>
        <time>2022-07-07T04:23:00Z</time>
      </trkpt>
      <trkpt lat="20.302667" lon="-97.909253">
        <ele>965.516</ele>
        <time>2022-07-07T04:23:03Z</time>
      </trkpt>
      <trkpt lat="20.302684" lon="-97.909307">
        <ele>966.967</ele>
        <time>2022-07-07T04:23:06Z</time>
      </trkpt>
      <trkpt lat="20.302696" lon="-97.909356">
        <ele>967.992</ele>
        <time>2022-07-07T04:23:10Z</time>
      </trkpt>
      <trkpt lat="20.302713" lon="-97.909404">
        <ele>968.673</ele>
        <time>2022-07-07T04:23:15Z</time>
      </trkpt>
      <trkpt lat="20.302741" lon="-97.909447">
        <ele>965.620</ele>
        <time>2022-07-07T04:23:21Z</time>
      </trkpt>
      <trkpt lat="20.302768" lon="-97.909491">
        <ele>968.909</ele>
        <time>2022-07-07T04:23:26Z</time>
      </trkpt>
      <trkpt lat="20.302806" lon="-97.90953">
        <ele>967.730</ele>
        <time>2022-07-07T04:23:31Z</time>
      </trkpt>
      <trkpt lat="20.302845" lon="-97.909573">
        <ele>970.169</ele>
        <time>2022-07-07T04:23:36Z</time>
      </trkpt>
      <trkpt lat="20.302885" lon="-97.909602">
        <ele>970.286</ele>
        <time>2022-07-07T04:23:40Z</time>
      </trkpt>
      <trkpt lat="20.302937" lon="-97.909625">
        <ele>972.181</ele>
        <time>2022-07-07T04:23:44Z</time>
      </trkpt>
      <trkpt lat="20.302989" lon="-97.909644">
        <ele>971.688</ele>
        <time>2022-07-07T04:23:48Z</time>
      </trkpt>
      <trkpt lat="20.303031" lon="-97.909676">
        <ele>972.151</ele>
        <time>2022-07-07T04:23:52Z</time>
      </trkpt>
      <trkpt lat="20.303075" lon="-97.909695">
        <ele>972.866</ele>
        <time>2022-07-07T04:23:56Z</time>
      </trkpt>
      <trkpt lat="20.303118" lon="-97.909711">
        <ele>973.456</ele>
        <time>2022-07-07T04:24:00Z</time>
      </trkpt>
      <trkpt lat="20.303167" lon="-97.909714">
        <ele>975.457</ele>
        <time>2022-07-07T04:24:04Z</time>
      </trkpt>
      <trkpt lat="20.303215" lon="-97.909717">
        <ele>974.255</ele>
        <time>2022-07-07T04:24:08Z</time>
      </trkpt>
      <trkpt lat="20.303255" lon="-97.909748">
        <ele>975.107</ele>
        <time>2022-07-07T04:24:12Z</time>
      </trkpt>
      <trkpt lat="20.303304" lon="-97.909769">
        <ele>975.317</ele>
        <time>2022-07-07T04:24:17Z</time>
      </trkpt>
      <trkpt lat="20.303345" lon="-97.909789">
        <ele>975.209</ele>
        <time>2022-07-07T04:24:21Z</time>
      </trkpt>
      <trkpt lat="20.303386" lon="-97.909808">
        <ele>975.176</ele>
        <time>2022-07-07T04:24:26Z</time>
      </trkpt>
      <trkpt lat="20.303427" lon="-97.909833">
        <ele>975.325</ele>
        <time>2022-07-07T04:24:30Z</time>
      </trkpt>
      <trkpt lat="20.303476" lon="-97.909857">
        <ele>977.672</ele>
        <time>2022-07-07T04:24:35Z</time>
      </trkpt>
      <trkpt lat="20.303519" lon="-97.909877">
        <ele>974.877</ele>
        <time>2022-07-07T04:24:39Z</time>
      </trkpt>
      <trkpt lat="20.30356" lon="-97.9099">
        <ele>975.594</ele>
        <time>2022-07-07T04:24:43Z</time>
      </trkpt>
      <trkpt lat="20.3036" lon="-97.909925">
        <ele>976.937</ele>
        <time>2022-07-07T04:24:47Z</time>
      </trkpt>
      <trkpt lat="20.303642" lon="-97.909953">
        <ele>975.832</ele>
        <time>2022-07-07T04:24:53Z</time>
      </trkpt>
      <trkpt lat="20.303686" lon="-97.909971">
        <ele>976.822</ele>
        <time>2022-07-07T04:24:58Z</time>
      </trkpt>
      <trkpt lat="20.303736" lon="-97.909993">
        <ele>975.573</ele>
        <time>2022-07-07T04:25:02Z</time>
      </trkpt>
      <trkpt lat="20.303789" lon="-97.910015">
        <ele>978.768</ele>
        <time>2022-07-07T04:25:05Z</time>
      </trkpt>
      <trkpt lat="20.303827" lon="-97.910049">
        <ele>980.442</ele>
        <time>2022-07-07T04:25:09Z</time>
      </trkpt>
      <trkpt lat="20.303861" lon="-97.910091">
        <ele>984.526</ele>
        <time>2022-07-07T04:25:15Z</time>
      </trkpt>
      <trkpt lat="20.303906" lon="-97.910118">
        <ele>985.909</ele>
        <time>2022-07-07T04:25:20Z</time>
      </trkpt>
      <trkpt lat="20.303954" lon="-97.910125">
        <ele>983.327</ele>
        <time>2022-07-07T04:25:24Z</time>
      </trkpt>
      <trkpt lat="20.304007" lon="-97.91014">
        <ele>982.996</ele>
        <time>2022-07-07T04:25:29Z</time>
      </trkpt>
      <trkpt lat="20.304047" lon="-97.910167">
        <ele>982.653</ele>
        <time>2022-07-07T04:25:33Z</time>
      </trkpt>
      <trkpt lat="20.304089" lon="-97.910203">
        <ele>981.928</ele>
        <time>2022-07-07T04:25:38Z</time>
      </trkpt>
      <trkpt lat="20.304128" lon="-97.910242">
        <ele>980.235</ele>
        <time>2022-07-07T04:25:44Z</time>
      </trkpt>
      <trkpt lat="20.304165" lon="-97.910284">
        <ele>979.958</ele>
        <time>2022-07-07T04:25:49Z</time>
      </trkpt>
      <trkpt lat="20.304202" lon="-97.910322">
        <ele>981.243</ele>
        <time>2022-07-07T04:25:55Z</time>
      </trkpt>
      <trkpt lat="20.304236" lon="-97.910361">
        <ele>981.753</ele>
        <time>2022-07-07T04:26:00Z</time>
      </trkpt>
      <trkpt lat="20.304265" lon="-97.910404">
        <ele>981.494</ele>
        <time>2022-07-07T04:26:05Z</time>
      </trkpt>
      <trkpt lat="20.304299" lon="-97.910437">
        <ele>980.743</ele>
        <time>2022-07-07T04:26:10Z</time>
      </trkpt>
      <trkpt lat="20.304328" lon="-97.91048">
        <ele>980.864</ele>
        <time>2022-07-07T04:26:15Z</time>
      </trkpt>
      <trkpt lat="20.304354" lon="-97.910523">
        <ele>982.810</ele>
        <time>2022-07-07T04:26:18Z</time>
      </trkpt>
      <trkpt lat="20.304382" lon="-97.910565">
        <ele>982.009</ele>
        <time>2022-07-07T04:26:21Z</time>
      </trkpt>
      <trkpt lat="20.304412" lon="-97.910617">
        <ele>982.295</ele>
        <time>2022-07-07T04:26:25Z</time>
      </trkpt>
      <trkpt lat="20.304444" lon="-97.910664">
        <ele>983.144</ele>
        <time>2022-07-07T04:26:29Z</time>
      </trkpt>
      <trkpt lat="20.304454" lon="-97.910712">
        <ele>986.351</ele>
        <time>2022-07-07T04:26:34Z</time>
      </trkpt>
      <trkpt lat="20.304451" lon="-97.910763">
        <ele>989.356</ele>
        <time>2022-07-07T04:26:39Z</time>
      </trkpt>
      <trkpt lat="20.304471" lon="-97.910811">
        <ele>990.043</ele>
        <time>2022-07-07T04:26:45Z</time>
      </trkpt>
      <trkpt lat="20.304484" lon="-97.910873">
        <ele>992.686</ele>
        <time>2022-07-07T04:26:51Z</time>
      </trkpt>
      <trkpt lat="20.30451" lon="-97.910923">
        <ele>994.141</ele>
        <time>2022-07-07T04:26:55Z</time>
      </trkpt>
      <trkpt lat="20.304552" lon="-97.910956">
        <ele>993.621</ele>
        <time>2022-07-07T04:26:59Z</time>
      </trkpt>
      <trkpt lat="20.304589" lon="-97.910997">
        <ele>994.022</ele>
        <time>2022-07-07T04:27:04Z</time>
      </trkpt>
      <trkpt lat="20.304634" lon="-97.911035">
        <ele>997.143</ele>
        <time>2022-07-07T04:27:08Z</time>
      </trkpt>
      <trkpt lat="20.304658" lon="-97.911079">
        <ele>996.064</ele>
        <time>2022-07-07T04:27:12Z</time>
      </trkpt>
      <trkpt lat="20.304666" lon="-97.911141">
        <ele>993.210</ele>
        <time>2022-07-07T04:27:16Z</time>
      </trkpt>
      <trkpt lat="20.304681" lon="-97.911193">
        <ele>997.609</ele>
        <time>2022-07-07T04:27:20Z</time>
      </trkpt>
      <trkpt lat="20.304709" lon="-97.911246">
        <ele>998.395</ele>
        <time>2022-07-07T04:27:25Z</time>
      </trkpt>
      <trkpt lat="20.304739" lon="-97.91129">
        <ele>997.544</ele>
        <time>2022-07-07T04:27:29Z</time>
      </trkpt>
      <trkpt lat="20.304772" lon="-97.911325">
        <ele>997.661</ele>
        <time>2022-07-07T04:27:33Z</time>
      </trkpt>
      <trkpt lat="20.304795" lon="-97.911374">
        <ele>996.126</ele>
        <time>2022-07-07T04:27:37Z</time>
      </trkpt>
      <trkpt lat="20.30482" lon="-97.911417">
        <ele>995.353</ele>
        <time>2022-07-07T04:27:42Z</time>
      </trkpt>
      <trkpt lat="20.304843" lon="-97.911462">
        <ele>996.136</ele>
        <time>2022-07-07T04:27:48Z</time>
      </trkpt>
      <trkpt lat="20.30488" lon="-97.911502">
        <ele>997.531</ele>
        <time>2022-07-07T04:27:53Z</time>
      </trkpt>
      <trkpt lat="20.304897" lon="-97.911552">
        <ele>1000.141</ele>
        <time>2022-07-07T04:27:57Z</time>
      </trkpt>
      <trkpt lat="20.304919" lon="-97.911605">
        <ele>1004.032</ele>
        <time>2022-07-07T04:28:01Z</time>
      </trkpt>
      <trkpt lat="20.304936" lon="-97.911658">
        <ele>1005.991</ele>
        <time>2022-07-07T04:28:05Z</time>
      </trkpt>
      <trkpt lat="20.304947" lon="-97.911707">
        <ele>1008.681</ele>
        <time>2022-07-07T04:28:09Z</time>
      </trkpt>
      <trkpt lat="20.304955" lon="-97.911768">
        <ele>1011.819</ele>
        <time>2022-07-07T04:28:12Z</time>
      </trkpt>
      <trkpt lat="20.304952" lon="-97.911819">
        <ele>1011.309</ele>
        <time>2022-07-07T04:28:18Z</time>
      </trkpt>
      <trkpt lat="20.30497" lon="-97.91187">
        <ele>1012.490</ele>
        <time>2022-07-07T04:28:25Z</time>
      </trkpt>
      <trkpt lat="20.304973" lon="-97.911926">
        <ele>1011.179</ele>
        <time>2022-07-07T04:28:32Z</time>
      </trkpt>
      <trkpt lat="20.304987" lon="-97.911975">
        <ele>1013.176</ele>
        <time>2022-07-07T04:28:37Z</time>
      </trkpt>
      <trkpt lat="20.304999" lon="-97.912032">
        <ele>1014.411</ele>
        <time>2022-07-07T04:28:41Z</time>
      </trkpt>
      <trkpt lat="20.305021" lon="-97.912078">
        <ele>1014.158</ele>
        <time>2022-07-07T04:28:45Z</time>
      </trkpt>
      <trkpt lat="20.305047" lon="-97.912125">
        <ele>1013.681</ele>
        <time>2022-07-07T04:28:50Z</time>
      </trkpt>
      <trkpt lat="20.305076" lon="-97.912168">
        <ele>1015.876</ele>
        <time>2022-07-07T04:28:55Z</time>
      </trkpt>
      <trkpt lat="20.305113" lon="-97.912203">
        <ele>1016.586</ele>
        <time>2022-07-07T04:29:01Z</time>
      </trkpt>
      <trkpt lat="20.305165" lon="-97.91219">
        <ele>1016.177</ele>
        <time>2022-07-07T04:29:05Z</time>
      </trkpt>
      <trkpt lat="20.305204" lon="-97.912151">
        <ele>1018.671</ele>
        <time>2022-07-07T04:29:09Z</time>
      </trkpt>
      <trkpt lat="20.305223" lon="-97.9121">
        <ele>1019.941</ele>
        <time>2022-07-07T04:29:14Z</time>
      </trkpt>
      <trkpt lat="20.30525" lon="-97.912054">
        <ele>1019.815</ele>
        <time>2022-07-07T04:29:19Z</time>
      </trkpt>
      <trkpt lat="20.30528" lon="-97.912011">
        <ele>1019.309</ele>
        <time>2022-07-07T04:29:23Z</time>
      </trkpt>
      <trkpt lat="20.305303" lon="-97.911966">
        <ele>1020.918</ele>
        <time>2022-07-07T04:29:27Z</time>
      </trkpt>
      <trkpt lat="20.305346" lon="-97.911943">
        <ele>1021.187</ele>
        <time>2022-07-07T04:29:31Z</time>
      </trkpt>
      <trkpt lat="20.305382" lon="-97.91191">
        <ele>1021.744</ele>
        <time>2022-07-07T04:29:35Z</time>
      </trkpt>
      <trkpt lat="20.30542" lon="-97.911874">
        <ele>1020.849</ele>
        <time>2022-07-07T04:29:39Z</time>
      </trkpt>
      <trkpt lat="20.305457" lon="-97.911834">
        <ele>1025.246</ele>
        <time>2022-07-07T04:29:42Z</time>
      </trkpt>
      <trkpt lat="20.305493" lon="-97.911783">
        <ele>1024.639</ele>
        <time>2022-07-07T04:29:45Z</time>
      </trkpt>
      <trkpt lat="20.305516" lon="-97.911736">
        <ele>1025.074</ele>
        <time>2022-07-07T04:29:48Z</time>
      </trkpt>
      <trkpt lat="20.305564" lon="-97.911708">
        <ele>1023.534</ele>
        <time>2022-07-07T04:29:52Z</time>
      </trkpt>
      <trkpt lat="20.305607" lon="-97.911681">
        <ele>1030.025</ele>
        <time>2022-07-07T04:30:01Z</time>
      </trkpt>
      <trkpt lat="20.305654" lon="-97.911665">
        <ele>1026.887</ele>
        <time>2022-07-07T04:30:06Z</time>
      </trkpt>
      <trkpt lat="20.305691" lon="-97.911633">
        <ele>1026.042</ele>
        <time>2022-07-07T04:30:11Z</time>
      </trkpt>
      <trkpt lat="20.305737" lon="-97.91161">
        <ele>1026.726</ele>
        <time>2022-07-07T04:30:16Z</time>
      </trkpt>
      <trkpt lat="20.305784" lon="-97.91159">
        <ele>1025.709</ele>
        <time>2022-07-07T04:30:23Z</time>
      </trkpt>
      <trkpt lat="20.305831" lon="-97.911575">
        <ele>1025.279</ele>
        <time>2022-07-07T04:30:34Z</time>
      </trkpt>
      <trkpt lat="20.30587" lon="-97.911546">
        <ele>1025.668</ele>
        <time>2022-07-07T04:30:39Z</time>
      </trkpt>
      <trkpt lat="20.305905" lon="-97.911508">
        <ele>1025.925</ele>
        <time>2022-07-07T04:30:43Z</time>
      </trkpt>
      <trkpt lat="20.30593" lon="-97.911464">
        <ele>1028.810</ele>
        <time>2022-07-07T04:30:47Z</time>
      </trkpt>
      <trkpt lat="20.305959" lon="-97.911417">
        <ele>1030.057</ele>
        <time>2022-07-07T04:30:52Z</time>
      </trkpt>
      <trkpt lat="20.305991" lon="-97.911372">
        <ele>1030.820</ele>
        <time>2022-07-07T04:30:57Z</time>
      </trkpt>
      <trkpt lat="20.306022" lon="-97.911325">
        <ele>1033.335</ele>
        <time>2022-07-07T04:31:02Z</time>
      </trkpt>
      <trkpt lat="20.306064" lon="-97.911301">
        <ele>1032.255</ele>
        <time>2022-07-07T04:31:06Z</time>
      </trkpt>
      <trkpt lat="20.306107" lon="-97.911315">
        <ele>1031.616</ele>
        <time>2022-07-07T04:31:10Z</time>
      </trkpt>
      <trkpt lat="20.306133" lon="-97.911357">
        <ele>1032.014</ele>
        <time>2022-07-07T04:31:15Z</time>
      </trkpt>
      <trkpt lat="20.30614" lon="-97.911406">
        <ele>1032.154</ele>
        <time>2022-07-07T04:31:20Z</time>
      </trkpt>
      <trkpt lat="20.306133" lon="-97.911455">
        <ele>1034.909</ele>
        <time>2022-07-07T04:31:25Z</time>
      </trkpt>
      <trkpt lat="20.30614" lon="-97.911506">
        <ele>1038.509</ele>
        <time>2022-07-07T04:31:31Z</time>
      </trkpt>
      <trkpt lat="20.306153" lon="-97.911554">
        <ele>1041.132</ele>
        <time>2022-07-07T04:31:35Z</time>
      </trkpt>
      <trkpt lat="20.306161" lon="-97.911612">
        <ele>1042.641</ele>
        <time>2022-07-07T04:31:39Z</time>
      </trkpt>
      <trkpt lat="20.306165" lon="-97.911663">
        <ele>1044.398</ele>
        <time>2022-07-07T04:31:43Z</time>
      </trkpt>
      <trkpt lat="20.306167" lon="-97.911719">
        <ele>1046.523</ele>
        <time>2022-07-07T04:31:47Z</time>
      </trkpt>
      <trkpt lat="20.306175" lon="-97.911768">
        <ele>1047.560</ele>
        <time>2022-07-07T04:31:51Z</time>
      </trkpt>
      <trkpt lat="20.306185" lon="-97.911827">
        <ele>1047.823</ele>
        <time>2022-07-07T04:31:55Z</time>
      </trkpt>
      <trkpt lat="20.306192" lon="-97.911879">
        <ele>1047.668</ele>
        <time>2022-07-07T04:32:00Z</time>
      </trkpt>
      <trkpt lat="20.30619" lon="-97.911935">
        <ele>1050.718</ele>
        <time>2022-07-07T04:32:05Z</time>
      </trkpt>
      <trkpt lat="20.306193" lon="-97.911988">
        <ele>1049.959</ele>
        <time>2022-07-07T04:32:10Z</time>
      </trkpt>
      <trkpt lat="20.306203" lon="-97.912036">
        <ele>1050.599</ele>
        <time>2022-07-07T04:32:14Z</time>
      </trkpt>
      <trkpt lat="20.306192" lon="-97.912087">
        <ele>1049.907</ele>
        <time>2022-07-07T04:32:19Z</time>
      </trkpt>
      <trkpt lat="20.306209" lon="-97.912141">
        <ele>1047.027</ele>
        <time>2022-07-07T04:32:25Z</time>
      </trkpt>
      <trkpt lat="20.306251" lon="-97.912163">
        <ele>1048.209</ele>
        <time>2022-07-07T04:32:28Z</time>
      </trkpt>
      <trkpt lat="20.306296" lon="-97.912192">
        <ele>1050.430</ele>
        <time>2022-07-07T04:32:32Z</time>
      </trkpt>
      <trkpt lat="20.30629" lon="-97.912255">
        <ele>1052.599</ele>
        <time>2022-07-07T04:32:36Z</time>
      </trkpt>
      <trkpt lat="20.306272" lon="-97.912311">
        <ele>1055.966</ele>
        <time>2022-07-07T04:32:39Z</time>
      </trkpt>
      <trkpt lat="20.306271" lon="-97.912369">
        <ele>1057.061</ele>
        <time>2022-07-07T04:32:43Z</time>
      </trkpt>
      <trkpt lat="20.306268" lon="-97.91242">
        <ele>1056.078</ele>
        <time>2022-07-07T04:32:47Z</time>
      </trkpt>
      <trkpt lat="20.306263" lon="-97.91247">
        <ele>1054.821</ele>
        <time>2022-07-07T04:32:52Z</time>
      </trkpt>
      <trkpt lat="20.306259" lon="-97.912524">
        <ele>1058.196</ele>
        <time>2022-07-07T04:32:57Z</time>
      </trkpt>
      <trkpt lat="20.306289" lon="-97.912568">
        <ele>1056.336</ele>
        <time>2022-07-07T04:33:02Z</time>
      </trkpt>
      <trkpt lat="20.306311" lon="-97.912615">
        <ele>1058.927</ele>
        <time>2022-07-07T04:33:07Z</time>
      </trkpt>
      <trkpt lat="20.306335" lon="-97.912667">
        <ele>1058.686</ele>
        <time>2022-07-07T04:33:12Z</time>
      </trkpt>
      <trkpt lat="20.306348" lon="-97.912721">
        <ele>1059.760</ele>
        <time>2022-07-07T04:33:17Z</time>
      </trkpt>
      <trkpt lat="20.306359" lon="-97.912771">
        <ele>1059.926</ele>
        <time>2022-07-07T04:33:21Z</time>
      </trkpt>
      <trkpt lat="20.306364" lon="-97.912826">
        <ele>1058.909</ele>
        <time>2022-07-07T04:33:26Z</time>
      </trkpt>
      <trkpt lat="20.306362" lon="-97.912883">
        <ele>1057.089</ele>
        <time>2022-07-07T04:33:31Z</time>
      </trkpt>
      <trkpt lat="20.306363" lon="-97.912939">
        <ele>1058.158</ele>
        <time>2022-07-07T04:33:36Z</time>
      </trkpt>
      <trkpt lat="20.306356" lon="-97.912988">
        <ele>1056.525</ele>
        <time>2022-07-07T04:33:40Z</time>
      </trkpt>
      <trkpt lat="20.306357" lon="-97.913037">
        <ele>1059.020</ele>
        <time>2022-07-07T04:33:44Z</time>
      </trkpt>
      <trkpt lat="20.306361" lon="-97.913091">
        <ele>1056.977</ele>
        <time>2022-07-07T04:33:48Z</time>
      </trkpt>
      <trkpt lat="20.306365" lon="-97.913144">
        <ele>1057.640</ele>
        <time>2022-07-07T04:33:52Z</time>
      </trkpt>
      <trkpt lat="20.306363" lon="-97.913204">
        <ele>1056.075</ele>
        <time>2022-07-07T04:33:57Z</time>
      </trkpt>
      <trkpt lat="20.306358" lon="-97.913253">
        <ele>1059.735</ele>
        <time>2022-07-07T04:34:01Z</time>
      </trkpt>
      <trkpt lat="20.306363" lon="-97.913307">
        <ele>1057.866</ele>
        <time>2022-07-07T04:34:05Z</time>
      </trkpt>
      <trkpt lat="20.306368" lon="-97.913362">
        <ele>1059.182</ele>
        <time>2022-07-07T04:34:09Z</time>
      </trkpt>
      <trkpt lat="20.306364" lon="-97.913418">
        <ele>1057.543</ele>
        <time>2022-07-07T04:34:13Z</time>
      </trkpt>
      <trkpt lat="20.306363" lon="-97.913475">
        <ele>1057.817</ele>
        <time>2022-07-07T04:34:17Z</time>
      </trkpt>
      <trkpt lat="20.306368" lon="-97.913532">
        <ele>1058.609</ele>
        <time>2022-07-07T04:34:21Z</time>
      </trkpt>
      <trkpt lat="20.306381" lon="-97.913587">
        <ele>1057.929</ele>
        <time>2022-07-07T04:34:25Z</time>
      </trkpt>
      <trkpt lat="20.306403" lon="-97.913639">
        <ele>1054.248</ele>
        <time>2022-07-07T04:34:31Z</time>
      </trkpt>
      <trkpt lat="20.306426" lon="-97.913687">
        <ele>1056.295</ele>
        <time>2022-07-07T04:34:36Z</time>
      </trkpt>
      <trkpt lat="20.306441" lon="-97.913741">
        <ele>1055.740</ele>
        <time>2022-07-07T04:34:41Z</time>
      </trkpt>
      <trkpt lat="20.306459" lon="-97.913793">
        <ele>1056.357</ele>
        <time>2022-07-07T04:34:45Z</time>
      </trkpt>
      <trkpt lat="20.306476" lon="-97.913839">
        <ele>1059.770</ele>
        <time>2022-07-07T04:34:49Z</time>
      </trkpt>
      <trkpt lat="20.306507" lon="-97.913893">
        <ele>1060.755</ele>
        <time>2022-07-07T04:34:53Z</time>
      </trkpt>
      <trkpt lat="20.306531" lon="-97.913947">
        <ele>1060.765</ele>
        <time>2022-07-07T04:34:57Z</time>
      </trkpt>
      <trkpt lat="20.306559" lon="-97.913985">
        <ele>1061.686</ele>
        <time>2022-07-07T04:35:00Z</time>
      </trkpt>
      <trkpt lat="20.306556" lon="-97.914033">
        <ele>1062.028</ele>
        <time>2022-07-07T04:35:03Z</time>
      </trkpt>
      <trkpt lat="20.30655" lon="-97.91409">
        <ele>1063.289</ele>
        <time>2022-07-07T04:35:07Z</time>
      </trkpt>
      <trkpt lat="20.30656" lon="-97.91414">
        <ele>1061.817</ele>
        <time>2022-07-07T04:35:11Z</time>
      </trkpt>
      <trkpt lat="20.30655" lon="-97.914194">
        <ele>1066.109</ele>
        <time>2022-07-07T04:35:15Z</time>
      </trkpt>
      <trkpt lat="20.306548" lon="-97.91425">
        <ele>1067.693</ele>
        <time>2022-07-07T04:35:19Z</time>
      </trkpt>
      <trkpt lat="20.306523" lon="-97.914297">
        <ele>1066.462</ele>
        <time>2022-07-07T04:35:24Z</time>
      </trkpt>
      <trkpt lat="20.306504" lon="-97.914347">
        <ele>1068.039</ele>
        <time>2022-07-07T04:35:29Z</time>
      </trkpt>
      <trkpt lat="20.306488" lon="-97.914392">
        <ele>1069.684</ele>
        <time>2022-07-07T04:35:34Z</time>
      </trkpt>
      <trkpt lat="20.306482" lon="-97.914444">
        <ele>1072.541</ele>
        <time>2022-07-07T04:35:39Z</time>
      </trkpt>
      <trkpt lat="20.306488" lon="-97.914494">
        <ele>1072.824</ele>
        <time>2022-07-07T04:35:43Z</time>
      </trkpt>
      <trkpt lat="20.306477" lon="-97.91455">
        <ele>1073.919</ele>
        <time>2022-07-07T04:35:46Z</time>
      </trkpt>
      <trkpt lat="20.306468" lon="-97.914599">
        <ele>1076.369</ele>
        <time>2022-07-07T04:35:49Z</time>
      </trkpt>
      <trkpt lat="20.306469" lon="-97.914649">
        <ele>1073.720</ele>
        <time>2022-07-07T04:35:55Z</time>
      </trkpt>
      <trkpt lat="20.306469" lon="-97.914699">
        <ele>1071.323</ele>
        <time>2022-07-07T04:36:01Z</time>
      </trkpt>
      <trkpt lat="20.306444" lon="-97.914748">
        <ele>1071.783</ele>
        <time>2022-07-07T04:36:08Z</time>
      </trkpt>
      <trkpt lat="20.306407" lon="-97.91478">
        <ele>1071.911</ele>
        <time>2022-07-07T04:36:14Z</time>
      </trkpt>
      <trkpt lat="20.306376" lon="-97.914827">
        <ele>1074.409</ele>
        <time>2022-07-07T04:36:19Z</time>
      </trkpt>
      <trkpt lat="20.306336" lon="-97.914862">
        <ele>1077.473</ele>
        <time>2022-07-07T04:36:25Z</time>
      </trkpt>
      <trkpt lat="20.306294" lon="-97.914886">
        <ele>1076.682</ele>
        <time>2022-07-07T04:36:30Z</time>
      </trkpt>
      <trkpt lat="20.306248" lon="-97.914918">
        <ele>1077.129</ele>
        <time>2022-07-07T04:36:36Z</time>
      </trkpt>
      <trkpt lat="20.306206" lon="-97.91494">
        <ele>1078.474</ele>
        <time>2022-07-07T04:36:41Z</time>
      </trkpt>
      <trkpt lat="20.306166" lon="-97.914976">
        <ele>1078.821</ele>
        <time>2022-07-07T04:36:47Z</time>
      </trkpt>
      <trkpt lat="20.306131" lon="-97.915014">
        <ele>1079.744</ele>
        <time>2022-07-07T04:36:50Z</time>
      </trkpt>
      <trkpt lat="20.306121" lon="-97.915061">
        <ele>1080.269</ele>
        <time>2022-07-07T04:36:53Z</time>
      </trkpt>
      <trkpt lat="20.306084" lon="-97.915095">
        <ele>1081.339</ele>
        <time>2022-07-07T04:36:58Z</time>
      </trkpt>
      <trkpt lat="20.306041" lon="-97.915127">
        <ele>1080.140</ele>
        <time>2022-07-07T04:37:03Z</time>
      </trkpt>
      <trkpt lat="20.306017" lon="-97.915172">
        <ele>1080.293</ele>
        <time>2022-07-07T04:37:08Z</time>
      </trkpt>
      <trkpt lat="20.305985" lon="-97.915206">
        <ele>1080.665</ele>
        <time>2022-07-07T04:37:12Z</time>
      </trkpt>
      <trkpt lat="20.305969" lon="-97.915258">
        <ele>1081.921</ele>
        <time>2022-07-07T04:37:16Z</time>
      </trkpt>
      <trkpt lat="20.305949" lon="-97.915301">
        <ele>1082.009</ele>
        <time>2022-07-07T04:37:20Z</time>
      </trkpt>
      <trkpt lat="20.30593" lon="-97.915352">
        <ele>1083.530</ele>
        <time>2022-07-07T04:37:25Z</time>
      </trkpt>
      <trkpt lat="20.305911" lon="-97.9154">
        <ele>1085.149</ele>
        <time>2022-07-07T04:37:31Z</time>
      </trkpt>
      <trkpt lat="20.305899" lon="-97.915454">
        <ele>1085.676</ele>
        <time>2022-07-07T04:37:37Z</time>
      </trkpt>
      <trkpt lat="20.305881" lon="-97.9155">
        <ele>1087.581</ele>
        <time>2022-07-07T04:37:41Z</time>
      </trkpt>
      <trkpt lat="20.305868" lon="-97.915551">
        <ele>1086.318</ele>
        <time>2022-07-07T04:37:46Z</time>
      </trkpt>
      <trkpt lat="20.305859" lon="-97.915601">
        <ele>1087.421</ele>
        <time>2022-07-07T04:37:51Z</time>
      </trkpt>
      <trkpt lat="20.30583" lon="-97.915643">
        <ele>1088.566</ele>
        <time>2022-07-07T04:37:56Z</time>
      </trkpt>
      <trkpt lat="20.305811" lon="-97.915691">
        <ele>1088.576</ele>
        <time>2022-07-07T04:38:01Z</time>
      </trkpt>
      <trkpt lat="20.305786" lon="-97.91574">
        <ele>1090.247</ele>
        <time>2022-07-07T04:38:07Z</time>
      </trkpt>
      <trkpt lat="20.305768" lon="-97.91579">
        <ele>1089.761</ele>
        <time>2022-07-07T04:38:12Z</time>
      </trkpt>
      <trkpt lat="20.30575" lon="-97.91584">
        <ele>1090.821</ele>
        <time>2022-07-07T04:38:18Z</time>
      </trkpt>
      <trkpt lat="20.305742" lon="-97.915896">
        <ele>1092.713</ele>
        <time>2022-07-07T04:38:24Z</time>
      </trkpt>
      <trkpt lat="20.305726" lon="-97.915944">
        <ele>1094.009</ele>
        <time>2022-07-07T04:38:30Z</time>
      </trkpt>
      <trkpt lat="20.305718" lon="-97.916">
        <ele>1093.547</ele>
        <time>2022-07-07T04:38:36Z</time>
      </trkpt>
      <trkpt lat="20.305719" lon="-97.916062">
        <ele>1092.726</ele>
        <time>2022-07-07T04:38:40Z</time>
      </trkpt>
      <trkpt lat="20.305729" lon="-97.916112">
        <ele>1093.723</ele>
        <time>2022-07-07T04:38:43Z</time>
      </trkpt>
      <trkpt lat="20.305719" lon="-97.916165">
        <ele>1094.898</ele>
        <time>2022-07-07T04:38:46Z</time>
      </trkpt>
      <trkpt lat="20.305688" lon="-97.916208">
        <ele>1098.675</ele>
        <time>2022-07-07T04:38:50Z</time>
      </trkpt>
      <trkpt lat="20.305681" lon="-97.916258">
        <ele>1100.118</ele>
        <time>2022-07-07T04:38:55Z</time>
      </trkpt>
      <trkpt lat="20.305682" lon="-97.916308">
        <ele>1099.913</ele>
        <time>2022-07-07T04:38:59Z</time>
      </trkpt>
      <trkpt lat="20.305674" lon="-97.916359">
        <ele>1097.173</ele>
        <time>2022-07-07T04:39:03Z</time>
      </trkpt>
      <trkpt lat="20.305676" lon="-97.916409">
        <ele>1092.874</ele>
        <time>2022-07-07T04:39:10Z</time>
      </trkpt>
      <trkpt lat="20.305717" lon="-97.916448">
        <ele>1093.646</ele>
        <time>2022-07-07T04:39:16Z</time>
      </trkpt>
      <trkpt lat="20.30577" lon="-97.916454">
        <ele>1094.288</ele>
        <time>2022-07-07T04:39:20Z</time>
      </trkpt>
      <trkpt lat="20.30582" lon="-97.916437">
        <ele>1097.716</ele>
        <time>2022-07-07T04:39:25Z</time>
      </trkpt>
      <trkpt lat="20.305855" lon="-97.916401">
        <ele>1097.309</ele>
        <time>2022-07-07T04:39:30Z</time>
      </trkpt>
      <trkpt lat="20.305886" lon="-97.916366">
        <ele>1102.765</ele>
        <time>2022-07-07T04:39:37Z</time>
      </trkpt>
      <trkpt lat="20.305926" lon="-97.916338">
        <ele>1100.414</ele>
        <time>2022-07-07T04:39:43Z</time>
      </trkpt>
      <trkpt lat="20.305966" lon="-97.916311">
        <ele>1102.571</ele>
        <time>2022-07-07T04:39:49Z</time>
      </trkpt>
      <trkpt lat="20.306" lon="-97.916274">
        <ele>1106.276</ele>
        <time>2022-07-07T04:39:54Z</time>
      </trkpt>
      <trkpt lat="20.306032" lon="-97.91624">
        <ele>1107.473</ele>
        <time>2022-07-07T04:39:58Z</time>
      </trkpt>
      <trkpt lat="20.306078" lon="-97.916217">
        <ele>1108.146</ele>
        <time>2022-07-07T04:40:05Z</time>
      </trkpt>
      <trkpt lat="20.306128" lon="-97.916229">
        <ele>1116.531</ele>
        <time>2022-07-07T04:40:10Z</time>
      </trkpt>
      <trkpt lat="20.306168" lon="-97.916253">
        <ele>1116.051</ele>
        <time>2022-07-07T04:40:17Z</time>
      </trkpt>
      <trkpt lat="20.306167" lon="-97.916306">
        <ele>1118.492</ele>
        <time>2022-07-07T04:40:27Z</time>
      </trkpt>
      <trkpt lat="20.306158" lon="-97.916358">
        <ele>1117.276</ele>
        <time>2022-07-07T04:40:33Z</time>
      </trkpt>
      <trkpt lat="20.306151" lon="-97.916411">
        <ele>1117.690</ele>
        <time>2022-07-07T04:40:39Z</time>
      </trkpt>
      <trkpt lat="20.306143" lon="-97.916464">
        <ele>1118.019</ele>
        <time>2022-07-07T04:40:45Z</time>
      </trkpt>
      <trkpt lat="20.30614" lon="-97.916513">
        <ele>1117.909</ele>
        <time>2022-07-07T04:40:51Z</time>
      </trkpt>
      <trkpt lat="20.30613" lon="-97.916562">
        <ele>1118.938</ele>
        <time>2022-07-07T04:40:57Z</time>
      </trkpt>
      <trkpt lat="20.306132" lon="-97.916613">
        <ele>1118.687</ele>
        <time>2022-07-07T04:41:03Z</time>
      </trkpt>
      <trkpt lat="20.30612" lon="-97.916666">
        <ele>1119.514</ele>
        <time>2022-07-07T04:41:08Z</time>
      </trkpt>
      <trkpt lat="20.306098" lon="-97.916711">
        <ele>1121.269</ele>
        <time>2022-07-07T04:41:13Z</time>
      </trkpt>
      <trkpt lat="20.306081" lon="-97.916757">
        <ele>1122.176</ele>
        <time>2022-07-07T04:41:18Z</time>
      </trkpt>
      <trkpt lat="20.306085" lon="-97.916807">
        <ele>1122.199</ele>
        <time>2022-07-07T04:41:23Z</time>
      </trkpt>
      <trkpt lat="20.306103" lon="-97.916857">
        <ele>1120.464</ele>
        <time>2022-07-07T04:41:33Z</time>
      </trkpt>
      <trkpt lat="20.306115" lon="-97.916905">
        <ele>1121.484</ele>
        <time>2022-07-07T04:41:38Z</time>
      </trkpt>
      <trkpt lat="20.306147" lon="-97.91694">
        <ele>1121.985</ele>
        <time>2022-07-07T04:41:44Z</time>
      </trkpt>
      <trkpt lat="20.306158" lon="-97.916996">
        <ele>1121.154</ele>
        <time>2022-07-07T04:41:50Z</time>
      </trkpt>
      <trkpt lat="20.306164" lon="-97.917053">
        <ele>1121.856</ele>
        <time>2022-07-07T04:41:56Z</time>
      </trkpt>
      <trkpt lat="20.306167" lon="-97.917116">
        <ele>1123.711</ele>
        <time>2022-07-07T04:42:01Z</time>
      </trkpt>
      <trkpt lat="20.30616" lon="-97.917172">
        <ele>1125.109</ele>
        <time>2022-07-07T04:42:05Z</time>
      </trkpt>
      <trkpt lat="20.306159" lon="-97.917228">
        <ele>1121.946</ele>
        <time>2022-07-07T04:42:11Z</time>
      </trkpt>
      <trkpt lat="20.306134" lon="-97.917276">
        <ele>1120.535</ele>
        <time>2022-07-07T04:42:17Z</time>
      </trkpt>
      <trkpt lat="20.306113" lon="-97.917322">
        <ele>1122.272</ele>
        <time>2022-07-07T04:42:22Z</time>
      </trkpt>
      <trkpt lat="20.306092" lon="-97.917368">
        <ele>1121.727</ele>
        <time>2022-07-07T04:42:25Z</time>
      </trkpt>
      <trkpt lat="20.306078" lon="-97.917423">
        <ele>1125.454</ele>
        <time>2022-07-07T04:42:29Z</time>
      </trkpt>
      <trkpt lat="20.306059" lon="-97.91747">
        <ele>1126.017</ele>
        <time>2022-07-07T04:42:35Z</time>
      </trkpt>
      <trkpt lat="20.306049" lon="-97.917522">
        <ele>1130.442</ele>
        <time>2022-07-07T04:42:42Z</time>
      </trkpt>
      <trkpt lat="20.306057" lon="-97.917572">
        <ele>1134.742</ele>
        <time>2022-07-07T04:42:48Z</time>
      </trkpt>
      <trkpt lat="20.306064" lon="-97.917625">
        <ele>1129.473</ele>
        <time>2022-07-07T04:42:54Z</time>
      </trkpt>
      <trkpt lat="20.306055" lon="-97.91768">
        <ele>1130.612</ele>
        <time>2022-07-07T04:42:59Z</time>
      </trkpt>
      <trkpt lat="20.306034" lon="-97.917735">
        <ele>1123.832</ele>
        <time>2022-07-07T04:43:05Z</time>
      </trkpt>
      <trkpt lat="20.306017" lon="-97.917782">
        <ele>1125.405</ele>
        <time>2022-07-07T04:43:09Z</time>
      </trkpt>
      <trkpt lat="20.306004" lon="-97.91783">
        <ele>1128.609</ele>
        <time>2022-07-07T04:43:14Z</time>
      </trkpt>
      <trkpt lat="20.306001" lon="-97.917881">
        <ele>1131.052</ele>
        <time>2022-07-07T04:43:20Z</time>
      </trkpt>
      <trkpt lat="20.305997" lon="-97.917934">
        <ele>1133.761</ele>
        <time>2022-07-07T04:43:24Z</time>
      </trkpt>
      <trkpt lat="20.305986" lon="-97.917991">
        <ele>1131.678</ele>
        <time>2022-07-07T04:43:29Z</time>
      </trkpt>
      <trkpt lat="20.305971" lon="-97.918043">
        <ele>1133.493</ele>
        <time>2022-07-07T04:43:34Z</time>
      </trkpt>
      <trkpt lat="20.30597" lon="-97.918096">
        <ele>1135.840</ele>
        <time>2022-07-07T04:43:39Z</time>
      </trkpt>
      <trkpt lat="20.305978" lon="-97.918149">
        <ele>1136.453</ele>
        <time>2022-07-07T04:43:44Z</time>
      </trkpt>
      <trkpt lat="20.305978" lon="-97.918198">
        <ele>1136.498</ele>
        <time>2022-07-07T04:43:49Z</time>
      </trkpt>
      <trkpt lat="20.305972" lon="-97.918252">
        <ele>1138.648</ele>
        <time>2022-07-07T04:43:54Z</time>
      </trkpt>
      <trkpt lat="20.305971" lon="-97.918301">
        <ele>1140.049</ele>
        <time>2022-07-07T04:43:58Z</time>
      </trkpt>
      <trkpt lat="20.305965" lon="-97.918352">
        <ele>1143.667</ele>
        <time>2022-07-07T04:44:02Z</time>
      </trkpt>
      <trkpt lat="20.305942" lon="-97.918398">
        <ele>1145.981</ele>
        <time>2022-07-07T04:44:06Z</time>
      </trkpt>
      <trkpt lat="20.305946" lon="-97.918452">
        <ele>1148.619</ele>
        <time>2022-07-07T04:44:12Z</time>
      </trkpt>
      <trkpt lat="20.305937" lon="-97.918505">
        <ele>1149.309</ele>
        <time>2022-07-07T04:44:17Z</time>
      </trkpt>
      <trkpt lat="20.305908" lon="-97.918557">
        <ele>1147.657</ele>
        <time>2022-07-07T04:44:22Z</time>
      </trkpt>
      <trkpt lat="20.305885" lon="-97.918606">
        <ele>1147.336</ele>
        <time>2022-07-07T04:44:27Z</time>
      </trkpt>
      <trkpt lat="20.305859" lon="-97.918645">
        <ele>1148.183</ele>
        <time>2022-07-07T04:44:31Z</time>
      </trkpt>
      <trkpt lat="20.305825" lon="-97.918683">
        <ele>1149.868</ele>
        <time>2022-07-07T04:44:36Z</time>
      </trkpt>
      <trkpt lat="20.305787" lon="-97.918712">
        <ele>1150.335</ele>
        <time>2022-07-07T04:44:41Z</time>
      </trkpt>
      <trkpt lat="20.305745" lon="-97.918751">
        <ele>1152.228</ele>
        <time>2022-07-07T04:44:45Z</time>
      </trkpt>
      <trkpt lat="20.305701" lon="-97.918785">
        <ele>1153.953</ele>
        <time>2022-07-07T04:44:51Z</time>
      </trkpt>
      <trkpt lat="20.305686" lon="-97.918837">
        <ele>1151.973</ele>
        <time>2022-07-07T04:44:56Z</time>
      </trkpt>
      <trkpt lat="20.305664" lon="-97.918882">
        <ele>1149.054</ele>
        <time>2022-07-07T04:45:01Z</time>
      </trkpt>
      <trkpt lat="20.305653" lon="-97.918934">
        <ele>1149.561</ele>
        <time>2022-07-07T04:45:07Z</time>
      </trkpt>
      <trkpt lat="20.30563" lon="-97.918993">
        <ele>1151.921</ele>
        <time>2022-07-07T04:45:11Z</time>
      </trkpt>
      <trkpt lat="20.305585" lon="-97.919033">
        <ele>1151.113</ele>
        <time>2022-07-07T04:45:14Z</time>
      </trkpt>
      <trkpt lat="20.305559" lon="-97.91908">
        <ele>1153.009</ele>
        <time>2022-07-07T04:45:17Z</time>
      </trkpt>
      <trkpt lat="20.30553" lon="-97.919118">
        <ele>1152.377</ele>
        <time>2022-07-07T04:45:20Z</time>
      </trkpt>
      <trkpt lat="20.305503" lon="-97.919159">
        <ele>1154.426</ele>
        <time>2022-07-07T04:45:26Z</time>
      </trkpt>
      <trkpt lat="20.305495" lon="-97.919214">
        <ele>1157.013</ele>
        <time>2022-07-07T04:45:32Z</time>
      </trkpt>
      <trkpt lat="20.305486" lon="-97.91927">
        <ele>1158.068</ele>
        <time>2022-07-07T04:45:37Z</time>
      </trkpt>
      <trkpt lat="20.305498" lon="-97.919321">
        <ele>1155.745</ele>
        <time>2022-07-07T04:45:44Z</time>
      </trkpt>
      <trkpt lat="20.305518" lon="-97.919365">
        <ele>1153.018</ele>
        <time>2022-07-07T04:45:51Z</time>
      </trkpt>
      <trkpt lat="20.30553" lon="-97.919419">
        <ele>1154.083</ele>
        <time>2022-07-07T04:45:57Z</time>
      </trkpt>
      <trkpt lat="20.305551" lon="-97.919464">
        <ele>1155.893</ele>
        <time>2022-07-07T04:46:01Z</time>
      </trkpt>
      <trkpt lat="20.305573" lon="-97.919524">
        <ele>1154.934</ele>
        <time>2022-07-07T04:46:05Z</time>
      </trkpt>
      <trkpt lat="20.305594" lon="-97.919566">
        <ele>1156.264</ele>
        <time>2022-07-07T04:46:08Z</time>
      </trkpt>
      <trkpt lat="20.305625" lon="-97.919611">
        <ele>1157.106</ele>
        <time>2022-07-07T04:46:12Z</time>
      </trkpt>
      <trkpt lat="20.305644" lon="-97.919656">
        <ele>1156.716</ele>
        <time>2022-07-07T04:46:16Z</time>
      </trkpt>
      <trkpt lat="20.305663" lon="-97.919711">
        <ele>1156.909</ele>
        <time>2022-07-07T04:46:21Z</time>
      </trkpt>
      <trkpt lat="20.305683" lon="-97.919766">
        <ele>1158.767</ele>
        <time>2022-07-07T04:46:26Z</time>
      </trkpt>
      <trkpt lat="20.30571" lon="-97.91981">
        <ele>1159.476</ele>
        <time>2022-07-07T04:46:31Z</time>
      </trkpt>
      <trkpt lat="20.305741" lon="-97.919849">
        <ele>1160.163</ele>
        <time>2022-07-07T04:46:36Z</time>
      </trkpt>
      <trkpt lat="20.305757" lon="-97.919895">
        <ele>1160.068</ele>
        <time>2022-07-07T04:46:41Z</time>
      </trkpt>
      <trkpt lat="20.305793" lon="-97.919934">
        <ele>1156.975</ele>
        <time>2022-07-07T04:46:46Z</time>
      </trkpt>
      <trkpt lat="20.305814" lon="-97.919987">
        <ele>1157.628</ele>
        <time>2022-07-07T04:46:51Z</time>
      </trkpt>
      <trkpt lat="20.305814" lon="-97.920037">
        <ele>1161.723</ele>
        <time>2022-07-07T04:46:58Z</time>
      </trkpt>
      <trkpt lat="20.305845" lon="-97.920073">
        <ele>1163.683</ele>
        <time>2022-07-07T04:47:02Z</time>
      </trkpt>
      <trkpt lat="20.305887" lon="-97.920107">
        <ele>1164.974</ele>
        <time>2022-07-07T04:47:06Z</time>
      </trkpt>
      <trkpt lat="20.305863" lon="-97.920152">
        <ele>1168.983</ele>
        <time>2022-07-07T04:47:10Z</time>
      </trkpt>
      <trkpt lat="20.305858" lon="-97.920207">
        <ele>1172.725</ele>
        <time>2022-07-07T04:47:14Z</time>
      </trkpt>
      <trkpt lat="20.305901" lon="-97.920253">
        <ele>1173.417</ele>
        <time>2022-07-07T04:47:17Z</time>
      </trkpt>
      <trkpt lat="20.305949" lon="-97.920284">
        <ele>1173.509</ele>
        <time>2022-07-07T04:47:21Z</time>
      </trkpt>
      <trkpt lat="20.30598" lon="-97.920325">
        <ele>1174.259</ele>
        <time>2022-07-07T04:47:25Z</time>
      </trkpt>
      <trkpt lat="20.306012" lon="-97.920359">
        <ele>1174.358</ele>
        <time>2022-07-07T04:47:29Z</time>
      </trkpt>
      <trkpt lat="20.306049" lon="-97.920391">
        <ele>1174.775</ele>
        <time>2022-07-07T04:47:33Z</time>
      </trkpt>
      <trkpt lat="20.306062" lon="-97.920441">
        <ele>1176.220</ele>
        <time>2022-07-07T04:47:36Z</time>
      </trkpt>
      <trkpt lat="20.306096" lon="-97.920473">
        <ele>1178.527</ele>
        <time>2022-07-07T04:47:41Z</time>
      </trkpt>
      <trkpt lat="20.306144" lon="-97.920496">
        <ele>1180.480</ele>
        <time>2022-07-07T04:47:46Z</time>
      </trkpt>
      <trkpt lat="20.306192" lon="-97.920534">
        <ele>1189.535</ele>
        <time>2022-07-07T04:47:50Z</time>
      </trkpt>
      <trkpt lat="20.306236" lon="-97.920556">
        <ele>1191.345</ele>
        <time>2022-07-07T04:47:54Z</time>
      </trkpt>
      <trkpt lat="20.306287" lon="-97.920565">
        <ele>1191.976</ele>
        <time>2022-07-07T04:47:59Z</time>
      </trkpt>
      <trkpt lat="20.306337" lon="-97.920571">
        <ele>1192.361</ele>
        <time>2022-07-07T04:48:02Z</time>
      </trkpt>
      <trkpt lat="20.306376" lon="-97.920547">
        <ele>1191.821</ele>
        <time>2022-07-07T04:48:06Z</time>
      </trkpt>
      <trkpt lat="20.306426" lon="-97.920547">
        <ele>1192.713</ele>
        <time>2022-07-07T04:48:13Z</time>
      </trkpt>
      <trkpt lat="20.306471" lon="-97.920562">
        <ele>1192.309</ele>
        <time>2022-07-07T04:48:18Z</time>
      </trkpt>
      <trkpt lat="20.306511" lon="-97.920588">
        <ele>1190.527</ele>
        <time>2022-07-07T04:48:23Z</time>
      </trkpt>
      <trkpt lat="20.306551" lon="-97.920616">
        <ele>1190.756</ele>
        <time>2022-07-07T04:48:28Z</time>
      </trkpt>
      <trkpt lat="20.30659" lon="-97.920647">
        <ele>1191.813</ele>
        <time>2022-07-07T04:48:33Z</time>
      </trkpt>
      <trkpt lat="20.306624" lon="-97.920683">
        <ele>1191.348</ele>
        <time>2022-07-07T04:48:38Z</time>
      </trkpt>
      <trkpt lat="20.306676" lon="-97.920708">
        <ele>1190.635</ele>
        <time>2022-07-07T04:48:43Z</time>
      </trkpt>
      <trkpt lat="20.30672" lon="-97.920733">
        <ele>1190.588</ele>
        <time>2022-07-07T04:48:47Z</time>
      </trkpt>
      <trkpt lat="20.306752" lon="-97.920781">
        <ele>1196.213</ele>
        <time>2022-07-07T04:48:52Z</time>
      </trkpt>
      <trkpt lat="20.306768" lon="-97.920839">
        <ele>1197.843</ele>
        <time>2022-07-07T04:49:00Z</time>
      </trkpt>
      <trkpt lat="20.306791" lon="-97.920897">
        <ele>1200.284</ele>
        <time>2022-07-07T04:49:05Z</time>
      </trkpt>
      <trkpt lat="20.306802" lon="-97.920948">
        <ele>1200.698</ele>
        <time>2022-07-07T04:49:08Z</time>
      </trkpt>
      <trkpt lat="20.306797" lon="-97.920997">
        <ele>1198.915</ele>
        <time>2022-07-07T04:49:12Z</time>
      </trkpt>
      <trkpt lat="20.306803" lon="-97.921053">
        <ele>1197.926</ele>
        <time>2022-07-07T04:49:15Z</time>
      </trkpt>
      <trkpt lat="20.306813" lon="-97.921102">
        <ele>1197.209</ele>
        <time>2022-07-07T04:49:19Z</time>
      </trkpt>
      <trkpt lat="20.306805" lon="-97.921152">
        <ele>1196.490</ele>
        <time>2022-07-07T04:49:23Z</time>
      </trkpt>
      <trkpt lat="20.306789" lon="-97.921202">
        <ele>1194.549</ele>
        <time>2022-07-07T04:49:29Z</time>
      </trkpt>
      <trkpt lat="20.306772" lon="-97.92125">
        <ele>1200.976</ele>
        <time>2022-07-07T04:49:36Z</time>
      </trkpt>
      <trkpt lat="20.306767" lon="-97.921307">
        <ele>1203.521</ele>
        <time>2022-07-07T04:49:40Z</time>
      </trkpt>
      <trkpt lat="20.306768" lon="-97.921365">
        <ele>1206.848</ele>
        <time>2022-07-07T04:49:45Z</time>
      </trkpt>
      <trkpt lat="20.306763" lon="-97.921413">
        <ele>1204.881</ele>
        <time>2022-07-07T04:49:49Z</time>
      </trkpt>
      <trkpt lat="20.306787" lon="-97.921454">
        <ele>1205.266</ele>
        <time>2022-07-07T04:49:54Z</time>
      </trkpt>
      <trkpt lat="20.306825" lon="-97.921495">
        <ele>1205.466</ele>
        <time>2022-07-07T04:50:00Z</time>
      </trkpt>
      <trkpt lat="20.306868" lon="-97.921521">
        <ele>1207.137</ele>
        <time>2022-07-07T04:50:05Z</time>
      </trkpt>
      <trkpt lat="20.306921" lon="-97.921525">
        <ele>1210.446</ele>
        <time>2022-07-07T04:50:11Z</time>
      </trkpt>
      <trkpt lat="20.306973" lon="-97.921529">
        <ele>1212.988</ele>
        <time>2022-07-07T04:50:16Z</time>
      </trkpt>
      <trkpt lat="20.307023" lon="-97.921527">
        <ele>1214.716</ele>
        <time>2022-07-07T04:50:21Z</time>
      </trkpt>
      <trkpt lat="20.307071" lon="-97.92155">
        <ele>1215.509</ele>
        <time>2022-07-07T04:50:27Z</time>
      </trkpt>
      <trkpt lat="20.307118" lon="-97.921564">
        <ele>1217.445</ele>
        <time>2022-07-07T04:50:32Z</time>
      </trkpt>
      <trkpt lat="20.307126" lon="-97.921618">
        <ele>1216.564</ele>
        <time>2022-07-07T04:50:38Z</time>
      </trkpt>
      <trkpt lat="20.307173" lon="-97.92163">
        <ele>1218.751</ele>
        <time>2022-07-07T04:50:43Z</time>
      </trkpt>
      <trkpt lat="20.307226" lon="-97.921626">
        <ele>1220.266</ele>
        <time>2022-07-07T04:50:47Z</time>
      </trkpt>
      <trkpt lat="20.307279" lon="-97.921616">
        <ele>1223.073</ele>
        <time>2022-07-07T04:50:51Z</time>
      </trkpt>
      <trkpt lat="20.307329" lon="-97.921626">
        <ele>1224.146</ele>
        <time>2022-07-07T04:51:01Z</time>
      </trkpt>
      <trkpt lat="20.307379" lon="-97.921647">
        <ele>1223.951</ele>
        <time>2022-07-07T04:51:05Z</time>
      </trkpt>
      <trkpt lat="20.307435" lon="-97.921665">
        <ele>1225.141</ele>
        <time>2022-07-07T04:51:09Z</time>
      </trkpt>
      <trkpt lat="20.307486" lon="-97.921695">
        <ele>1226.042</ele>
        <time>2022-07-07T04:51:13Z</time>
      </trkpt>
      <trkpt lat="20.307532" lon="-97.921725">
        <ele>1226.175</ele>
        <time>2022-07-07T04:51:17Z</time>
      </trkpt>
      <trkpt lat="20.307577" lon="-97.921755">
        <ele>1227.028</ele>
        <time>2022-07-07T04:51:22Z</time>
      </trkpt>
      <trkpt lat="20.307624" lon="-97.921782">
        <ele>1226.420</ele>
        <time>2022-07-07T04:51:27Z</time>
      </trkpt>
      <trkpt lat="20.307667" lon="-97.921808">
        <ele>1226.709</ele>
        <time>2022-07-07T04:51:31Z</time>
      </trkpt>
      <trkpt lat="20.307711" lon="-97.921834">
        <ele>1227.098</ele>
        <time>2022-07-07T04:51:35Z</time>
      </trkpt>
      <trkpt lat="20.307753" lon="-97.921865">
        <ele>1229.027</ele>
        <time>2022-07-07T04:51:39Z</time>
      </trkpt>
      <trkpt lat="20.307801" lon="-97.921895">
        <ele>1230.094</ele>
        <time>2022-07-07T04:51:44Z</time>
      </trkpt>
      <trkpt lat="20.307848" lon="-97.921907">
        <ele>1231.149</ele>
        <time>2022-07-07T04:51:48Z</time>
      </trkpt>
      <trkpt lat="20.307904" lon="-97.921896">
        <ele>1232.766</ele>
        <time>2022-07-07T04:51:52Z</time>
      </trkpt>
      <trkpt lat="20.307949" lon="-97.921886">
        <ele>1235.129</ele>
        <time>2022-07-07T04:51:55Z</time>
      </trkpt>
      <trkpt lat="20.307995" lon="-97.921878">
        <ele>1235.524</ele>
        <time>2022-07-07T04:51:59Z</time>
      </trkpt>
      <trkpt lat="20.308042" lon="-97.921854">
        <ele>1236.624</ele>
        <time>2022-07-07T04:52:04Z</time>
      </trkpt>
      <trkpt lat="20.308081" lon="-97.921824">
        <ele>1239.085</ele>
        <time>2022-07-07T04:52:10Z</time>
      </trkpt>
      <trkpt lat="20.308121" lon="-97.92179">
        <ele>1240.943</ele>
        <time>2022-07-07T04:52:16Z</time>
      </trkpt>
      <trkpt lat="20.308163" lon="-97.921762">
        <ele>1242.064</ele>
        <time>2022-07-07T04:52:22Z</time>
      </trkpt>
      <trkpt lat="20.308205" lon="-97.921736">
        <ele>1243.910</ele>
        <time>2022-07-07T04:52:27Z</time>
      </trkpt>
      <trkpt lat="20.308253" lon="-97.921714">
        <ele>1243.609</ele>
        <time>2022-07-07T04:52:32Z</time>
      </trkpt>
      <trkpt lat="20.308305" lon="-97.921704">
        <ele>1244.555</ele>
        <time>2022-07-07T04:52:37Z</time>
      </trkpt>
      <trkpt lat="20.30835" lon="-97.921703">
        <ele>1244.254</ele>
        <time>2022-07-07T04:52:41Z</time>
      </trkpt>
      <trkpt lat="20.308393" lon="-97.921727">
        <ele>1242.841</ele>
        <time>2022-07-07T04:52:46Z</time>
      </trkpt>
      <trkpt lat="20.308445" lon="-97.921719">
        <ele>1241.676</ele>
        <time>2022-07-07T04:52:52Z</time>
      </trkpt>
      <trkpt lat="20.308496" lon="-97.921736">
        <ele>1242.243</ele>
        <time>2022-07-07T04:52:58Z</time>
      </trkpt>
      <trkpt lat="20.308541" lon="-97.921745">
        <ele>1242.556</ele>
        <time>2022-07-07T04:53:02Z</time>
      </trkpt>
      <trkpt lat="20.308604" lon="-97.921768">
        <ele>1241.691</ele>
        <time>2022-07-07T04:53:06Z</time>
      </trkpt>
      <trkpt lat="20.30866" lon="-97.921781">
        <ele>1242.731</ele>
        <time>2022-07-07T04:53:09Z</time>
      </trkpt>
      <trkpt lat="20.308707" lon="-97.921796">
        <ele>1242.672</ele>
        <time>2022-07-07T04:53:12Z</time>
      </trkpt>
      <trkpt lat="20.308754" lon="-97.921798">
        <ele>1243.272</ele>
        <time>2022-07-07T04:53:15Z</time>
      </trkpt>
      <trkpt lat="20.308799" lon="-97.921815">
        <ele>1243.913</ele>
        <time>2022-07-07T04:53:20Z</time>
      </trkpt>
      <trkpt lat="20.308848" lon="-97.921851">
        <ele>1243.314</ele>
        <time>2022-07-07T04:53:24Z</time>
      </trkpt>
      <trkpt lat="20.308888" lon="-97.921892">
        <ele>1245.609</ele>
        <time>2022-07-07T04:53:27Z</time>
      </trkpt>
      <trkpt lat="20.308903" lon="-97.921945">
        <ele>1246.768</ele>
        <time>2022-07-07T04:53:32Z</time>
      </trkpt>
      <trkpt lat="20.308885" lon="-97.921995">
        <ele>1247.657</ele>
        <time>2022-07-07T04:53:39Z</time>
      </trkpt>
      <trkpt lat="20.308854" lon="-97.922031">
        <ele>1249.564</ele>
        <time>2022-07-07T04:53:45Z</time>
      </trkpt>
      <trkpt lat="20.308837" lon="-97.922078">
        <ele>1248.189</ele>
        <time>2022-07-07T04:53:50Z</time>
      </trkpt>
      <trkpt lat="20.30883" lon="-97.922128">
        <ele>1248.066</ele>
        <time>2022-07-07T04:53:54Z</time>
      </trkpt>
      <trkpt lat="20.308834" lon="-97.922178">
        <ele>1245.399</ele>
        <time>2022-07-07T04:53:58Z</time>
      </trkpt>
      <trkpt lat="20.308837" lon="-97.922234">
        <ele>1243.524</ele>
        <time>2022-07-07T04:54:03Z</time>
      </trkpt>
      <trkpt lat="20.308848" lon="-97.922285">
        <ele>1242.724</ele>
        <time>2022-07-07T04:54:07Z</time>
      </trkpt>
      <trkpt lat="20.308841" lon="-97.922336">
        <ele>1242.945</ele>
        <time>2022-07-07T04:54:12Z</time>
      </trkpt>
      <trkpt lat="20.308858" lon="-97.922381">
        <ele>1242.793</ele>
        <time>2022-07-07T04:54:16Z</time>
      </trkpt>
      <trkpt lat="20.308888" lon="-97.922424">
        <ele>1242.865</ele>
        <time>2022-07-07T04:54:20Z</time>
      </trkpt>
      <trkpt lat="20.308893" lon="-97.922481">
        <ele>1244.021</ele>
        <time>2022-07-07T04:54:25Z</time>
      </trkpt>
      <trkpt lat="20.308898" lon="-97.922531">
        <ele>1243.609</ele>
        <time>2022-07-07T04:54:30Z</time>
      </trkpt>
      <trkpt lat="20.308907" lon="-97.922583">
        <ele>1242.450</ele>
        <time>2022-07-07T04:54:35Z</time>
      </trkpt>
      <trkpt lat="20.308919" lon="-97.922637">
        <ele>1241.099</ele>
        <time>2022-07-07T04:54:40Z</time>
      </trkpt>
      <trkpt lat="20.308939" lon="-97.922696">
        <ele>1248.566</ele>
        <time>2022-07-07T04:54:44Z</time>
      </trkpt>
      <trkpt lat="20.308966" lon="-97.922736">
        <ele>1250.011</ele>
        <time>2022-07-07T04:54:47Z</time>
      </trkpt>
      <trkpt lat="20.308978" lon="-97.922793">
        <ele>1250.588</ele>
        <time>2022-07-07T04:54:50Z</time>
      </trkpt>
      <trkpt lat="20.309006" lon="-97.922853">
        <ele>1251.381</ele>
        <time>2022-07-07T04:54:53Z</time>
      </trkpt>
      <trkpt lat="20.309043" lon="-97.922887">
        <ele>1252.276</ele>
        <time>2022-07-07T04:54:58Z</time>
      </trkpt>
      <trkpt lat="20.309097" lon="-97.922882">
        <ele>1253.186</ele>
        <time>2022-07-07T04:55:03Z</time>
      </trkpt>
      <trkpt lat="20.309147" lon="-97.92288">
        <ele>1253.447</ele>
        <time>2022-07-07T04:55:08Z</time>
      </trkpt>
      <trkpt lat="20.309179" lon="-97.922834">
        <ele>1254.947</ele>
        <time>2022-07-07T04:55:14Z</time>
      </trkpt>
      <trkpt lat="20.30922" lon="-97.922809">
        <ele>1255.929</ele>
        <time>2022-07-07T04:55:20Z</time>
      </trkpt>
      <trkpt lat="20.309263" lon="-97.92278">
        <ele>1255.121</ele>
        <time>2022-07-07T04:55:26Z</time>
      </trkpt>
      <trkpt lat="20.30931" lon="-97.92278">
        <ele>1258.309</ele>
        <time>2022-07-07T04:55:32Z</time>
      </trkpt>
      <trkpt lat="20.309358" lon="-97.922806">
        <ele>1259.645</ele>
        <time>2022-07-07T04:55:38Z</time>
      </trkpt>
      <trkpt lat="20.30941" lon="-97.922819">
        <ele>1259.474</ele>
        <time>2022-07-07T04:55:43Z</time>
      </trkpt>
      <trkpt lat="20.309446" lon="-97.922852">
        <ele>1258.211</ele>
        <time>2022-07-07T04:55:47Z</time>
      </trkpt>
      <trkpt lat="20.309469" lon="-97.922895">
        <ele>1256.956</ele>
        <time>2022-07-07T04:55:51Z</time>
      </trkpt>
      <trkpt lat="20.309502" lon="-97.922938">
        <ele>1256.713</ele>
        <time>2022-07-07T04:55:56Z</time>
      </trkpt>
      <trkpt lat="20.309542" lon="-97.922976">
        <ele>1258.076</ele>
        <time>2022-07-07T04:56:01Z</time>
      </trkpt>
      <trkpt lat="20.309588" lon="-97.922994">
        <ele>1257.381</ele>
        <time>2022-07-07T04:56:06Z</time>
      </trkpt>
      <trkpt lat="20.309636" lon="-97.923017">
        <ele>1258.561</ele>
        <time>2022-07-07T04:56:11Z</time>
      </trkpt>
      <trkpt lat="20.309685" lon="-97.923048">
        <ele>1260.092</ele>
        <time>2022-07-07T04:56:14Z</time>
      </trkpt>
      <trkpt lat="20.309741" lon="-97.923071">
        <ele>1261.611</ele>
        <time>2022-07-07T04:56:18Z</time>
      </trkpt>
      <trkpt lat="20.309788" lon="-97.923089">
        <ele>1261.921</ele>
        <time>2022-07-07T04:56:22Z</time>
      </trkpt>
      <trkpt lat="20.309776" lon="-97.923145">
        <ele>1264.003</ele>
        <time>2022-07-07T04:56:27Z</time>
      </trkpt>
      <trkpt lat="20.309804" lon="-97.923194">
        <ele>1266.609</ele>
        <time>2022-07-07T04:56:32Z</time>
      </trkpt>
      <trkpt lat="20.309823" lon="-97.923243">
        <ele>1266.182</ele>
        <time>2022-07-07T04:56:37Z</time>
      </trkpt>
      <trkpt lat="20.309854" lon="-97.923291">
        <ele>1264.561</ele>
        <time>2022-07-07T04:56:42Z</time>
      </trkpt>
      <trkpt lat="20.309854" lon="-97.923345">
        <ele>1266.788</ele>
        <time>2022-07-07T04:56:47Z</time>
      </trkpt>
      <trkpt lat="20.309848" lon="-97.923403">
        <ele>1267.393</ele>
        <time>2022-07-07T04:56:51Z</time>
      </trkpt>
      <trkpt lat="20.309844" lon="-97.92346">
        <ele>1269.840</ele>
        <time>2022-07-07T04:56:56Z</time>
      </trkpt>
      <trkpt lat="20.309852" lon="-97.923516">
        <ele>1268.923</ele>
        <time>2022-07-07T04:57:01Z</time>
      </trkpt>
      <trkpt lat="20.309844" lon="-97.923574">
        <ele>1268.838</ele>
        <time>2022-07-07T04:57:06Z</time>
      </trkpt>
      <trkpt lat="20.309827" lon="-97.923622">
        <ele>1270.658</ele>
        <time>2022-07-07T04:57:11Z</time>
      </trkpt>
      <trkpt lat="20.30982" lon="-97.923678">
        <ele>1269.899</ele>
        <time>2022-07-07T04:57:15Z</time>
      </trkpt>
      <trkpt lat="20.309813" lon="-97.923734">
        <ele>1271.488</ele>
        <time>2022-07-07T04:57:19Z</time>
      </trkpt>
      <trkpt lat="20.309799" lon="-97.923784">
        <ele>1271.124</ele>
        <time>2022-07-07T04:57:24Z</time>
      </trkpt>
      <trkpt lat="20.309799" lon="-97.923839">
        <ele>1270.526</ele>
        <time>2022-07-07T04:57:29Z</time>
      </trkpt>
      <trkpt lat="20.309805" lon="-97.923899">
        <ele>1266.709</ele>
        <time>2022-07-07T04:57:34Z</time>
      </trkpt>
      <trkpt lat="20.309824" lon="-97.923943">
        <ele>1265.259</ele>
        <time>2022-07-07T04:57:37Z</time>
      </trkpt>
      <trkpt lat="20.309832" lon="-97.924001">
        <ele>1263.858</ele>
        <time>2022-07-07T04:57:42Z</time>
      </trkpt>
      <trkpt lat="20.30984" lon="-97.924055">
        <ele>1264.895</ele>
        <time>2022-07-07T04:57:47Z</time>
      </trkpt>
      <trkpt lat="20.309844" lon="-97.92411">
        <ele>1263.960</ele>
        <time>2022-07-07T04:57:54Z</time>
      </trkpt>
      <trkpt lat="20.309871" lon="-97.924159">
        <ele>1265.067</ele>
        <time>2022-07-07T04:57:58Z</time>
      </trkpt>
      <trkpt lat="20.309901" lon="-97.924205">
        <ele>1268.880</ele>
        <time>2022-07-07T04:58:01Z</time>
      </trkpt>
      <trkpt lat="20.309953" lon="-97.924238">
        <ele>1269.155</ele>
        <time>2022-07-07T04:58:04Z</time>
      </trkpt>
      <trkpt lat="20.310002" lon="-97.924273">
        <ele>1273.435</ele>
        <time>2022-07-07T04:58:07Z</time>
      </trkpt>
      <trkpt lat="20.310036" lon="-97.924307">
        <ele>1274.686</ele>
        <time>2022-07-07T04:58:10Z</time>
      </trkpt>
      <trkpt lat="20.310085" lon="-97.924344">
        <ele>1275.044</ele>
        <time>2022-07-07T04:58:13Z</time>
      </trkpt>
      <trkpt lat="20.310132" lon="-97.924339">
        <ele>1276.705</ele>
        <time>2022-07-07T04:58:17Z</time>
      </trkpt>
      <trkpt lat="20.310155" lon="-97.924382">
        <ele>1277.115</ele>
        <time>2022-07-07T04:58:22Z</time>
      </trkpt>
      <trkpt lat="20.310192" lon="-97.924427">
        <ele>1278.509</ele>
        <time>2022-07-07T04:58:27Z</time>
      </trkpt>
      <trkpt lat="20.310229" lon="-97.924455">
        <ele>1280.235</ele>
        <time>2022-07-07T04:58:31Z</time>
      </trkpt>
      <trkpt lat="20.310258" lon="-97.924493">
        <ele>1281.634</ele>
        <time>2022-07-07T04:58:35Z</time>
      </trkpt>
      <trkpt lat="20.31027" lon="-97.924542">
        <ele>1281.861</ele>
        <time>2022-07-07T04:58:39Z</time>
      </trkpt>
      <trkpt lat="20.310287" lon="-97.924594">
        <ele>1282.396</ele>
        <time>2022-07-07T04:58:43Z</time>
      </trkpt>
      <trkpt lat="20.310308" lon="-97.92464">
        <ele>1282.493</ele>
        <time>2022-07-07T04:58:47Z</time>
      </trkpt>
      <trkpt lat="20.310323" lon="-97.924687">
        <ele>1281.126</ele>
        <time>2022-07-07T04:58:51Z</time>
      </trkpt>
      <trkpt lat="20.31032" lon="-97.924739">
        <ele>1282.541</ele>
        <time>2022-07-07T04:58:56Z</time>
      </trkpt>
      <trkpt lat="20.310359" lon="-97.924793">
        <ele>1281.451</ele>
        <time>2022-07-07T04:59:01Z</time>
      </trkpt>
      <trkpt lat="20.31039" lon="-97.924841">
        <ele>1282.662</ele>
        <time>2022-07-07T04:59:04Z</time>
      </trkpt>
      <trkpt lat="20.310423" lon="-97.924883">
        <ele>1285.068</ele>
        <time>2022-07-07T04:59:07Z</time>
      </trkpt>
      <trkpt lat="20.310454" lon="-97.924925">
        <ele>1284.942</ele>
        <time>2022-07-07T04:59:10Z</time>
      </trkpt>
      <trkpt lat="20.310482" lon="-97.924978">
        <ele>1287.726</ele>
        <time>2022-07-07T04:59:15Z</time>
      </trkpt>
      <trkpt lat="20.31051" lon="-97.925022">
        <ele>1288.509</ele>
        <time>2022-07-07T04:59:20Z</time>
      </trkpt>
      <trkpt lat="20.310534" lon="-97.925066">
        <ele>1289.467</ele>
        <time>2022-07-07T04:59:24Z</time>
      </trkpt>
      <trkpt lat="20.310567" lon="-97.925108">
        <ele>1291.426</ele>
        <time>2022-07-07T04:59:28Z</time>
      </trkpt>
      <trkpt lat="20.310599" lon="-97.925153">
        <ele>1289.653</ele>
        <time>2022-07-07T04:59:33Z</time>
      </trkpt>
      <trkpt lat="20.310612" lon="-97.925207">
        <ele>1287.568</ele>
        <time>2022-07-07T04:59:38Z</time>
      </trkpt>
      <trkpt lat="20.310623" lon="-97.925266">
        <ele>1285.665</ele>
        <time>2022-07-07T04:59:43Z</time>
      </trkpt>
      <trkpt lat="20.310633" lon="-97.925325">
        <ele>1289.768</ele>
        <time>2022-07-07T04:59:48Z</time>
      </trkpt>
      <trkpt lat="20.310634" lon="-97.92538">
        <ele>1289.163</ele>
        <time>2022-07-07T04:59:51Z</time>
      </trkpt>
      <trkpt lat="20.310668" lon="-97.925432">
        <ele>1289.423</ele>
        <time>2022-07-07T04:59:54Z</time>
      </trkpt>
      <trkpt lat="20.310709" lon="-97.925464">
        <ele>1294.044</ele>
        <time>2022-07-07T04:59:58Z</time>
      </trkpt>
      <trkpt lat="20.310735" lon="-97.925518">
        <ele>1296.118</ele>
        <time>2022-07-07T05:00:03Z</time>
      </trkpt>
      <trkpt lat="20.310759" lon="-97.925568">
        <ele>1301.198</ele>
        <time>2022-07-07T05:00:08Z</time>
      </trkpt>
      <trkpt lat="20.310803" lon="-97.925597">
        <ele>1297.117</ele>
        <time>2022-07-07T05:00:12Z</time>
      </trkpt>
      <trkpt lat="20.310834" lon="-97.925635">
        <ele>1291.609</ele>
        <time>2022-07-07T05:00:23Z</time>
      </trkpt>
      <trkpt lat="20.310867" lon="-97.925671">
        <ele>1293.952</ele>
        <time>2022-07-07T05:00:31Z</time>
      </trkpt>
      <trkpt lat="20.31089" lon="-97.92572">
        <ele>1293.511</ele>
        <time>2022-07-07T05:00:38Z</time>
      </trkpt>
      <trkpt lat="20.310919" lon="-97.925759">
        <ele>1296.088</ele>
        <time>2022-07-07T05:00:45Z</time>
      </trkpt>
      <trkpt lat="20.310954" lon="-97.925798">
        <ele>1295.283</ele>
        <time>2022-07-07T05:00:53Z</time>
      </trkpt>
      <trkpt lat="20.311003" lon="-97.925807">
        <ele>1293.620</ele>
        <time>2022-07-07T05:01:01Z</time>
      </trkpt>
      <trkpt lat="20.31098" lon="-97.92585">
        <ele>1291.353</ele>
        <time>2022-07-07T05:01:44Z</time>
      </trkpt>
      <trkpt lat="20.310978" lon="-97.9259">
        <ele>1293.658</ele>
        <time>2022-07-07T05:02:49Z</time>
      </trkpt>
      <trkpt lat="20.310969" lon="-97.925954">
        <ele>1294.528</ele>
        <time>2022-07-07T05:02:54Z</time>
      </trkpt>
      <trkpt lat="20.31095" lon="-97.926">
        <ele>1293.649</ele>
        <time>2022-07-07T05:03:42Z</time>
      </trkpt>
      <trkpt lat="20.310932" lon="-97.92605">
        <ele>1294.858</ele>
        <time>2022-07-07T05:03:48Z</time>
      </trkpt>
      <trkpt lat="20.310912" lon="-97.926102">
        <ele>1295.952</ele>
        <time>2022-07-07T05:03:53Z</time>
      </trkpt>
      <trkpt lat="20.310893" lon="-97.926158">
        <ele>1296.417</ele>
        <time>2022-07-07T05:03:58Z</time>
      </trkpt>
      <trkpt lat="20.310866" lon="-97.926203">
        <ele>1298.209</ele>
        <time>2022-07-07T05:04:03Z</time>
      </trkpt>
      <trkpt lat="20.310857" lon="-97.926261">
        <ele>1298.576</ele>
        <time>2022-07-07T05:04:08Z</time>
      </trkpt>
      <trkpt lat="20.310844" lon="-97.926319">
        <ele>1298.175</ele>
        <time>2022-07-07T05:04:13Z</time>
      </trkpt>
      <trkpt lat="20.310814" lon="-97.926367">
        <ele>1298.462</ele>
        <time>2022-07-07T05:04:18Z</time>
      </trkpt>
      <trkpt lat="20.310788" lon="-97.926418">
        <ele>1299.167</ele>
        <time>2022-07-07T05:04:23Z</time>
      </trkpt>
      <trkpt lat="20.310761" lon="-97.926469">
        <ele>1301.184</ele>
        <time>2022-07-07T05:04:28Z</time>
      </trkpt>
      <trkpt lat="20.310725" lon="-97.926509">
        <ele>1302.317</ele>
        <time>2022-07-07T05:04:33Z</time>
      </trkpt>
      <trkpt lat="20.310677" lon="-97.926533">
        <ele>1302.442</ele>
        <time>2022-07-07T05:04:38Z</time>
      </trkpt>
      <trkpt lat="20.310625" lon="-97.926541">
        <ele>1301.182</ele>
        <time>2022-07-07T05:04:43Z</time>
      </trkpt>
      <trkpt lat="20.310573" lon="-97.926551">
        <ele>1299.753</ele>
        <time>2022-07-07T05:04:48Z</time>
      </trkpt>
      <trkpt lat="20.310523" lon="-97.926551">
        <ele>1299.183</ele>
        <time>2022-07-07T05:04:53Z</time>
      </trkpt>
      <trkpt lat="20.310469" lon="-97.926539">
        <ele>1297.725</ele>
        <time>2022-07-07T05:04:58Z</time>
      </trkpt>
      <trkpt lat="20.310418" lon="-97.926541">
        <ele>1298.517</ele>
        <time>2022-07-07T05:05:03Z</time>
      </trkpt>
      <trkpt lat="20.310373" lon="-97.926524">
        <ele>1298.309</ele>
        <time>2022-07-07T05:05:07Z</time>
      </trkpt>
      <trkpt lat="20.310332" lon="-97.926486">
        <ele>1298.789</ele>
        <time>2022-07-07T05:05:11Z</time>
      </trkpt>
      <trkpt lat="20.310283" lon="-97.926475">
        <ele>1298.178</ele>
        <time>2022-07-07T05:05:15Z</time>
      </trkpt>
      <trkpt lat="20.31024" lon="-97.926456">
        <ele>1296.065</ele>
        <time>2022-07-07T05:05:20Z</time>
      </trkpt>
      <trkpt lat="20.310185" lon="-97.926441">
        <ele>1296.260</ele>
        <time>2022-07-07T05:05:25Z</time>
      </trkpt>
      <trkpt lat="20.310138" lon="-97.926416">
        <ele>1295.527</ele>
        <time>2022-07-07T05:05:29Z</time>
      </trkpt>
      <trkpt lat="20.31009" lon="-97.926403">
        <ele>1293.460</ele>
        <time>2022-07-07T05:05:33Z</time>
      </trkpt>
      <trkpt lat="20.310031" lon="-97.926394">
        <ele>1293.125</ele>
        <time>2022-07-07T05:05:36Z</time>
      </trkpt>
      <trkpt lat="20.30997" lon="-97.926379">
        <ele>1292.785</ele>
        <time>2022-07-07T05:05:39Z</time>
      </trkpt>
      <trkpt lat="20.309918" lon="-97.926387">
        <ele>1292.376</ele>
        <time>2022-07-07T05:05:42Z</time>
      </trkpt>
      <trkpt lat="20.309865" lon="-97.926412">
        <ele>1289.767</ele>
        <time>2022-07-07T05:05:45Z</time>
      </trkpt>
      <trkpt lat="20.309831" lon="-97.926472">
        <ele>1291.581</ele>
        <time>2022-07-07T05:05:48Z</time>
      </trkpt>
      <trkpt lat="20.309834" lon="-97.926537">
        <ele>1289.919</ele>
        <time>2022-07-07T05:05:51Z</time>
      </trkpt>
      <trkpt lat="20.309849" lon="-97.926586">
        <ele>1289.209</ele>
        <time>2022-07-07T05:05:53Z</time>
      </trkpt>
      <trkpt lat="20.309862" lon="-97.926632">
        <ele>1289.297</ele>
        <time>2022-07-07T05:05:55Z</time>
      </trkpt>
      <trkpt lat="20.309873" lon="-97.926697">
        <ele>1288.946</ele>
        <time>2022-07-07T05:05:58Z</time>
      </trkpt>
      <trkpt lat="20.30986" lon="-97.926758">
        <ele>1289.413</ele>
        <time>2022-07-07T05:06:01Z</time>
      </trkpt>
      <trkpt lat="20.309833" lon="-97.926807">
        <ele>1291.318</ele>
        <time>2022-07-07T05:06:04Z</time>
      </trkpt>
      <trkpt lat="20.309797" lon="-97.926847">
        <ele>1292.415</ele>
        <time>2022-07-07T05:06:07Z</time>
      </trkpt>
      <trkpt lat="20.309749" lon="-97.926867">
        <ele>1293.058</ele>
        <time>2022-07-07T05:06:10Z</time>
      </trkpt>
      <trkpt lat="20.309698" lon="-97.926857">
        <ele>1291.863</ele>
        <time>2022-07-07T05:06:13Z</time>
      </trkpt>
      <trkpt lat="20.309651" lon="-97.926845">
        <ele>1292.543</ele>
        <time>2022-07-07T05:06:16Z</time>
      </trkpt>
      <trkpt lat="20.309595" lon="-97.926833">
        <ele>1293.164</ele>
        <time>2022-07-07T05:06:20Z</time>
      </trkpt>
      <trkpt lat="20.309536" lon="-97.926826">
        <ele>1292.911</ele>
        <time>2022-07-07T05:06:23Z</time>
      </trkpt>
      <trkpt lat="20.309475" lon="-97.926829">
        <ele>1293.121</ele>
        <time>2022-07-07T05:06:26Z</time>
      </trkpt>
      <trkpt lat="20.309417" lon="-97.92685">
        <ele>1293.903</ele>
        <time>2022-07-07T05:06:29Z</time>
      </trkpt>
      <trkpt lat="20.309359" lon="-97.926865">
        <ele>1295.309</ele>
        <time>2022-07-07T05:06:32Z</time>
      </trkpt>
      <trkpt lat="20.309319" lon="-97.926893">
        <ele>1295.692</ele>
        <time>2022-07-07T05:06:35Z</time>
      </trkpt>
      <trkpt lat="20.309269" lon="-97.926927">
        <ele>1293.441</ele>
        <time>2022-07-07T05:06:41Z</time>
      </trkpt>
      <trkpt lat="20.309211" lon="-97.926949">
        <ele>1294.028</ele>
        <time>2022-07-07T05:06:44Z</time>
      </trkpt>
      <trkpt lat="20.309159" lon="-97.926966">
        <ele>1292.723</ele>
        <time>2022-07-07T05:06:47Z</time>
      </trkpt>
      <trkpt lat="20.309108" lon="-97.926988">
        <ele>1293.270</ele>
        <time>2022-07-07T05:06:50Z</time>
      </trkpt>
      <trkpt lat="20.309063" lon="-97.927001">
        <ele>1294.893</ele>
        <time>2022-07-07T05:06:53Z</time>
      </trkpt>
      <trkpt lat="20.309016" lon="-97.927002">
        <ele>1293.748</ele>
        <time>2022-07-07T05:06:57Z</time>
      </trkpt>
      <trkpt lat="20.308969" lon="-97.927022">
        <ele>1292.028</ele>
        <time>2022-07-07T05:07:02Z</time>
      </trkpt>
      <trkpt lat="20.308911" lon="-97.927052">
        <ele>1290.859</ele>
        <time>2022-07-07T05:07:06Z</time>
      </trkpt>
      <trkpt lat="20.30887" lon="-97.927095">
        <ele>1289.752</ele>
        <time>2022-07-07T05:07:10Z</time>
      </trkpt>
      <trkpt lat="20.308834" lon="-97.927129">
        <ele>1290.053</ele>
        <time>2022-07-07T05:07:14Z</time>
      </trkpt>
      <trkpt lat="20.308801" lon="-97.927175">
        <ele>1290.208</ele>
        <time>2022-07-07T05:07:18Z</time>
      </trkpt>
      <trkpt lat="20.308752" lon="-97.927202">
        <ele>1291.809</ele>
        <time>2022-07-07T05:07:21Z</time>
      </trkpt>
      <trkpt lat="20.308713" lon="-97.927238">
        <ele>1290.786</ele>
        <time>2022-07-07T05:07:25Z</time>
      </trkpt>
      <trkpt lat="20.308692" lon="-97.927299">
        <ele>1290.425</ele>
        <time>2022-07-07T05:07:29Z</time>
      </trkpt>
      <trkpt lat="20.30866" lon="-97.927337">
        <ele>1290.972</ele>
        <time>2022-07-07T05:07:34Z</time>
      </trkpt>
      <trkpt lat="20.30862" lon="-97.92736">
        <ele>1291.437</ele>
        <time>2022-07-07T05:07:39Z</time>
      </trkpt>
      <trkpt lat="20.30857" lon="-97.927388">
        <ele>1291.624</ele>
        <time>2022-07-07T05:07:44Z</time>
      </trkpt>
      <trkpt lat="20.308523" lon="-97.927404">
        <ele>1292.437</ele>
        <time>2022-07-07T05:07:49Z</time>
      </trkpt>
      <trkpt lat="20.308482" lon="-97.927445">
        <ele>1292.642</ele>
        <time>2022-07-07T05:07:52Z</time>
      </trkpt>
      <trkpt lat="20.308446" lon="-97.927478">
        <ele>1293.412</ele>
        <time>2022-07-07T05:07:55Z</time>
      </trkpt>
      <trkpt lat="20.308406" lon="-97.927514">
        <ele>1294.373</ele>
        <time>2022-07-07T05:07:59Z</time>
      </trkpt>
      <trkpt lat="20.308372" lon="-97.927564">
        <ele>1296.849</ele>
        <time>2022-07-07T05:08:03Z</time>
      </trkpt>
      <trkpt lat="20.30834" lon="-97.927602">
        <ele>1293.702</ele>
        <time>2022-07-07T05:08:08Z</time>
      </trkpt>
      <trkpt lat="20.308307" lon="-97.927636">
        <ele>1290.822</ele>
        <time>2022-07-07T05:08:13Z</time>
      </trkpt>
      <trkpt lat="20.308271" lon="-97.927678">
        <ele>1292.309</ele>
        <time>2022-07-07T05:08:16Z</time>
      </trkpt>
      <trkpt lat="20.308259" lon="-97.927725">
        <ele>1294.475</ele>
        <time>2022-07-07T05:08:18Z</time>
      </trkpt>
      <trkpt lat="20.308256" lon="-97.927792">
        <ele>1291.764</ele>
        <time>2022-07-07T05:08:21Z</time>
      </trkpt>
      <trkpt lat="20.308248" lon="-97.927854">
        <ele>1290.961</ele>
        <time>2022-07-07T05:08:24Z</time>
      </trkpt>
      <trkpt lat="20.308239" lon="-97.927912">
        <ele>1291.936</ele>
        <time>2022-07-07T05:08:27Z</time>
      </trkpt>
      <trkpt lat="20.308226" lon="-97.927966">
        <ele>1293.983</ele>
        <time>2022-07-07T05:08:30Z</time>
      </trkpt>
      <trkpt lat="20.308218" lon="-97.928016">
        <ele>1293.866</ele>
        <time>2022-07-07T05:08:34Z</time>
      </trkpt>
      <trkpt lat="20.308202" lon="-97.928072">
        <ele>1292.931</ele>
        <time>2022-07-07T05:08:38Z</time>
      </trkpt>
      <trkpt lat="20.308187" lon="-97.92813">
        <ele>1292.761</ele>
        <time>2022-07-07T05:08:41Z</time>
      </trkpt>
      <trkpt lat="20.308173" lon="-97.928188">
        <ele>1294.012</ele>
        <time>2022-07-07T05:08:44Z</time>
      </trkpt>
      <trkpt lat="20.308158" lon="-97.928245">
        <ele>1294.268</ele>
        <time>2022-07-07T05:08:47Z</time>
      </trkpt>
      <trkpt lat="20.308123" lon="-97.928288">
        <ele>1293.942</ele>
        <time>2022-07-07T05:08:50Z</time>
      </trkpt>
      <trkpt lat="20.308076" lon="-97.928311">
        <ele>1297.526</ele>
        <time>2022-07-07T05:08:54Z</time>
      </trkpt>
      <trkpt lat="20.308016" lon="-97.928293">
        <ele>1298.909</ele>
        <time>2022-07-07T05:08:58Z</time>
      </trkpt>
      <trkpt lat="20.307967" lon="-97.928261">
        <ele>1300.777</ele>
        <time>2022-07-07T05:09:01Z</time>
      </trkpt>
      <trkpt lat="20.307923" lon="-97.928246">
        <ele>1299.876</ele>
        <time>2022-07-07T05:09:04Z</time>
      </trkpt>
      <trkpt lat="20.307866" lon="-97.928251">
        <ele>1299.083</ele>
        <time>2022-07-07T05:09:07Z</time>
      </trkpt>
      <trkpt lat="20.307812" lon="-97.928272">
        <ele>1298.468</ele>
        <time>2022-07-07T05:09:10Z</time>
      </trkpt>
      <trkpt lat="20.307759" lon="-97.928293">
        <ele>1299.045</ele>
        <time>2022-07-07T05:09:13Z</time>
      </trkpt>
      <trkpt lat="20.307698" lon="-97.928312">
        <ele>1298.538</ele>
        <time>2022-07-07T05:09:16Z</time>
      </trkpt>
      <trkpt lat="20.30764" lon="-97.928343">
        <ele>1297.993</ele>
        <time>2022-07-07T05:09:19Z</time>
      </trkpt>
      <trkpt lat="20.307582" lon="-97.928372">
        <ele>1296.933</ele>
        <time>2022-07-07T05:09:22Z</time>
      </trkpt>
      <trkpt lat="20.307519" lon="-97.928385">
        <ele>1296.484</ele>
        <time>2022-07-07T05:09:25Z</time>
      </trkpt>
      <trkpt lat="20.307464" lon="-97.928387">
        <ele>1295.061</ele>
        <time>2022-07-07T05:09:28Z</time>
      </trkpt>
      <trkpt lat="20.307418" lon="-97.92841">
        <ele>1295.321</ele>
        <time>2022-07-07T05:09:31Z</time>
      </trkpt>
      <trkpt lat="20.307378" lon="-97.928437">
        <ele>1295.413</ele>
        <time>2022-07-07T05:09:34Z</time>
      </trkpt>
      <trkpt lat="20.307325" lon="-97.928445">
        <ele>1293.209</ele>
        <time>2022-07-07T05:09:37Z</time>
      </trkpt>
      <trkpt lat="20.307275" lon="-97.928473">
        <ele>1292.947</ele>
        <time>2022-07-07T05:09:41Z</time>
      </trkpt>
      <trkpt lat="20.307222" lon="-97.928496">
        <ele>1294.256</ele>
        <time>2022-07-07T05:09:45Z</time>
      </trkpt>
      <trkpt lat="20.307179" lon="-97.928531">
        <ele>1294.313</ele>
        <time>2022-07-07T05:09:49Z</time>
      </trkpt>
      <trkpt lat="20.307134" lon="-97.928554">
        <ele>1295.388</ele>
        <time>2022-07-07T05:09:53Z</time>
      </trkpt>
      <trkpt lat="20.307092" lon="-97.928575">
        <ele>1297.825</ele>
        <time>2022-07-07T05:09:57Z</time>
      </trkpt>
      <trkpt lat="20.307043" lon="-97.928595">
        <ele>1298.148</ele>
        <time>2022-07-07T05:10:02Z</time>
      </trkpt>
      <trkpt lat="20.306989" lon="-97.928594">
        <ele>1296.433</ele>
        <time>2022-07-07T05:10:06Z</time>
      </trkpt>
      <trkpt lat="20.306941" lon="-97.928603">
        <ele>1295.983</ele>
        <time>2022-07-07T05:10:12Z</time>
      </trkpt>
      <trkpt lat="20.306895" lon="-97.928598">
        <ele>1296.774</ele>
        <time>2022-07-07T05:10:16Z</time>
      </trkpt>
      <trkpt lat="20.306837" lon="-97.928594">
        <ele>1299.749</ele>
        <time>2022-07-07T05:10:20Z</time>
      </trkpt>
      <trkpt lat="20.306789" lon="-97.928594">
        <ele>1300.702</ele>
        <time>2022-07-07T05:10:23Z</time>
      </trkpt>
      <trkpt lat="20.306744" lon="-97.928597">
        <ele>1299.922</ele>
        <time>2022-07-07T05:10:25Z</time>
      </trkpt>
      <trkpt lat="20.306683" lon="-97.928607">
        <ele>1299.809</ele>
        <time>2022-07-07T05:10:28Z</time>
      </trkpt>
      <trkpt lat="20.306637" lon="-97.928613">
        <ele>1299.895</ele>
        <time>2022-07-07T05:10:31Z</time>
      </trkpt>
      <trkpt lat="20.306585" lon="-97.92863">
        <ele>1298.624</ele>
        <time>2022-07-07T05:10:34Z</time>
      </trkpt>
      <trkpt lat="20.306541" lon="-97.928658">
        <ele>1297.611</ele>
        <time>2022-07-07T05:10:37Z</time>
      </trkpt>
      <trkpt lat="20.306496" lon="-97.928679">
        <ele>1296.926</ele>
        <time>2022-07-07T05:10:44Z</time>
      </trkpt>
      <trkpt lat="20.306452" lon="-97.928702">
        <ele>1294.673</ele>
        <time>2022-07-07T05:10:49Z</time>
      </trkpt>
      <trkpt lat="20.306407" lon="-97.928717">
        <ele>1293.766</ele>
        <time>2022-07-07T05:10:54Z</time>
      </trkpt>
      <trkpt lat="20.306363" lon="-97.928747">
        <ele>1293.591</ele>
        <time>2022-07-07T05:10:59Z</time>
      </trkpt>
      <trkpt lat="20.306327" lon="-97.928779">
        <ele>1295.521</ele>
        <time>2022-07-07T05:11:03Z</time>
      </trkpt>
      <trkpt lat="20.306292" lon="-97.928818">
        <ele>1297.792</ele>
        <time>2022-07-07T05:11:07Z</time>
      </trkpt>
      <trkpt lat="20.306258" lon="-97.928852">
        <ele>1298.671</ele>
        <time>2022-07-07T05:11:10Z</time>
      </trkpt>
      <trkpt lat="20.306218" lon="-97.928883">
        <ele>1298.841</ele>
        <time>2022-07-07T05:11:14Z</time>
      </trkpt>
      <trkpt lat="20.306181" lon="-97.92892">
        <ele>1299.915</ele>
        <time>2022-07-07T05:11:18Z</time>
      </trkpt>
      <trkpt lat="20.30614" lon="-97.928955">
        <ele>1302.609</ele>
        <time>2022-07-07T05:11:22Z</time>
      </trkpt>
      <trkpt lat="20.3061" lon="-97.929">
        <ele>1304.648</ele>
        <time>2022-07-07T05:11:26Z</time>
      </trkpt>
      <trkpt lat="20.306068" lon="-97.929044">
        <ele>1307.127</ele>
        <time>2022-07-07T05:11:29Z</time>
      </trkpt>
      <trkpt lat="20.306034" lon="-97.929079">
        <ele>1308.914</ele>
        <time>2022-07-07T05:11:33Z</time>
      </trkpt>
      <trkpt lat="20.306003" lon="-97.929121">
        <ele>1308.769</ele>
        <time>2022-07-07T05:11:38Z</time>
      </trkpt>
      <trkpt lat="20.305977" lon="-97.929162">
        <ele>1308.746</ele>
        <time>2022-07-07T05:11:41Z</time>
      </trkpt>
      <trkpt lat="20.305949" lon="-97.929206">
        <ele>1308.369</ele>
        <time>2022-07-07T05:11:44Z</time>
      </trkpt>
      <trkpt lat="20.305921" lon="-97.929255">
        <ele>1306.754</ele>
        <time>2022-07-07T05:11:48Z</time>
      </trkpt>
      <trkpt lat="20.30589" lon="-97.929315">
        <ele>1308.554</ele>
        <time>2022-07-07T05:11:52Z</time>
      </trkpt>
      <trkpt lat="20.305858" lon="-97.929359">
        <ele>1309.865</ele>
        <time>2022-07-07T05:11:55Z</time>
      </trkpt>
      <trkpt lat="20.305815" lon="-97.929393">
        <ele>1310.371</ele>
        <time>2022-07-07T05:12:00Z</time>
      </trkpt>
      <trkpt lat="20.305784" lon="-97.929434">
        <ele>1311.141</ele>
        <time>2022-07-07T05:12:06Z</time>
      </trkpt>
      <trkpt lat="20.305749" lon="-97.92948">
        <ele>1308.515</ele>
        <time>2022-07-07T05:12:10Z</time>
      </trkpt>
      <trkpt lat="20.305715" lon="-97.929533">
        <ele>1311.009</ele>
        <time>2022-07-07T05:12:14Z</time>
      </trkpt>
      <trkpt lat="20.30569" lon="-97.929582">
        <ele>1312.848</ele>
        <time>2022-07-07T05:12:18Z</time>
      </trkpt>
      <trkpt lat="20.305674" lon="-97.929633">
        <ele>1315.387</ele>
        <time>2022-07-07T05:12:22Z</time>
      </trkpt>
      <trkpt lat="20.305665" lon="-97.929686">
        <ele>1314.134</ele>
        <time>2022-07-07T05:12:26Z</time>
      </trkpt>
      <trkpt lat="20.305651" lon="-97.929753">
        <ele>1313.839</ele>
        <time>2022-07-07T05:12:29Z</time>
      </trkpt>
      <trkpt lat="20.30564" lon="-97.929816">
        <ele>1313.516</ele>
        <time>2022-07-07T05:12:33Z</time>
      </trkpt>
      <trkpt lat="20.305632" lon="-97.929865">
        <ele>1313.179</ele>
        <time>2022-07-07T05:12:36Z</time>
      </trkpt>
      <trkpt lat="20.30563" lon="-97.929919">
        <ele>1312.644</ele>
        <time>2022-07-07T05:12:41Z</time>
      </trkpt>
      <trkpt lat="20.305621" lon="-97.929975">
        <ele>1314.614</ele>
        <time>2022-07-07T05:12:46Z</time>
      </trkpt>
      <trkpt lat="20.305586" lon="-97.930017">
        <ele>1314.535</ele>
        <time>2022-07-07T05:12:52Z</time>
      </trkpt>
      <trkpt lat="20.305541" lon="-97.93005">
        <ele>1315.567</ele>
        <time>2022-07-07T05:12:57Z</time>
      </trkpt>
      <trkpt lat="20.305497" lon="-97.930081">
        <ele>1316.581</ele>
        <time>2022-07-07T05:13:02Z</time>
      </trkpt>
      <trkpt lat="20.305455" lon="-97.930111">
        <ele>1316.419</ele>
        <time>2022-07-07T05:13:07Z</time>
      </trkpt>
      <trkpt lat="20.305422" lon="-97.930146">
        <ele>1315.609</ele>
        <time>2022-07-07T05:13:11Z</time>
      </trkpt>
      <trkpt lat="20.305377" lon="-97.930173">
        <ele>1316.167</ele>
        <time>2022-07-07T05:13:15Z</time>
      </trkpt>
      <trkpt lat="20.305339" lon="-97.930203">
        <ele>1313.826</ele>
        <time>2022-07-07T05:13:19Z</time>
      </trkpt>
      <trkpt lat="20.305312" lon="-97.930242">
        <ele>1311.593</ele>
        <time>2022-07-07T05:13:22Z</time>
      </trkpt>
      <trkpt lat="20.305278" lon="-97.930293">
        <ele>1308.548</ele>
        <time>2022-07-07T05:13:26Z</time>
      </trkpt>
      <trkpt lat="20.305252" lon="-97.930333">
        <ele>1308.355</ele>
        <time>2022-07-07T05:13:30Z</time>
      </trkpt>
      <trkpt lat="20.305224" lon="-97.930382">
        <ele>1306.948</ele>
        <time>2022-07-07T05:13:34Z</time>
      </trkpt>
      <trkpt lat="20.305187" lon="-97.930428">
        <ele>1306.593</ele>
        <time>2022-07-07T05:13:38Z</time>
      </trkpt>
      <trkpt lat="20.305158" lon="-97.930475">
        <ele>1306.453</ele>
        <time>2022-07-07T05:13:42Z</time>
      </trkpt>
      <trkpt lat="20.305128" lon="-97.930522">
        <ele>1303.734</ele>
        <time>2022-07-07T05:13:46Z</time>
      </trkpt>
      <trkpt lat="20.305106" lon="-97.930566">
        <ele>1304.753</ele>
        <time>2022-07-07T05:13:50Z</time>
      </trkpt>
      <trkpt lat="20.305078" lon="-97.930619">
        <ele>1304.104</ele>
        <time>2022-07-07T05:13:54Z</time>
      </trkpt>
      <trkpt lat="20.30505" lon="-97.930674">
        <ele>1303.514</ele>
        <time>2022-07-07T05:13:58Z</time>
      </trkpt>
      <trkpt lat="20.305019" lon="-97.930722">
        <ele>1303.909</ele>
        <time>2022-07-07T05:14:02Z</time>
      </trkpt>
      <trkpt lat="20.304986" lon="-97.930764">
        <ele>1305.486</ele>
        <time>2022-07-07T05:14:06Z</time>
      </trkpt>
      <trkpt lat="20.304956" lon="-97.930803">
        <ele>1304.895</ele>
        <time>2022-07-07T05:14:10Z</time>
      </trkpt>
      <trkpt lat="20.304914" lon="-97.930844">
        <ele>1307.932</ele>
        <time>2022-07-07T05:14:15Z</time>
      </trkpt>
      <trkpt lat="20.304868" lon="-97.930876">
        <ele>1306.277</ele>
        <time>2022-07-07T05:14:19Z</time>
      </trkpt>
      <trkpt lat="20.304821" lon="-97.930888">
        <ele>1306.194</ele>
        <time>2022-07-07T05:14:24Z</time>
      </trkpt>
      <trkpt lat="20.304771" lon="-97.930888">
        <ele>1304.827</ele>
        <time>2022-07-07T05:14:29Z</time>
      </trkpt>
      <trkpt lat="20.304722" lon="-97.930883">
        <ele>1304.482</ele>
        <time>2022-07-07T05:14:33Z</time>
      </trkpt>
      <trkpt lat="20.304674" lon="-97.930876">
        <ele>1306.652</ele>
        <time>2022-07-07T05:14:37Z</time>
      </trkpt>
      <trkpt lat="20.30462" lon="-97.930861">
        <ele>1306.983</ele>
        <time>2022-07-07T05:14:41Z</time>
      </trkpt>
      <trkpt lat="20.304563" lon="-97.93084">
        <ele>1307.867</ele>
        <time>2022-07-07T05:14:45Z</time>
      </trkpt>
      <trkpt lat="20.304517" lon="-97.930826">
        <ele>1307.581</ele>
        <time>2022-07-07T05:14:49Z</time>
      </trkpt>
      <trkpt lat="20.304471" lon="-97.930817">
        <ele>1308.619</ele>
        <time>2022-07-07T05:14:53Z</time>
      </trkpt>
      <trkpt lat="20.304423" lon="-97.930801">
        <ele>1309.709</ele>
        <time>2022-07-07T05:14:57Z</time>
      </trkpt>
      <trkpt lat="20.304379" lon="-97.930791">
        <ele>1310.027</ele>
        <time>2022-07-07T05:15:01Z</time>
      </trkpt>
      <trkpt lat="20.304329" lon="-97.930777">
        <ele>1311.636</ele>
        <time>2022-07-07T05:15:05Z</time>
      </trkpt>
      <trkpt lat="20.304278" lon="-97.930763">
        <ele>1312.853</ele>
        <time>2022-07-07T05:15:11Z</time>
      </trkpt>
      <trkpt lat="20.304231" lon="-97.930752">
        <ele>1311.828</ele>
        <time>2022-07-07T05:15:15Z</time>
      </trkpt>
      <trkpt lat="20.304173" lon="-97.930741">
        <ele>1309.775</ele>
        <time>2022-07-07T05:15:20Z</time>
      </trkpt>
      <trkpt lat="20.304121" lon="-97.930725">
        <ele>1309.938</ele>
        <time>2022-07-07T05:15:23Z</time>
      </trkpt>
      <trkpt lat="20.304068" lon="-97.930713">
        <ele>1310.583</ele>
        <time>2022-07-07T05:15:26Z</time>
      </trkpt>
      <trkpt lat="20.304015" lon="-97.930708">
        <ele>1310.673</ele>
        <time>2022-07-07T05:15:31Z</time>
      </trkpt>
      <trkpt lat="20.303965" lon="-97.930701">
        <ele>1309.324</ele>
        <time>2022-07-07T05:15:36Z</time>
      </trkpt>
      <trkpt lat="20.30391" lon="-97.930689">
        <ele>1310.498</ele>
        <time>2022-07-07T05:15:40Z</time>
      </trkpt>
      <trkpt lat="20.303861" lon="-97.930681">
        <ele>1310.915</ele>
        <time>2022-07-07T05:15:44Z</time>
      </trkpt>
      <trkpt lat="20.303818" lon="-97.930701">
        <ele>1312.026</ele>
        <time>2022-07-07T05:15:49Z</time>
      </trkpt>
      <trkpt lat="20.303784" lon="-97.930746">
        <ele>1314.109</ele>
        <time>2022-07-07T05:15:54Z</time>
      </trkpt>
      <trkpt lat="20.303756" lon="-97.930804">
        <ele>1312.760</ele>
        <time>2022-07-07T05:15:58Z</time>
      </trkpt>
      <trkpt lat="20.303723" lon="-97.930863">
        <ele>1310.959</ele>
        <time>2022-07-07T05:16:01Z</time>
      </trkpt>
      <trkpt lat="20.303698" lon="-97.930905">
        <ele>1310.456</ele>
        <time>2022-07-07T05:16:03Z</time>
      </trkpt>
      <trkpt lat="20.303661" lon="-97.930956">
        <ele>1309.021</ele>
        <time>2022-07-07T05:16:06Z</time>
      </trkpt>
      <trkpt lat="20.303622" lon="-97.93101">
        <ele>1309.698</ele>
        <time>2022-07-07T05:16:09Z</time>
      </trkpt>
      <trkpt lat="20.303593" lon="-97.931047">
        <ele>1309.831</ele>
        <time>2022-07-07T05:16:11Z</time>
      </trkpt>
      <trkpt lat="20.303561" lon="-97.931088">
        <ele>1310.986</ele>
        <time>2022-07-07T05:16:14Z</time>
      </trkpt>
      <trkpt lat="20.303536" lon="-97.931137">
        <ele>1310.226</ele>
        <time>2022-07-07T05:16:18Z</time>
      </trkpt>
      <trkpt lat="20.303517" lon="-97.931186">
        <ele>1308.887</ele>
        <time>2022-07-07T05:16:22Z</time>
      </trkpt>
      <trkpt lat="20.303508" lon="-97.931243">
        <ele>1310.253</ele>
        <time>2022-07-07T05:16:27Z</time>
      </trkpt>
      <trkpt lat="20.303499" lon="-97.931293">
        <ele>1310.704</ele>
        <time>2022-07-07T05:16:31Z</time>
      </trkpt>
      <trkpt lat="20.303487" lon="-97.931348">
        <ele>1310.014</ele>
        <time>2022-07-07T05:16:35Z</time>
      </trkpt>
      <trkpt lat="20.303478" lon="-97.9314">
        <ele>1308.409</ele>
        <time>2022-07-07T05:16:39Z</time>
      </trkpt>
      <trkpt lat="20.30346" lon="-97.931456">
        <ele>1307.076</ele>
        <time>2022-07-07T05:16:43Z</time>
      </trkpt>
      <trkpt lat="20.30343" lon="-97.931498">
        <ele>1308.375</ele>
        <time>2022-07-07T05:16:47Z</time>
      </trkpt>
      <trkpt lat="20.303391" lon="-97.931537">
        <ele>1307.082</ele>
        <time>2022-07-07T05:16:51Z</time>
      </trkpt>
      <trkpt lat="20.303348" lon="-97.931566">
        <ele>1307.067</ele>
        <time>2022-07-07T05:16:55Z</time>
      </trkpt>
      <trkpt lat="20.303303" lon="-97.931585">
        <ele>1305.774</ele>
        <time>2022-07-07T05:16:58Z</time>
      </trkpt>
      <trkpt lat="20.30325" lon="-97.931594">
        <ele>1306.147</ele>
        <time>2022-07-07T05:17:01Z</time>
      </trkpt>
      <trkpt lat="20.303195" lon="-97.931583">
        <ele>1306.232</ele>
        <time>2022-07-07T05:17:04Z</time>
      </trkpt>
      <trkpt lat="20.303152" lon="-97.931559">
        <ele>1305.882</ele>
        <time>2022-07-07T05:17:08Z</time>
      </trkpt>
      <trkpt lat="20.303108" lon="-97.931529">
        <ele>1305.453</ele>
        <time>2022-07-07T05:17:12Z</time>
      </trkpt>
      <trkpt lat="20.303062" lon="-97.931502">
        <ele>1305.459</ele>
        <time>2022-07-07T05:17:15Z</time>
      </trkpt>
      <trkpt lat="20.303018" lon="-97.931486">
        <ele>1305.203</ele>
        <time>2022-07-07T05:17:18Z</time>
      </trkpt>
      <trkpt lat="20.302975" lon="-97.93147">
        <ele>1306.323</ele>
        <time>2022-07-07T05:17:22Z</time>
      </trkpt>
      <trkpt lat="20.302926" lon="-97.931464">
        <ele>1305.509</ele>
        <time>2022-07-07T05:17:26Z</time>
      </trkpt>
      <trkpt lat="20.302881" lon="-97.931455">
        <ele>1304.216</ele>
        <time>2022-07-07T05:17:30Z</time>
      </trkpt>
      <trkpt lat="20.302836" lon="-97.931433">
        <ele>1305.675</ele>
        <time>2022-07-07T05:17:34Z</time>
      </trkpt>
      <trkpt lat="20.302792" lon="-97.931409">
        <ele>1305.372</ele>
        <time>2022-07-07T05:17:38Z</time>
      </trkpt>
      <trkpt lat="20.302745" lon="-97.93139">
        <ele>1304.497</ele>
        <time>2022-07-07T05:17:42Z</time>
      </trkpt>
      <trkpt lat="20.302697" lon="-97.931359">
        <ele>1306.434</ele>
        <time>2022-07-07T05:17:46Z</time>
      </trkpt>
      <trkpt lat="20.302656" lon="-97.931333">
        <ele>1307.057</ele>
        <time>2022-07-07T05:17:49Z</time>
      </trkpt>
      <trkpt lat="20.302603" lon="-97.931312">
        <ele>1308.092</ele>
        <time>2022-07-07T05:17:53Z</time>
      </trkpt>
      <trkpt lat="20.30255" lon="-97.931292">
        <ele>1309.412</ele>
        <time>2022-07-07T05:17:57Z</time>
      </trkpt>
      <trkpt lat="20.3025" lon="-97.931278">
        <ele>1309.423</ele>
        <time>2022-07-07T05:18:01Z</time>
      </trkpt>
      <trkpt lat="20.302447" lon="-97.931254">
        <ele>1310.678</ele>
        <time>2022-07-07T05:18:05Z</time>
      </trkpt>
      <trkpt lat="20.3024" lon="-97.931242">
        <ele>1308.633</ele>
        <time>2022-07-07T05:18:09Z</time>
      </trkpt>
      <trkpt lat="20.30235" lon="-97.931235">
        <ele>1308.126</ele>
        <time>2022-07-07T05:18:13Z</time>
      </trkpt>
      <trkpt lat="20.302302" lon="-97.931234">
        <ele>1308.909</ele>
        <time>2022-07-07T05:18:16Z</time>
      </trkpt>
      <trkpt lat="20.302252" lon="-97.931218">
        <ele>1307.198</ele>
        <time>2022-07-07T05:18:20Z</time>
      </trkpt>
      <trkpt lat="20.302195" lon="-97.931194">
        <ele>1307.657</ele>
        <time>2022-07-07T05:18:23Z</time>
      </trkpt>
      <trkpt lat="20.302142" lon="-97.931166">
        <ele>1309.484</ele>
        <time>2022-07-07T05:18:26Z</time>
      </trkpt>
      <trkpt lat="20.302093" lon="-97.931144">
        <ele>1308.269</ele>
        <time>2022-07-07T05:18:30Z</time>
      </trkpt>
      <trkpt lat="20.302049" lon="-97.931112">
        <ele>1311.536</ele>
        <time>2022-07-07T05:18:34Z</time>
      </trkpt>
      <trkpt lat="20.302" lon="-97.931081">
        <ele>1309.949</ele>
        <time>2022-07-07T05:18:38Z</time>
      </trkpt>
      <trkpt lat="20.301941" lon="-97.93108">
        <ele>1309.884</ele>
        <time>2022-07-07T05:18:42Z</time>
      </trkpt>
      <trkpt lat="20.301884" lon="-97.931081">
        <ele>1307.124</ele>
        <time>2022-07-07T05:18:46Z</time>
      </trkpt>
      <trkpt lat="20.301828" lon="-97.931091">
        <ele>1306.645</ele>
        <time>2022-07-07T05:18:49Z</time>
      </trkpt>
      <trkpt lat="20.301781" lon="-97.931108">
        <ele>1305.989</ele>
        <time>2022-07-07T05:18:52Z</time>
      </trkpt>
      <trkpt lat="20.301759" lon="-97.931157">
        <ele>1302.506</ele>
        <time>2022-07-07T05:18:56Z</time>
      </trkpt>
      <trkpt lat="20.301748" lon="-97.931211">
        <ele>1300.526</ele>
        <time>2022-07-07T05:19:00Z</time>
      </trkpt>
      <trkpt lat="20.301745" lon="-97.931261">
        <ele>1298.809</ele>
        <time>2022-07-07T05:19:03Z</time>
      </trkpt>
      <trkpt lat="20.301717" lon="-97.931316">
        <ele>1298.849</ele>
        <time>2022-07-07T05:19:07Z</time>
      </trkpt>
      <trkpt lat="20.301675" lon="-97.931363">
        <ele>1297.298</ele>
        <time>2022-07-07T05:19:10Z</time>
      </trkpt>
      <trkpt lat="20.301637" lon="-97.931411">
        <ele>1296.685</ele>
        <time>2022-07-07T05:19:13Z</time>
      </trkpt>
      <trkpt lat="20.301606" lon="-97.931456">
        <ele>1295.260</ele>
        <time>2022-07-07T05:19:16Z</time>
      </trkpt>
      <trkpt lat="20.30158" lon="-97.931496">
        <ele>1298.997</ele>
        <time>2022-07-07T05:19:20Z</time>
      </trkpt>
      <trkpt lat="20.301543" lon="-97.931524">
        <ele>1300.010</ele>
        <time>2022-07-07T05:19:24Z</time>
      </trkpt>
      <trkpt lat="20.301491" lon="-97.931544">
        <ele>1299.985</ele>
        <time>2022-07-07T05:19:29Z</time>
      </trkpt>
      <trkpt lat="20.30144" lon="-97.931555">
        <ele>1298.915</ele>
        <time>2022-07-07T05:19:34Z</time>
      </trkpt>
      <trkpt lat="20.301394" lon="-97.931552">
        <ele>1301.616</ele>
        <time>2022-07-07T05:19:41Z</time>
      </trkpt>
      <trkpt lat="20.301342" lon="-97.931544">
        <ele>1299.549</ele>
        <time>2022-07-07T05:19:45Z</time>
      </trkpt>
      <trkpt lat="20.301295" lon="-97.931537">
        <ele>1300.202</ele>
        <time>2022-07-07T05:19:49Z</time>
      </trkpt>
      <trkpt lat="20.301237" lon="-97.931542">
        <ele>1300.622</ele>
        <time>2022-07-07T05:19:54Z</time>
      </trkpt>
      <trkpt lat="20.301193" lon="-97.931562">
        <ele>1301.609</ele>
        <time>2022-07-07T05:19:58Z</time>
      </trkpt>
      <trkpt lat="20.301147" lon="-97.931589">
        <ele>1301.145</ele>
        <time>2022-07-07T05:20:03Z</time>
      </trkpt>
      <trkpt lat="20.301098" lon="-97.931608">
        <ele>1299.494</ele>
        <time>2022-07-07T05:20:08Z</time>
      </trkpt>
      <trkpt lat="20.301051" lon="-97.93164">
        <ele>1299.451</ele>
        <time>2022-07-07T05:20:12Z</time>
      </trkpt>
      <trkpt lat="20.301011" lon="-97.931667">
        <ele>1300.056</ele>
        <time>2022-07-07T05:20:16Z</time>
      </trkpt>
      <trkpt lat="20.300963" lon="-97.931697">
        <ele>1300.213</ele>
        <time>2022-07-07T05:20:20Z</time>
      </trkpt>
      <trkpt lat="20.300921" lon="-97.931716">
        <ele>1299.666</ele>
        <time>2022-07-07T05:20:23Z</time>
      </trkpt>
      <trkpt lat="20.300876" lon="-97.931753">
        <ele>1301.251</ele>
        <time>2022-07-07T05:20:28Z</time>
      </trkpt>
      <trkpt lat="20.300836" lon="-97.931779">
        <ele>1301.551</ele>
        <time>2022-07-07T05:20:32Z</time>
      </trkpt>
      <trkpt lat="20.300784" lon="-97.931816">
        <ele>1302.362</ele>
        <time>2022-07-07T05:20:36Z</time>
      </trkpt>
      <trkpt lat="20.300746" lon="-97.931847">
        <ele>1302.981</ele>
        <time>2022-07-07T05:20:39Z</time>
      </trkpt>
      <trkpt lat="20.300705" lon="-97.931867">
        <ele>1303.661</ele>
        <time>2022-07-07T05:20:43Z</time>
      </trkpt>
      <trkpt lat="20.300659" lon="-97.931889">
        <ele>1305.317</ele>
        <time>2022-07-07T05:20:48Z</time>
      </trkpt>
      <trkpt lat="20.300613" lon="-97.931899">
        <ele>1307.409</ele>
        <time>2022-07-07T05:20:52Z</time>
      </trkpt>
      <trkpt lat="20.300556" lon="-97.931905">
        <ele>1308.729</ele>
        <time>2022-07-07T05:20:56Z</time>
      </trkpt>
      <trkpt lat="20.300502" lon="-97.931904">
        <ele>1307.168</ele>
        <time>2022-07-07T05:21:00Z</time>
      </trkpt>
      <trkpt lat="20.30045" lon="-97.9319">
        <ele>1306.815</ele>
        <time>2022-07-07T05:21:04Z</time>
      </trkpt>
      <trkpt lat="20.300397" lon="-97.931908">
        <ele>1306.960</ele>
        <time>2022-07-07T05:21:08Z</time>
      </trkpt>
      <trkpt lat="20.300347" lon="-97.931914">
        <ele>1309.167</ele>
        <time>2022-07-07T05:21:11Z</time>
      </trkpt>
      <trkpt lat="20.300301" lon="-97.931912">
        <ele>1307.570</ele>
        <time>2022-07-07T05:21:14Z</time>
      </trkpt>
      <trkpt lat="20.300258" lon="-97.931941">
        <ele>1308.175</ele>
        <time>2022-07-07T05:21:19Z</time>
      </trkpt>
      <trkpt lat="20.300213" lon="-97.931948">
        <ele>1311.595</ele>
        <time>2022-07-07T05:21:24Z</time>
      </trkpt>
      <trkpt lat="20.300172" lon="-97.93197">
        <ele>1313.566</ele>
        <time>2022-07-07T05:21:29Z</time>
      </trkpt>
      <trkpt lat="20.300145" lon="-97.932013">
        <ele>1314.349</ele>
        <time>2022-07-07T05:21:35Z</time>
      </trkpt>
      <trkpt lat="20.300109" lon="-97.932045">
        <ele>1314.302</ele>
        <time>2022-07-07T05:21:40Z</time>
      </trkpt>
      <trkpt lat="20.300104" lon="-97.932099">
        <ele>1314.122</ele>
        <time>2022-07-07T05:21:44Z</time>
      </trkpt>
      <trkpt lat="20.300064" lon="-97.932128">
        <ele>1312.609</ele>
        <time>2022-07-07T05:21:49Z</time>
      </trkpt>
      <trkpt lat="20.300015" lon="-97.932137">
        <ele>1310.615</ele>
        <time>2022-07-07T05:21:53Z</time>
      </trkpt>
      <trkpt lat="20.299964" lon="-97.932141">
        <ele>1310.194</ele>
        <time>2022-07-07T05:21:58Z</time>
      </trkpt>
      <trkpt lat="20.299919" lon="-97.932105">
        <ele>1312.221</ele>
        <time>2022-07-07T05:22:02Z</time>
      </trkpt>
      <trkpt lat="20.299874" lon="-97.932076">
        <ele>1313.866</ele>
        <time>2022-07-07T05:22:06Z</time>
      </trkpt>
      <trkpt lat="20.29982" lon="-97.932063">
        <ele>1312.443</ele>
        <time>2022-07-07T05:22:11Z</time>
      </trkpt>
      <trkpt lat="20.29976" lon="-97.932041">
        <ele>1310.296</ele>
        <time>2022-07-07T05:22:15Z</time>
      </trkpt>
      <trkpt lat="20.299713" lon="-97.932035">
        <ele>1310.041</ele>
        <time>2022-07-07T05:22:18Z</time>
      </trkpt>
      <trkpt lat="20.299659" lon="-97.932032">
        <ele>1310.181</ele>
        <time>2022-07-07T05:22:21Z</time>
      </trkpt>
      <trkpt lat="20.299614" lon="-97.932029">
        <ele>1308.382</ele>
        <time>2022-07-07T05:22:24Z</time>
      </trkpt>
      <trkpt lat="20.299562" lon="-97.932027">
        <ele>1307.512</ele>
        <time>2022-07-07T05:22:28Z</time>
      </trkpt>
      <trkpt lat="20.299512" lon="-97.932037">
        <ele>1307.332</ele>
        <time>2022-07-07T05:22:32Z</time>
      </trkpt>
      <trkpt lat="20.299456" lon="-97.932028">
        <ele>1309.005</ele>
        <time>2022-07-07T05:22:37Z</time>
      </trkpt>
      <trkpt lat="20.29941" lon="-97.932033">
        <ele>1309.409</ele>
        <time>2022-07-07T05:22:40Z</time>
      </trkpt>
      <trkpt lat="20.299362" lon="-97.93204">
        <ele>1308.922</ele>
        <time>2022-07-07T05:22:43Z</time>
      </trkpt>
      <trkpt lat="20.299305" lon="-97.932039">
        <ele>1312.211</ele>
        <time>2022-07-07T05:22:47Z</time>
      </trkpt>
      <trkpt lat="20.299248" lon="-97.932051">
        <ele>1314.198</ele>
        <time>2022-07-07T05:22:51Z</time>
      </trkpt>
      <trkpt lat="20.299201" lon="-97.932061">
        <ele>1313.573</ele>
        <time>2022-07-07T05:22:55Z</time>
      </trkpt>
      <trkpt lat="20.299152" lon="-97.932086">
        <ele>1313.650</ele>
        <time>2022-07-07T05:23:00Z</time>
      </trkpt>
      <trkpt lat="20.299107" lon="-97.932096">
        <ele>1314.863</ele>
        <time>2022-07-07T05:23:04Z</time>
      </trkpt>
      <trkpt lat="20.299049" lon="-97.932106">
        <ele>1315.758</ele>
        <time>2022-07-07T05:23:08Z</time>
      </trkpt>
      <trkpt lat="20.299" lon="-97.93212">
        <ele>1315.718</ele>
        <time>2022-07-07T05:23:11Z</time>
      </trkpt>
      <trkpt lat="20.298943" lon="-97.932123">
        <ele>1317.069</ele>
        <time>2022-07-07T05:23:15Z</time>
      </trkpt>
      <trkpt lat="20.298882" lon="-97.932131">
        <ele>1315.174</ele>
        <time>2022-07-07T05:23:18Z</time>
      </trkpt>
      <trkpt lat="20.298828" lon="-97.93213">
        <ele>1313.456</ele>
        <time>2022-07-07T05:23:21Z</time>
      </trkpt>
      <trkpt lat="20.298783" lon="-97.932142">
        <ele>1316.121</ele>
        <time>2022-07-07T05:23:25Z</time>
      </trkpt>
      <trkpt lat="20.298737" lon="-97.932157">
        <ele>1317.909</ele>
        <time>2022-07-07T05:23:30Z</time>
      </trkpt>
      <trkpt lat="20.298696" lon="-97.93218">
        <ele>1320.738</ele>
        <time>2022-07-07T05:23:35Z</time>
      </trkpt>
      <trkpt lat="20.298649" lon="-97.932192">
        <ele>1317.787</ele>
        <time>2022-07-07T05:23:40Z</time>
      </trkpt>
      <trkpt lat="20.298606" lon="-97.932206">
        <ele>1318.944</ele>
        <time>2022-07-07T05:23:48Z</time>
      </trkpt>
      <trkpt lat="20.298564" lon="-97.932226">
        <ele>1323.729</ele>
        <time>2022-07-07T05:23:55Z</time>
      </trkpt>
      <trkpt lat="20.298519" lon="-97.932238">
        <ele>1322.436</ele>
        <time>2022-07-07T05:24:01Z</time>
      </trkpt>
      <trkpt lat="20.298477" lon="-97.932265">
        <ele>1321.959</ele>
        <time>2022-07-07T05:24:06Z</time>
      </trkpt>
      <trkpt lat="20.298427" lon="-97.932287">
        <ele>1319.274</ele>
        <time>2022-07-07T05:24:11Z</time>
      </trkpt>
      <trkpt lat="20.298376" lon="-97.932289">
        <ele>1320.584</ele>
        <time>2022-07-07T05:24:16Z</time>
      </trkpt>
      <trkpt lat="20.298331" lon="-97.932301">
        <ele>1323.665</ele>
        <time>2022-07-07T05:24:21Z</time>
      </trkpt>
      <trkpt lat="20.29828" lon="-97.932312">
        <ele>1323.747</ele>
        <time>2022-07-07T05:24:26Z</time>
      </trkpt>
      <trkpt lat="20.298229" lon="-97.932324">
        <ele>1325.629</ele>
        <time>2022-07-07T05:24:30Z</time>
      </trkpt>
      <trkpt lat="20.298172" lon="-97.932357">
        <ele>1324.621</ele>
        <time>2022-07-07T05:24:33Z</time>
      </trkpt>
      <trkpt lat="20.298131" lon="-97.932396">
        <ele>1325.109</ele>
        <time>2022-07-07T05:24:37Z</time>
      </trkpt>
      <trkpt lat="20.298092" lon="-97.932424">
        <ele>1323.835</ele>
        <time>2022-07-07T05:24:41Z</time>
      </trkpt>
      <trkpt lat="20.298048" lon="-97.932456">
        <ele>1319.064</ele>
        <time>2022-07-07T05:24:46Z</time>
      </trkpt>
      <trkpt lat="20.298017" lon="-97.932494">
        <ele>1319.521</ele>
        <time>2022-07-07T05:24:50Z</time>
      </trkpt>
      <trkpt lat="20.297999" lon="-97.932538">
        <ele>1320.076</ele>
        <time>2022-07-07T05:24:54Z</time>
      </trkpt>
      <trkpt lat="20.297975" lon="-97.932585">
        <ele>1323.293</ele>
        <time>2022-07-07T05:24:57Z</time>
      </trkpt>
      <trkpt lat="20.297954" lon="-97.932632">
        <ele>1325.896</ele>
        <time>2022-07-07T05:25:02Z</time>
      </trkpt>
      <trkpt lat="20.297919" lon="-97.932668">
        <ele>1326.191</ele>
        <time>2022-07-07T05:25:07Z</time>
      </trkpt>
      <trkpt lat="20.297881" lon="-97.932696">
        <ele>1326.581</ele>
        <time>2022-07-07T05:25:12Z</time>
      </trkpt>
      <trkpt lat="20.297846" lon="-97.932736">
        <ele>1331.192</ele>
        <time>2022-07-07T05:25:17Z</time>
      </trkpt>
      <trkpt lat="20.29781" lon="-97.932779">
        <ele>1334.538</ele>
        <time>2022-07-07T05:25:22Z</time>
      </trkpt>
      <trkpt lat="20.297786" lon="-97.932827">
        <ele>1331.770</ele>
        <time>2022-07-07T05:25:27Z</time>
      </trkpt>
      <trkpt lat="20.297762" lon="-97.932869">
        <ele>1332.617</ele>
        <time>2022-07-07T05:25:31Z</time>
      </trkpt>
      <trkpt lat="20.297741" lon="-97.932915">
        <ele>1332.709</ele>
        <time>2022-07-07T05:25:35Z</time>
      </trkpt>
      <trkpt lat="20.297722" lon="-97.932969">
        <ele>1333.944</ele>
        <time>2022-07-07T05:25:39Z</time>
      </trkpt>
      <trkpt lat="20.297706" lon="-97.933023">
        <ele>1334.053</ele>
        <time>2022-07-07T05:25:43Z</time>
      </trkpt>
      <trkpt lat="20.297681" lon="-97.933072">
        <ele>1333.260</ele>
        <time>2022-07-07T05:25:47Z</time>
      </trkpt>
      <trkpt lat="20.297659" lon="-97.933119">
        <ele>1335.165</ele>
        <time>2022-07-07T05:25:51Z</time>
      </trkpt>
      <trkpt lat="20.297631" lon="-97.933169">
        <ele>1334.112</ele>
        <time>2022-07-07T05:25:55Z</time>
      </trkpt>
      <trkpt lat="20.297588" lon="-97.933211">
        <ele>1329.575</ele>
        <time>2022-07-07T05:25:59Z</time>
      </trkpt>
      <trkpt lat="20.297551" lon="-97.933262">
        <ele>1330.020</ele>
        <time>2022-07-07T05:26:02Z</time>
      </trkpt>
      <trkpt lat="20.297531" lon="-97.933316">
        <ele>1329.370</ele>
        <time>2022-07-07T05:26:06Z</time>
      </trkpt>
      <trkpt lat="20.297499" lon="-97.933363">
        <ele>1325.911</ele>
        <time>2022-07-07T05:26:10Z</time>
      </trkpt>
      <trkpt lat="20.29746" lon="-97.933396">
        <ele>1321.994</ele>
        <time>2022-07-07T05:26:14Z</time>
      </trkpt>
      <trkpt lat="20.297421" lon="-97.933438">
        <ele>1325.057</ele>
        <time>2022-07-07T05:26:20Z</time>
      </trkpt>
      <trkpt lat="20.297395" lon="-97.93348">
        <ele>1324.822</ele>
        <time>2022-07-07T05:26:23Z</time>
      </trkpt>
      <trkpt lat="20.297381" lon="-97.933531">
        <ele>1323.809</ele>
        <time>2022-07-07T05:26:28Z</time>
      </trkpt>
      <trkpt lat="20.297352" lon="-97.933576">
        <ele>1324.540</ele>
        <time>2022-07-07T05:26:33Z</time>
      </trkpt>
      <trkpt lat="20.297304" lon="-97.933592">
        <ele>1325.339</ele>
        <time>2022-07-07T05:26:37Z</time>
      </trkpt>
      <trkpt lat="20.297248" lon="-97.933612">
        <ele>1324.466</ele>
        <time>2022-07-07T05:26:40Z</time>
      </trkpt>
      <trkpt lat="20.297195" lon="-97.933653">
        <ele>1325.561</ele>
        <time>2022-07-07T05:26:43Z</time>
      </trkpt>
      <trkpt lat="20.29716" lon="-97.933694">
        <ele>1326.938</ele>
        <time>2022-07-07T05:26:46Z</time>
      </trkpt>
      <trkpt lat="20.297116" lon="-97.933719">
        <ele>1326.841</ele>
        <time>2022-07-07T05:26:51Z</time>
      </trkpt>
      <trkpt lat="20.297095" lon="-97.933769">
        <ele>1324.296</ele>
        <time>2022-07-07T05:26:56Z</time>
      </trkpt>
      <trkpt lat="20.297063" lon="-97.933811">
        <ele>1322.236</ele>
        <time>2022-07-07T05:27:02Z</time>
      </trkpt>
      <trkpt lat="20.297079" lon="-97.933857">
        <ele>1321.067</ele>
        <time>2022-07-07T05:27:06Z</time>
      </trkpt>
      <trkpt lat="20.297096" lon="-97.933914">
        <ele>1323.858</ele>
        <time>2022-07-07T05:27:11Z</time>
      </trkpt>
      <trkpt lat="20.297068" lon="-97.933966">
        <ele>1325.052</ele>
        <time>2022-07-07T05:27:16Z</time>
      </trkpt>
      <trkpt lat="20.297038" lon="-97.934006">
        <ele>1327.417</ele>
        <time>2022-07-07T05:27:20Z</time>
      </trkpt>
      <trkpt lat="20.296998" lon="-97.934033">
        <ele>1327.609</ele>
        <time>2022-07-07T05:27:24Z</time>
      </trkpt>
      <trkpt lat="20.296944" lon="-97.934045">
        <ele>1330.066</ele>
        <time>2022-07-07T05:27:29Z</time>
      </trkpt>
      <trkpt lat="20.2969" lon="-97.934061">
        <ele>1330.555</ele>
        <time>2022-07-07T05:27:33Z</time>
      </trkpt>
      <trkpt lat="20.296849" lon="-97.934067">
        <ele>1331.432</ele>
        <time>2022-07-07T05:27:37Z</time>
      </trkpt>
      <trkpt lat="20.296799" lon="-97.934053">
        <ele>1333.987</ele>
        <time>2022-07-07T05:27:41Z</time>
      </trkpt>
      <trkpt lat="20.296753" lon="-97.934071">
        <ele>1333.724</ele>
        <time>2022-07-07T05:27:45Z</time>
      </trkpt>
      <trkpt lat="20.296706" lon="-97.93408">
        <ele>1334.067</ele>
        <time>2022-07-07T05:27:49Z</time>
      </trkpt>
      <trkpt lat="20.296674" lon="-97.934044">
        <ele>1333.392</ele>
        <time>2022-07-07T05:27:52Z</time>
      </trkpt>
      <trkpt lat="20.296628" lon="-97.934069">
        <ele>1333.852</ele>
        <time>2022-07-07T05:27:56Z</time>
      </trkpt>
      <trkpt lat="20.296597" lon="-97.93411">
        <ele>1333.753</ele>
        <time>2022-07-07T05:27:59Z</time>
      </trkpt>
      <trkpt lat="20.296538" lon="-97.934113">
        <ele>1334.681</ele>
        <time>2022-07-07T05:28:03Z</time>
      </trkpt>
      <trkpt lat="20.296476" lon="-97.934127">
        <ele>1335.961</ele>
        <time>2022-07-07T05:28:06Z</time>
      </trkpt>
      <trkpt lat="20.296441" lon="-97.934167">
        <ele>1337.217</ele>
        <time>2022-07-07T05:28:09Z</time>
      </trkpt>
      <trkpt lat="20.296396" lon="-97.9342">
        <ele>1335.909</ele>
        <time>2022-07-07T05:28:13Z</time>
      </trkpt>
      <trkpt lat="20.296369" lon="-97.934242">
        <ele>1335.349</ele>
        <time>2022-07-07T05:28:16Z</time>
      </trkpt>
      <trkpt lat="20.29632" lon="-97.934291">
        <ele>1335.658</ele>
        <time>2022-07-07T05:28:19Z</time>
      </trkpt>
      <trkpt lat="20.296294" lon="-97.934335">
        <ele>1336.415</ele>
        <time>2022-07-07T05:28:21Z</time>
      </trkpt>
      <trkpt lat="20.296269" lon="-97.934393">
        <ele>1337.160</ele>
        <time>2022-07-07T05:28:24Z</time>
      </trkpt>
      <trkpt lat="20.296243" lon="-97.934433">
        <ele>1336.117</ele>
        <time>2022-07-07T05:28:27Z</time>
      </trkpt>
      <trkpt lat="20.296202" lon="-97.934455">
        <ele>1336.060</ele>
        <time>2022-07-07T05:28:31Z</time>
      </trkpt>
      <trkpt lat="20.296148" lon="-97.934451">
        <ele>1336.155</ele>
        <time>2022-07-07T05:28:35Z</time>
      </trkpt>
      <trkpt lat="20.296099" lon="-97.934437">
        <ele>1335.895</ele>
        <time>2022-07-07T05:28:38Z</time>
      </trkpt>
      <trkpt lat="20.296055" lon="-97.934428">
        <ele>1336.576</ele>
        <time>2022-07-07T05:28:40Z</time>
      </trkpt>
      <trkpt lat="20.295993" lon="-97.934417">
        <ele>1336.299</ele>
        <time>2022-07-07T05:28:43Z</time>
      </trkpt>
      <trkpt lat="20.295943" lon="-97.93439">
        <ele>1337.407</ele>
        <time>2022-07-07T05:28:47Z</time>
      </trkpt>
      <trkpt lat="20.295914" lon="-97.934347">
        <ele>1337.327</ele>
        <time>2022-07-07T05:28:50Z</time>
      </trkpt>
      <trkpt lat="20.29587" lon="-97.934303">
        <ele>1338.609</ele>
        <time>2022-07-07T05:28:53Z</time>
      </trkpt>
      <trkpt lat="20.295824" lon="-97.934275">
        <ele>1337.680</ele>
        <time>2022-07-07T05:28:56Z</time>
      </trkpt>
      <trkpt lat="20.29578" lon="-97.934258">
        <ele>1338.869</ele>
        <time>2022-07-07T05:28:59Z</time>
      </trkpt>
      <trkpt lat="20.295739" lon="-97.934223">
        <ele>1336.316</ele>
        <time>2022-07-07T05:29:02Z</time>
      </trkpt>
      <trkpt lat="20.2957" lon="-97.934196">
        <ele>1335.281</ele>
        <time>2022-07-07T05:29:05Z</time>
      </trkpt>
      <trkpt lat="20.295671" lon="-97.934152">
        <ele>1332.828</ele>
        <time>2022-07-07T05:29:09Z</time>
      </trkpt>
      <trkpt lat="20.295625" lon="-97.934141">
        <ele>1329.871</ele>
        <time>2022-07-07T05:29:14Z</time>
      </trkpt>
      <trkpt lat="20.295591" lon="-97.934199">
        <ele>1328.896</ele>
        <time>2022-07-07T05:29:17Z</time>
      </trkpt>
      <trkpt lat="20.295583" lon="-97.934261">
        <ele>1328.246</ele>
        <time>2022-07-07T05:29:20Z</time>
      </trkpt>
      <trkpt lat="20.295579" lon="-97.934319">
        <ele>1328.857</ele>
        <time>2022-07-07T05:29:23Z</time>
      </trkpt>
      <trkpt lat="20.295579" lon="-97.934371">
        <ele>1327.418</ele>
        <time>2022-07-07T05:29:26Z</time>
      </trkpt>
      <trkpt lat="20.295582" lon="-97.934419">
        <ele>1327.798</ele>
        <time>2022-07-07T05:29:29Z</time>
      </trkpt>
      <trkpt lat="20.295584" lon="-97.934469">
        <ele>1326.817</ele>
        <time>2022-07-07T05:29:32Z</time>
      </trkpt>
      <trkpt lat="20.29558" lon="-97.934535">
        <ele>1329.809</ele>
        <time>2022-07-07T05:29:35Z</time>
      </trkpt>
      <trkpt lat="20.29558" lon="-97.934586">
        <ele>1331.432</ele>
        <time>2022-07-07T05:29:38Z</time>
      </trkpt>
      <trkpt lat="20.29556" lon="-97.934632">
        <ele>1333.211</ele>
        <time>2022-07-07T05:29:42Z</time>
      </trkpt>
      <trkpt lat="20.295548" lon="-97.934691">
        <ele>1335.388</ele>
        <time>2022-07-07T05:29:46Z</time>
      </trkpt>
      <trkpt lat="20.295526" lon="-97.934737">
        <ele>1336.423</ele>
        <time>2022-07-07T05:29:50Z</time>
      </trkpt>
      <trkpt lat="20.295497" lon="-97.934774">
        <ele>1336.860</ele>
        <time>2022-07-07T05:29:54Z</time>
      </trkpt>
      <trkpt lat="20.295466" lon="-97.934815">
        <ele>1336.943</ele>
        <time>2022-07-07T05:29:58Z</time>
      </trkpt>
      <trkpt lat="20.295429" lon="-97.934847">
        <ele>1335.698</ele>
        <time>2022-07-07T05:30:02Z</time>
      </trkpt>
      <trkpt lat="20.295391" lon="-97.934875">
        <ele>1334.168</ele>
        <time>2022-07-07T05:30:06Z</time>
      </trkpt>
      <trkpt lat="20.295347" lon="-97.934891">
        <ele>1334.499</ele>
        <time>2022-07-07T05:30:10Z</time>
      </trkpt>
      <trkpt lat="20.295307" lon="-97.934918">
        <ele>1335.554</ele>
        <time>2022-07-07T05:30:13Z</time>
      </trkpt>
      <trkpt lat="20.295254" lon="-97.934915">
        <ele>1334.456</ele>
        <time>2022-07-07T05:30:17Z</time>
      </trkpt>
      <trkpt lat="20.295215" lon="-97.934962">
        <ele>1335.511</ele>
        <time>2022-07-07T05:30:20Z</time>
      </trkpt>
      <trkpt lat="20.295177" lon="-97.935004">
        <ele>1335.309</ele>
        <time>2022-07-07T05:30:24Z</time>
      </trkpt>
      <trkpt lat="20.295132" lon="-97.935024">
        <ele>1333.876</ele>
        <time>2022-07-07T05:30:28Z</time>
      </trkpt>
      <trkpt lat="20.295069" lon="-97.935041">
        <ele>1332.625</ele>
        <time>2022-07-07T05:30:32Z</time>
      </trkpt>
      <trkpt lat="20.295024" lon="-97.935083">
        <ele>1333.162</ele>
        <time>2022-07-07T05:30:35Z</time>
      </trkpt>
      <trkpt lat="20.294988" lon="-97.935114">
        <ele>1334.387</ele>
        <time>2022-07-07T05:30:38Z</time>
      </trkpt>
      <trkpt lat="20.294948" lon="-97.935155">
        <ele>1333.444</ele>
        <time>2022-07-07T05:30:42Z</time>
      </trkpt>
      <trkpt lat="20.294918" lon="-97.935208">
        <ele>1330.447</ele>
        <time>2022-07-07T05:30:48Z</time>
      </trkpt>
      <trkpt lat="20.294881" lon="-97.935235">
        <ele>1330.252</ele>
        <time>2022-07-07T05:30:51Z</time>
      </trkpt>
      <trkpt lat="20.294845" lon="-97.935266">
        <ele>1330.382</ele>
        <time>2022-07-07T05:30:54Z</time>
      </trkpt>
      <trkpt lat="20.294805" lon="-97.935309">
        <ele>1331.523</ele>
        <time>2022-07-07T05:30:58Z</time>
      </trkpt>
      <trkpt lat="20.294767" lon="-97.935341">
        <ele>1332.588</ele>
        <time>2022-07-07T05:31:03Z</time>
      </trkpt>
      <trkpt lat="20.294718" lon="-97.935334">
        <ele>1332.624</ele>
        <time>2022-07-07T05:31:07Z</time>
      </trkpt>
      <trkpt lat="20.294685" lon="-97.9353">
        <ele>1331.826</ele>
        <time>2022-07-07T05:31:10Z</time>
      </trkpt>
      <trkpt lat="20.294636" lon="-97.935286">
        <ele>1331.709</ele>
        <time>2022-07-07T05:31:13Z</time>
      </trkpt>
      <trkpt lat="20.294589" lon="-97.935286">
        <ele>1330.659</ele>
        <time>2022-07-07T05:31:16Z</time>
      </trkpt>
      <trkpt lat="20.294524" lon="-97.935278">
        <ele>1331.598</ele>
        <time>2022-07-07T05:31:20Z</time>
      </trkpt>
      <trkpt lat="20.294524" lon="-97.935278">
        <ele>1331.585</ele>
        <time>2022-07-07T05:31:20Z</time>
      </trkpt>
      <trkpt lat="20.294524" lon="-97.935278">
        <ele>1331.580</ele>
        <time>2022-07-07T05:31:20Z</time>
      </trkpt>
      <trkpt lat="20.294524" lon="-97.935278">
        <ele>1331.517</ele>
        <time>2022-07-07T05:31:20Z</time>
      </trkpt>
      <trkpt lat="20.294462" lon="-97.935253">
        <ele>1332.130</ele>
        <time>2022-07-07T05:31:23Z</time>
      </trkpt>
      <trkpt lat="20.294417" lon="-97.935243">
        <ele>1332.175</ele>
        <time>2022-07-07T05:31:25Z</time>
      </trkpt>
      <trkpt lat="20.294356" lon="-97.935216">
        <ele>1329.835</ele>
        <time>2022-07-07T05:31:28Z</time>
      </trkpt>
      <trkpt lat="20.294294" lon="-97.935196">
        <ele>1330.296</ele>
        <time>2022-07-07T05:31:31Z</time>
      </trkpt>
      <trkpt lat="20.294232" lon="-97.935185">
        <ele>1329.385</ele>
        <time>2022-07-07T05:31:34Z</time>
      </trkpt>
      <trkpt lat="20.29417" lon="-97.935167">
        <ele>1327.489</ele>
        <time>2022-07-07T05:31:37Z</time>
      </trkpt>
      <trkpt lat="20.294113" lon="-97.935159">
        <ele>1329.117</ele>
        <time>2022-07-07T05:31:40Z</time>
      </trkpt>
      <trkpt lat="20.294066" lon="-97.935178">
        <ele>1329.009</ele>
        <time>2022-07-07T05:31:43Z</time>
      </trkpt>
      <trkpt lat="20.294014" lon="-97.935204">
        <ele>1329.429</ele>
        <time>2022-07-07T05:31:47Z</time>
      </trkpt>
      <trkpt lat="20.293966" lon="-97.935206">
        <ele>1324.518</ele>
        <time>2022-07-07T05:31:54Z</time>
      </trkpt>
      <trkpt lat="20.293918" lon="-97.93522">
        <ele>1322.745</ele>
        <time>2022-07-07T05:32:00Z</time>
      </trkpt>
      <trkpt lat="20.293867" lon="-97.935225">
        <ele>1323.950</ele>
        <time>2022-07-07T05:32:05Z</time>
      </trkpt>
      <trkpt lat="20.293817" lon="-97.935227">
        <ele>1324.757</ele>
        <time>2022-07-07T05:32:09Z</time>
      </trkpt>
      <trkpt lat="20.293771" lon="-97.935233">
        <ele>1323.690</ele>
        <time>2022-07-07T05:32:13Z</time>
      </trkpt>
      <trkpt lat="20.293722" lon="-97.935243">
        <ele>1318.415</ele>
        <time>2022-07-07T05:32:16Z</time>
      </trkpt>
      <trkpt lat="20.293677" lon="-97.93524">
        <ele>1321.985</ele>
        <time>2022-07-07T05:32:19Z</time>
      </trkpt>
      <trkpt lat="20.293631" lon="-97.935244">
        <ele>1323.086</ele>
        <time>2022-07-07T05:32:23Z</time>
      </trkpt>
      <trkpt lat="20.293581" lon="-97.935267">
        <ele>1322.671</ele>
        <time>2022-07-07T05:32:27Z</time>
      </trkpt>
      <trkpt lat="20.293531" lon="-97.935296">
        <ele>1321.941</ele>
        <time>2022-07-07T05:32:31Z</time>
      </trkpt>
      <trkpt lat="20.293493" lon="-97.93534">
        <ele>1320.115</ele>
        <time>2022-07-07T05:32:35Z</time>
      </trkpt>
      <trkpt lat="20.293463" lon="-97.935395">
        <ele>1319.309</ele>
        <time>2022-07-07T05:32:38Z</time>
      </trkpt>
      <trkpt lat="20.293427" lon="-97.935447">
        <ele>1321.428</ele>
        <time>2022-07-07T05:32:41Z</time>
      </trkpt>
      <trkpt lat="20.293386" lon="-97.935497">
        <ele>1321.877</ele>
        <time>2022-07-07T05:32:44Z</time>
      </trkpt>
      <trkpt lat="20.293351" lon="-97.935554">
        <ele>1322.494</ele>
        <time>2022-07-07T05:32:47Z</time>
      </trkpt>
      <trkpt lat="20.293326" lon="-97.935596">
        <ele>1322.829</ele>
        <time>2022-07-07T05:32:49Z</time>
      </trkpt>
      <trkpt lat="20.293312" lon="-97.935648">
        <ele>1322.366</ele>
        <time>2022-07-07T05:32:51Z</time>
      </trkpt>
      <trkpt lat="20.293298" lon="-97.935697">
        <ele>1323.469</ele>
        <time>2022-07-07T05:32:53Z</time>
      </trkpt>
      <trkpt lat="20.293279" lon="-97.935746">
        <ele>1322.234</ele>
        <time>2022-07-07T05:32:55Z</time>
      </trkpt>
      <trkpt lat="20.293254" lon="-97.935797">
        <ele>1322.544</ele>
        <time>2022-07-07T05:32:58Z</time>
      </trkpt>
      <trkpt lat="20.293217" lon="-97.935832">
        <ele>1321.865</ele>
        <time>2022-07-07T05:33:01Z</time>
      </trkpt>
      <trkpt lat="20.293185" lon="-97.93587">
        <ele>1318.377</ele>
        <time>2022-07-07T05:33:04Z</time>
      </trkpt>
      <trkpt lat="20.293188" lon="-97.935925">
        <ele>1316.461</ele>
        <time>2022-07-07T05:33:07Z</time>
      </trkpt>
      <trkpt lat="20.293188" lon="-97.935981">
        <ele>1315.527</ele>
        <time>2022-07-07T05:33:11Z</time>
      </trkpt>
      <trkpt lat="20.293168" lon="-97.936034">
        <ele>1314.609</ele>
        <time>2022-07-07T05:33:15Z</time>
      </trkpt>
      <trkpt lat="20.293147" lon="-97.936086">
        <ele>1314.658</ele>
        <time>2022-07-07T05:33:19Z</time>
      </trkpt>
      <trkpt lat="20.293138" lon="-97.936138">
        <ele>1314.047</ele>
        <time>2022-07-07T05:33:23Z</time>
      </trkpt>
      <trkpt lat="20.293137" lon="-97.936187">
        <ele>1312.154</ele>
        <time>2022-07-07T05:33:27Z</time>
      </trkpt>
      <trkpt lat="20.293139" lon="-97.936237">
        <ele>1309.659</ele>
        <time>2022-07-07T05:33:32Z</time>
      </trkpt>
      <trkpt lat="20.293148" lon="-97.936287">
        <ele>1310.866</ele>
        <time>2022-07-07T05:33:36Z</time>
      </trkpt>
      <trkpt lat="20.293155" lon="-97.936339">
        <ele>1310.949</ele>
        <time>2022-07-07T05:33:40Z</time>
      </trkpt>
      <trkpt lat="20.293136" lon="-97.936397">
        <ele>1310.464</ele>
        <time>2022-07-07T05:33:44Z</time>
      </trkpt>
      <trkpt lat="20.293153" lon="-97.936447">
        <ele>1309.494</ele>
        <time>2022-07-07T05:33:48Z</time>
      </trkpt>
      <trkpt lat="20.29317" lon="-97.936493">
        <ele>1305.445</ele>
        <time>2022-07-07T05:33:53Z</time>
      </trkpt>
      <trkpt lat="20.293173" lon="-97.93655">
        <ele>1304.373</ele>
        <time>2022-07-07T05:33:58Z</time>
      </trkpt>
      <trkpt lat="20.293166" lon="-97.936617">
        <ele>1304.685</ele>
        <time>2022-07-07T05:34:01Z</time>
      </trkpt>
      <trkpt lat="20.293159" lon="-97.93668">
        <ele>1305.213</ele>
        <time>2022-07-07T05:34:04Z</time>
      </trkpt>
      <trkpt lat="20.293154" lon="-97.936732">
        <ele>1305.509</ele>
        <time>2022-07-07T05:34:08Z</time>
      </trkpt>
      <trkpt lat="20.293117" lon="-97.936771">
        <ele>1310.048</ele>
        <time>2022-07-07T05:34:12Z</time>
      </trkpt>
      <trkpt lat="20.293116" lon="-97.936833">
        <ele>1311.587</ele>
        <time>2022-07-07T05:34:16Z</time>
      </trkpt>
      <trkpt lat="20.293117" lon="-97.936888">
        <ele>1310.324</ele>
        <time>2022-07-07T05:34:20Z</time>
      </trkpt>
      <trkpt lat="20.293103" lon="-97.936935">
        <ele>1310.579</ele>
        <time>2022-07-07T05:34:24Z</time>
      </trkpt>
      <trkpt lat="20.293082" lon="-97.936992">
        <ele>1309.576</ele>
        <time>2022-07-07T05:34:30Z</time>
      </trkpt>
      <trkpt lat="20.293058" lon="-97.937046">
        <ele>1309.639</ele>
        <time>2022-07-07T05:34:34Z</time>
      </trkpt>
      <trkpt lat="20.293057" lon="-97.937095">
        <ele>1306.464</ele>
        <time>2022-07-07T05:34:38Z</time>
      </trkpt>
      <trkpt lat="20.293044" lon="-97.937144">
        <ele>1308.194</ele>
        <time>2022-07-07T05:34:42Z</time>
      </trkpt>
      <trkpt lat="20.293024" lon="-97.937198">
        <ele>1305.895</ele>
        <time>2022-07-07T05:34:46Z</time>
      </trkpt>
      <trkpt lat="20.292984" lon="-97.937244">
        <ele>1306.044</ele>
        <time>2022-07-07T05:34:50Z</time>
      </trkpt>
      <trkpt lat="20.292943" lon="-97.937286">
        <ele>1305.705</ele>
        <time>2022-07-07T05:34:54Z</time>
      </trkpt>
      <trkpt lat="20.292909" lon="-97.93734">
        <ele>1308.415</ele>
        <time>2022-07-07T05:34:58Z</time>
      </trkpt>
      <trkpt lat="20.292895" lon="-97.937399">
        <ele>1311.409</ele>
        <time>2022-07-07T05:35:01Z</time>
      </trkpt>
      <trkpt lat="20.292894" lon="-97.937454">
        <ele>1310.615</ele>
        <time>2022-07-07T05:35:05Z</time>
      </trkpt>
      <trkpt lat="20.292878" lon="-97.937513">
        <ele>1310.854</ele>
        <time>2022-07-07T05:35:08Z</time>
      </trkpt>
      <trkpt lat="20.292864" lon="-97.937566">
        <ele>1310.581</ele>
        <time>2022-07-07T05:35:12Z</time>
      </trkpt>
      <trkpt lat="20.29284" lon="-97.937609">
        <ele>1313.736</ele>
        <time>2022-07-07T05:35:16Z</time>
      </trkpt>
      <trkpt lat="20.2928" lon="-97.937652">
        <ele>1318.963</ele>
        <time>2022-07-07T05:35:20Z</time>
      </trkpt>
      <trkpt lat="20.292761" lon="-97.937684">
        <ele>1318.456</ele>
        <time>2022-07-07T05:35:23Z</time>
      </trkpt>
      <trkpt lat="20.292718" lon="-97.937701">
        <ele>1320.221</ele>
        <time>2022-07-07T05:35:26Z</time>
      </trkpt>
      <trkpt lat="20.292667" lon="-97.937729">
        <ele>1322.941</ele>
        <time>2022-07-07T05:35:30Z</time>
      </trkpt>
      <trkpt lat="20.292621" lon="-97.937757">
        <ele>1323.542</ele>
        <time>2022-07-07T05:35:34Z</time>
      </trkpt>
      <trkpt lat="20.292564" lon="-97.937793">
        <ele>1323.853</ele>
        <time>2022-07-07T05:35:37Z</time>
      </trkpt>
      <trkpt lat="20.292502" lon="-97.937798">
        <ele>1320.704</ele>
        <time>2022-07-07T05:35:40Z</time>
      </trkpt>
      <trkpt lat="20.292449" lon="-97.937808">
        <ele>1319.014</ele>
        <time>2022-07-07T05:35:45Z</time>
      </trkpt>
      <trkpt lat="20.292417" lon="-97.937846">
        <ele>1321.209</ele>
        <time>2022-07-07T05:35:49Z</time>
      </trkpt>
      <trkpt lat="20.292374" lon="-97.937867">
        <ele>1318.696</ele>
        <time>2022-07-07T05:35:53Z</time>
      </trkpt>
      <trkpt lat="20.292333" lon="-97.9379">
        <ele>1319.215</ele>
        <time>2022-07-07T05:35:57Z</time>
      </trkpt>
      <trkpt lat="20.292297" lon="-97.937932">
        <ele>1315.812</ele>
        <time>2022-07-07T05:36:03Z</time>
      </trkpt>
      <trkpt lat="20.292265" lon="-97.937968">
        <ele>1312.217</ele>
        <time>2022-07-07T05:36:07Z</time>
      </trkpt>
      <trkpt lat="20.292227" lon="-97.938002">
        <ele>1310.624</ele>
        <time>2022-07-07T05:36:11Z</time>
      </trkpt>
      <trkpt lat="20.292193" lon="-97.938038">
        <ele>1310.727</ele>
        <time>2022-07-07T05:36:14Z</time>
      </trkpt>
      <trkpt lat="20.292152" lon="-97.938084">
        <ele>1308.782</ele>
        <time>2022-07-07T05:36:17Z</time>
      </trkpt>
      <trkpt lat="20.29212" lon="-97.938138">
        <ele>1309.892</ele>
        <time>2022-07-07T05:36:20Z</time>
      </trkpt>
      <trkpt lat="20.292106" lon="-97.938198">
        <ele>1312.923</ele>
        <time>2022-07-07T05:36:23Z</time>
      </trkpt>
      <trkpt lat="20.292102" lon="-97.938247">
        <ele>1312.369</ele>
        <time>2022-07-07T05:36:26Z</time>
      </trkpt>
      <trkpt lat="20.29206" lon="-97.938273">
        <ele>1316.804</ele>
        <time>2022-07-07T05:36:30Z</time>
      </trkpt>
      <trkpt lat="20.292034" lon="-97.938317">
        <ele>1318.124</ele>
        <time>2022-07-07T05:36:34Z</time>
      </trkpt>
      <trkpt lat="20.292017" lon="-97.938366">
        <ele>1321.209</ele>
        <time>2022-07-07T05:36:38Z</time>
      </trkpt>
      <trkpt lat="20.291995" lon="-97.938412">
        <ele>1321.287</ele>
        <time>2022-07-07T05:36:42Z</time>
      </trkpt>
      <trkpt lat="20.291966" lon="-97.938453">
        <ele>1324.926</ele>
        <time>2022-07-07T05:36:47Z</time>
      </trkpt>
      <trkpt lat="20.291915" lon="-97.938481">
        <ele>1324.423</ele>
        <time>2022-07-07T05:36:52Z</time>
      </trkpt>
      <trkpt lat="20.291882" lon="-97.938515">
        <ele>1324.388</ele>
        <time>2022-07-07T05:36:56Z</time>
      </trkpt>
      <trkpt lat="20.291856" lon="-97.938555">
        <ele>1327.625</ele>
        <time>2022-07-07T05:37:00Z</time>
      </trkpt>
      <trkpt lat="20.291831" lon="-97.938597">
        <ele>1326.438</ele>
        <time>2022-07-07T05:37:05Z</time>
      </trkpt>
      <trkpt lat="20.291794" lon="-97.938637">
        <ele>1326.873</ele>
        <time>2022-07-07T05:37:09Z</time>
      </trkpt>
      <trkpt lat="20.291774" lon="-97.938684">
        <ele>1327.563</ele>
        <time>2022-07-07T05:37:13Z</time>
      </trkpt>
      <trkpt lat="20.291739" lon="-97.938727">
        <ele>1327.064</ele>
        <time>2022-07-07T05:37:17Z</time>
      </trkpt>
      <trkpt lat="20.291713" lon="-97.93878">
        <ele>1330.953</ele>
        <time>2022-07-07T05:37:21Z</time>
      </trkpt>
      <trkpt lat="20.291708" lon="-97.938836">
        <ele>1331.204</ele>
        <time>2022-07-07T05:37:24Z</time>
      </trkpt>
      <trkpt lat="20.291697" lon="-97.938898">
        <ele>1332.014</ele>
        <time>2022-07-07T05:37:27Z</time>
      </trkpt>
      <trkpt lat="20.291678" lon="-97.938943">
        <ele>1332.409</ele>
        <time>2022-07-07T05:37:32Z</time>
      </trkpt>
      <trkpt lat="20.291662" lon="-97.938992">
        <ele>1329.896</ele>
        <time>2022-07-07T05:37:37Z</time>
      </trkpt>
      <trkpt lat="20.291636" lon="-97.939037">
        <ele>1331.585</ele>
        <time>2022-07-07T05:37:42Z</time>
      </trkpt>
      <trkpt lat="20.291613" lon="-97.93909">
        <ele>1331.212</ele>
        <time>2022-07-07T05:37:47Z</time>
      </trkpt>
      <trkpt lat="20.291573" lon="-97.939117">
        <ele>1332.967</ele>
        <time>2022-07-07T05:37:51Z</time>
      </trkpt>
      <trkpt lat="20.291557" lon="-97.939175">
        <ele>1332.214</ele>
        <time>2022-07-07T05:37:55Z</time>
      </trkpt>
      <trkpt lat="20.291512" lon="-97.939188">
        <ele>1334.717</ele>
        <time>2022-07-07T05:37:59Z</time>
      </trkpt>
      <trkpt lat="20.291474" lon="-97.939214">
        <ele>1340.152</ele>
        <time>2022-07-07T05:38:02Z</time>
      </trkpt>
      <trkpt lat="20.291468" lon="-97.939268">
        <ele>1342.842</ele>
        <time>2022-07-07T05:38:04Z</time>
      </trkpt>
      <trkpt lat="20.291461" lon="-97.939322">
        <ele>1343.883</ele>
        <time>2022-07-07T05:38:07Z</time>
      </trkpt>
      <trkpt lat="20.291453" lon="-97.939376">
        <ele>1345.496</ele>
        <time>2022-07-07T05:38:11Z</time>
      </trkpt>
      <trkpt lat="20.291474" lon="-97.939419">
        <ele>1346.031</ele>
        <time>2022-07-07T05:38:14Z</time>
      </trkpt>
      <trkpt lat="20.291516" lon="-97.939461">
        <ele>1347.124</ele>
        <time>2022-07-07T05:38:18Z</time>
      </trkpt>
      <trkpt lat="20.291573" lon="-97.939474">
        <ele>1342.509</ele>
        <time>2022-07-07T05:38:22Z</time>
      </trkpt>
      <trkpt lat="20.291613" lon="-97.939497">
        <ele>1343.520</ele>
        <time>2022-07-07T05:38:26Z</time>
      </trkpt>
      <trkpt lat="20.291665" lon="-97.939516">
        <ele>1343.589</ele>
        <time>2022-07-07T05:38:30Z</time>
      </trkpt>
      <trkpt lat="20.291714" lon="-97.939523">
        <ele>1343.436</ele>
        <time>2022-07-07T05:38:33Z</time>
      </trkpt>
      <trkpt lat="20.291771" lon="-97.93953">
        <ele>1344.471</ele>
        <time>2022-07-07T05:38:38Z</time>
      </trkpt>
      <trkpt lat="20.291823" lon="-97.939523">
        <ele>1344.368</ele>
        <time>2022-07-07T05:38:42Z</time>
      </trkpt>
      <trkpt lat="20.291877" lon="-97.939503">
        <ele>1342.531</ele>
        <time>2022-07-07T05:38:46Z</time>
      </trkpt>
      <trkpt lat="20.291927" lon="-97.939497">
        <ele>1344.166</ele>
        <time>2022-07-07T05:38:50Z</time>
      </trkpt>
      <trkpt lat="20.291975" lon="-97.939506">
        <ele>1344.536</ele>
        <time>2022-07-07T05:38:54Z</time>
      </trkpt>
      <trkpt lat="20.292016" lon="-97.939473">
        <ele>1343.347</ele>
        <time>2022-07-07T05:38:58Z</time>
      </trkpt>
      <trkpt lat="20.29206" lon="-97.939455">
        <ele>1343.917</ele>
        <time>2022-07-07T05:39:02Z</time>
      </trkpt>
      <trkpt lat="20.292087" lon="-97.939416">
        <ele>1344.187</ele>
        <time>2022-07-07T05:39:06Z</time>
      </trkpt>
      <trkpt lat="20.292133" lon="-97.939374">
        <ele>1344.415</ele>
        <time>2022-07-07T05:39:10Z</time>
      </trkpt>
      <trkpt lat="20.292147" lon="-97.93932">
        <ele>1346.909</ele>
        <time>2022-07-07T05:39:14Z</time>
      </trkpt>
      <trkpt lat="20.292172" lon="-97.939274">
        <ele>1348.372</ele>
        <time>2022-07-07T05:39:18Z</time>
      </trkpt>
      <trkpt lat="20.292197" lon="-97.939234">
        <ele>1348.951</ele>
        <time>2022-07-07T05:39:22Z</time>
      </trkpt>
      <trkpt lat="20.292243" lon="-97.939206">
        <ele>1347.138</ele>
        <time>2022-07-07T05:39:27Z</time>
      </trkpt>
      <trkpt lat="20.292277" lon="-97.939172">
        <ele>1347.733</ele>
        <time>2022-07-07T05:39:31Z</time>
      </trkpt>
      <trkpt lat="20.292319" lon="-97.939139">
        <ele>1350.210</ele>
        <time>2022-07-07T05:39:35Z</time>
      </trkpt>
      <trkpt lat="20.292365" lon="-97.93912">
        <ele>1350.353</ele>
        <time>2022-07-07T05:39:39Z</time>
      </trkpt>
      <trkpt lat="20.292408" lon="-97.939091">
        <ele>1353.768</ele>
        <time>2022-07-07T05:39:43Z</time>
      </trkpt>
      <trkpt lat="20.292446" lon="-97.939053">
        <ele>1352.738</ele>
        <time>2022-07-07T05:39:48Z</time>
      </trkpt>
      <trkpt lat="20.292483" lon="-97.93902">
        <ele>1353.669</ele>
        <time>2022-07-07T05:39:53Z</time>
      </trkpt>
      <trkpt lat="20.292529" lon="-97.938979">
        <ele>1354.442</ele>
        <time>2022-07-07T05:39:58Z</time>
      </trkpt>
      <trkpt lat="20.292568" lon="-97.938935">
        <ele>1354.322</ele>
        <time>2022-07-07T05:40:01Z</time>
      </trkpt>
      <trkpt lat="20.292593" lon="-97.938893">
        <ele>1357.114</ele>
        <time>2022-07-07T05:40:04Z</time>
      </trkpt>
      <trkpt lat="20.292628" lon="-97.938859">
        <ele>1356.809</ele>
        <time>2022-07-07T05:40:09Z</time>
      </trkpt>
      <trkpt lat="20.292671" lon="-97.938873">
        <ele>1357.125</ele>
        <time>2022-07-07T05:40:13Z</time>
      </trkpt>
      <trkpt lat="20.292716" lon="-97.938881">
        <ele>1357.384</ele>
        <time>2022-07-07T05:40:18Z</time>
      </trkpt>
      <trkpt lat="20.292764" lon="-97.938902">
        <ele>1356.531</ele>
        <time>2022-07-07T05:40:23Z</time>
      </trkpt>
      <trkpt lat="20.292808" lon="-97.938935">
        <ele>1355.926</ele>
        <time>2022-07-07T05:40:28Z</time>
      </trkpt>
      <trkpt lat="20.292834" lon="-97.938988">
        <ele>1354.863</ele>
        <time>2022-07-07T05:40:32Z</time>
      </trkpt>
      <trkpt lat="20.292866" lon="-97.939034">
        <ele>1354.476</ele>
        <time>2022-07-07T05:40:35Z</time>
      </trkpt>
      <trkpt lat="20.292902" lon="-97.93909">
        <ele>1355.321</ele>
        <time>2022-07-07T05:40:38Z</time>
      </trkpt>
      <trkpt lat="20.292944" lon="-97.939141">
        <ele>1354.341</ele>
        <time>2022-07-07T05:40:41Z</time>
      </trkpt>
      <trkpt lat="20.292999" lon="-97.939173">
        <ele>1352.832</ele>
        <time>2022-07-07T05:40:44Z</time>
      </trkpt>
      <trkpt lat="20.293065" lon="-97.939171">
        <ele>1356.676</ele>
        <time>2022-07-07T05:40:47Z</time>
      </trkpt>
      <trkpt lat="20.293111" lon="-97.939163">
        <ele>1355.990</ele>
        <time>2022-07-07T05:40:51Z</time>
      </trkpt>
      <trkpt lat="20.293157" lon="-97.939164">
        <ele>1356.819</ele>
        <time>2022-07-07T05:40:55Z</time>
      </trkpt>
      <trkpt lat="20.293196" lon="-97.939196">
        <ele>1354.909</ele>
        <time>2022-07-07T05:40:58Z</time>
      </trkpt>
      <trkpt lat="20.293224" lon="-97.939247">
        <ele>1354.538</ele>
        <time>2022-07-07T05:41:01Z</time>
      </trkpt>
      <trkpt lat="20.293245" lon="-97.939306">
        <ele>1354.437</ele>
        <time>2022-07-07T05:41:04Z</time>
      </trkpt>
      <trkpt lat="20.293254" lon="-97.939366">
        <ele>1354.794</ele>
        <time>2022-07-07T05:41:07Z</time>
      </trkpt>
      <trkpt lat="20.293237" lon="-97.939421">
        <ele>1354.099</ele>
        <time>2022-07-07T05:41:10Z</time>
      </trkpt>
      <trkpt lat="20.293213" lon="-97.939468">
        <ele>1354.086</ele>
        <time>2022-07-07T05:41:13Z</time>
      </trkpt>
      <trkpt lat="20.29319" lon="-97.939511">
        <ele>1353.669</ele>
        <time>2022-07-07T05:41:16Z</time>
      </trkpt>
      <trkpt lat="20.293152" lon="-97.939552">
        <ele>1354.494</ele>
        <time>2022-07-07T05:41:21Z</time>
      </trkpt>
      <trkpt lat="20.293125" lon="-97.939599">
        <ele>1352.364</ele>
        <time>2022-07-07T05:41:26Z</time>
      </trkpt>
      <trkpt lat="20.293087" lon="-97.939637">
        <ele>1352.895</ele>
        <time>2022-07-07T05:41:31Z</time>
      </trkpt>
      <trkpt lat="20.293062" lon="-97.939679">
        <ele>1354.354</ele>
        <time>2022-07-07T05:41:35Z</time>
      </trkpt>
      <trkpt lat="20.29303" lon="-97.939725">
        <ele>1353.556</ele>
        <time>2022-07-07T05:41:39Z</time>
      </trkpt>
      <trkpt lat="20.292991" lon="-97.939751">
        <ele>1354.511</ele>
        <time>2022-07-07T05:41:45Z</time>
      </trkpt>
      <trkpt lat="20.292944" lon="-97.93975">
        <ele>1356.509</ele>
        <time>2022-07-07T05:41:50Z</time>
      </trkpt>
      <trkpt lat="20.292891" lon="-97.939749">
        <ele>1356.456</ele>
        <time>2022-07-07T05:41:55Z</time>
      </trkpt>
      <trkpt lat="20.292829" lon="-97.939761">
        <ele>1358.365</ele>
        <time>2022-07-07T05:42:00Z</time>
      </trkpt>
      <trkpt lat="20.292784" lon="-97.939756">
        <ele>1359.732</ele>
        <time>2022-07-07T05:42:03Z</time>
      </trkpt>
      <trkpt lat="20.292724" lon="-97.93977">
        <ele>1358.937</ele>
        <time>2022-07-07T05:42:08Z</time>
      </trkpt>
      <trkpt lat="20.292674" lon="-97.939794">
        <ele>1359.954</ele>
        <time>2022-07-07T05:42:11Z</time>
      </trkpt>
      <trkpt lat="20.292629" lon="-97.939807">
        <ele>1362.387</ele>
        <time>2022-07-07T05:42:14Z</time>
      </trkpt>
      <trkpt lat="20.292583" lon="-97.939814">
        <ele>1363.452</ele>
        <time>2022-07-07T05:42:17Z</time>
      </trkpt>
      <trkpt lat="20.292538" lon="-97.939833">
        <ele>1363.642</ele>
        <time>2022-07-07T05:42:20Z</time>
      </trkpt>
      <trkpt lat="20.292485" lon="-97.93985">
        <ele>1364.773</ele>
        <time>2022-07-07T05:42:23Z</time>
      </trkpt>
      <trkpt lat="20.292436" lon="-97.939869">
        <ele>1366.742</ele>
        <time>2022-07-07T05:42:26Z</time>
      </trkpt>
      <trkpt lat="20.292382" lon="-97.93989">
        <ele>1366.822</ele>
        <time>2022-07-07T05:42:30Z</time>
      </trkpt>
      <trkpt lat="20.292332" lon="-97.939905">
        <ele>1368.914</ele>
        <time>2022-07-07T05:42:34Z</time>
      </trkpt>
      <trkpt lat="20.292287" lon="-97.939924">
        <ele>1368.109</ele>
        <time>2022-07-07T05:42:38Z</time>
      </trkpt>
      <trkpt lat="20.292244" lon="-97.939948">
        <ele>1367.425</ele>
        <time>2022-07-07T05:42:42Z</time>
      </trkpt>
      <trkpt lat="20.292209" lon="-97.939985">
        <ele>1367.314</ele>
        <time>2022-07-07T05:42:47Z</time>
      </trkpt>
      <trkpt lat="20.292162" lon="-97.940002">
        <ele>1369.991</ele>
        <time>2022-07-07T05:42:51Z</time>
      </trkpt>
      <trkpt lat="20.292113" lon="-97.940017">
        <ele>1370.866</ele>
        <time>2022-07-07T05:42:55Z</time>
      </trkpt>
      <trkpt lat="20.292065" lon="-97.940031">
        <ele>1371.933</ele>
        <time>2022-07-07T05:43:00Z</time>
      </trkpt>
      <trkpt lat="20.292013" lon="-97.940041">
        <ele>1372.226</ele>
        <time>2022-07-07T05:43:05Z</time>
      </trkpt>
      <trkpt lat="20.291959" lon="-97.94005">
        <ele>1372.391</ele>
        <time>2022-07-07T05:43:10Z</time>
      </trkpt>
      <trkpt lat="20.291919" lon="-97.94009">
        <ele>1369.581</ele>
        <time>2022-07-07T05:43:16Z</time>
      </trkpt>
      <trkpt lat="20.291878" lon="-97.94012">
        <ele>1369.432</ele>
        <time>2022-07-07T05:43:20Z</time>
      </trkpt>
      <trkpt lat="20.291845" lon="-97.940166">
        <ele>1367.663</ele>
        <time>2022-07-07T05:43:25Z</time>
      </trkpt>
      <trkpt lat="20.291819" lon="-97.940215">
        <ele>1367.644</ele>
        <time>2022-07-07T05:43:28Z</time>
      </trkpt>
      <trkpt lat="20.291794" lon="-97.940263">
        <ele>1369.118</ele>
        <time>2022-07-07T05:43:31Z</time>
      </trkpt>
      <trkpt lat="20.291774" lon="-97.940308">
        <ele>1372.109</ele>
        <time>2022-07-07T05:43:34Z</time>
      </trkpt>
      <trkpt lat="20.291757" lon="-97.940358">
        <ele>1372.747</ele>
        <time>2022-07-07T05:43:38Z</time>
      </trkpt>
      <trkpt lat="20.29174" lon="-97.940414">
        <ele>1375.896</ele>
        <time>2022-07-07T05:43:42Z</time>
      </trkpt>
      <trkpt lat="20.291724" lon="-97.940469">
        <ele>1376.913</ele>
        <time>2022-07-07T05:43:47Z</time>
      </trkpt>
      <trkpt lat="20.2917" lon="-97.940514">
        <ele>1376.918</ele>
        <time>2022-07-07T05:43:50Z</time>
      </trkpt>
      <trkpt lat="20.291669" lon="-97.940549">
        <ele>1375.285</ele>
        <time>2022-07-07T05:43:53Z</time>
      </trkpt>
      <trkpt lat="20.291624" lon="-97.940561">
        <ele>1374.618</ele>
        <time>2022-07-07T05:43:58Z</time>
      </trkpt>
      <trkpt lat="20.291573" lon="-97.940561">
        <ele>1376.833</ele>
        <time>2022-07-07T05:44:05Z</time>
      </trkpt>
      <trkpt lat="20.291525" lon="-97.940554">
        <ele>1376.163</ele>
        <time>2022-07-07T05:44:10Z</time>
      </trkpt>
      <trkpt lat="20.291477" lon="-97.940574">
        <ele>1376.174</ele>
        <time>2022-07-07T05:44:15Z</time>
      </trkpt>
      <trkpt lat="20.291429" lon="-97.940602">
        <ele>1378.674</ele>
        <time>2022-07-07T05:44:20Z</time>
      </trkpt>
      <trkpt lat="20.291396" lon="-97.940638">
        <ele>1379.156</ele>
        <time>2022-07-07T05:44:24Z</time>
      </trkpt>
      <trkpt lat="20.291377" lon="-97.940685">
        <ele>1377.621</ele>
        <time>2022-07-07T05:44:28Z</time>
      </trkpt>
      <trkpt lat="20.291347" lon="-97.94073">
        <ele>1375.709</ele>
        <time>2022-07-07T05:44:32Z</time>
      </trkpt>
      <trkpt lat="20.291331" lon="-97.940776">
        <ele>1375.358</ele>
        <time>2022-07-07T05:44:35Z</time>
      </trkpt>
      <trkpt lat="20.291317" lon="-97.940837">
        <ele>1373.647</ele>
        <time>2022-07-07T05:44:39Z</time>
      </trkpt>
      <trkpt lat="20.291307" lon="-97.940894">
        <ele>1376.224</ele>
        <time>2022-07-07T05:44:42Z</time>
      </trkpt>
      <trkpt lat="20.291299" lon="-97.940951">
        <ele>1376.289</ele>
        <time>2022-07-07T05:44:45Z</time>
      </trkpt>
      <trkpt lat="20.291288" lon="-97.941004">
        <ele>1378.836</ele>
        <time>2022-07-07T05:44:48Z</time>
      </trkpt>
      <trkpt lat="20.291265" lon="-97.941051">
        <ele>1375.089</ele>
        <time>2022-07-07T05:44:54Z</time>
      </trkpt>
      <trkpt lat="20.291241" lon="-97.941096">
        <ele>1373.434</ele>
        <time>2022-07-07T05:44:58Z</time>
      </trkpt>
      <trkpt lat="20.291218" lon="-97.941152">
        <ele>1375.574</ele>
        <time>2022-07-07T05:45:02Z</time>
      </trkpt>
      <trkpt lat="20.291206" lon="-97.941209">
        <ele>1375.255</ele>
        <time>2022-07-07T05:45:05Z</time>
      </trkpt>
      <trkpt lat="20.29119" lon="-97.941261">
        <ele>1375.356</ele>
        <time>2022-07-07T05:45:08Z</time>
      </trkpt>
      <trkpt lat="20.291166" lon="-97.941316">
        <ele>1376.259</ele>
        <time>2022-07-07T05:45:13Z</time>
      </trkpt>
      <trkpt lat="20.291141" lon="-97.941361">
        <ele>1378.914</ele>
        <time>2022-07-07T05:45:17Z</time>
      </trkpt>
      <trkpt lat="20.291111" lon="-97.941409">
        <ele>1378.809</ele>
        <time>2022-07-07T05:45:21Z</time>
      </trkpt>
      <trkpt lat="20.291068" lon="-97.941453">
        <ele>1378.276</ele>
        <time>2022-07-07T05:45:25Z</time>
      </trkpt>
      <trkpt lat="20.291023" lon="-97.941496">
        <ele>1379.955</ele>
        <time>2022-07-07T05:45:28Z</time>
      </trkpt>
      <trkpt lat="20.290997" lon="-97.941557">
        <ele>1381.562</ele>
        <time>2022-07-07T05:45:31Z</time>
      </trkpt>
      <trkpt lat="20.290961" lon="-97.941593">
        <ele>1381.987</ele>
        <time>2022-07-07T05:45:36Z</time>
      </trkpt>
      <trkpt lat="20.290972" lon="-97.941644">
        <ele>1385.324</ele>
        <time>2022-07-07T05:45:41Z</time>
      </trkpt>
      <trkpt lat="20.290993" lon="-97.941692">
        <ele>1385.117</ele>
        <time>2022-07-07T05:45:46Z</time>
      </trkpt>
      <trkpt lat="20.291022" lon="-97.941731">
        <ele>1386.532</ele>
        <time>2022-07-07T05:45:51Z</time>
      </trkpt>
      <trkpt lat="20.291052" lon="-97.941773">
        <ele>1387.032</ele>
        <time>2022-07-07T05:45:55Z</time>
      </trkpt>
      <trkpt lat="20.291095" lon="-97.941819">
        <ele>1389.853</ele>
        <time>2022-07-07T05:45:58Z</time>
      </trkpt>
      <trkpt lat="20.291153" lon="-97.941853">
        <ele>1393.075</ele>
        <time>2022-07-07T05:46:01Z</time>
      </trkpt>
      <trkpt lat="20.291201" lon="-97.941877">
        <ele>1393.628</ele>
        <time>2022-07-07T05:46:04Z</time>
      </trkpt>
      <trkpt lat="20.291248" lon="-97.941905">
        <ele>1395.320</ele>
        <time>2022-07-07T05:46:08Z</time>
      </trkpt>
      <trkpt lat="20.291293" lon="-97.94194">
        <ele>1396.009</ele>
        <time>2022-07-07T05:46:12Z</time>
      </trkpt>
      <trkpt lat="20.291322" lon="-97.941985">
        <ele>1398.068</ele>
        <time>2022-07-07T05:46:16Z</time>
      </trkpt>
      <trkpt lat="20.291333" lon="-97.942037">
        <ele>1399.577</ele>
        <time>2022-07-07T05:46:21Z</time>
      </trkpt>
      <trkpt lat="20.291354" lon="-97.942086">
        <ele>1399.654</ele>
        <time>2022-07-07T05:46:24Z</time>
      </trkpt>
      <trkpt lat="20.291379" lon="-97.94214">
        <ele>1399.899</ele>
        <time>2022-07-07T05:46:27Z</time>
      </trkpt>
      <trkpt lat="20.291413" lon="-97.94219">
        <ele>1399.076</ele>
        <time>2022-07-07T05:46:30Z</time>
      </trkpt>
      <trkpt lat="20.291449" lon="-97.942232">
        <ele>1399.219</ele>
        <time>2022-07-07T05:46:33Z</time>
      </trkpt>
      <trkpt lat="20.291493" lon="-97.942269">
        <ele>1401.424</ele>
        <time>2022-07-07T05:46:36Z</time>
      </trkpt>
      <trkpt lat="20.291543" lon="-97.942299">
        <ele>1403.134</ele>
        <time>2022-07-07T05:46:39Z</time>
      </trkpt>
      <trkpt lat="20.291592" lon="-97.942323">
        <ele>1405.495</ele>
        <time>2022-07-07T05:46:43Z</time>
      </trkpt>
      <trkpt lat="20.291635" lon="-97.942363">
        <ele>1406.081</ele>
        <time>2022-07-07T05:46:48Z</time>
      </trkpt>
      <trkpt lat="20.29167" lon="-97.942402">
        <ele>1407.561</ele>
        <time>2022-07-07T05:46:52Z</time>
      </trkpt>
      <trkpt lat="20.291704" lon="-97.942444">
        <ele>1408.317</ele>
        <time>2022-07-07T05:46:56Z</time>
      </trkpt>
      <trkpt lat="20.291738" lon="-97.942481">
        <ele>1409.309</ele>
        <time>2022-07-07T05:47:00Z</time>
      </trkpt>
      <trkpt lat="20.291771" lon="-97.942527">
        <ele>1408.559</ele>
        <time>2022-07-07T05:47:05Z</time>
      </trkpt>
      <trkpt lat="20.291799" lon="-97.942568">
        <ele>1408.518</ele>
        <time>2022-07-07T05:47:10Z</time>
      </trkpt>
      <trkpt lat="20.291829" lon="-97.942612">
        <ele>1407.135</ele>
        <time>2022-07-07T05:47:16Z</time>
      </trkpt>
      <trkpt lat="20.291858" lon="-97.942655">
        <ele>1407.520</ele>
        <time>2022-07-07T05:47:19Z</time>
      </trkpt>
      <trkpt lat="20.291874" lon="-97.942701">
        <ele>1408.217</ele>
        <time>2022-07-07T05:47:22Z</time>
      </trkpt>
      <trkpt lat="20.291879" lon="-97.942757">
        <ele>1410.090</ele>
        <time>2022-07-07T05:47:25Z</time>
      </trkpt>
      <trkpt lat="20.291897" lon="-97.942808">
        <ele>1409.625</ele>
        <time>2022-07-07T05:47:28Z</time>
      </trkpt>
      <trkpt lat="20.29191" lon="-97.942856">
        <ele>1409.615</ele>
        <time>2022-07-07T05:47:33Z</time>
      </trkpt>
      <trkpt lat="20.291921" lon="-97.942916">
        <ele>1408.956</ele>
        <time>2022-07-07T05:47:37Z</time>
      </trkpt>
      <trkpt lat="20.291928" lon="-97.942977">
        <ele>1410.064</ele>
        <time>2022-07-07T05:47:40Z</time>
      </trkpt>
      <trkpt lat="20.291942" lon="-97.943031">
        <ele>1412.806</ele>
        <time>2022-07-07T05:47:44Z</time>
      </trkpt>
      <trkpt lat="20.291943" lon="-97.943082">
        <ele>1413.216</ele>
        <time>2022-07-07T05:47:47Z</time>
      </trkpt>
      <trkpt lat="20.291951" lon="-97.943134">
        <ele>1413.709</ele>
        <time>2022-07-07T05:47:51Z</time>
      </trkpt>
      <trkpt lat="20.291967" lon="-97.943185">
        <ele>1413.547</ele>
        <time>2022-07-07T05:47:56Z</time>
      </trkpt>
      <trkpt lat="20.291962" lon="-97.943233">
        <ele>1412.436</ele>
        <time>2022-07-07T05:48:00Z</time>
      </trkpt>
      <trkpt lat="20.291977" lon="-97.943285">
        <ele>1411.953</ele>
        <time>2022-07-07T05:48:05Z</time>
      </trkpt>
      <trkpt lat="20.291996" lon="-97.943338">
        <ele>1413.538</ele>
        <time>2022-07-07T05:48:10Z</time>
      </trkpt>
      <trkpt lat="20.292011" lon="-97.943393">
        <ele>1412.955</ele>
        <time>2022-07-07T05:48:15Z</time>
      </trkpt>
      <trkpt lat="20.292012" lon="-97.943447">
        <ele>1411.448</ele>
        <time>2022-07-07T05:48:21Z</time>
      </trkpt>
      <trkpt lat="20.292025" lon="-97.943495">
        <ele>1410.743</ele>
        <time>2022-07-07T05:48:25Z</time>
      </trkpt>
      <trkpt lat="20.292035" lon="-97.943543">
        <ele>1410.163</ele>
        <time>2022-07-07T05:48:29Z</time>
      </trkpt>
      <trkpt lat="20.292063" lon="-97.943585">
        <ele>1409.534</ele>
        <time>2022-07-07T05:48:33Z</time>
      </trkpt>
      <trkpt lat="20.292081" lon="-97.943644">
        <ele>1410.399</ele>
        <time>2022-07-07T05:48:37Z</time>
      </trkpt>
      <trkpt lat="20.292094" lon="-97.943694">
        <ele>1411.007</ele>
        <time>2022-07-07T05:48:40Z</time>
      </trkpt>
      <trkpt lat="20.292107" lon="-97.943748">
        <ele>1410.027</ele>
        <time>2022-07-07T05:48:46Z</time>
      </trkpt>
      <trkpt lat="20.292116" lon="-97.943796">
        <ele>1409.309</ele>
        <time>2022-07-07T05:48:50Z</time>
      </trkpt>
      <trkpt lat="20.292137" lon="-97.943838">
        <ele>1408.910</ele>
        <time>2022-07-07T05:48:54Z</time>
      </trkpt>
      <trkpt lat="20.292159" lon="-97.943883">
        <ele>1409.079</ele>
        <time>2022-07-07T05:48:57Z</time>
      </trkpt>
      <trkpt lat="20.292181" lon="-97.943934">
        <ele>1410.786</ele>
        <time>2022-07-07T05:49:01Z</time>
      </trkpt>
      <trkpt lat="20.292208" lon="-97.943978">
        <ele>1409.711</ele>
        <time>2022-07-07T05:49:06Z</time>
      </trkpt>
      <trkpt lat="20.29224" lon="-97.944027">
        <ele>1410.928</ele>
        <time>2022-07-07T05:49:11Z</time>
      </trkpt>
      <trkpt lat="20.292251" lon="-97.944082">
        <ele>1410.441</ele>
        <time>2022-07-07T05:49:15Z</time>
      </trkpt>
      <trkpt lat="20.292262" lon="-97.944129">
        <ele>1410.236</ele>
        <time>2022-07-07T05:49:18Z</time>
      </trkpt>
      <trkpt lat="20.292282" lon="-97.94418">
        <ele>1410.376</ele>
        <time>2022-07-07T05:49:22Z</time>
      </trkpt>
      <trkpt lat="20.292301" lon="-97.944233">
        <ele>1410.217</ele>
        <time>2022-07-07T05:49:27Z</time>
      </trkpt>
      <trkpt lat="20.292318" lon="-97.944282">
        <ele>1411.031</ele>
        <time>2022-07-07T05:49:31Z</time>
      </trkpt>
      <trkpt lat="20.292335" lon="-97.944332">
        <ele>1411.961</ele>
        <time>2022-07-07T05:49:35Z</time>
      </trkpt>
      <trkpt lat="20.292365" lon="-97.944376">
        <ele>1411.107</ele>
        <time>2022-07-07T05:49:40Z</time>
      </trkpt>
      <trkpt lat="20.292393" lon="-97.944418">
        <ele>1410.209</ele>
        <time>2022-07-07T05:49:44Z</time>
      </trkpt>
      <trkpt lat="20.292405" lon="-97.944465">
        <ele>1410.094</ele>
        <time>2022-07-07T05:49:48Z</time>
      </trkpt>
      <trkpt lat="20.29243" lon="-97.944515">
        <ele>1409.253</ele>
        <time>2022-07-07T05:49:52Z</time>
      </trkpt>
      <trkpt lat="20.292453" lon="-97.944578">
        <ele>1409.430</ele>
        <time>2022-07-07T05:49:55Z</time>
      </trkpt>
      <trkpt lat="20.29247" lon="-97.944623">
        <ele>1409.885</ele>
        <time>2022-07-07T05:49:57Z</time>
      </trkpt>
      <trkpt lat="20.292498" lon="-97.944687">
        <ele>1408.712</ele>
        <time>2022-07-07T05:50:00Z</time>
      </trkpt>
      <trkpt lat="20.292513" lon="-97.944734">
        <ele>1409.175</ele>
        <time>2022-07-07T05:50:02Z</time>
      </trkpt>
      <trkpt lat="20.292534" lon="-97.944778">
        <ele>1408.930</ele>
        <time>2022-07-07T05:50:04Z</time>
      </trkpt>
      <trkpt lat="20.29256" lon="-97.94482">
        <ele>1410.810</ele>
        <time>2022-07-07T05:50:06Z</time>
      </trkpt>
      <trkpt lat="20.292588" lon="-97.944865">
        <ele>1411.641</ele>
        <time>2022-07-07T05:50:08Z</time>
      </trkpt>
      <trkpt lat="20.292619" lon="-97.944906">
        <ele>1412.461</ele>
        <time>2022-07-07T05:50:10Z</time>
      </trkpt>
      <trkpt lat="20.292653" lon="-97.944954">
        <ele>1412.021</ele>
        <time>2022-07-07T05:50:12Z</time>
      </trkpt>
      <trkpt lat="20.292683" lon="-97.945002">
        <ele>1412.713</ele>
        <time>2022-07-07T05:50:14Z</time>
      </trkpt>
      <trkpt lat="20.292714" lon="-97.945042">
        <ele>1414.709</ele>
        <time>2022-07-07T05:50:16Z</time>
      </trkpt>
      <trkpt lat="20.292758" lon="-97.945092">
        <ele>1414.617</ele>
        <time>2022-07-07T05:50:19Z</time>
      </trkpt>
      <trkpt lat="20.292796" lon="-97.945137">
        <ele>1415.326</ele>
        <time>2022-07-07T05:50:22Z</time>
      </trkpt>
      <trkpt lat="20.292827" lon="-97.945173">
        <ele>1416.083</ele>
        <time>2022-07-07T05:50:26Z</time>
      </trkpt>
      <trkpt lat="20.292853" lon="-97.94522">
        <ele>1414.868</ele>
        <time>2022-07-07T05:50:30Z</time>
      </trkpt>
      <trkpt lat="20.292862" lon="-97.945268">
        <ele>1413.945</ele>
        <time>2022-07-07T05:50:34Z</time>
      </trkpt>
      <trkpt lat="20.292877" lon="-97.945325">
        <ele>1413.328</ele>
        <time>2022-07-07T05:50:39Z</time>
      </trkpt>
      <trkpt lat="20.2929" lon="-97.945369">
        <ele>1414.793</ele>
        <time>2022-07-07T05:50:43Z</time>
      </trkpt>
      <trkpt lat="20.292918" lon="-97.945414">
        <ele>1413.663</ele>
        <time>2022-07-07T05:50:47Z</time>
      </trkpt>
      <trkpt lat="20.292936" lon="-97.945466">
        <ele>1413.514</ele>
        <time>2022-07-07T05:50:52Z</time>
      </trkpt>
      <trkpt lat="20.29297" lon="-97.945518">
        <ele>1414.355</ele>
        <time>2022-07-07T05:50:56Z</time>
      </trkpt>
      <trkpt lat="20.292996" lon="-97.945557">
        <ele>1414.807</ele>
        <time>2022-07-07T05:51:00Z</time>
      </trkpt>
      <trkpt lat="20.293011" lon="-97.945609">
        <ele>1413.417</ele>
        <time>2022-07-07T05:51:05Z</time>
      </trkpt>
      <trkpt lat="20.293012" lon="-97.945664">
        <ele>1413.209</ele>
        <time>2022-07-07T05:51:08Z</time>
      </trkpt>
      <trkpt lat="20.29302" lon="-97.945715">
        <ele>1411.876</ele>
        <time>2022-07-07T05:51:11Z</time>
      </trkpt>
      <trkpt lat="20.293045" lon="-97.945766">
        <ele>1411.185</ele>
        <time>2022-07-07T05:51:14Z</time>
      </trkpt>
      <trkpt lat="20.293073" lon="-97.945816">
        <ele>1412.172</ele>
        <time>2022-07-07T05:51:17Z</time>
      </trkpt>
      <trkpt lat="20.293108" lon="-97.945851">
        <ele>1412.317</ele>
        <time>2022-07-07T05:51:20Z</time>
      </trkpt>
      <trkpt lat="20.293152" lon="-97.945886">
        <ele>1411.914</ele>
        <time>2022-07-07T05:51:25Z</time>
      </trkpt>
      <trkpt lat="20.293193" lon="-97.945922">
        <ele>1414.047</ele>
        <time>2022-07-07T05:51:28Z</time>
      </trkpt>
      <trkpt lat="20.293223" lon="-97.94596">
        <ele>1413.882</ele>
        <time>2022-07-07T05:51:31Z</time>
      </trkpt>
      <trkpt lat="20.293262" lon="-97.946007">
        <ele>1413.682</ele>
        <time>2022-07-07T05:51:35Z</time>
      </trkpt>
      <trkpt lat="20.293309" lon="-97.946039">
        <ele>1414.873</ele>
        <time>2022-07-07T05:51:39Z</time>
      </trkpt>
      <trkpt lat="20.293352" lon="-97.946073">
        <ele>1414.597</ele>
        <time>2022-07-07T05:51:43Z</time>
      </trkpt>
      <trkpt lat="20.293386" lon="-97.946109">
        <ele>1414.723</ele>
        <time>2022-07-07T05:51:46Z</time>
      </trkpt>
      <trkpt lat="20.293422" lon="-97.94615">
        <ele>1414.625</ele>
        <time>2022-07-07T05:51:50Z</time>
      </trkpt>
      <trkpt lat="20.293448" lon="-97.94619">
        <ele>1413.709</ele>
        <time>2022-07-07T05:51:53Z</time>
      </trkpt>
      <trkpt lat="20.293486" lon="-97.946239">
        <ele>1414.120</ele>
        <time>2022-07-07T05:51:56Z</time>
      </trkpt>
      <trkpt lat="20.293523" lon="-97.946293">
        <ele>1412.619</ele>
        <time>2022-07-07T05:51:59Z</time>
      </trkpt>
      <trkpt lat="20.293559" lon="-97.946347">
        <ele>1412.066</ele>
        <time>2022-07-07T05:52:02Z</time>
      </trkpt>
      <trkpt lat="20.293587" lon="-97.946392">
        <ele>1411.841</ele>
        <time>2022-07-07T05:52:05Z</time>
      </trkpt>
      <trkpt lat="20.293605" lon="-97.946444">
        <ele>1410.058</ele>
        <time>2022-07-07T05:52:09Z</time>
      </trkpt>
      <trkpt lat="20.293615" lon="-97.946501">
        <ele>1408.711</ele>
        <time>2022-07-07T05:52:14Z</time>
      </trkpt>
      <trkpt lat="20.293644" lon="-97.946559">
        <ele>1408.796</ele>
        <time>2022-07-07T05:52:18Z</time>
      </trkpt>
      <trkpt lat="20.293672" lon="-97.946615">
        <ele>1408.796</ele>
        <time>2022-07-07T05:52:21Z</time>
      </trkpt>
      <trkpt lat="20.293694" lon="-97.946658">
        <ele>1408.817</ele>
        <time>2022-07-07T05:52:23Z</time>
      </trkpt>
      <trkpt lat="20.29372" lon="-97.9467">
        <ele>1408.856</ele>
        <time>2022-07-07T05:52:25Z</time>
      </trkpt>
      <trkpt lat="20.293747" lon="-97.946747">
        <ele>1408.559</ele>
        <time>2022-07-07T05:52:27Z</time>
      </trkpt>
      <trkpt lat="20.293775" lon="-97.946796">
        <ele>1408.114</ele>
        <time>2022-07-07T05:52:29Z</time>
      </trkpt>
      <trkpt lat="20.293806" lon="-97.946841">
        <ele>1408.409</ele>
        <time>2022-07-07T05:52:31Z</time>
      </trkpt>
      <trkpt lat="20.293837" lon="-97.946882">
        <ele>1408.516</ele>
        <time>2022-07-07T05:52:33Z</time>
      </trkpt>
      <trkpt lat="20.293872" lon="-97.946926">
        <ele>1406.925</ele>
        <time>2022-07-07T05:52:36Z</time>
      </trkpt>
      <trkpt lat="20.293917" lon="-97.94696">
        <ele>1407.532</ele>
        <time>2022-07-07T05:52:40Z</time>
      </trkpt>
      <trkpt lat="20.293958" lon="-97.946986">
        <ele>1408.037</ele>
        <time>2022-07-07T05:52:43Z</time>
      </trkpt>
      <trkpt lat="20.294007" lon="-97.947009">
        <ele>1409.544</ele>
        <time>2022-07-07T05:52:46Z</time>
      </trkpt>
      <trkpt lat="20.294" lon="-97.94706">
        <ele>1404.367</ele>
        <time>2022-07-07T05:52:52Z</time>
      </trkpt>
      <trkpt lat="20.294" lon="-97.947109">
        <ele>1403.652</ele>
        <time>2022-07-07T05:52:57Z</time>
      </trkpt>
      <trkpt lat="20.294" lon="-97.947167">
        <ele>1399.122</ele>
        <time>2022-07-07T05:53:03Z</time>
      </trkpt>
      <trkpt lat="20.294015" lon="-97.947214">
        <ele>1397.833</ele>
        <time>2022-07-07T05:53:07Z</time>
      </trkpt>
      <trkpt lat="20.294034" lon="-97.947269">
        <ele>1395.263</ele>
        <time>2022-07-07T05:53:11Z</time>
      </trkpt>
      <trkpt lat="20.294053" lon="-97.94733">
        <ele>1394.444</ele>
        <time>2022-07-07T05:53:14Z</time>
      </trkpt>
      <trkpt lat="20.294066" lon="-97.947395">
        <ele>1394.618</ele>
        <time>2022-07-07T05:53:17Z</time>
      </trkpt>
      <trkpt lat="20.294066" lon="-97.947465">
        <ele>1393.209</ele>
        <time>2022-07-07T05:53:20Z</time>
      </trkpt>
      <trkpt lat="20.294067" lon="-97.947537">
        <ele>1392.757</ele>
        <time>2022-07-07T05:53:23Z</time>
      </trkpt>
      <trkpt lat="20.29408" lon="-97.947601">
        <ele>1393.776</ele>
        <time>2022-07-07T05:53:26Z</time>
      </trkpt>
      <trkpt lat="20.294091" lon="-97.947661">
        <ele>1395.813</ele>
        <time>2022-07-07T05:53:29Z</time>
      </trkpt>
      <trkpt lat="20.294097" lon="-97.947715">
        <ele>1394.918</ele>
        <time>2022-07-07T05:53:33Z</time>
      </trkpt>
      <trkpt lat="20.294088" lon="-97.947768">
        <ele>1394.945</ele>
        <time>2022-07-07T05:53:38Z</time>
      </trkpt>
      <trkpt lat="20.294081" lon="-97.947822">
        <ele>1395.358</ele>
        <time>2022-07-07T05:53:43Z</time>
      </trkpt>
      <trkpt lat="20.294082" lon="-97.947872">
        <ele>1394.393</ele>
        <time>2022-07-07T05:53:47Z</time>
      </trkpt>
      <trkpt lat="20.294072" lon="-97.947925">
        <ele>1396.013</ele>
        <time>2022-07-07T05:53:51Z</time>
      </trkpt>
      <trkpt lat="20.294064" lon="-97.947977">
        <ele>1396.024</ele>
        <time>2022-07-07T05:53:54Z</time>
      </trkpt>
      <trkpt lat="20.294055" lon="-97.948032">
        <ele>1398.479</ele>
        <time>2022-07-07T05:53:57Z</time>
      </trkpt>
      <trkpt lat="20.294043" lon="-97.948084">
        <ele>1397.805</ele>
        <time>2022-07-07T05:54:02Z</time>
      </trkpt>
      <trkpt lat="20.29402" lon="-97.94814">
        <ele>1397.125</ele>
        <time>2022-07-07T05:54:06Z</time>
      </trkpt>
      <trkpt lat="20.293982" lon="-97.948197">
        <ele>1398.109</ele>
        <time>2022-07-07T05:54:09Z</time>
      </trkpt>
      <trkpt lat="20.293957" lon="-97.948239">
        <ele>1398.128</ele>
        <time>2022-07-07T05:54:11Z</time>
      </trkpt>
      <trkpt lat="20.293935" lon="-97.948284">
        <ele>1398.397</ele>
        <time>2022-07-07T05:54:13Z</time>
      </trkpt>
      <trkpt lat="20.293915" lon="-97.948339">
        <ele>1398.784</ele>
        <time>2022-07-07T05:54:16Z</time>
      </trkpt>
      <trkpt lat="20.293892" lon="-97.948389">
        <ele>1398.049</ele>
        <time>2022-07-07T05:54:20Z</time>
      </trkpt>
      <trkpt lat="20.293867" lon="-97.948437">
        <ele>1399.246</ele>
        <time>2022-07-07T05:54:24Z</time>
      </trkpt>
      <trkpt lat="20.293834" lon="-97.948487">
        <ele>1397.849</ele>
        <time>2022-07-07T05:54:28Z</time>
      </trkpt>
      <trkpt lat="20.293799" lon="-97.948527">
        <ele>1398.224</ele>
        <time>2022-07-07T05:54:32Z</time>
      </trkpt>
      <trkpt lat="20.293762" lon="-97.948569">
        <ele>1399.484</ele>
        <time>2022-07-07T05:54:36Z</time>
      </trkpt>
      <trkpt lat="20.293719" lon="-97.948598">
        <ele>1399.165</ele>
        <time>2022-07-07T05:54:40Z</time>
      </trkpt>
      <trkpt lat="20.293702" lon="-97.948644">
        <ele>1398.516</ele>
        <time>2022-07-07T05:54:44Z</time>
      </trkpt>
      <trkpt lat="20.293694" lon="-97.948692">
        <ele>1397.876</ele>
        <time>2022-07-07T05:54:48Z</time>
      </trkpt>
      <trkpt lat="20.293674" lon="-97.948749">
        <ele>1399.213</ele>
        <time>2022-07-07T05:54:53Z</time>
      </trkpt>
      <trkpt lat="20.293656" lon="-97.9488">
        <ele>1398.809</ele>
        <time>2022-07-07T05:54:57Z</time>
      </trkpt>
      <trkpt lat="20.293649" lon="-97.948852">
        <ele>1399.812</ele>
        <time>2022-07-07T05:55:02Z</time>
      </trkpt>
      <trkpt lat="20.293636" lon="-97.9489">
        <ele>1398.921</ele>
        <time>2022-07-07T05:55:05Z</time>
      </trkpt>
      <trkpt lat="20.29361" lon="-97.948962">
        <ele>1400.198</ele>
        <time>2022-07-07T05:55:09Z</time>
      </trkpt>
      <trkpt lat="20.293579" lon="-97.949012">
        <ele>1399.433</ele>
        <time>2022-07-07T05:55:12Z</time>
      </trkpt>
      <trkpt lat="20.293556" lon="-97.949056">
        <ele>1400.950</ele>
        <time>2022-07-07T05:55:15Z</time>
      </trkpt>
      <trkpt lat="20.293524" lon="-97.949101">
        <ele>1399.763</ele>
        <time>2022-07-07T05:55:19Z</time>
      </trkpt>
      <trkpt lat="20.293489" lon="-97.949137">
        <ele>1399.488</ele>
        <time>2022-07-07T05:55:23Z</time>
      </trkpt>
      <trkpt lat="20.29345" lon="-97.949174">
        <ele>1402.188</ele>
        <time>2022-07-07T05:55:27Z</time>
      </trkpt>
      <trkpt lat="20.293404" lon="-97.949199">
        <ele>1400.969</ele>
        <time>2022-07-07T05:55:31Z</time>
      </trkpt>
      <trkpt lat="20.293352" lon="-97.949222">
        <ele>1400.811</ele>
        <time>2022-07-07T05:55:34Z</time>
      </trkpt>
      <trkpt lat="20.293296" lon="-97.94925">
        <ele>1401.821</ele>
        <time>2022-07-07T05:55:37Z</time>
      </trkpt>
      <trkpt lat="20.293238" lon="-97.949272">
        <ele>1402.603</ele>
        <time>2022-07-07T05:55:40Z</time>
      </trkpt>
      <trkpt lat="20.293179" lon="-97.949285">
        <ele>1403.009</ele>
        <time>2022-07-07T05:55:43Z</time>
      </trkpt>
      <trkpt lat="20.293125" lon="-97.949293">
        <ele>1401.762</ele>
        <time>2022-07-07T05:55:46Z</time>
      </trkpt>
      <trkpt lat="20.29306" lon="-97.949298">
        <ele>1401.351</ele>
        <time>2022-07-07T05:55:49Z</time>
      </trkpt>
      <trkpt lat="20.293014" lon="-97.949301">
        <ele>1401.318</ele>
        <time>2022-07-07T05:55:51Z</time>
      </trkpt>
      <trkpt lat="20.292952" lon="-97.949315">
        <ele>1400.763</ele>
        <time>2022-07-07T05:55:54Z</time>
      </trkpt>
      <trkpt lat="20.292887" lon="-97.949319">
        <ele>1399.660</ele>
        <time>2022-07-07T05:55:57Z</time>
      </trkpt>
      <trkpt lat="20.292833" lon="-97.94932">
        <ele>1397.683</ele>
        <time>2022-07-07T05:56:00Z</time>
      </trkpt>
      <trkpt lat="20.292786" lon="-97.949313">
        <ele>1397.798</ele>
        <time>2022-07-07T05:56:03Z</time>
      </trkpt>
      <trkpt lat="20.292729" lon="-97.94931">
        <ele>1396.458</ele>
        <time>2022-07-07T05:56:07Z</time>
      </trkpt>
      <trkpt lat="20.292672" lon="-97.949297">
        <ele>1394.829</ele>
        <time>2022-07-07T05:56:11Z</time>
      </trkpt>
      <trkpt lat="20.292633" lon="-97.949266">
        <ele>1394.176</ele>
        <time>2022-07-07T05:56:15Z</time>
      </trkpt>
      <trkpt lat="20.292594" lon="-97.949235">
        <ele>1393.490</ele>
        <time>2022-07-07T05:56:19Z</time>
      </trkpt>
      <trkpt lat="20.292551" lon="-97.949264">
        <ele>1390.819</ele>
        <time>2022-07-07T05:56:24Z</time>
      </trkpt>
      <trkpt lat="20.292491" lon="-97.949257">
        <ele>1390.609</ele>
        <time>2022-07-07T05:56:28Z</time>
      </trkpt>
      <trkpt lat="20.292439" lon="-97.949267">
        <ele>1387.068</ele>
        <time>2022-07-07T05:56:32Z</time>
      </trkpt>
      <trkpt lat="20.292395" lon="-97.949309">
        <ele>1386.257</ele>
        <time>2022-07-07T05:56:36Z</time>
      </trkpt>
      <trkpt lat="20.292354" lon="-97.949351">
        <ele>1385.824</ele>
        <time>2022-07-07T05:56:40Z</time>
      </trkpt>
      <trkpt lat="20.292329" lon="-97.949394">
        <ele>1389.939</ele>
        <time>2022-07-07T05:56:44Z</time>
      </trkpt>
      <trkpt lat="20.292316" lon="-97.949445">
        <ele>1391.356</ele>
        <time>2022-07-07T05:56:48Z</time>
      </trkpt>
      <trkpt lat="20.292311" lon="-97.9495">
        <ele>1391.639</ele>
        <time>2022-07-07T05:56:52Z</time>
      </trkpt>
      <trkpt lat="20.292319" lon="-97.949556">
        <ele>1391.764</ele>
        <time>2022-07-07T05:56:56Z</time>
      </trkpt>
      <trkpt lat="20.292346" lon="-97.949595">
        <ele>1391.074</ele>
        <time>2022-07-07T05:57:01Z</time>
      </trkpt>
      <trkpt lat="20.292373" lon="-97.94964">
        <ele>1390.315</ele>
        <time>2022-07-07T05:57:06Z</time>
      </trkpt>
      <trkpt lat="20.292403" lon="-97.949679">
        <ele>1389.883</ele>
        <time>2022-07-07T05:57:10Z</time>
      </trkpt>
      <trkpt lat="20.292405" lon="-97.949732">
        <ele>1387.625</ele>
        <time>2022-07-07T05:57:14Z</time>
      </trkpt>
      <trkpt lat="20.29241" lon="-97.949784">
        <ele>1387.517</ele>
        <time>2022-07-07T05:57:18Z</time>
      </trkpt>
      <trkpt lat="20.292426" lon="-97.949842">
        <ele>1387.509</ele>
        <time>2022-07-07T05:57:22Z</time>
      </trkpt>
      <trkpt lat="20.292433" lon="-97.949897">
        <ele>1387.559</ele>
        <time>2022-07-07T05:57:27Z</time>
      </trkpt>
      <trkpt lat="20.292436" lon="-97.94995">
        <ele>1387.298</ele>
        <time>2022-07-07T05:57:31Z</time>
      </trkpt>
      <trkpt lat="20.292433" lon="-97.950007">
        <ele>1386.035</ele>
        <time>2022-07-07T05:57:35Z</time>
      </trkpt>
      <trkpt lat="20.292456" lon="-97.950059">
        <ele>1387.830</ele>
        <time>2022-07-07T05:57:39Z</time>
      </trkpt>
      <trkpt lat="20.292465" lon="-97.950107">
        <ele>1388.527</ele>
        <time>2022-07-07T05:57:43Z</time>
      </trkpt>
      <trkpt lat="20.292439" lon="-97.95016">
        <ele>1387.780</ele>
        <time>2022-07-07T05:57:47Z</time>
      </trkpt>
      <trkpt lat="20.292415" lon="-97.95021">
        <ele>1389.285</ele>
        <time>2022-07-07T05:57:51Z</time>
      </trkpt>
      <trkpt lat="20.292386" lon="-97.950266">
        <ele>1391.455</ele>
        <time>2022-07-07T05:57:55Z</time>
      </trkpt>
      <trkpt lat="20.292356" lon="-97.950318">
        <ele>1393.046</ele>
        <time>2022-07-07T05:57:59Z</time>
      </trkpt>
      <trkpt lat="20.292317" lon="-97.950357">
        <ele>1392.136</ele>
        <time>2022-07-07T05:58:03Z</time>
      </trkpt>
      <trkpt lat="20.292278" lon="-97.950384">
        <ele>1390.517</ele>
        <time>2022-07-07T05:58:07Z</time>
      </trkpt>
      <trkpt lat="20.292226" lon="-97.950424">
        <ele>1389.818</ele>
        <time>2022-07-07T05:58:11Z</time>
      </trkpt>
      <trkpt lat="20.292186" lon="-97.950459">
        <ele>1388.709</ele>
        <time>2022-07-07T05:58:13Z</time>
      </trkpt>
      <trkpt lat="20.292148" lon="-97.950495">
        <ele>1388.414</ele>
        <time>2022-07-07T05:58:15Z</time>
      </trkpt>
      <trkpt lat="20.292113" lon="-97.950537">
        <ele>1389.193</ele>
        <time>2022-07-07T05:58:17Z</time>
      </trkpt>
      <trkpt lat="20.292082" lon="-97.95058">
        <ele>1389.340</ele>
        <time>2022-07-07T05:58:19Z</time>
      </trkpt>
      <trkpt lat="20.292067" lon="-97.950626">
        <ele>1390.795</ele>
        <time>2022-07-07T05:58:21Z</time>
      </trkpt>
      <trkpt lat="20.292071" lon="-97.950676">
        <ele>1390.152</ele>
        <time>2022-07-07T05:58:24Z</time>
      </trkpt>
      <trkpt lat="20.292077" lon="-97.950736">
        <ele>1389.675</ele>
        <time>2022-07-07T05:58:28Z</time>
      </trkpt>
      <trkpt lat="20.29207" lon="-97.950808">
        <ele>1389.450</ele>
        <time>2022-07-07T05:58:32Z</time>
      </trkpt>
      <trkpt lat="20.292065" lon="-97.950862">
        <ele>1390.510</ele>
        <time>2022-07-07T05:58:34Z</time>
      </trkpt>
      <trkpt lat="20.292062" lon="-97.950911">
        <ele>1391.341</ele>
        <time>2022-07-07T05:58:36Z</time>
      </trkpt>
      <trkpt lat="20.292048" lon="-97.950974">
        <ele>1391.183</ele>
        <time>2022-07-07T05:58:39Z</time>
      </trkpt>
      <trkpt lat="20.292026" lon="-97.951029">
        <ele>1391.225</ele>
        <time>2022-07-07T05:58:43Z</time>
      </trkpt>
      <trkpt lat="20.292006" lon="-97.951084">
        <ele>1389.917</ele>
        <time>2022-07-07T05:58:46Z</time>
      </trkpt>
      <trkpt lat="20.291986" lon="-97.951134">
        <ele>1389.609</ele>
        <time>2022-07-07T05:58:49Z</time>
      </trkpt>
      <trkpt lat="20.29197" lon="-97.951184">
        <ele>1391.249</ele>
        <time>2022-07-07T05:58:53Z</time>
      </trkpt>
      <trkpt lat="20.29197" lon="-97.951238">
        <ele>1392.518</ele>
        <time>2022-07-07T05:58:57Z</time>
      </trkpt>
      <trkpt lat="20.291969" lon="-97.951288">
        <ele>1392.835</ele>
        <time>2022-07-07T05:59:01Z</time>
      </trkpt>
      <trkpt lat="20.291967" lon="-97.951339">
        <ele>1394.230</ele>
        <time>2022-07-07T05:59:05Z</time>
      </trkpt>
      <trkpt lat="20.291977" lon="-97.951398">
        <ele>1395.297</ele>
        <time>2022-07-07T05:59:09Z</time>
      </trkpt>
      <trkpt lat="20.291979" lon="-97.951455">
        <ele>1393.170</ele>
        <time>2022-07-07T05:59:13Z</time>
      </trkpt>
      <trkpt lat="20.291982" lon="-97.951509">
        <ele>1394.115</ele>
        <time>2022-07-07T05:59:17Z</time>
      </trkpt>
      <trkpt lat="20.291987" lon="-97.951562">
        <ele>1393.795</ele>
        <time>2022-07-07T05:59:21Z</time>
      </trkpt>
      <trkpt lat="20.291987" lon="-97.951631">
        <ele>1392.856</ele>
        <time>2022-07-07T05:59:25Z</time>
      </trkpt>
      <trkpt lat="20.29198" lon="-97.951693">
        <ele>1391.236</ele>
        <time>2022-07-07T05:59:28Z</time>
      </trkpt>
      <trkpt lat="20.291989" lon="-97.951741">
        <ele>1391.717</ele>
        <time>2022-07-07T05:59:31Z</time>
      </trkpt>
      <trkpt lat="20.292013" lon="-97.951792">
        <ele>1393.218</ele>
        <time>2022-07-07T05:59:36Z</time>
      </trkpt>
      <trkpt lat="20.292042" lon="-97.95183">
        <ele>1392.909</ele>
        <time>2022-07-07T05:59:40Z</time>
      </trkpt>
      <trkpt lat="20.292069" lon="-97.951868">
        <ele>1391.224</ele>
        <time>2022-07-07T05:59:43Z</time>
      </trkpt>
      <trkpt lat="20.292087" lon="-97.951921">
        <ele>1390.613</ele>
        <time>2022-07-07T05:59:46Z</time>
      </trkpt>
      <trkpt lat="20.292115" lon="-97.951971">
        <ele>1390.180</ele>
        <time>2022-07-07T05:59:49Z</time>
      </trkpt>
      <trkpt lat="20.292148" lon="-97.952009">
        <ele>1389.565</ele>
        <time>2022-07-07T05:59:53Z</time>
      </trkpt>
      <trkpt lat="20.292162" lon="-97.952057">
        <ele>1387.692</ele>
        <time>2022-07-07T05:59:58Z</time>
      </trkpt>
      <trkpt lat="20.292155" lon="-97.952108">
        <ele>1389.355</ele>
        <time>2022-07-07T06:00:02Z</time>
      </trkpt>
      <trkpt lat="20.29217" lon="-97.952158">
        <ele>1388.570</ele>
        <time>2022-07-07T06:00:07Z</time>
      </trkpt>
      <trkpt lat="20.292207" lon="-97.952199">
        <ele>1386.680</ele>
        <time>2022-07-07T06:00:11Z</time>
      </trkpt>
      <trkpt lat="20.292233" lon="-97.952245">
        <ele>1386.831</ele>
        <time>2022-07-07T06:00:14Z</time>
      </trkpt>
      <trkpt lat="20.292254" lon="-97.952305">
        <ele>1386.876</ele>
        <time>2022-07-07T06:00:17Z</time>
      </trkpt>
      <trkpt lat="20.292282" lon="-97.952361">
        <ele>1387.590</ele>
        <time>2022-07-07T06:00:20Z</time>
      </trkpt>
      <trkpt lat="20.292316" lon="-97.952407">
        <ele>1386.919</ele>
        <time>2022-07-07T06:00:23Z</time>
      </trkpt>
      <trkpt lat="20.292356" lon="-97.952448">
        <ele>1387.509</ele>
        <time>2022-07-07T06:00:27Z</time>
      </trkpt>
      <trkpt lat="20.292385" lon="-97.9525">
        <ele>1387.648</ele>
        <time>2022-07-07T06:00:31Z</time>
      </trkpt>
      <trkpt lat="20.292399" lon="-97.952551">
        <ele>1388.647</ele>
        <time>2022-07-07T06:00:34Z</time>
      </trkpt>
      <trkpt lat="20.292432" lon="-97.952601">
        <ele>1385.554</ele>
        <time>2022-07-07T06:00:39Z</time>
      </trkpt>
      <trkpt lat="20.292476" lon="-97.952641">
        <ele>1387.139</ele>
        <time>2022-07-07T06:00:43Z</time>
      </trkpt>
      <trkpt lat="20.292493" lon="-97.952691">
        <ele>1388.316</ele>
        <time>2022-07-07T06:00:47Z</time>
      </trkpt>
      <trkpt lat="20.292515" lon="-97.952746">
        <ele>1389.719</ele>
        <time>2022-07-07T06:00:51Z</time>
      </trkpt>
      <trkpt lat="20.292539" lon="-97.952788">
        <ele>1389.714</ele>
        <time>2022-07-07T06:00:54Z</time>
      </trkpt>
      <trkpt lat="20.292562" lon="-97.952829">
        <ele>1388.794</ele>
        <time>2022-07-07T06:00:57Z</time>
      </trkpt>
      <trkpt lat="20.292589" lon="-97.952881">
        <ele>1388.315</ele>
        <time>2022-07-07T06:01:01Z</time>
      </trkpt>
      <trkpt lat="20.292632" lon="-97.952923">
        <ele>1387.851</ele>
        <time>2022-07-07T06:01:05Z</time>
      </trkpt>
      <trkpt lat="20.292666" lon="-97.952978">
        <ele>1388.501</ele>
        <time>2022-07-07T06:01:09Z</time>
      </trkpt>
      <trkpt lat="20.292704" lon="-97.95302">
        <ele>1388.611</ele>
        <time>2022-07-07T06:01:12Z</time>
      </trkpt>
      <trkpt lat="20.292745" lon="-97.953054">
        <ele>1388.509</ele>
        <time>2022-07-07T06:01:15Z</time>
      </trkpt>
      <trkpt lat="20.292788" lon="-97.953105">
        <ele>1389.066</ele>
        <time>2022-07-07T06:01:18Z</time>
      </trkpt>
      <trkpt lat="20.29283" lon="-97.953155">
        <ele>1388.765</ele>
        <time>2022-07-07T06:01:21Z</time>
      </trkpt>
      <trkpt lat="20.29287" lon="-97.953199">
        <ele>1388.722</ele>
        <time>2022-07-07T06:01:25Z</time>
      </trkpt>
      <trkpt lat="20.292884" lon="-97.953252">
        <ele>1388.267</ele>
        <time>2022-07-07T06:01:29Z</time>
      </trkpt>
      <trkpt lat="20.292937" lon="-97.953278">
        <ele>1390.184</ele>
        <time>2022-07-07T06:01:33Z</time>
      </trkpt>
      <trkpt lat="20.292986" lon="-97.95329">
        <ele>1390.327</ele>
        <time>2022-07-07T06:01:36Z</time>
      </trkpt>
      <trkpt lat="20.293021" lon="-97.953326">
        <ele>1389.962</ele>
        <time>2022-07-07T06:01:40Z</time>
      </trkpt>
      <trkpt lat="20.293037" lon="-97.953379">
        <ele>1391.752</ele>
        <time>2022-07-07T06:01:46Z</time>
      </trkpt>
      <trkpt lat="20.293079" lon="-97.953411">
        <ele>1391.433</ele>
        <time>2022-07-07T06:01:53Z</time>
      </trkpt>
      <trkpt lat="20.29313" lon="-97.953392">
        <ele>1389.774</ele>
        <time>2022-07-07T06:01:58Z</time>
      </trkpt>
      <trkpt lat="20.293177" lon="-97.953387">
        <ele>1388.256</ele>
        <time>2022-07-07T06:02:02Z</time>
      </trkpt>
      <trkpt lat="20.293228" lon="-97.953405">
        <ele>1387.721</ele>
        <time>2022-07-07T06:02:08Z</time>
      </trkpt>
      <trkpt lat="20.293277" lon="-97.953399">
        <ele>1388.909</ele>
        <time>2022-07-07T06:02:12Z</time>
      </trkpt>
      <trkpt lat="20.293322" lon="-97.953406">
        <ele>1389.928</ele>
        <time>2022-07-07T06:02:16Z</time>
      </trkpt>
      <trkpt lat="20.293364" lon="-97.953425">
        <ele>1389.957</ele>
        <time>2022-07-07T06:02:20Z</time>
      </trkpt>
      <trkpt lat="20.293412" lon="-97.953442">
        <ele>1388.844</ele>
        <time>2022-07-07T06:02:24Z</time>
      </trkpt>
      <trkpt lat="20.293391" lon="-97.953488">
        <ele>1390.239</ele>
        <time>2022-07-07T06:02:27Z</time>
      </trkpt>
      <trkpt lat="20.293342" lon="-97.953493">
        <ele>1390.516</ele>
        <time>2022-07-07T06:02:32Z</time>
      </trkpt>
      <trkpt lat="20.29329" lon="-97.953493">
        <ele>1389.389</ele>
        <time>2022-07-07T06:02:38Z</time>
      </trkpt>
      <trkpt lat="20.293245" lon="-97.953503">
        <ele>1387.774</ele>
        <time>2022-07-07T06:02:43Z</time>
      </trkpt>
      <trkpt lat="20.293194" lon="-97.953513">
        <ele>1387.914</ele>
        <time>2022-07-07T06:02:48Z</time>
      </trkpt>
      <trkpt lat="20.293145" lon="-97.953524">
        <ele>1389.885</ele>
        <time>2022-07-07T06:02:53Z</time>
      </trkpt>
      <trkpt lat="20.293096" lon="-97.953533">
        <ele>1391.449</ele>
        <time>2022-07-07T06:02:58Z</time>
      </trkpt>
      <trkpt lat="20.293056" lon="-97.953561">
        <ele>1391.002</ele>
        <time>2022-07-07T06:03:04Z</time>
      </trkpt>
      <trkpt lat="20.293006" lon="-97.953571">
        <ele>1393.022</ele>
        <time>2022-07-07T06:03:10Z</time>
      </trkpt>
      <trkpt lat="20.292954" lon="-97.953574">
        <ele>1394.809</ele>
        <time>2022-07-07T06:03:15Z</time>
      </trkpt>
      <trkpt lat="20.29291" lon="-97.953587">
        <ele>1394.855</ele>
        <time>2022-07-07T06:03:19Z</time>
      </trkpt>
      <trkpt lat="20.292856" lon="-97.953604">
        <ele>1396.464</ele>
        <time>2022-07-07T06:03:24Z</time>
      </trkpt>
      <trkpt lat="20.292826" lon="-97.953642">
        <ele>1396.441</ele>
        <time>2022-07-07T06:03:29Z</time>
      </trkpt>
      <trkpt lat="20.292857" lon="-97.953683">
        <ele>1392.916</ele>
        <time>2022-07-07T06:03:35Z</time>
      </trkpt>
      <trkpt lat="20.292891" lon="-97.95372">
        <ele>1391.093</ele>
        <time>2022-07-07T06:03:40Z</time>
      </trkpt>
      <trkpt lat="20.292891" lon="-97.953775">
        <ele>1392.526</ele>
        <time>2022-07-07T06:03:45Z</time>
      </trkpt>
      <trkpt lat="20.292841" lon="-97.953795">
        <ele>1392.271</ele>
        <time>2022-07-07T06:03:50Z</time>
      </trkpt>
      <trkpt lat="20.29279" lon="-97.953785">
        <ele>1393.321</ele>
        <time>2022-07-07T06:03:55Z</time>
      </trkpt>
      <trkpt lat="20.29275" lon="-97.953758">
        <ele>1392.532</ele>
        <time>2022-07-07T06:04:00Z</time>
      </trkpt>
      <trkpt lat="20.292716" lon="-97.953723">
        <ele>1391.147</ele>
        <time>2022-07-07T06:04:04Z</time>
      </trkpt>
      <trkpt lat="20.292689" lon="-97.953681">
        <ele>1391.429</ele>
        <time>2022-07-07T06:04:08Z</time>
      </trkpt>
      <trkpt lat="20.292634" lon="-97.953682">
        <ele>1391.221</ele>
        <time>2022-07-07T06:04:14Z</time>
      </trkpt>
      <trkpt lat="20.292584" lon="-97.953696">
        <ele>1392.009</ele>
        <time>2022-07-07T06:04:18Z</time>
      </trkpt>
      <trkpt lat="20.292536" lon="-97.953695">
        <ele>1390.575</ele>
        <time>2022-07-07T06:04:22Z</time>
      </trkpt>
      <trkpt lat="20.292493" lon="-97.953667">
        <ele>1387.214</ele>
        <time>2022-07-07T06:04:27Z</time>
      </trkpt>
      <trkpt lat="20.292442" lon="-97.953645">
        <ele>1384.541</ele>
        <time>2022-07-07T06:04:32Z</time>
      </trkpt>
      <trkpt lat="20.29239" lon="-97.953652">
        <ele>1382.416</ele>
        <time>2022-07-07T06:04:37Z</time>
      </trkpt>
      <trkpt lat="20.292343" lon="-97.953676">
        <ele>1379.533</ele>
        <time>2022-07-07T06:04:42Z</time>
      </trkpt>
      <trkpt lat="20.292302" lon="-97.953653">
        <ele>1379.096</ele>
        <time>2022-07-07T06:04:46Z</time>
      </trkpt>
      <trkpt lat="20.292275" lon="-97.953614">
        <ele>1377.771</ele>
        <time>2022-07-07T06:04:50Z</time>
      </trkpt>
      <trkpt lat="20.292242" lon="-97.953571">
        <ele>1377.011</ele>
        <time>2022-07-07T06:04:55Z</time>
      </trkpt>
      <trkpt lat="20.292189" lon="-97.953565">
        <ele>1375.892</ele>
        <time>2022-07-07T06:05:00Z</time>
      </trkpt>
      <trkpt lat="20.292136" lon="-97.953568">
        <ele>1374.779</ele>
        <time>2022-07-07T06:05:05Z</time>
      </trkpt>
      <trkpt lat="20.292082" lon="-97.953563">
        <ele>1373.605</ele>
        <time>2022-07-07T06:05:10Z</time>
      </trkpt>
      <trkpt lat="20.292032" lon="-97.953564">
        <ele>1368.325</ele>
        <time>2022-07-07T06:05:14Z</time>
      </trkpt>
      <trkpt lat="20.291987" lon="-97.953536">
        <ele>1367.109</ele>
        <time>2022-07-07T06:05:17Z</time>
      </trkpt>
      <trkpt lat="20.291934" lon="-97.953496">
        <ele>1366.368</ele>
        <time>2022-07-07T06:05:20Z</time>
      </trkpt>
      <trkpt lat="20.291894" lon="-97.953471">
        <ele>1366.597</ele>
        <time>2022-07-07T06:05:22Z</time>
      </trkpt>
      <trkpt lat="20.291839" lon="-97.953468">
        <ele>1366.554</ele>
        <time>2022-07-07T06:05:25Z</time>
      </trkpt>
      <trkpt lat="20.291793" lon="-97.953481">
        <ele>1368.389</ele>
        <time>2022-07-07T06:05:29Z</time>
      </trkpt>
      <trkpt lat="20.291742" lon="-97.953496">
        <ele>1364.126</ele>
        <time>2022-07-07T06:05:33Z</time>
      </trkpt>
      <trkpt lat="20.291705" lon="-97.953466">
        <ele>1363.059</ele>
        <time>2022-07-07T06:05:37Z</time>
      </trkpt>
      <trkpt lat="20.291649" lon="-97.95347">
        <ele>1358.854</ele>
        <time>2022-07-07T06:05:43Z</time>
      </trkpt>
      <trkpt lat="20.29159" lon="-97.953456">
        <ele>1355.854</ele>
        <time>2022-07-07T06:05:46Z</time>
      </trkpt>
      <trkpt lat="20.291543" lon="-97.953457">
        <ele>1354.815</ele>
        <time>2022-07-07T06:05:49Z</time>
      </trkpt>
      <trkpt lat="20.291488" lon="-97.953464">
        <ele>1351.618</ele>
        <time>2022-07-07T06:05:53Z</time>
      </trkpt>
      <trkpt lat="20.291441" lon="-97.953459">
        <ele>1351.998</ele>
        <time>2022-07-07T06:05:59Z</time>
      </trkpt>
      <trkpt lat="20.291389" lon="-97.95346">
        <ele>1349.817</ele>
        <time>2022-07-07T06:06:02Z</time>
      </trkpt>
      <trkpt lat="20.291332" lon="-97.953469">
        <ele>1346.809</ele>
        <time>2022-07-07T06:06:06Z</time>
      </trkpt>
      <trkpt lat="20.291286" lon="-97.95347">
        <ele>1337.632</ele>
        <time>2022-07-07T06:06:10Z</time>
      </trkpt>
      <trkpt lat="20.291232" lon="-97.953463">
        <ele>1337.411</ele>
        <time>2022-07-07T06:06:14Z</time>
      </trkpt>
      <trkpt lat="20.291187" lon="-97.953461">
        <ele>1335.398</ele>
        <time>2022-07-07T06:06:22Z</time>
      </trkpt>
      <trkpt lat="20.291125" lon="-97.95345">
        <ele>1334.493</ele>
        <time>2022-07-07T06:06:25Z</time>
      </trkpt>
      <trkpt lat="20.291082" lon="-97.95343">
        <ele>1335.230</ele>
        <time>2022-07-07T06:06:27Z</time>
      </trkpt>
      <trkpt lat="20.291028" lon="-97.953407">
        <ele>1336.453</ele>
        <time>2022-07-07T06:06:30Z</time>
      </trkpt>
      <trkpt lat="20.290997" lon="-97.953364">
        <ele>1330.968</ele>
        <time>2022-07-07T06:06:33Z</time>
      </trkpt>
      <trkpt lat="20.290948" lon="-97.953337">
        <ele>1328.478</ele>
        <time>2022-07-07T06:06:36Z</time>
      </trkpt>
      <trkpt lat="20.290908" lon="-97.953304">
        <ele>1326.679</ele>
        <time>2022-07-07T06:06:39Z</time>
      </trkpt>
      <trkpt lat="20.290863" lon="-97.953267">
        <ele>1323.822</ele>
        <time>2022-07-07T06:06:43Z</time>
      </trkpt>
      <trkpt lat="20.290804" lon="-97.953272">
        <ele>1322.362</ele>
        <time>2022-07-07T06:06:46Z</time>
      </trkpt>
      <trkpt lat="20.290742" lon="-97.95325">
        <ele>1319.108</ele>
        <time>2022-07-07T06:06:49Z</time>
      </trkpt>
      <trkpt lat="20.290681" lon="-97.953227">
        <ele>1316.209</ele>
        <time>2022-07-07T06:06:52Z</time>
      </trkpt>
      <trkpt lat="20.290633" lon="-97.953208">
        <ele>1317.273</ele>
        <time>2022-07-07T06:06:55Z</time>
      </trkpt>
      <trkpt lat="20.290589" lon="-97.953193">
        <ele>1315.192</ele>
        <time>2022-07-07T06:06:58Z</time>
      </trkpt>
      <trkpt lat="20.290544" lon="-97.953169">
        <ele>1313.559</ele>
        <time>2022-07-07T06:07:01Z</time>
      </trkpt>
      <trkpt lat="20.290493" lon="-97.953159">
        <ele>1313.494</ele>
        <time>2022-07-07T06:07:04Z</time>
      </trkpt>
      <trkpt lat="20.290435" lon="-97.953152">
        <ele>1312.441</ele>
        <time>2022-07-07T06:07:07Z</time>
      </trkpt>
      <trkpt lat="20.290382" lon="-97.953122">
        <ele>1311.274</ele>
        <time>2022-07-07T06:07:10Z</time>
      </trkpt>
      <trkpt lat="20.290331" lon="-97.953092">
        <ele>1310.529</ele>
        <time>2022-07-07T06:07:13Z</time>
      </trkpt>
      <trkpt lat="20.290291" lon="-97.953067">
        <ele>1310.999</ele>
        <time>2022-07-07T06:07:16Z</time>
      </trkpt>
      <trkpt lat="20.290254" lon="-97.953033">
        <ele>1312.120</ele>
        <time>2022-07-07T06:07:20Z</time>
      </trkpt>
      <trkpt lat="20.290212" lon="-97.953009">
        <ele>1310.179</ele>
        <time>2022-07-07T06:07:23Z</time>
      </trkpt>
      <trkpt lat="20.29016" lon="-97.953018">
        <ele>1308.105</ele>
        <time>2022-07-07T06:07:27Z</time>
      </trkpt>
      <trkpt lat="20.290133" lon="-97.95307">
        <ele>1307.625</ele>
        <time>2022-07-07T06:07:31Z</time>
      </trkpt>
      <trkpt lat="20.290152" lon="-97.953127">
        <ele>1303.909</ele>
        <time>2022-07-07T06:07:35Z</time>
      </trkpt>
      <trkpt lat="20.290174" lon="-97.953179">
        <ele>1302.258</ele>
        <time>2022-07-07T06:07:38Z</time>
      </trkpt>
      <trkpt lat="20.290191" lon="-97.953231">
        <ele>1306.027</ele>
        <time>2022-07-07T06:07:41Z</time>
      </trkpt>
      <trkpt lat="20.290195" lon="-97.953281">
        <ele>1306.824</ele>
        <time>2022-07-07T06:07:44Z</time>
      </trkpt>
      <trkpt lat="20.290222" lon="-97.953326">
        <ele>1308.969</ele>
        <time>2022-07-07T06:07:47Z</time>
      </trkpt>
      <trkpt lat="20.290232" lon="-97.953382">
        <ele>1310.686</ele>
        <time>2022-07-07T06:07:50Z</time>
      </trkpt>
      <trkpt lat="20.29024" lon="-97.95343">
        <ele>1312.219</ele>
        <time>2022-07-07T06:07:55Z</time>
      </trkpt>
      <trkpt lat="20.290194" lon="-97.953451">
        <ele>1303.184</ele>
        <time>2022-07-07T06:08:31Z</time>
      </trkpt>
      <trkpt lat="20.290147" lon="-97.953445">
        <ele>1301.884</ele>
        <time>2022-07-07T06:08:35Z</time>
      </trkpt>
      <trkpt lat="20.290102" lon="-97.953411">
        <ele>1298.025</ele>
        <time>2022-07-07T06:08:40Z</time>
      </trkpt>
      <trkpt lat="20.290055" lon="-97.953399">
        <ele>1297.195</ele>
        <time>2022-07-07T06:08:44Z</time>
      </trkpt>
      <trkpt lat="20.290008" lon="-97.953379">
        <ele>1295.449</ele>
        <time>2022-07-07T06:08:48Z</time>
      </trkpt>
      <trkpt lat="20.289956" lon="-97.953356">
        <ele>1290.423</ele>
        <time>2022-07-07T06:08:52Z</time>
      </trkpt>
      <trkpt lat="20.289899" lon="-97.953334">
        <ele>1283.809</ele>
        <time>2022-07-07T06:08:56Z</time>
      </trkpt>
      <trkpt lat="20.289853" lon="-97.953316">
        <ele>1279.960</ele>
        <time>2022-07-07T06:08:59Z</time>
      </trkpt>
      <trkpt lat="20.289803" lon="-97.953295">
        <ele>1277.219</ele>
        <time>2022-07-07T06:09:02Z</time>
      </trkpt>
      <trkpt lat="20.289751" lon="-97.953274">
        <ele>1272.376</ele>
        <time>2022-07-07T06:09:05Z</time>
      </trkpt>
      <trkpt lat="20.289699" lon="-97.953257">
        <ele>1272.021</ele>
        <time>2022-07-07T06:09:07Z</time>
      </trkpt>
      <trkpt lat="20.289647" lon="-97.953239">
        <ele>1271.898</ele>
        <time>2022-07-07T06:09:09Z</time>
      </trkpt>
      <trkpt lat="20.289603" lon="-97.953215">
        <ele>1270.221</ele>
        <time>2022-07-07T06:09:11Z</time>
      </trkpt>
      <trkpt lat="20.289565" lon="-97.953183">
        <ele>1270.626</ele>
        <time>2022-07-07T06:09:13Z</time>
      </trkpt>
      <trkpt lat="20.28951" lon="-97.953148">
        <ele>1270.076</ele>
        <time>2022-07-07T06:09:16Z</time>
      </trkpt>
      <trkpt lat="20.28946" lon="-97.953151">
        <ele>1265.247</ele>
        <time>2022-07-07T06:09:19Z</time>
      </trkpt>
      <trkpt lat="20.289436" lon="-97.953196">
        <ele>1265.216</ele>
        <time>2022-07-07T06:09:24Z</time>
      </trkpt>
      <trkpt lat="20.289436" lon="-97.95326">
        <ele>1261.876</ele>
        <time>2022-07-07T06:09:29Z</time>
      </trkpt>
      <trkpt lat="20.289454" lon="-97.953311">
        <ele>1262.713</ele>
        <time>2022-07-07T06:09:31Z</time>
      </trkpt>
      <trkpt lat="20.289464" lon="-97.953374">
        <ele>1264.009</ele>
        <time>2022-07-07T06:09:33Z</time>
      </trkpt>
      <trkpt lat="20.289476" lon="-97.953422">
        <ele>1266.132</ele>
        <time>2022-07-07T06:09:35Z</time>
      </trkpt>
      <trkpt lat="20.289489" lon="-97.953477">
        <ele>1265.611</ele>
        <time>2022-07-07T06:09:37Z</time>
      </trkpt>
      <trkpt lat="20.289499" lon="-97.953529">
        <ele>1260.868</ele>
        <time>2022-07-07T06:09:39Z</time>
      </trkpt>
      <trkpt lat="20.289494" lon="-97.953577">
        <ele>1258.883</ele>
        <time>2022-07-07T06:09:41Z</time>
      </trkpt>
      <trkpt lat="20.289432" lon="-97.953584">
        <ele>1260.090</ele>
        <time>2022-07-07T06:09:45Z</time>
      </trkpt>
      <trkpt lat="20.289387" lon="-97.953579">
        <ele>1259.993</ele>
        <time>2022-07-07T06:09:47Z</time>
      </trkpt>
      <trkpt lat="20.28934" lon="-97.953578">
        <ele>1259.338</ele>
        <time>2022-07-07T06:09:49Z</time>
      </trkpt>
      <trkpt lat="20.289284" lon="-97.953567">
        <ele>1256.328</ele>
        <time>2022-07-07T06:09:52Z</time>
      </trkpt>
      <trkpt lat="20.289235" lon="-97.953549">
        <ele>1257.659</ele>
        <time>2022-07-07T06:09:55Z</time>
      </trkpt>
      <trkpt lat="20.289179" lon="-97.953542">
        <ele>1255.469</ele>
        <time>2022-07-07T06:09:58Z</time>
      </trkpt>
      <trkpt lat="20.289135" lon="-97.953516">
        <ele>1254.004</ele>
        <time>2022-07-07T06:10:01Z</time>
      </trkpt>
      <trkpt lat="20.28908" lon="-97.953508">
        <ele>1249.924</ele>
        <time>2022-07-07T06:10:04Z</time>
      </trkpt>
      <trkpt lat="20.289026" lon="-97.953499">
        <ele>1246.109</ele>
        <time>2022-07-07T06:10:07Z</time>
      </trkpt>
      <trkpt lat="20.288977" lon="-97.953492">
        <ele>1243.337</ele>
        <time>2022-07-07T06:10:10Z</time>
      </trkpt>
      <trkpt lat="20.288929" lon="-97.953484">
        <ele>1240.326</ele>
        <time>2022-07-07T06:10:14Z</time>
      </trkpt>
      <trkpt lat="20.288884" lon="-97.953519">
        <ele>1238.623</ele>
        <time>2022-07-07T06:10:18Z</time>
      </trkpt>
      <trkpt lat="20.288866" lon="-97.953572">
        <ele>1242.938</ele>
        <time>2022-07-07T06:10:21Z</time>
      </trkpt>
      <trkpt lat="20.288818" lon="-97.953602">
        <ele>1241.855</ele>
        <time>2022-07-07T06:10:25Z</time>
      </trkpt>
      <trkpt lat="20.288772" lon="-97.953623">
        <ele>1237.628</ele>
        <time>2022-07-07T06:10:28Z</time>
      </trkpt>
      <trkpt lat="20.288723" lon="-97.953667">
        <ele>1239.093</ele>
        <time>2022-07-07T06:10:31Z</time>
      </trkpt>
      <trkpt lat="20.288686" lon="-97.9537">
        <ele>1238.473</ele>
        <time>2022-07-07T06:10:33Z</time>
      </trkpt>
      <trkpt lat="20.288645" lon="-97.953744">
        <ele>1235.064</ele>
        <time>2022-07-07T06:10:35Z</time>
      </trkpt>
      <trkpt lat="20.288607" lon="-97.953777">
        <ele>1234.231</ele>
        <time>2022-07-07T06:10:37Z</time>
      </trkpt>
      <trkpt lat="20.288554" lon="-97.953789">
        <ele>1230.861</ele>
        <time>2022-07-07T06:10:39Z</time>
      </trkpt>
      <trkpt lat="20.288505" lon="-97.95381">
        <ele>1229.907</ele>
        <time>2022-07-07T06:10:41Z</time>
      </trkpt>
      <trkpt lat="20.288451" lon="-97.953844">
        <ele>1224.509</ele>
        <time>2022-07-07T06:10:43Z</time>
      </trkpt>
      <trkpt lat="20.288394" lon="-97.953872">
        <ele>1224.714</ele>
        <time>2022-07-07T06:10:45Z</time>
      </trkpt>
      <trkpt lat="20.288342" lon="-97.953904">
        <ele>1225.163</ele>
        <time>2022-07-07T06:10:47Z</time>
      </trkpt>
      <trkpt lat="20.288295" lon="-97.953948">
        <ele>1223.790</ele>
        <time>2022-07-07T06:10:49Z</time>
      </trkpt>
      <trkpt lat="20.288258" lon="-97.953978">
        <ele>1225.355</ele>
        <time>2022-07-07T06:10:51Z</time>
      </trkpt>
      <trkpt lat="20.288215" lon="-97.95401">
        <ele>1228.822</ele>
        <time>2022-07-07T06:10:54Z</time>
      </trkpt>
      <trkpt lat="20.288171" lon="-97.954044">
        <ele>1228.465</ele>
        <time>2022-07-07T06:10:57Z</time>
      </trkpt>
      <trkpt lat="20.288129" lon="-97.954078">
        <ele>1228.220</ele>
        <time>2022-07-07T06:11:00Z</time>
      </trkpt>
      <trkpt lat="20.288085" lon="-97.954108">
        <ele>1227.010</ele>
        <time>2022-07-07T06:11:03Z</time>
      </trkpt>
      <trkpt lat="20.288038" lon="-97.954131">
        <ele>1227.091</ele>
        <time>2022-07-07T06:11:06Z</time>
      </trkpt>
      <trkpt lat="20.287985" lon="-97.954148">
        <ele>1226.615</ele>
        <time>2022-07-07T06:11:10Z</time>
      </trkpt>
      <trkpt lat="20.287935" lon="-97.954172">
        <ele>1224.965</ele>
        <time>2022-07-07T06:11:15Z</time>
      </trkpt>
      <trkpt lat="20.287887" lon="-97.954197">
        <ele>1224.011</ele>
        <time>2022-07-07T06:11:19Z</time>
      </trkpt>
      <trkpt lat="20.287848" lon="-97.954225">
        <ele>1223.109</ele>
        <time>2022-07-07T06:11:22Z</time>
      </trkpt>
      <trkpt lat="20.287794" lon="-97.954255">
        <ele>1220.042</ele>
        <time>2022-07-07T06:11:26Z</time>
      </trkpt>
      <trkpt lat="20.287741" lon="-97.954267">
        <ele>1219.281</ele>
        <time>2022-07-07T06:11:29Z</time>
      </trkpt>
      <trkpt lat="20.287694" lon="-97.954279">
        <ele>1217.288</ele>
        <time>2022-07-07T06:11:31Z</time>
      </trkpt>
      <trkpt lat="20.28765" lon="-97.954292">
        <ele>1215.123</ele>
        <time>2022-07-07T06:11:33Z</time>
      </trkpt>
      <trkpt lat="20.287589" lon="-97.954324">
        <ele>1213.520</ele>
        <time>2022-07-07T06:11:36Z</time>
      </trkpt>
      <trkpt lat="20.287555" lon="-97.954359">
        <ele>1213.913</ele>
        <time>2022-07-07T06:11:38Z</time>
      </trkpt>
      <trkpt lat="20.287507" lon="-97.954394">
        <ele>1213.268</ele>
        <time>2022-07-07T06:11:41Z</time>
      </trkpt>
      <trkpt lat="20.287458" lon="-97.954414">
        <ele>1213.358</ele>
        <time>2022-07-07T06:11:44Z</time>
      </trkpt>
      <trkpt lat="20.28741" lon="-97.95443">
        <ele>1211.869</ele>
        <time>2022-07-07T06:11:47Z</time>
      </trkpt>
      <trkpt lat="20.287372" lon="-97.954467">
        <ele>1211.198</ele>
        <time>2022-07-07T06:11:50Z</time>
      </trkpt>
      <trkpt lat="20.287325" lon="-97.954505">
        <ele>1211.315</ele>
        <time>2022-07-07T06:11:53Z</time>
      </trkpt>
      <trkpt lat="20.28729" lon="-97.954559">
        <ele>1207.226</ele>
        <time>2022-07-07T06:11:56Z</time>
      </trkpt>
      <trkpt lat="20.287263" lon="-97.954623">
        <ele>1206.909</ele>
        <time>2022-07-07T06:11:59Z</time>
      </trkpt>
      <trkpt lat="20.287252" lon="-97.954684">
        <ele>1205.320</ele>
        <time>2022-07-07T06:12:02Z</time>
      </trkpt>
      <trkpt lat="20.287234" lon="-97.954737">
        <ele>1203.189</ele>
        <time>2022-07-07T06:12:05Z</time>
      </trkpt>
      <trkpt lat="20.287225" lon="-97.954789">
        <ele>1204.166</ele>
        <time>2022-07-07T06:12:08Z</time>
      </trkpt>
      <trkpt lat="20.287233" lon="-97.954849">
        <ele>1202.231</ele>
        <time>2022-07-07T06:12:11Z</time>
      </trkpt>
      <trkpt lat="20.287237" lon="-97.95491">
        <ele>1195.528</ele>
        <time>2022-07-07T06:12:14Z</time>
      </trkpt>
      <trkpt lat="20.287235" lon="-97.954975">
        <ele>1195.031</ele>
        <time>2022-07-07T06:12:17Z</time>
      </trkpt>
      <trkpt lat="20.287225" lon="-97.955034">
        <ele>1191.516</ele>
        <time>2022-07-07T06:12:20Z</time>
      </trkpt>
      <trkpt lat="20.287231" lon="-97.955085">
        <ele>1190.696</ele>
        <time>2022-07-07T06:12:23Z</time>
      </trkpt>
      <trkpt lat="20.287247" lon="-97.955151">
        <ele>1189.037</ele>
        <time>2022-07-07T06:12:26Z</time>
      </trkpt>
      <trkpt lat="20.287263" lon="-97.955198">
        <ele>1188.123</ele>
        <time>2022-07-07T06:12:28Z</time>
      </trkpt>
      <trkpt lat="20.287275" lon="-97.955247">
        <ele>1185.183</ele>
        <time>2022-07-07T06:12:30Z</time>
      </trkpt>
      <trkpt lat="20.287279" lon="-97.955297">
        <ele>1184.311</ele>
        <time>2022-07-07T06:12:32Z</time>
      </trkpt>
      <trkpt lat="20.287262" lon="-97.955352">
        <ele>1178.509</ele>
        <time>2022-07-07T06:12:34Z</time>
      </trkpt>
      <trkpt lat="20.287237" lon="-97.955398">
        <ele>1177.113</ele>
        <time>2022-07-07T06:12:36Z</time>
      </trkpt>
      <trkpt lat="20.287227" lon="-97.955446">
        <ele>1177.592</ele>
        <time>2022-07-07T06:12:38Z</time>
      </trkpt>
      <trkpt lat="20.287239" lon="-97.955497">
        <ele>1174.579</ele>
        <time>2022-07-07T06:12:40Z</time>
      </trkpt>
      <trkpt lat="20.287255" lon="-97.955549">
        <ele>1173.784</ele>
        <time>2022-07-07T06:12:42Z</time>
      </trkpt>
      <trkpt lat="20.28728" lon="-97.955607">
        <ele>1173.631</ele>
        <time>2022-07-07T06:12:44Z</time>
      </trkpt>
      <trkpt lat="20.287296" lon="-97.955668">
        <ele>1174.374</ele>
        <time>2022-07-07T06:12:46Z</time>
      </trkpt>
      <trkpt lat="20.287301" lon="-97.955724">
        <ele>1176.249</ele>
        <time>2022-07-07T06:12:48Z</time>
      </trkpt>
      <trkpt lat="20.287297" lon="-97.955778">
        <ele>1174.749</ele>
        <time>2022-07-07T06:12:50Z</time>
      </trkpt>
      <trkpt lat="20.287289" lon="-97.955829">
        <ele>1174.470</ele>
        <time>2022-07-07T06:12:52Z</time>
      </trkpt>
      <trkpt lat="20.287274" lon="-97.95588">
        <ele>1173.368</ele>
        <time>2022-07-07T06:12:54Z</time>
      </trkpt>
      <trkpt lat="20.287265" lon="-97.955931">
        <ele>1172.942</ele>
        <time>2022-07-07T06:12:56Z</time>
      </trkpt>
      <trkpt lat="20.287262" lon="-97.955981">
        <ele>1173.426</ele>
        <time>2022-07-07T06:12:58Z</time>
      </trkpt>
      <trkpt lat="20.287261" lon="-97.956031">
        <ele>1173.809</ele>
        <time>2022-07-07T06:13:00Z</time>
      </trkpt>
      <trkpt lat="20.287265" lon="-97.95608">
        <ele>1173.827</ele>
        <time>2022-07-07T06:13:02Z</time>
      </trkpt>
      <trkpt lat="20.287269" lon="-97.956128">
        <ele>1173.656</ele>
        <time>2022-07-07T06:13:04Z</time>
      </trkpt>
      <trkpt lat="20.287272" lon="-97.95618">
        <ele>1175.093</ele>
        <time>2022-07-07T06:13:06Z</time>
      </trkpt>
      <trkpt lat="20.287278" lon="-97.956229">
        <ele>1173.298</ele>
        <time>2022-07-07T06:13:08Z</time>
      </trkpt>
      <trkpt lat="20.287283" lon="-97.956278">
        <ele>1173.175</ele>
        <time>2022-07-07T06:13:10Z</time>
      </trkpt>
      <trkpt lat="20.287287" lon="-97.956328">
        <ele>1174.098</ele>
        <time>2022-07-07T06:13:12Z</time>
      </trkpt>
      <trkpt lat="20.287293" lon="-97.956378">
        <ele>1174.253</ele>
        <time>2022-07-07T06:13:14Z</time>
      </trkpt>
      <trkpt lat="20.287303" lon="-97.956444">
        <ele>1173.793</ele>
        <time>2022-07-07T06:13:17Z</time>
      </trkpt>
      <trkpt lat="20.287308" lon="-97.956493">
        <ele>1171.814</ele>
        <time>2022-07-07T06:13:21Z</time>
      </trkpt>
      <trkpt lat="20.287299" lon="-97.956551">
        <ele>1174.792</ele>
        <time>2022-07-07T06:13:25Z</time>
      </trkpt>
      <trkpt lat="20.287284" lon="-97.956609">
        <ele>1177.573</ele>
        <time>2022-07-07T06:13:28Z</time>
      </trkpt>
      <trkpt lat="20.287262" lon="-97.956672">
        <ele>1179.020</ele>
        <time>2022-07-07T06:13:31Z</time>
      </trkpt>
      <trkpt lat="20.287239" lon="-97.956724">
        <ele>1180.409</ele>
        <time>2022-07-07T06:13:34Z</time>
      </trkpt>
      <trkpt lat="20.287207" lon="-97.956764">
        <ele>1180.920</ele>
        <time>2022-07-07T06:13:37Z</time>
      </trkpt>
      <trkpt lat="20.287167" lon="-97.956796">
        <ele>1182.629</ele>
        <time>2022-07-07T06:13:40Z</time>
      </trkpt>
      <trkpt lat="20.287133" lon="-97.956832">
        <ele>1183.856</ele>
        <time>2022-07-07T06:13:43Z</time>
      </trkpt>
      <trkpt lat="20.287096" lon="-97.956861">
        <ele>1184.691</ele>
        <time>2022-07-07T06:13:46Z</time>
      </trkpt>
      <trkpt lat="20.287065" lon="-97.956896">
        <ele>1183.928</ele>
        <time>2022-07-07T06:13:49Z</time>
      </trkpt>
      <trkpt lat="20.287024" lon="-97.956923">
        <ele>1184.141</ele>
        <time>2022-07-07T06:13:52Z</time>
      </trkpt>
      <trkpt lat="20.28698" lon="-97.95695">
        <ele>1184.316</ele>
        <time>2022-07-07T06:13:55Z</time>
      </trkpt>
      <trkpt lat="20.286977" lon="-97.957001">
        <ele>1183.446</ele>
        <time>2022-07-07T06:13:58Z</time>
      </trkpt>
      <trkpt lat="20.286997" lon="-97.957051">
        <ele>1181.797</ele>
        <time>2022-07-07T06:14:01Z</time>
      </trkpt>
      <trkpt lat="20.287025" lon="-97.957098">
        <ele>1180.336</ele>
        <time>2022-07-07T06:14:04Z</time>
      </trkpt>
      <trkpt lat="20.287067" lon="-97.957145">
        <ele>1179.917</ele>
        <time>2022-07-07T06:14:07Z</time>
      </trkpt>
      <trkpt lat="20.287119" lon="-97.957187">
        <ele>1176.918</ele>
        <time>2022-07-07T06:14:10Z</time>
      </trkpt>
      <trkpt lat="20.287175" lon="-97.957227">
        <ele>1175.809</ele>
        <time>2022-07-07T06:14:13Z</time>
      </trkpt>
      <trkpt lat="20.287225" lon="-97.957267">
        <ele>1174.354</ele>
        <time>2022-07-07T06:14:16Z</time>
      </trkpt>
      <trkpt lat="20.287257" lon="-97.957314">
        <ele>1173.383</ele>
        <time>2022-07-07T06:14:20Z</time>
      </trkpt>
      <trkpt lat="20.287289" lon="-97.957359">
        <ele>1172.670</ele>
        <time>2022-07-07T06:14:25Z</time>
      </trkpt>
      <trkpt lat="20.287308" lon="-97.957406">
        <ele>1171.285</ele>
        <time>2022-07-07T06:14:31Z</time>
      </trkpt>
      <trkpt lat="20.287331" lon="-97.95745">
        <ele>1169.952</ele>
        <time>2022-07-07T06:14:36Z</time>
      </trkpt>
      <trkpt lat="20.287357" lon="-97.9575">
        <ele>1170.985</ele>
        <time>2022-07-07T06:14:42Z</time>
      </trkpt>
      <trkpt lat="20.2874" lon="-97.957529">
        <ele>1170.320</ele>
        <time>2022-07-07T06:14:49Z</time>
      </trkpt>
      <trkpt lat="20.287446" lon="-97.957537">
        <ele>1170.220</ele>
        <time>2022-07-07T06:14:55Z</time>
      </trkpt>
      <trkpt lat="20.287492" lon="-97.95752">
        <ele>1172.281</ele>
        <time>2022-07-07T06:15:00Z</time>
      </trkpt>
    </trkseg>
  </trk>
</gpx>
